GFSSE_prec_precacc_027.txt.gz
Total_Precipitation_Accumulation
0.18 0.03 0.02 0.10 0.08 0.00 0.00 0.00 0.00 0.00 0.00 0.00 0.00 0.00 0.00 0.00 0.00 0.00 0.00 0.00 0.00 0.00 0.00 0.00 0.00 0.00 0.00 0.00 0.00 0.00 0.00 0.00 0.00 0.03 0.01 0.02 0.06 0.02 0.01 0.00 0.00 0.00 0.02
0.20 0.05 0.03 0.07 0.11 0.01 0.00 0.00 0.00 0.00 0.00 0.00 0.00 0.00 0.00 0.00 0.00 0.00 0.00 0.00 0.00 0.00 0.00 0.00 0.00 0.00 0.00 0.00 0.00 0.00 0.00 0.00 0.00 0.01 0.00 0.03 0.09 0.01 0.05 0.02 0.01 0.01 0.02
0.26 0.09 0.02 0.12 0.11 0.03 0.00 0.02 0.03 0.01 0.00 0.00 0.00 0.00 0.00 0.00 0.00 0.00 0.00 0.00 0.00 0.00 0.00 0.00 0.00 0.00 0.00 0.00 0.00 0.00 0.00 0.00 0.00 0.00 0.00 0.06 0.02 0.01 0.05 0.04 0.01 0.01 0.01
0.15 0.08 0.01 0.11 0.19 0.14 0.07 0.11 0.13 0.13 0.02 0.00 0.00 0.00 0.00 0.00 0.00 0.00 0.00 0.00 0.00 0.00 0.00 0.00 0.00 0.00 0.00 0.00 0.00 0.00 0.00 0.00 0.00 0.00 0.00 0.00 0.00 0.01 0.06 0.08 0.05 0.01 0.00
0.51 0.25 0.16 0.17 0.21 0.28 0.23 0.22 0.20 0.12 0.03 0.00 0.00 0.00 0.00 0.00 0.00 0.00 0.00 0.00 0.00 0.00 0.00 0.00 0.00 0.00 0.00 0.00 0.00 0.00 0.00 0.00 0.00 0.00 0.00 0.00 0.00 0.02 0.08 0.08 0.01 0.01 0.01
0.92 0.89 0.63 0.53 0.58 0.46 0.44 0.35 0.15 0.05 0.00 0.00 0.00 0.00 0.00 0.00 0.00 0.00 0.00 0.00 0.00 0.00 0.00 0.00 0.00 0.00 0.00 0.00 0.00 0.00 0.00 0.00 0.00 0.00 0.00 0.00 0.00 0.01 0.05 0.06 0.05 0.02 0.01
1.82 1.43 0.95 1.08 1.38 1.09 0.99 0.33 0.10 0.02 0.00 0.00 0.00 0.00 0.00 0.00 0.00 0.00 0.00 0.00 0.00 0.00 0.00 0.00 0.00 0.00 0.00 0.00 0.00 0.00 0.00 0.00 0.00 0.00 0.00 0.00 0.00 0.00 0.00 0.02 0.02 0.00 0.00
3.02 1.88 1.98 1.91 1.74 2.32 1.18 0.18 0.02 0.01 0.00 0.00 0.00 0.00 0.00 0.00 0.00 0.00 0.00 0.00 0.00 0.00 0.00 0.00 0.00 0.00 0.00 0.00 0.00 0.00 0.00 0.00 0.00 0.00 0.00 0.00 0.00 0.00 0.00 0.00 0.01 0.00 0.00
4.01 4.32 4.77 4.12 3.35 2.32 0.78 0.09 0.00 0.00 0.00 0.00 0.00 0.00 0.00 0.00 0.00 0.00 0.00 0.00 0.00 0.00 0.00 0.00 0.00 0.00 0.00 0.00 0.00 0.00 0.00 0.00 0.00 0.00 0.00 0.00 0.00 0.00 0.00 0.00 0.02 0.02 0.01
3.12 3.96 3.70 3.69 4.36 1.86 0.33 0.02 0.00 0.00 0.00 0.00 0.00 0.00 0.00 0.00 0.00 0.00 0.00 0.00 0.00 0.00 0.00 0.00 0.00 0.00 0.00 0.00 0.00 0.00 0.00 0.00 0.00 0.00 0.00 0.00 0.00 0.00 0.00 0.00 0.00 0.00 0.01
1.36 1.77 2.43 1.58 1.73 1.15 0.28 0.02 0.00 0.00 0.00 0.00 0.00 0.00 0.00 0.00 0.00 0.00 0.00 0.00 0.00 0.00 0.00 0.00 0.00 0.00 0.00 0.00 0.00 0.00 0.00 0.00 0.00 0.00 0.00 0.00 0.00 0.00 0.00 0.00 0.00 0.00 0.00
0.45 0.65 0.58 0.50 0.50 0.39 0.15 0.03 0.00 0.00 0.00 0.00 0.00 0.00 0.00 0.00 0.00 0.00 0.00 0.00 0.00 0.00 0.00 0.00 0.00 0.00 0.00 0.00 0.00 0.00 0.00 0.00 0.00 0.00 0.00 0.00 0.00 0.00 0.00 0.00 0.00 0.00 0.01
0.32 0.20 0.16 0.22 0.19 0.13 0.12 0.05 0.00 0.00 0.00 0.00 0.00 0.00 0.00 0.01 0.00 0.00 0.00 0.01 0.02 0.00 0.00 0.00 0.00 0.00 0.00 0.00 0.00 0.00 0.00 0.00 0.00 0.00 0.00 0.00 0.00 0.00 0.00 0.01 0.00 0.00 0.00
0.04 0.04 0.04 0.05 0.05 0.04 0.06 0.02 0.00 0.00 0.00 0.00 0.00 0.00 0.04 0.04 0.03 0.00 0.00 0.01 0.00 0.00 0.00 0.00 0.00 0.00 0.00 0.00 0.00 0.00 0.00 0.00 0.00 0.00 0.00 0.00 0.00 0.00 0.00 0.01 0.01 0.00 0.00
0.01 0.01 0.01 0.01 0.00 0.03 0.02 0.00 0.00 0.02 0.07 0.10 0.12 0.16 0.10 0.05 0.04 0.00 0.00 0.00 0.00 0.00 0.00 0.00 0.00 0.00 0.00 0.00 0.00 0.00 0.00 0.00 0.00 0.00 0.00 0.00 0.00 0.00 0.00 0.01 0.00 0.00 0.00
0.00 0.00 0.00 0.00 0.00 0.02 0.00 0.00 0.01 0.09 0.17 0.24 0.26 0.33 0.25 0.16 0.10 0.04 0.01 0.00 0.00 0.00 0.00 0.00 0.00 0.00 0.00 0.00 0.00 0.00 0.00 0.00 0.00 0.00 0.00 0.00 0.00 0.00 0.00 0.00 0.00 0.00 0.00
0.00 0.00 0.00 0.00 0.00 0.00 0.00 0.00 0.05 0.07 0.06 0.10 0.16 0.26 0.25 0.20 0.10 0.01 0.00 0.00 0.00 0.00 0.00 0.00 0.00 0.00 0.00 0.00 0.00 0.00 0.00 0.00 0.00 0.00 0.00 0.00 0.00 0.00 0.00 0.00 0.00 0.00 0.00
0.00 0.00 0.00 0.00 0.00 0.01 0.02 0.03 0.13 0.09 0.04 0.05 0.13 0.09 0.05 0.04 0.01 0.00 0.00 0.00 0.00 0.00 0.00 0.00 0.00 0.00 0.00 0.00 0.00 0.00 0.00 0.00 0.00 0.00 0.00 0.00 0.00 0.00 0.00 0.00 0.00 0.00 0.00
0.00 0.00 0.01 0.05 0.03 0.03 0.09 0.09 0.05 0.07 0.02 0.02 0.03 0.01 0.00 0.00 0.00 0.00 0.00 0.00 0.00 0.00 0.00 0.00 0.00 0.00 0.00 0.00 0.00 0.00 0.00 0.00 0.00 0.00 0.00 0.00 0.00 0.00 0.00 0.00 0.00 0.00 0.00
0.02 0.00 0.03 0.08 0.05 0.06 0.02 0.01 0.03 0.01 0.00 0.03 0.02 0.00 0.00 0.00 0.00 0.00 0.00 0.00 0.00 0.00 0.00 0.00 0.00 0.00 0.00 0.00 0.00 0.00 0.00 0.00 0.00 0.00 0.00 0.00 0.00 0.00 0.00 0.00 0.00 0.00 0.00
0.06 0.02 0.05 0.03 0.01 0.00 0.00 0.01 0.04 0.03 0.03 0.03 0.01 0.00 0.00 0.00 0.00 0.00 0.00 0.00 0.00 0.00 0.00 0.00 0.00 0.00 0.00 0.00 0.00 0.00 0.00 0.00 0.00 0.00 0.00 0.00 0.00 0.00 0.00 0.00 0.00 0.00 0.00
0.04 0.03 0.00 0.00 0.00 0.01 0.01 0.00 0.01 0.02 0.04 0.05 0.02 0.00 0.00 0.00 0.00 0.00 0.00 0.00 0.00 0.00 0.00 0.00 0.00 0.00 0.00 0.00 0.00 0.00 0.00 0.00 0.00 0.00 0.00 0.00 0.00 0.00 0.00 0.00 0.00 0.00 0.00
0.01 0.01 0.01 0.01 0.01 0.00 0.00 0.00 0.00 0.07 0.04 0.01 0.01 0.00 0.00 0.00 0.00 0.00 0.00 0.00 0.00 0.00 0.00 0.00 0.00 0.00 0.00 0.00 0.00 0.00 0.00 0.00 0.00 0.00 0.00 0.00 0.00 0.00 0.00 0.00 0.00 0.00 0.00
0.03 0.03 0.05 0.03 0.03 0.00 0.00 0.00 0.00 0.05 0.02 0.00 0.00 0.00 0.00 0.00 0.00 0.00 0.00 0.00 0.00 0.00 0.00 0.00 0.00 0.00 0.00 0.00 0.00 0.00 0.00 0.00 0.00 0.00 0.00 0.00 0.00 0.00 0.00 0.00 0.00 0.00 0.00
0.04 0.04 0.02 0.02 0.04 0.02 0.01 0.01 0.02 0.05 0.04 0.01 0.00 0.00 0.00 0.00 0.00 0.00 0.00 0.00 0.00 0.00 0.00 0.00 0.00 0.00 0.00 0.00 0.00 0.00 0.00 0.00 0.00 0.00 0.00 0.00 0.00 0.00 0.00 0.00 0.00 0.00 0.00
0.05 0.05 0.06 0.04 0.04 0.07 0.08 0.07 0.04 0.05 0.04 0.02 0.01 0.01 0.00 0.00 0.00 0.00 0.00 0.00 0.00 0.00 0.00 0.01 0.01 0.00 0.00 0.00 0.00 0.00 0.00 0.00 0.00 0.00 0.00 0.00 0.00 0.00 0.00 0.00 0.00 0.00 0.00

GFSSE_prec_precacc_030.txt.gz
Total_Precipitation_Accumulation
0.19 0.07 0.03 0.10 0.09 0.00 0.00 0.00 0.00 0.00 0.00 0.00 0.00 0.00 0.00 0.00 0.00 0.00 0.00 0.00 0.00 0.00 0.00 0.00 0.00 0.00 0.00 0.00 0.00 0.00 0.00 0.00 0.00 0.03 0.01 0.02 0.06 0.02 0.01 0.00 0.00 0.00 0.02
0.21 0.11 0.03 0.07 0.12 0.01 0.00 0.00 0.00 0.00 0.00 0.00 0.00 0.00 0.00 0.00 0.00 0.00 0.00 0.00 0.00 0.00 0.00 0.00 0.00 0.00 0.00 0.00 0.00 0.00 0.00 0.00 0.00 0.01 0.00 0.03 0.09 0.01 0.05 0.02 0.01 0.01 0.02
0.28 0.13 0.04 0.12 0.11 0.03 0.00 0.02 0.03 0.01 0.00 0.00 0.00 0.00 0.00 0.00 0.00 0.00 0.00 0.00 0.00 0.00 0.00 0.00 0.00 0.00 0.00 0.00 0.00 0.00 0.00 0.00 0.00 0.00 0.00 0.06 0.02 0.01 0.05 0.04 0.01 0.01 0.01
0.17 0.12 0.07 0.11 0.19 0.14 0.07 0.11 0.13 0.13 0.02 0.00 0.00 0.00 0.00 0.00 0.00 0.00 0.00 0.00 0.00 0.00 0.00 0.00 0.00 0.00 0.00 0.00 0.00 0.00 0.00 0.00 0.00 0.00 0.00 0.00 0.00 0.01 0.06 0.08 0.05 0.01 0.00
0.53 0.32 0.19 0.17 0.21 0.28 0.23 0.22 0.20 0.12 0.03 0.00 0.00 0.00 0.00 0.00 0.00 0.00 0.00 0.00 0.00 0.00 0.00 0.00 0.00 0.00 0.00 0.00 0.00 0.00 0.00 0.00 0.00 0.00 0.00 0.00 0.00 0.02 0.08 0.08 0.01 0.01 0.01
0.97 0.91 0.65 0.57 0.60 0.46 0.44 0.35 0.15 0.05 0.00 0.00 0.00 0.00 0.00 0.00 0.00 0.00 0.00 0.00 0.00 0.00 0.00 0.00 0.00 0.00 0.00 0.00 0.00 0.00 0.00 0.00 0.00 0.00 0.00 0.00 0.00 0.01 0.05 0.06 0.06 0.02 0.01
1.88 1.53 1.03 1.16 1.47 1.12 1.00 0.33 0.10 0.02 0.00 0.00 0.00 0.00 0.00 0.00 0.00 0.00 0.00 0.00 0.00 0.00 0.00 0.00 0.00 0.00 0.00 0.00 0.00 0.00 0.00 0.00 0.00 0.00 0.00 0.00 0.00 0.00 0.00 0.02 0.02 0.00 0.01
3.17 2.05 2.14 1.97 1.82 2.42 1.25 0.18 0.02 0.01 0.00 0.00 0.00 0.00 0.00 0.00 0.00 0.00 0.00 0.00 0.00 0.00 0.00 0.00 0.00 0.00 0.00 0.00 0.00 0.00 0.00 0.00 0.00 0.00 0.00 0.00 0.00 0.00 0.00 0.00 0.01 0.00 0.00
4.22 4.60 4.95 4.25 3.46 2.40 0.87 0.09 0.00 0.00 0.00 0.00 0.00 0.00 0.00 0.00 0.00 0.00 0.00 0.00 0.00 0.00 0.00 0.00 0.00 0.00 0.00 0.00 0.00 0.00 0.00 0.00 0.00 0.00 0.00 0.00 0.00 0.00 0.00 0.00 0.02 0.02 0.01
3.38 4.28 3.93 3.87 4.48 1.95 0.37 0.04 0.00 0.00 0.00 0.00 0.00 0.00 0.00 0.00 0.00 0.00 0.00 0.00 0.00 0.00 0.00 0.00 0.00 0.00 0.00 0.00 0.00 0.00 0.00 0.00 0.00 0.00 0.00 0.00 0.00 0.00 0.00 0.00 0.00 0.00 0.01
1.58 2.17 2.90 2.29 2.20 1.29 0.33 0.06 0.01 0.00 0.00 0.00 0.00 0.00 0.00 0.00 0.00 0.00 0.00 0.00 0.00 0.00 0.00 0.00 0.00 0.00 0.00 0.00 0.00 0.00 0.00 0.00 0.00 0.00 0.00 0.00 0.00 0.00 0.00 0.00 0.00 0.00 0.00
0.56 0.84 0.80 0.95 0.99 0.67 0.30 0.09 0.00 0.00 0.00 0.00 0.00 0.00 0.00 0.00 0.00 0.00 0.00 0.00 0.00 0.00 0.00 0.00 0.00 0.00 0.00 0.00 0.00 0.00 0.00 0.00 0.00 0.00 0.00 0.00 0.00 0.00 0.00 0.00 0.00 0.00 0.01
0.34 0.24 0.21 0.28 0.24 0.14 0.13 0.06 0.01 0.00 0.00 0.00 0.00 0.00 0.00 0.01 0.00 0.00 0.00 0.01 0.02 0.00 0.00 0.00 0.00 0.00 0.00 0.00 0.00 0.00 0.00 0.00 0.00 0.00 0.00 0.00 0.00 0.00 0.01 0.01 0.00 0.00 0.00
0.08 0.06 0.06 0.05 0.06 0.05 0.07 0.04 0.01 0.00 0.00 0.00 0.00 0.00 0.04 0.04 0.03 0.00 0.00 0.01 0.00 0.00 0.00 0.00 0.00 0.00 0.00 0.00 0.00 0.00 0.00 0.00 0.00 0.00 0.00 0.00 0.00 0.00 0.01 0.02 0.01 0.00 0.00
0.05 0.03 0.02 0.01 0.00 0.04 0.02 0.01 0.00 0.02 0.07 0.10 0.12 0.16 0.10 0.05 0.04 0.00 0.00 0.00 0.00 0.00 0.00 0.00 0.00 0.00 0.00 0.00 0.00 0.00 0.00 0.00 0.00 0.00 0.00 0.00 0.00 0.00 0.01 0.02 0.01 0.00 0.00
0.02 0.01 0.01 0.00 0.01 0.04 0.03 0.00 0.01 0.09 0.17 0.24 0.26 0.33 0.25 0.16 0.10 0.04 0.01 0.00 0.00 0.00 0.00 0.00 0.00 0.00 0.00 0.00 0.00 0.00 0.00 0.00 0.00 0.00 0.00 0.00 0.00 0.00 0.00 0.00 0.00 0.00 0.00
0.00 0.00 0.00 0.00 0.01 0.03 0.03 0.00 0.05 0.07 0.06 0.10 0.16 0.26 0.25 0.20 0.10 0.01 0.00 0.00 0.00 0.00 0.00 0.00 0.00 0.00 0.00 0.00 0.00 0.00 0.00 0.00 0.00 0.00 0.00 0.00 0.00 0.00 0.00 0.00 0.00 0.00 0.00
0.00 0.00 0.00 0.00 0.03 0.05 0.05 0.03 0.13 0.09 0.04 0.05 0.14 0.11 0.06 0.04 0.01 0.00 0.00 0.00 0.00 0.00 0.00 0.00 0.00 0.00 0.00 0.00 0.00 0.00 0.00 0.00 0.00 0.00 0.00 0.00 0.00 0.00 0.00 0.00 0.00 0.00 0.00
0.00 0.00 0.01 0.05 0.03 0.05 0.11 0.09 0.05 0.07 0.03 0.04 0.04 0.02 0.01 0.00 0.00 0.00 0.00 0.00 0.00 0.00 0.00 0.00 0.00 0.00 0.00 0.00 0.00 0.00 0.00 0.00 0.00 0.00 0.00 0.00 0.00 0.00 0.00 0.00 0.00 0.00 0.00
0.02 0.00 0.03 0.08 0.05 0.07 0.03 0.01 0.03 0.01 0.02 0.04 0.03 0.00 0.00 0.00 0.00 0.00 0.00 0.00 0.00 0.00 0.00 0.00 0.00 0.00 0.00 0.00 0.00 0.00 0.00 0.00 0.00 0.00 0.00 0.00 0.00 0.00 0.00 0.00 0.00 0.00 0.00
0.06 0.02 0.05 0.03 0.01 0.00 0.00 0.01 0.04 0.03 0.03 0.04 0.03 0.00 0.00 0.00 0.00 0.00 0.00 0.00 0.00 0.00 0.00 0.00 0.00 0.00 0.00 0.00 0.00 0.00 0.00 0.00 0.00 0.00 0.00 0.00 0.00 0.00 0.00 0.00 0.00 0.00 0.00
0.04 0.03 0.00 0.00 0.00 0.01 0.01 0.00 0.01 0.02 0.04 0.07 0.05 0.02 0.01 0.00 0.00 0.00 0.00 0.00 0.00 0.00 0.00 0.00 0.00 0.00 0.00 0.00 0.00 0.00 0.00 0.00 0.00 0.00 0.00 0.00 0.00 0.00 0.00 0.00 0.00 0.00 0.00
0.01 0.01 0.01 0.01 0.01 0.00 0.00 0.00 0.00 0.07 0.05 0.06 0.11 0.06 0.01 0.00 0.00 0.00 0.00 0.00 0.00 0.00 0.00 0.00 0.00 0.00 0.00 0.00 0.00 0.00 0.00 0.00 0.00 0.00 0.00 0.00 0.00 0.00 0.00 0.00 0.00 0.00 0.00
0.03 0.03 0.05 0.03 0.03 0.00 0.00 0.00 0.00 0.05 0.05 0.09 0.09 0.03 0.00 0.00 0.00 0.00 0.00 0.00 0.00 0.00 0.00 0.00 0.00 0.00 0.00 0.00 0.00 0.00 0.00 0.00 0.00 0.00 0.00 0.00 0.00 0.00 0.00 0.00 0.00 0.00 0.00
0.04 0.04 0.02 0.02 0.04 0.02 0.01 0.01 0.02 0.05 0.07 0.05 0.02 0.01 0.00 0.00 0.00 0.00 0.00 0.00 0.00 0.00 0.00 0.00 0.00 0.01 0.00 0.00 0.00 0.00 0.00 0.00 0.00 0.00 0.00 0.00 0.00 0.00 0.00 0.00 0.00 0.00 0.00
0.05 0.05 0.06 0.04 0.04 0.07 0.08 0.07 0.04 0.06 0.06 0.03 0.02 0.02 0.01 0.01 0.01 0.00 0.00 0.00 0.00 0.00 0.00 0.01 0.01 0.00 0.00 0.00 0.00 0.00 0.00 0.00 0.00 0.00 0.00 0.00 0.00 0.00 0.00 0.00 0.00 0.00 0.00

GFSSE_prec_precacc_033.txt.gz
Total_Precipitation_Accumulation
0.20 0.07 0.03 0.11 0.10 0.00 0.00 0.00 0.00 0.00 0.00 0.00 0.00 0.00 0.00 0.00 0.00 0.00 0.00 0.00 0.00 0.00 0.00 0.00 0.00 0.00 0.00 0.00 0.00 0.00 0.00 0.00 0.00 0.03 0.01 0.02 0.06 0.02 0.01 0.00 0.00 0.00 0.02
0.21 0.12 0.04 0.08 0.12 0.01 0.00 0.00 0.00 0.00 0.00 0.00 0.00 0.00 0.00 0.00 0.00 0.00 0.00 0.00 0.00 0.00 0.00 0.00 0.00 0.00 0.00 0.00 0.00 0.00 0.00 0.00 0.00 0.01 0.00 0.03 0.09 0.01 0.05 0.02 0.01 0.01 0.02
0.32 0.16 0.05 0.13 0.12 0.03 0.00 0.02 0.03 0.01 0.00 0.00 0.00 0.00 0.00 0.00 0.00 0.00 0.00 0.00 0.00 0.00 0.00 0.00 0.00 0.00 0.00 0.00 0.00 0.00 0.00 0.00 0.00 0.00 0.00 0.06 0.02 0.01 0.05 0.04 0.01 0.01 0.01
0.27 0.18 0.09 0.12 0.20 0.14 0.07 0.11 0.13 0.13 0.02 0.00 0.00 0.00 0.00 0.00 0.00 0.00 0.00 0.00 0.00 0.00 0.00 0.00 0.00 0.00 0.00 0.00 0.00 0.00 0.00 0.00 0.00 0.00 0.00 0.00 0.00 0.01 0.06 0.08 0.05 0.01 0.00
0.59 0.41 0.22 0.18 0.21 0.28 0.23 0.22 0.20 0.12 0.03 0.00 0.00 0.00 0.00 0.00 0.00 0.00 0.00 0.00 0.00 0.00 0.00 0.00 0.00 0.00 0.00 0.00 0.00 0.00 0.00 0.00 0.00 0.00 0.00 0.00 0.00 0.02 0.08 0.08 0.01 0.01 0.01
1.04 0.98 0.66 0.57 0.60 0.46 0.44 0.35 0.15 0.05 0.00 0.00 0.00 0.00 0.00 0.00 0.00 0.00 0.00 0.00 0.00 0.00 0.00 0.00 0.00 0.00 0.00 0.00 0.00 0.00 0.00 0.00 0.00 0.00 0.00 0.00 0.00 0.01 0.06 0.06 0.06 0.02 0.02
1.95 1.60 1.03 1.19 1.48 1.12 1.00 0.33 0.10 0.02 0.00 0.00 0.00 0.00 0.00 0.00 0.00 0.00 0.00 0.00 0.00 0.00 0.00 0.00 0.00 0.00 0.00 0.00 0.00 0.00 0.00 0.00 0.00 0.00 0.00 0.00 0.00 0.00 0.00 0.02 0.02 0.00 0.01
3.42 2.22 2.20 2.02 1.86 2.43 1.25 0.18 0.02 0.01 0.00 0.00 0.00 0.00 0.00 0.00 0.00 0.00 0.00 0.00 0.00 0.00 0.00 0.00 0.00 0.00 0.00 0.00 0.00 0.00 0.00 0.00 0.00 0.00 0.00 0.00 0.00 0.00 0.00 0.00 0.01 0.00 0.00
4.68 4.88 5.06 4.35 3.55 2.43 0.87 0.09 0.00 0.00 0.00 0.00 0.00 0.00 0.00 0.00 0.00 0.00 0.00 0.00 0.00 0.00 0.00 0.00 0.00 0.00 0.00 0.00 0.00 0.00 0.00 0.00 0.00 0.00 0.00 0.00 0.00 0.00 0.00 0.00 0.02 0.02 0.01
3.67 4.45 4.11 4.02 4.62 2.00 0.38 0.04 0.00 0.00 0.00 0.00 0.00 0.00 0.00 0.00 0.00 0.00 0.00 0.00 0.00 0.00 0.00 0.00 0.00 0.00 0.00 0.00 0.00 0.00 0.00 0.00 0.00 0.00 0.00 0.00 0.00 0.00 0.00 0.00 0.00 0.00 0.01
1.80 2.33 3.05 2.44 2.34 1.32 0.35 0.10 0.04 0.03 0.02 0.00 0.00 0.00 0.00 0.00 0.00 0.00 0.00 0.00 0.00 0.00 0.00 0.00 0.00 0.00 0.00 0.00 0.00 0.00 0.00 0.00 0.00 0.00 0.00 0.00 0.00 0.00 0.00 0.00 0.00 0.00 0.00
0.75 0.99 0.91 1.21 1.30 0.82 0.39 0.19 0.09 0.05 0.03 0.00 0.00 0.00 0.00 0.00 0.00 0.00 0.00 0.00 0.00 0.00 0.00 0.00 0.00 0.00 0.00 0.00 0.00 0.00 0.00 0.00 0.00 0.00 0.00 0.00 0.00 0.01 0.01 0.00 0.00 0.00 0.01
0.49 0.40 0.42 0.38 0.41 0.32 0.29 0.25 0.17 0.09 0.05 0.00 0.00 0.00 0.00 0.01 0.00 0.00 0.00 0.01 0.02 0.00 0.00 0.00 0.00 0.00 0.00 0.00 0.00 0.00 0.00 0.00 0.00 0.00 0.00 0.00 0.00 0.00 0.01 0.01 0.00 0.00 0.00
0.13 0.09 0.12 0.13 0.09 0.09 0.10 0.10 0.06 0.06 0.02 0.00 0.00 0.00 0.04 0.04 0.03 0.00 0.00 0.01 0.00 0.00 0.00 0.00 0.00 0.00 0.00 0.00 0.00 0.00 0.00 0.00 0.00 0.00 0.00 0.00 0.00 0.00 0.02 0.02 0.01 0.00 0.00
0.09 0.10 0.04 0.03 0.03 0.05 0.04 0.02 0.00 0.02 0.07 0.10 0.12 0.16 0.10 0.05 0.04 0.00 0.00 0.00 0.00 0.00 0.00 0.00 0.00 0.00 0.00 0.00 0.00 0.00 0.00 0.00 0.00 0.00 0.00 0.00 0.00 0.00 0.02 0.03 0.01 0.00 0.00
0.06 0.07 0.09 0.04 0.02 0.05 0.03 0.00 0.01 0.09 0.17 0.24 0.26 0.33 0.25 0.16 0.10 0.04 0.01 0.00 0.00 0.00 0.00 0.00 0.00 0.00 0.00 0.00 0.00 0.00 0.00 0.00 0.00 0.00 0.00 0.00 0.00 0.00 0.00 0.00 0.00 0.00 0.00
0.01 0.01 0.01 0.01 0.02 0.03 0.03 0.01 0.05 0.07 0.06 0.10 0.16 0.27 0.25 0.20 0.10 0.01 0.00 0.00 0.00 0.00 0.00 0.00 0.00 0.00 0.00 0.00 0.00 0.00 0.00 0.00 0.00 0.00 0.00 0.00 0.00 0.00 0.00 0.00 0.00 0.00 0.00
0.00 0.00 0.00 0.01 0.04 0.06 0.06 0.04 0.13 0.09 0.04 0.05 0.15 0.13 0.06 0.04 0.01 0.00 0.00 0.00 0.00 0.00 0.00 0.00 0.00 0.00 0.00 0.00 0.00 0.00 0.00 0.00 0.00 0.00 0.00 0.00 0.00 0.00 0.00 0.00 0.00 0.00 0.00
0.00 0.00 0.01 0.07 0.08 0.11 0.15 0.10 0.05 0.07 0.03 0.04 0.07 0.07 0.03 0.00 0.00 0.00 0.00 0.00 0.00 0.00 0.00 0.00 0.00 0.00 0.00 0.00 0.00 0.00 0.00 0.00 0.00 0.00 0.00 0.00 0.00 0.00 0.00 0.00 0.00 0.00 0.00
0.02 0.00 0.03 0.09 0.07 0.11 0.09 0.02 0.03 0.01 0.02 0.07 0.09 0.03 0.00 0.00 0.00 0.00 0.00 0.00 0.00 0.00 0.00 0.00 0.00 0.00 0.00 0.00 0.00 0.00 0.00 0.00 0.00 0.00 0.00 0.00 0.00 0.00 0.00 0.00 0.00 0.00 0.00
0.06 0.02 0.05 0.03 0.01 0.02 0.02 0.01 0.04 0.03 0.03 0.08 0.11 0.02 0.00 0.00 0.00 0.00 0.00 0.00 0.00 0.00 0.00 0.00 0.00 0.00 0.00 0.00 0.00 0.00 0.00 0.00 0.00 0.00 0.00 0.00 0.00 0.00 0.00 0.00 0.00 0.00 0.00
0.04 0.03 0.00 0.00 0.00 0.01 0.01 0.00 0.01 0.02 0.04 0.10 0.14 0.05 0.01 0.01 0.00 0.00 0.00 0.00 0.00 0.00 0.00 0.00 0.00 0.00 0.00 0.00 0.00 0.00 0.00 0.00 0.00 0.00 0.00 0.00 0.00 0.00 0.00 0.00 0.00 0.00 0.00
0.01 0.01 0.01 0.01 0.01 0.00 0.00 0.00 0.00 0.07 0.05 0.07 0.12 0.07 0.03 0.01 0.00 0.00 0.00 0.00 0.00 0.00 0.00 0.00 0.00 0.00 0.00 0.00 0.00 0.00 0.00 0.00 0.00 0.00 0.00 0.00 0.00 0.00 0.00 0.00 0.00 0.00 0.00
0.03 0.03 0.05 0.03 0.03 0.00 0.00 0.00 0.00 0.05 0.05 0.09 0.10 0.04 0.00 0.00 0.00 0.00 0.00 0.00 0.00 0.00 0.00 0.00 0.00 0.00 0.00 0.00 0.00 0.00 0.00 0.00 0.00 0.00 0.00 0.00 0.00 0.00 0.00 0.00 0.00 0.00 0.00
0.04 0.04 0.02 0.02 0.04 0.02 0.01 0.01 0.02 0.05 0.07 0.05 0.02 0.01 0.00 0.00 0.00 0.00 0.00 0.00 0.00 0.00 0.00 0.00 0.00 0.01 0.00 0.00 0.00 0.00 0.00 0.00 0.00 0.00 0.00 0.00 0.00 0.00 0.00 0.00 0.00 0.00 0.00
0.05 0.05 0.06 0.04 0.04 0.07 0.08 0.07 0.04 0.06 0.06 0.03 0.03 0.02 0.01 0.01 0.02 0.02 0.01 0.00 0.00 0.00 0.00 0.01 0.01 0.00 0.00 0.01 0.00 0.00 0.00 0.00 0.00 0.00 0.00 0.00 0.00 0.00 0.00 0.00 0.00 0.00 0.00

GFSSE_prec_precacc_036.txt.gz
Total_Precipitation_Accumulation
0.20 0.07 0.04 0.12 0.10 0.00 0.00 0.00 0.00 0.00 0.00 0.00 0.00 0.00 0.00 0.00 0.00 0.00 0.00 0.00 0.00 0.00 0.00 0.00 0.00 0.00 0.00 0.00 0.00 0.00 0.00 0.00 0.00 0.03 0.01 0.02 0.06 0.02 0.01 0.00 0.00 0.00 0.02
0.23 0.12 0.05 0.09 0.13 0.02 0.00 0.00 0.00 0.00 0.00 0.00 0.00 0.00 0.00 0.00 0.00 0.00 0.00 0.00 0.00 0.00 0.00 0.00 0.00 0.00 0.00 0.00 0.00 0.00 0.00 0.00 0.00 0.01 0.00 0.03 0.09 0.01 0.05 0.02 0.01 0.01 0.02
0.39 0.16 0.05 0.14 0.13 0.03 0.00 0.02 0.03 0.01 0.00 0.00 0.00 0.00 0.00 0.00 0.00 0.00 0.00 0.00 0.00 0.00 0.00 0.00 0.00 0.00 0.00 0.00 0.00 0.00 0.00 0.00 0.00 0.00 0.00 0.06 0.02 0.01 0.05 0.04 0.02 0.01 0.01
0.29 0.20 0.11 0.13 0.20 0.14 0.07 0.11 0.13 0.13 0.02 0.00 0.00 0.00 0.00 0.00 0.00 0.00 0.00 0.00 0.00 0.00 0.00 0.00 0.00 0.00 0.00 0.00 0.00 0.00 0.00 0.00 0.00 0.00 0.00 0.00 0.00 0.01 0.07 0.08 0.05 0.01 0.00
0.61 0.46 0.27 0.18 0.21 0.28 0.23 0.22 0.20 0.12 0.03 0.00 0.00 0.00 0.00 0.00 0.00 0.00 0.00 0.00 0.00 0.00 0.00 0.00 0.00 0.00 0.00 0.00 0.00 0.00 0.00 0.00 0.00 0.00 0.00 0.00 0.00 0.02 0.08 0.08 0.01 0.02 0.01
1.33 1.09 0.69 0.58 0.61 0.46 0.44 0.35 0.15 0.05 0.00 0.00 0.00 0.00 0.00 0.00 0.00 0.00 0.00 0.00 0.00 0.00 0.00 0.00 0.00 0.00 0.00 0.00 0.00 0.00 0.00 0.00 0.00 0.00 0.00 0.00 0.00 0.01 0.06 0.06 0.06 0.03 0.02
2.83 1.71 1.07 1.19 1.50 1.12 1.00 0.33 0.10 0.02 0.00 0.00 0.00 0.00 0.00 0.00 0.00 0.00 0.00 0.00 0.00 0.00 0.00 0.00 0.00 0.00 0.00 0.00 0.00 0.00 0.00 0.00 0.00 0.00 0.00 0.00 0.00 0.00 0.00 0.02 0.02 0.00 0.01
5.13 2.72 2.38 2.10 1.90 2.45 1.28 0.18 0.02 0.01 0.00 0.00 0.00 0.00 0.00 0.00 0.00 0.00 0.00 0.00 0.00 0.00 0.00 0.00 0.00 0.00 0.00 0.00 0.00 0.00 0.00 0.00 0.00 0.00 0.00 0.00 0.00 0.00 0.00 0.00 0.01 0.00 0.00
6.05 5.94 5.29 4.51 3.63 2.44 0.88 0.09 0.00 0.00 0.00 0.00 0.00 0.00 0.00 0.00 0.00 0.00 0.00 0.00 0.00 0.00 0.00 0.00 0.00 0.00 0.00 0.00 0.00 0.00 0.00 0.00 0.00 0.00 0.00 0.00 0.00 0.00 0.00 0.00 0.02 0.02 0.01
4.41 5.15 4.30 4.18 4.73 2.01 0.39 0.05 0.01 0.00 0.00 0.00 0.00 0.00 0.00 0.00 0.00 0.00 0.00 0.00 0.00 0.00 0.00 0.00 0.00 0.00 0.00 0.00 0.00 0.00 0.00 0.00 0.00 0.00 0.00 0.00 0.00 0.00 0.00 0.00 0.00 0.00 0.01
2.15 2.64 3.26 2.56 2.45 1.36 0.38 0.12 0.06 0.05 0.02 0.00 0.00 0.00 0.00 0.00 0.00 0.00 0.00 0.00 0.00 0.00 0.00 0.00 0.00 0.00 0.00 0.00 0.00 0.00 0.00 0.00 0.00 0.00 0.00 0.00 0.00 0.00 0.00 0.00 0.00 0.00 0.00
1.05 1.22 1.07 1.34 1.38 0.86 0.42 0.21 0.14 0.08 0.03 0.00 0.00 0.00 0.00 0.00 0.00 0.00 0.00 0.00 0.00 0.00 0.00 0.00 0.00 0.00 0.00 0.00 0.00 0.00 0.00 0.00 0.00 0.00 0.00 0.00 0.00 0.01 0.01 0.00 0.00 0.00 0.01
0.60 0.49 0.45 0.42 0.43 0.37 0.32 0.27 0.23 0.13 0.07 0.01 0.00 0.00 0.00 0.01 0.00 0.00 0.00 0.01 0.02 0.00 0.00 0.00 0.00 0.00 0.00 0.00 0.00 0.00 0.00 0.00 0.00 0.00 0.00 0.00 0.00 0.00 0.01 0.01 0.00 0.00 0.00
0.22 0.20 0.19 0.18 0.16 0.13 0.12 0.13 0.13 0.12 0.11 0.04 0.00 0.00 0.04 0.04 0.03 0.00 0.00 0.01 0.00 0.00 0.00 0.00 0.00 0.00 0.00 0.00 0.00 0.00 0.00 0.00 0.00 0.00 0.00 0.00 0.00 0.00 0.03 0.02 0.01 0.00 0.00
0.11 0.15 0.07 0.06 0.07 0.10 0.07 0.06 0.05 0.10 0.14 0.12 0.12 0.16 0.10 0.05 0.04 0.00 0.00 0.00 0.00 0.00 0.00 0.00 0.00 0.00 0.00 0.00 0.00 0.00 0.00 0.00 0.00 0.00 0.00 0.00 0.00 0.00 0.03 0.04 0.01 0.00 0.00
0.11 0.17 0.16 0.16 0.09 0.12 0.12 0.04 0.04 0.12 0.19 0.25 0.27 0.33 0.25 0.16 0.10 0.04 0.01 0.00 0.00 0.00 0.00 0.00 0.00 0.00 0.00 0.00 0.00 0.00 0.00 0.00 0.00 0.00 0.00 0.00 0.00 0.00 0.00 0.01 0.00 0.00 0.00
0.05 0.02 0.04 0.12 0.13 0.11 0.08 0.04 0.09 0.10 0.06 0.10 0.16 0.27 0.25 0.20 0.10 0.01 0.00 0.00 0.00 0.00 0.00 0.00 0.00 0.00 0.00 0.00 0.00 0.00 0.00 0.00 0.00 0.00 0.00 0.00 0.00 0.00 0.00 0.00 0.00 0.00 0.00
0.00 0.00 0.00 0.02 0.05 0.07 0.07 0.04 0.13 0.09 0.04 0.05 0.15 0.13 0.06 0.04 0.01 0.00 0.00 0.00 0.00 0.00 0.00 0.00 0.00 0.00 0.00 0.00 0.00 0.00 0.00 0.00 0.00 0.00 0.00 0.00 0.00 0.00 0.00 0.00 0.00 0.00 0.00
0.00 0.00 0.02 0.07 0.08 0.11 0.16 0.11 0.05 0.07 0.03 0.04 0.07 0.09 0.07 0.01 0.00 0.00 0.00 0.00 0.00 0.00 0.00 0.00 0.00 0.00 0.00 0.00 0.00 0.00 0.00 0.00 0.00 0.00 0.00 0.00 0.00 0.00 0.00 0.00 0.00 0.00 0.00
0.02 0.00 0.03 0.09 0.08 0.11 0.11 0.03 0.03 0.01 0.02 0.07 0.10 0.03 0.03 0.00 0.00 0.00 0.00 0.00 0.00 0.00 0.00 0.00 0.00 0.00 0.00 0.00 0.00 0.00 0.00 0.00 0.00 0.00 0.00 0.00 0.00 0.00 0.00 0.00 0.00 0.00 0.00
0.06 0.02 0.05 0.03 0.01 0.03 0.04 0.01 0.04 0.03 0.03 0.08 0.17 0.05 0.20 0.07 0.02 0.00 0.00 0.00 0.00 0.00 0.00 0.00 0.00 0.00 0.00 0.00 0.00 0.00 0.00 0.00 0.00 0.00 0.00 0.00 0.00 0.00 0.00 0.00 0.00 0.00 0.00
0.04 0.03 0.00 0.00 0.00 0.01 0.01 0.00 0.01 0.02 0.04 0.10 0.14 0.09 0.16 0.11 0.00 0.00 0.00 0.00 0.00 0.00 0.00 0.00 0.00 0.00 0.00 0.00 0.00 0.00 0.00 0.00 0.00 0.00 0.00 0.00 0.00 0.00 0.00 0.00 0.00 0.00 0.00
0.01 0.01 0.01 0.01 0.01 0.00 0.00 0.00 0.00 0.07 0.05 0.07 0.12 0.09 0.06 0.05 0.01 0.00 0.00 0.00 0.00 0.00 0.00 0.00 0.00 0.00 0.00 0.00 0.00 0.00 0.00 0.00 0.00 0.00 0.00 0.00 0.00 0.00 0.00 0.00 0.00 0.00 0.00
0.03 0.03 0.05 0.03 0.03 0.00 0.00 0.00 0.00 0.05 0.05 0.09 0.10 0.04 0.00 0.01 0.01 0.03 0.00 0.00 0.00 0.00 0.00 0.00 0.00 0.00 0.00 0.00 0.00 0.00 0.00 0.00 0.00 0.00 0.00 0.00 0.00 0.00 0.00 0.00 0.00 0.00 0.00
0.04 0.04 0.02 0.02 0.04 0.02 0.01 0.01 0.02 0.05 0.07 0.05 0.02 0.01 0.00 0.00 0.00 0.03 0.00 0.00 0.00 0.00 0.00 0.00 0.01 0.01 0.00 0.00 0.00 0.01 0.01 0.00 0.00 0.00 0.00 0.00 0.00 0.00 0.00 0.00 0.00 0.00 0.00
0.05 0.05 0.06 0.04 0.04 0.07 0.08 0.07 0.04 0.06 0.06 0.03 0.03 0.04 0.01 0.01 0.03 0.05 0.03 0.01 0.01 0.03 0.08 0.10 0.07 0.01 0.01 0.02 0.02 0.02 0.03 0.02 0.00 0.00 0.00 0.00 0.00 0.00 0.00 0.00 0.00 0.00 0.00

GFSSE_prec_precacc_039.txt.gz
Total_Precipitation_Accumulation
0.58 0.12 0.06 0.12 0.10 0.00 0.00 0.00 0.00 0.00 0.00 0.00 0.00 0.00 0.00 0.00 0.00 0.00 0.00 0.00 0.00 0.00 0.00 0.00 0.00 0.00 0.00 0.00 0.00 0.00 0.00 0.00 0.00 0.03 0.01 0.02 0.06 0.02 0.01 0.00 0.00 0.01 0.03
1.48 0.69 0.10 0.09 0.13 0.02 0.00 0.00 0.00 0.00 0.00 0.00 0.00 0.00 0.00 0.00 0.00 0.00 0.00 0.00 0.00 0.00 0.00 0.00 0.00 0.00 0.00 0.00 0.00 0.00 0.00 0.00 0.00 0.01 0.00 0.03 0.09 0.01 0.05 0.02 0.01 0.01 0.02
1.15 1.25 0.40 0.18 0.13 0.03 0.00 0.02 0.03 0.01 0.00 0.00 0.00 0.00 0.00 0.00 0.00 0.00 0.00 0.00 0.00 0.00 0.00 0.00 0.00 0.00 0.00 0.00 0.00 0.00 0.00 0.00 0.00 0.00 0.00 0.06 0.02 0.01 0.05 0.05 0.02 0.01 0.01
0.33 0.49 0.56 0.24 0.20 0.14 0.07 0.11 0.13 0.13 0.02 0.00 0.00 0.00 0.00 0.00 0.00 0.00 0.00 0.00 0.00 0.00 0.00 0.00 0.00 0.00 0.00 0.00 0.00 0.00 0.00 0.00 0.00 0.00 0.00 0.00 0.00 0.01 0.07 0.09 0.05 0.01 0.01
0.70 0.61 0.50 0.28 0.22 0.28 0.23 0.22 0.20 0.12 0.03 0.00 0.00 0.00 0.00 0.00 0.00 0.00 0.00 0.00 0.00 0.00 0.00 0.00 0.00 0.00 0.00 0.00 0.00 0.00 0.00 0.00 0.00 0.00 0.00 0.00 0.00 0.02 0.09 0.09 0.02 0.02 0.02
1.86 1.67 1.05 0.67 0.70 0.48 0.44 0.35 0.15 0.05 0.00 0.00 0.00 0.00 0.00 0.00 0.00 0.00 0.00 0.00 0.00 0.00 0.00 0.00 0.00 0.00 0.00 0.00 0.00 0.00 0.00 0.00 0.00 0.00 0.00 0.00 0.00 0.01 0.06 0.06 0.06 0.03 0.02
3.47 2.65 1.94 1.55 1.73 1.18 1.06 0.34 0.10 0.02 0.00 0.00 0.00 0.00 0.00 0.00 0.00 0.00 0.00 0.00 0.00 0.00 0.00 0.00 0.00 0.00 0.00 0.00 0.00 0.00 0.00 0.00 0.00 0.00 0.00 0.00 0.00 0.00 0.00 0.02 0.02 0.00 0.01
5.24 3.78 3.72 2.80 1.99 2.48 1.45 0.30 0.03 0.01 0.00 0.00 0.00 0.00 0.00 0.00 0.00 0.00 0.00 0.00 0.00 0.00 0.00 0.00 0.00 0.00 0.00 0.00 0.00 0.00 0.00 0.00 0.00 0.00 0.00 0.00 0.00 0.00 0.00 0.00 0.01 0.00 0.00
6.13 7.19 6.79 5.57 3.89 2.53 0.95 0.18 0.01 0.00 0.00 0.00 0.00 0.00 0.00 0.00 0.00 0.00 0.00 0.00 0.00 0.00 0.00 0.00 0.00 0.00 0.00 0.00 0.00 0.00 0.00 0.00 0.00 0.00 0.00 0.00 0.00 0.00 0.00 0.00 0.02 0.02 0.01
4.56 5.98 6.09 5.30 5.05 2.13 0.48 0.09 0.01 0.00 0.00 0.00 0.00 0.00 0.00 0.00 0.00 0.00 0.00 0.00 0.00 0.00 0.00 0.00 0.00 0.00 0.00 0.00 0.00 0.00 0.00 0.00 0.00 0.00 0.00 0.00 0.00 0.00 0.00 0.00 0.00 0.00 0.01
2.33 2.83 3.71 3.05 2.89 1.56 0.55 0.24 0.07 0.05 0.02 0.00 0.00 0.00 0.00 0.00 0.00 0.00 0.00 0.00 0.00 0.00 0.00 0.00 0.00 0.00 0.00 0.00 0.00 0.00 0.00 0.00 0.00 0.00 0.00 0.00 0.00 0.00 0.00 0.00 0.00 0.00 0.00
1.16 1.33 1.22 1.48 1.55 1.00 0.56 0.38 0.19 0.10 0.04 0.00 0.00 0.00 0.00 0.00 0.00 0.00 0.00 0.00 0.00 0.00 0.00 0.00 0.00 0.00 0.00 0.00 0.00 0.00 0.00 0.00 0.00 0.00 0.00 0.00 0.00 0.01 0.01 0.00 0.00 0.00 0.01
0.62 0.50 0.48 0.45 0.50 0.41 0.34 0.30 0.25 0.14 0.07 0.01 0.01 0.00 0.00 0.01 0.00 0.00 0.00 0.01 0.02 0.00 0.00 0.00 0.00 0.00 0.00 0.00 0.00 0.00 0.00 0.00 0.00 0.00 0.00 0.00 0.00 0.01 0.01 0.01 0.00 0.00 0.00
0.26 0.23 0.25 0.21 0.17 0.15 0.12 0.14 0.15 0.13 0.12 0.05 0.02 0.00 0.04 0.04 0.03 0.00 0.00 0.01 0.00 0.00 0.00 0.00 0.00 0.00 0.00 0.00 0.00 0.00 0.00 0.00 0.00 0.00 0.00 0.00 0.00 0.00 0.03 0.03 0.01 0.00 0.00
0.13 0.23 0.18 0.08 0.09 0.11 0.08 0.09 0.09 0.11 0.14 0.14 0.14 0.16 0.10 0.05 0.04 0.00 0.00 0.00 0.00 0.00 0.00 0.00 0.00 0.00 0.00 0.00 0.00 0.00 0.00 0.00 0.00 0.00 0.00 0.00 0.00 0.01 0.03 0.04 0.02 0.00 0.00
0.13 0.22 0.20 0.18 0.14 0.14 0.16 0.10 0.08 0.13 0.19 0.26 0.28 0.33 0.25 0.16 0.10 0.04 0.03 0.00 0.00 0.00 0.00 0.00 0.00 0.00 0.00 0.00 0.00 0.00 0.00 0.00 0.00 0.00 0.00 0.00 0.00 0.00 0.00 0.01 0.01 0.00 0.00
0.06 0.07 0.14 0.16 0.18 0.17 0.10 0.06 0.13 0.12 0.07 0.11 0.16 0.27 0.25 0.20 0.11 0.03 0.03 0.01 0.00 0.00 0.00 0.00 0.00 0.00 0.00 0.00 0.00 0.00 0.00 0.00 0.00 0.00 0.00 0.00 0.00 0.00 0.00 0.00 0.00 0.00 0.00
0.00 0.00 0.01 0.04 0.08 0.08 0.08 0.04 0.14 0.10 0.04 0.05 0.15 0.13 0.06 0.04 0.01 0.00 0.00 0.00 0.00 0.00 0.00 0.00 0.00 0.00 0.00 0.00 0.00 0.00 0.00 0.00 0.00 0.00 0.00 0.00 0.00 0.00 0.00 0.00 0.00 0.00 0.00
0.00 0.00 0.02 0.07 0.08 0.11 0.16 0.11 0.05 0.07 0.03 0.04 0.07 0.09 0.07 0.01 0.00 0.00 0.00 0.00 0.00 0.00 0.00 0.00 0.00 0.00 0.00 0.00 0.00 0.00 0.00 0.00 0.00 0.00 0.00 0.00 0.00 0.00 0.00 0.00 0.00 0.00 0.00
0.02 0.00 0.03 0.09 0.08 0.11 0.11 0.03 0.03 0.01 0.02 0.07 0.10 0.05 0.04 0.01 0.03 0.02 0.01 0.01 0.00 0.00 0.00 0.00 0.00 0.00 0.00 0.00 0.00 0.00 0.00 0.00 0.00 0.00 0.00 0.00 0.00 0.00 0.00 0.00 0.00 0.00 0.00
0.06 0.02 0.05 0.03 0.01 0.03 0.04 0.01 0.04 0.03 0.03 0.08 0.17 0.06 0.23 0.10 0.10 0.04 0.01 0.00 0.00 0.00 0.00 0.00 0.00 0.00 0.00 0.00 0.00 0.00 0.00 0.00 0.00 0.00 0.00 0.00 0.00 0.00 0.00 0.00 0.00 0.00 0.00
0.04 0.03 0.00 0.00 0.00 0.01 0.01 0.00 0.01 0.02 0.04 0.10 0.14 0.13 0.21 0.19 0.06 0.04 0.01 0.00 0.00 0.00 0.00 0.00 0.00 0.00 0.00 0.00 0.00 0.00 0.00 0.00 0.00 0.00 0.00 0.00 0.00 0.00 0.00 0.00 0.00 0.00 0.00
0.01 0.01 0.01 0.01 0.01 0.00 0.00 0.00 0.00 0.07 0.05 0.07 0.12 0.11 0.11 0.10 0.04 0.06 0.02 0.00 0.00 0.00 0.00 0.00 0.00 0.00 0.00 0.00 0.00 0.00 0.00 0.00 0.00 0.00 0.00 0.00 0.00 0.00 0.00 0.00 0.00 0.00 0.00
0.03 0.03 0.05 0.03 0.03 0.00 0.00 0.00 0.00 0.05 0.05 0.09 0.10 0.05 0.03 0.01 0.06 0.19 0.05 0.01 0.00 0.00 0.00 0.00 0.00 0.00 0.00 0.00 0.00 0.00 0.00 0.00 0.00 0.00 0.00 0.00 0.00 0.00 0.00 0.00 0.00 0.00 0.00
0.04 0.04 0.02 0.02 0.04 0.02 0.01 0.01 0.02 0.05 0.07 0.05 0.02 0.01 0.01 0.03 0.03 0.11 0.05 0.01 0.00 0.00 0.00 0.00 0.01 0.02 0.05 0.07 0.02 0.01 0.01 0.01 0.00 0.00 0.00 0.00 0.00 0.00 0.00 0.00 0.00 0.00 0.00
0.05 0.05 0.06 0.04 0.04 0.07 0.08 0.07 0.04 0.09 0.07 0.03 0.03 0.04 0.04 0.03 0.16 0.15 0.10 0.05 0.03 0.05 0.10 0.12 0.13 0.08 0.05 0.05 0.03 0.02 0.04 0.06 0.04 0.01 0.00 0.00 0.00 0.00 0.00 0.00 0.00 0.00 0.00

GFSSE_prec_precacc_042.txt.gz
Total_Precipitation_Accumulation
0.84 0.29 0.12 0.15 0.13 0.01 0.00 0.00 0.00 0.00 0.00 0.00 0.00 0.00 0.00 0.00 0.00 0.00 0.00 0.00 0.00 0.00 0.00 0.00 0.00 0.00 0.00 0.00 0.00 0.00 0.00 0.00 0.00 0.03 0.01 0.02 0.06 0.02 0.01 0.00 0.00 0.01 0.04
1.62 1.30 0.73 0.21 0.14 0.02 0.00 0.00 0.00 0.00 0.00 0.00 0.00 0.00 0.00 0.00 0.00 0.00 0.00 0.00 0.00 0.00 0.00 0.00 0.00 0.00 0.00 0.00 0.00 0.00 0.00 0.00 0.00 0.01 0.00 0.03 0.09 0.02 0.05 0.02 0.01 0.01 0.02
1.19 2.31 1.75 0.70 0.17 0.04 0.00 0.02 0.03 0.01 0.00 0.00 0.00 0.00 0.00 0.00 0.00 0.00 0.00 0.00 0.00 0.00 0.00 0.00 0.00 0.00 0.00 0.00 0.00 0.00 0.00 0.00 0.00 0.00 0.00 0.06 0.02 0.01 0.05 0.05 0.02 0.01 0.01
0.33 0.66 1.79 1.31 0.39 0.14 0.07 0.11 0.13 0.13 0.02 0.00 0.00 0.00 0.00 0.00 0.00 0.00 0.00 0.00 0.00 0.00 0.00 0.00 0.00 0.00 0.00 0.00 0.00 0.00 0.00 0.00 0.00 0.00 0.00 0.00 0.00 0.02 0.08 0.09 0.06 0.02 0.01
0.72 0.67 0.67 0.78 0.67 0.38 0.24 0.22 0.20 0.12 0.03 0.00 0.00 0.00 0.00 0.00 0.00 0.00 0.00 0.00 0.00 0.00 0.00 0.00 0.00 0.00 0.00 0.00 0.00 0.00 0.00 0.00 0.00 0.00 0.00 0.00 0.00 0.03 0.09 0.09 0.02 0.03 0.02
1.92 1.81 1.40 0.94 0.84 0.65 0.69 0.41 0.15 0.05 0.00 0.00 0.00 0.00 0.00 0.00 0.00 0.00 0.00 0.00 0.00 0.00 0.00 0.00 0.00 0.00 0.00 0.00 0.00 0.00 0.00 0.00 0.00 0.00 0.00 0.00 0.00 0.01 0.06 0.07 0.06 0.03 0.02
3.49 2.73 2.43 2.96 2.21 1.28 1.16 0.38 0.10 0.02 0.00 0.00 0.00 0.00 0.00 0.00 0.00 0.00 0.00 0.00 0.00 0.00 0.00 0.00 0.00 0.00 0.00 0.00 0.00 0.00 0.00 0.00 0.00 0.00 0.00 0.00 0.00 0.00 0.00 0.02 0.02 0.00 0.01
5.26 3.83 3.84 4.10 3.42 2.99 1.54 0.32 0.04 0.01 0.00 0.00 0.00 0.00 0.00 0.00 0.00 0.00 0.00 0.00 0.00 0.00 0.00 0.00 0.00 0.00 0.00 0.00 0.00 0.00 0.00 0.00 0.00 0.00 0.00 0.00 0.00 0.00 0.00 0.00 0.01 0.00 0.00
6.15 7.22 6.87 6.47 4.93 3.41 1.25 0.21 0.02 0.00 0.00 0.00 0.00 0.00 0.00 0.00 0.00 0.00 0.00 0.00 0.00 0.00 0.00 0.00 0.00 0.00 0.00 0.00 0.00 0.00 0.00 0.00 0.00 0.00 0.00 0.00 0.00 0.00 0.00 0.00 0.02 0.02 0.01
4.57 6.00 6.34 7.23 7.20 2.90 0.96 0.14 0.03 0.01 0.00 0.00 0.00 0.00 0.00 0.00 0.00 0.00 0.00 0.00 0.00 0.00 0.00 0.00 0.00 0.00 0.00 0.00 0.00 0.00 0.00 0.00 0.00 0.00 0.00 0.00 0.00 0.00 0.00 0.00 0.00 0.00 0.01
2.34 2.84 4.05 5.57 4.56 2.36 0.80 0.35 0.09 0.06 0.02 0.00 0.00 0.00 0.00 0.00 0.00 0.00 0.00 0.00 0.00 0.00 0.00 0.00 0.00 0.00 0.00 0.00 0.00 0.00 0.00 0.00 0.00 0.00 0.00 0.00 0.00 0.00 0.00 0.00 0.00 0.00 0.00
1.20 1.35 1.30 2.11 2.61 1.43 0.66 0.47 0.20 0.10 0.04 0.00 0.00 0.00 0.00 0.00 0.00 0.00 0.00 0.00 0.00 0.00 0.00 0.00 0.00 0.00 0.00 0.00 0.00 0.00 0.00 0.00 0.00 0.00 0.00 0.00 0.00 0.01 0.01 0.00 0.00 0.00 0.01
0.66 0.51 0.49 0.50 0.68 0.68 0.41 0.36 0.26 0.14 0.07 0.01 0.01 0.00 0.00 0.01 0.00 0.00 0.00 0.01 0.02 0.00 0.00 0.00 0.00 0.00 0.00 0.00 0.00 0.00 0.00 0.00 0.00 0.00 0.00 0.00 0.00 0.01 0.02 0.01 0.00 0.00 0.00
0.26 0.24 0.26 0.21 0.18 0.16 0.12 0.14 0.15 0.13 0.12 0.05 0.02 0.00 0.04 0.04 0.03 0.00 0.00 0.01 0.00 0.00 0.00 0.00 0.00 0.00 0.00 0.00 0.00 0.00 0.00 0.00 0.00 0.00 0.00 0.00 0.00 0.00 0.03 0.03 0.01 0.00 0.00
0.15 0.25 0.20 0.09 0.11 0.12 0.08 0.09 0.09 0.11 0.14 0.15 0.14 0.16 0.10 0.05 0.04 0.00 0.00 0.00 0.00 0.00 0.00 0.00 0.00 0.00 0.00 0.00 0.00 0.00 0.00 0.00 0.00 0.00 0.00 0.00 0.00 0.01 0.04 0.05 0.02 0.00 0.00
0.20 0.27 0.22 0.19 0.14 0.15 0.16 0.10 0.08 0.13 0.19 0.26 0.28 0.33 0.25 0.16 0.10 0.04 0.03 0.00 0.00 0.00 0.00 0.00 0.00 0.00 0.00 0.00 0.00 0.00 0.00 0.00 0.00 0.00 0.00 0.00 0.00 0.00 0.01 0.02 0.01 0.00 0.00
0.16 0.13 0.19 0.22 0.21 0.17 0.10 0.06 0.13 0.12 0.07 0.11 0.16 0.27 0.25 0.20 0.11 0.03 0.04 0.01 0.00 0.00 0.00 0.00 0.00 0.00 0.00 0.00 0.00 0.00 0.00 0.00 0.00 0.00 0.00 0.00 0.00 0.00 0.00 0.00 0.00 0.00 0.00
0.06 0.09 0.10 0.07 0.10 0.08 0.08 0.05 0.14 0.10 0.04 0.05 0.15 0.13 0.06 0.04 0.01 0.00 0.01 0.00 0.00 0.00 0.00 0.00 0.00 0.00 0.00 0.00 0.00 0.00 0.00 0.00 0.00 0.00 0.00 0.00 0.00 0.00 0.00 0.00 0.00 0.00 0.00
0.01 0.01 0.06 0.09 0.10 0.11 0.16 0.11 0.05 0.07 0.03 0.04 0.07 0.09 0.07 0.02 0.00 0.00 0.00 0.00 0.00 0.00 0.00 0.00 0.00 0.00 0.00 0.00 0.00 0.00 0.00 0.00 0.00 0.00 0.00 0.00 0.00 0.00 0.00 0.00 0.00 0.00 0.00
0.02 0.00 0.03 0.09 0.08 0.12 0.11 0.03 0.03 0.01 0.02 0.07 0.10 0.05 0.04 0.01 0.03 0.02 0.01 0.01 0.00 0.00 0.00 0.00 0.00 0.00 0.00 0.00 0.00 0.00 0.00 0.00 0.00 0.00 0.00 0.00 0.00 0.00 0.00 0.00 0.00 0.00 0.00
0.06 0.02 0.05 0.03 0.01 0.03 0.04 0.01 0.04 0.03 0.03 0.08 0.17 0.06 0.23 0.10 0.10 0.04 0.01 0.00 0.00 0.00 0.00 0.00 0.00 0.00 0.00 0.00 0.00 0.00 0.00 0.00 0.00 0.00 0.00 0.00 0.00 0.00 0.00 0.00 0.00 0.00 0.00
0.04 0.03 0.00 0.00 0.00 0.01 0.01 0.00 0.01 0.02 0.04 0.10 0.14 0.13 0.21 0.19 0.06 0.04 0.01 0.00 0.00 0.00 0.00 0.00 0.00 0.00 0.00 0.00 0.00 0.00 0.00 0.00 0.00 0.00 0.00 0.00 0.00 0.00 0.00 0.00 0.00 0.00 0.00
0.01 0.01 0.01 0.01 0.01 0.00 0.00 0.00 0.00 0.07 0.05 0.07 0.12 0.11 0.11 0.10 0.04 0.06 0.02 0.00 0.00 0.00 0.00 0.00 0.00 0.00 0.00 0.00 0.00 0.00 0.00 0.00 0.00 0.00 0.00 0.00 0.00 0.00 0.00 0.00 0.00 0.00 0.00
0.03 0.03 0.05 0.03 0.03 0.00 0.00 0.00 0.00 0.05 0.05 0.09 0.10 0.05 0.03 0.01 0.06 0.19 0.07 0.02 0.00 0.00 0.00 0.00 0.00 0.00 0.00 0.00 0.01 0.00 0.00 0.00 0.00 0.00 0.00 0.00 0.00 0.00 0.00 0.00 0.00 0.00 0.00
0.04 0.04 0.02 0.02 0.04 0.02 0.01 0.01 0.02 0.05 0.07 0.05 0.02 0.01 0.01 0.03 0.03 0.11 0.09 0.05 0.01 0.03 0.04 0.03 0.02 0.03 0.08 0.11 0.06 0.02 0.01 0.01 0.00 0.00 0.00 0.00 0.00 0.00 0.00 0.00 0.00 0.00 0.00
0.05 0.05 0.06 0.04 0.04 0.07 0.08 0.07 0.04 0.09 0.07 0.03 0.03 0.04 0.04 0.03 0.17 0.21 0.19 0.14 0.09 0.10 0.16 0.17 0.16 0.10 0.06 0.05 0.03 0.02 0.04 0.06 0.04 0.01 0.00 0.00 0.00 0.00 0.00 0.00 0.00 0.00 0.00

GFSSE_prec_precacc_045.txt.gz
Total_Precipitation_Accumulation
0.86 0.32 0.15 0.15 0.15 0.06 0.00 0.00 0.00 0.00 0.00 0.00 0.00 0.00 0.00 0.00 0.00 0.00 0.00 0.00 0.00 0.00 0.00 0.00 0.00 0.00 0.00 0.00 0.00 0.00 0.00 0.00 0.00 0.03 0.01 0.02 0.06 0.02 0.02 0.00 0.01 0.02 0.06
1.65 1.33 0.76 0.27 0.20 0.03 0.01 0.00 0.00 0.00 0.00 0.00 0.00 0.00 0.00 0.00 0.00 0.00 0.00 0.00 0.00 0.00 0.00 0.00 0.00 0.00 0.00 0.00 0.00 0.00 0.00 0.00 0.00 0.01 0.00 0.03 0.09 0.02 0.05 0.02 0.01 0.02 0.04
1.21 2.34 1.77 0.97 0.43 0.14 0.06 0.02 0.03 0.01 0.00 0.00 0.00 0.00 0.00 0.00 0.00 0.00 0.00 0.00 0.00 0.00 0.00 0.00 0.00 0.00 0.00 0.00 0.00 0.00 0.00 0.00 0.00 0.00 0.00 0.06 0.02 0.02 0.05 0.05 0.02 0.01 0.01
0.36 0.68 1.82 1.47 0.84 0.43 0.20 0.15 0.13 0.13 0.02 0.00 0.00 0.00 0.00 0.00 0.00 0.00 0.00 0.00 0.00 0.00 0.00 0.00 0.00 0.00 0.00 0.00 0.00 0.00 0.00 0.00 0.00 0.00 0.00 0.00 0.00 0.03 0.09 0.10 0.06 0.02 0.01
0.72 0.67 0.68 0.83 0.99 0.83 0.49 0.32 0.20 0.12 0.03 0.00 0.00 0.00 0.00 0.00 0.00 0.00 0.00 0.00 0.00 0.00 0.00 0.00 0.00 0.00 0.00 0.00 0.00 0.00 0.00 0.00 0.00 0.00 0.00 0.00 0.00 0.03 0.10 0.10 0.03 0.03 0.03
1.92 1.82 1.42 0.98 0.96 1.13 1.09 0.56 0.16 0.05 0.01 0.01 0.00 0.00 0.00 0.00 0.00 0.00 0.00 0.00 0.00 0.00 0.00 0.00 0.00 0.00 0.00 0.00 0.00 0.00 0.00 0.00 0.00 0.00 0.00 0.00 0.00 0.01 0.06 0.07 0.06 0.03 0.02
3.53 2.92 2.69 3.20 2.63 1.47 1.51 0.63 0.12 0.02 0.00 0.01 0.01 0.00 0.00 0.00 0.00 0.00 0.00 0.00 0.00 0.00 0.00 0.00 0.00 0.00 0.00 0.00 0.00 0.00 0.00 0.00 0.00 0.00 0.00 0.00 0.00 0.00 0.00 0.02 0.02 0.00 0.01
5.29 3.98 4.15 4.27 3.96 4.10 1.85 0.65 0.08 0.01 0.01 0.03 0.01 0.00 0.00 0.00 0.00 0.00 0.00 0.00 0.00 0.00 0.00 0.00 0.00 0.00 0.00 0.00 0.00 0.00 0.00 0.00 0.00 0.00 0.00 0.00 0.00 0.00 0.00 0.01 0.01 0.00 0.00
6.21 7.31 7.10 6.77 5.12 4.38 2.82 0.87 0.15 0.00 0.01 0.03 0.01 0.00 0.00 0.00 0.00 0.00 0.00 0.00 0.00 0.00 0.00 0.00 0.00 0.00 0.00 0.00 0.00 0.00 0.00 0.00 0.00 0.00 0.00 0.00 0.00 0.00 0.00 0.00 0.02 0.02 0.01
4.61 6.11 6.45 7.43 7.44 3.00 1.84 0.95 0.21 0.04 0.01 0.01 0.00 0.00 0.00 0.00 0.00 0.00 0.00 0.00 0.00 0.00 0.00 0.00 0.00 0.00 0.00 0.00 0.00 0.00 0.00 0.00 0.00 0.00 0.00 0.00 0.00 0.00 0.00 0.00 0.00 0.00 0.01
2.35 2.88 4.07 5.81 5.20 2.74 1.25 0.85 0.28 0.13 0.05 0.01 0.00 0.00 0.00 0.00 0.00 0.00 0.00 0.00 0.00 0.00 0.00 0.00 0.00 0.00 0.00 0.00 0.00 0.00 0.00 0.00 0.00 0.00 0.00 0.00 0.00 0.00 0.00 0.00 0.00 0.00 0.00
1.22 1.36 1.31 2.34 3.58 2.34 1.22 0.79 0.40 0.25 0.12 0.06 0.00 0.00 0.00 0.00 0.00 0.00 0.00 0.00 0.00 0.00 0.00 0.00 0.00 0.00 0.00 0.00 0.00 0.00 0.00 0.00 0.00 0.00 0.00 0.00 0.00 0.01 0.01 0.00 0.00 0.00 0.01
0.68 0.52 0.49 0.54 1.07 1.29 0.88 0.66 0.42 0.23 0.14 0.04 0.01 0.00 0.00 0.01 0.00 0.00 0.00 0.01 0.02 0.00 0.00 0.00 0.00 0.00 0.00 0.00 0.00 0.00 0.00 0.00 0.00 0.00 0.00 0.00 0.00 0.01 0.02 0.01 0.00 0.00 0.00
0.28 0.26 0.26 0.21 0.22 0.34 0.35 0.30 0.23 0.18 0.15 0.06 0.02 0.00 0.04 0.04 0.03 0.00 0.00 0.01 0.00 0.00 0.00 0.00 0.00 0.00 0.00 0.00 0.00 0.00 0.00 0.00 0.00 0.00 0.00 0.00 0.00 0.01 0.03 0.03 0.01 0.00 0.00
0.17 0.27 0.21 0.09 0.11 0.13 0.10 0.09 0.09 0.11 0.15 0.15 0.14 0.16 0.10 0.05 0.04 0.00 0.00 0.00 0.00 0.00 0.00 0.00 0.00 0.00 0.00 0.00 0.00 0.00 0.00 0.00 0.00 0.00 0.00 0.00 0.00 0.01 0.04 0.05 0.02 0.00 0.00
0.27 0.29 0.25 0.26 0.17 0.19 0.17 0.10 0.08 0.13 0.19 0.26 0.28 0.33 0.25 0.16 0.10 0.04 0.03 0.00 0.00 0.00 0.00 0.00 0.00 0.00 0.00 0.00 0.00 0.00 0.00 0.00 0.00 0.00 0.00 0.00 0.00 0.00 0.01 0.02 0.01 0.00 0.00
0.38 0.20 0.22 0.25 0.27 0.28 0.14 0.06 0.14 0.12 0.07 0.11 0.16 0.27 0.25 0.20 0.11 0.03 0.04 0.01 0.00 0.00 0.00 0.00 0.00 0.00 0.00 0.00 0.00 0.00 0.00 0.00 0.00 0.00 0.00 0.00 0.00 0.00 0.00 0.00 0.00 0.00 0.00
0.12 0.25 0.12 0.10 0.20 0.14 0.09 0.05 0.14 0.10 0.04 0.05 0.15 0.13 0.06 0.04 0.01 0.00 0.01 0.00 0.00 0.00 0.00 0.00 0.00 0.00 0.00 0.00 0.00 0.00 0.00 0.00 0.00 0.00 0.00 0.00 0.00 0.00 0.00 0.00 0.00 0.00 0.00
0.01 0.11 0.11 0.11 0.17 0.20 0.17 0.12 0.05 0.07 0.03 0.04 0.07 0.09 0.07 0.02 0.00 0.00 0.00 0.00 0.00 0.00 0.00 0.00 0.00 0.00 0.00 0.00 0.00 0.00 0.00 0.00 0.00 0.00 0.00 0.00 0.00 0.00 0.00 0.00 0.00 0.00 0.00
0.02 0.00 0.04 0.10 0.11 0.15 0.11 0.04 0.03 0.02 0.02 0.07 0.10 0.05 0.04 0.01 0.03 0.02 0.01 0.01 0.00 0.00 0.00 0.00 0.00 0.00 0.00 0.00 0.00 0.00 0.00 0.00 0.00 0.00 0.00 0.00 0.00 0.00 0.00 0.00 0.00 0.00 0.00
0.06 0.02 0.05 0.03 0.02 0.05 0.05 0.01 0.05 0.03 0.03 0.08 0.17 0.06 0.23 0.10 0.10 0.04 0.01 0.00 0.00 0.00 0.00 0.00 0.00 0.00 0.00 0.00 0.00 0.00 0.00 0.00 0.00 0.00 0.00 0.00 0.00 0.00 0.00 0.00 0.00 0.00 0.00
0.04 0.03 0.00 0.00 0.00 0.01 0.01 0.00 0.01 0.02 0.04 0.10 0.14 0.13 0.21 0.19 0.06 0.04 0.01 0.00 0.00 0.00 0.00 0.00 0.00 0.00 0.00 0.00 0.00 0.00 0.00 0.00 0.00 0.00 0.00 0.00 0.00 0.00 0.00 0.00 0.00 0.00 0.00
0.01 0.01 0.01 0.01 0.01 0.00 0.00 0.00 0.00 0.07 0.05 0.07 0.12 0.11 0.11 0.10 0.04 0.06 0.02 0.00 0.00 0.00 0.00 0.00 0.00 0.00 0.00 0.00 0.00 0.00 0.00 0.00 0.00 0.00 0.00 0.00 0.00 0.00 0.00 0.00 0.00 0.00 0.00
0.03 0.03 0.05 0.03 0.03 0.00 0.00 0.00 0.00 0.05 0.05 0.09 0.10 0.05 0.03 0.01 0.06 0.19 0.07 0.02 0.00 0.00 0.00 0.00 0.00 0.01 0.01 0.00 0.01 0.01 0.00 0.00 0.00 0.00 0.00 0.00 0.00 0.00 0.00 0.00 0.00 0.00 0.00
0.04 0.04 0.02 0.02 0.04 0.02 0.01 0.01 0.02 0.05 0.07 0.05 0.02 0.01 0.01 0.03 0.03 0.11 0.09 0.06 0.02 0.05 0.07 0.08 0.07 0.08 0.10 0.12 0.06 0.02 0.01 0.01 0.00 0.00 0.00 0.00 0.00 0.00 0.00 0.00 0.00 0.00 0.00
0.05 0.05 0.06 0.04 0.04 0.07 0.08 0.07 0.04 0.09 0.07 0.03 0.03 0.04 0.04 0.03 0.17 0.21 0.19 0.16 0.13 0.13 0.22 0.25 0.22 0.14 0.10 0.06 0.04 0.02 0.04 0.06 0.04 0.01 0.00 0.00 0.00 0.00 0.00 0.00 0.00 0.00 0.00

GFSSE_prec_precacc_048.txt.gz
Total_Precipitation_Accumulation
0.87 0.35 0.15 0.16 0.15 0.06 0.00 0.01 0.00 0.00 0.00 0.00 0.00 0.00 0.00 0.00 0.00 0.00 0.00 0.00 0.00 0.00 0.00 0.00 0.00 0.00 0.00 0.00 0.00 0.00 0.00 0.00 0.00 0.03 0.02 0.03 0.07 0.03 0.03 0.01 0.02 0.03 0.07
1.65 1.33 0.76 0.27 0.21 0.03 0.01 0.00 0.00 0.00 0.00 0.00 0.00 0.00 0.00 0.00 0.00 0.00 0.00 0.00 0.00 0.00 0.00 0.00 0.00 0.00 0.00 0.00 0.00 0.00 0.00 0.00 0.00 0.01 0.00 0.03 0.09 0.02 0.05 0.02 0.02 0.03 0.04
1.22 2.35 1.77 0.98 0.45 0.14 0.06 0.02 0.03 0.01 0.00 0.00 0.00 0.00 0.00 0.00 0.00 0.00 0.00 0.00 0.00 0.00 0.00 0.00 0.00 0.00 0.00 0.00 0.00 0.00 0.00 0.00 0.00 0.00 0.00 0.06 0.02 0.02 0.05 0.05 0.02 0.01 0.02
0.37 0.77 1.83 1.47 0.85 0.43 0.21 0.16 0.15 0.13 0.02 0.00 0.00 0.00 0.00 0.00 0.00 0.00 0.00 0.00 0.00 0.00 0.00 0.00 0.00 0.00 0.00 0.00 0.00 0.00 0.00 0.00 0.00 0.00 0.00 0.01 0.01 0.04 0.10 0.11 0.07 0.02 0.01
0.77 0.76 0.69 0.84 0.99 0.83 0.49 0.34 0.25 0.13 0.03 0.00 0.00 0.00 0.00 0.00 0.00 0.00 0.00 0.00 0.00 0.00 0.00 0.00 0.00 0.00 0.00 0.00 0.00 0.00 0.00 0.00 0.00 0.00 0.00 0.00 0.00 0.04 0.11 0.10 0.03 0.03 0.03
2.01 1.88 1.43 1.00 0.96 1.13 1.09 0.64 0.26 0.09 0.01 0.01 0.01 0.00 0.00 0.00 0.00 0.00 0.00 0.00 0.00 0.00 0.00 0.00 0.00 0.00 0.00 0.00 0.00 0.00 0.00 0.00 0.00 0.00 0.00 0.00 0.00 0.01 0.06 0.07 0.06 0.03 0.02
3.58 2.97 2.73 3.30 2.65 1.50 1.52 0.79 0.30 0.12 0.02 0.03 0.01 0.00 0.00 0.00 0.00 0.00 0.00 0.00 0.00 0.00 0.00 0.00 0.00 0.00 0.00 0.00 0.00 0.00 0.00 0.00 0.00 0.00 0.00 0.00 0.00 0.00 0.01 0.02 0.02 0.01 0.01
5.37 4.17 4.31 4.45 4.05 4.14 1.86 0.80 0.27 0.14 0.06 0.05 0.01 0.00 0.00 0.00 0.00 0.00 0.00 0.00 0.00 0.00 0.00 0.00 0.00 0.00 0.00 0.00 0.00 0.00 0.00 0.00 0.00 0.00 0.00 0.00 0.00 0.00 0.00 0.01 0.01 0.00 0.00
6.40 7.51 7.27 6.87 5.24 4.41 2.83 1.06 0.36 0.17 0.09 0.05 0.01 0.00 0.00 0.00 0.00 0.00 0.00 0.00 0.00 0.00 0.00 0.00 0.00 0.00 0.00 0.00 0.00 0.00 0.00 0.00 0.00 0.00 0.00 0.00 0.00 0.00 0.00 0.00 0.02 0.02 0.01
4.66 6.26 6.65 7.59 7.82 3.13 1.87 1.12 0.36 0.22 0.12 0.04 0.01 0.00 0.00 0.00 0.00 0.00 0.00 0.00 0.00 0.00 0.00 0.00 0.00 0.00 0.00 0.00 0.00 0.00 0.00 0.00 0.00 0.00 0.00 0.00 0.00 0.00 0.00 0.00 0.00 0.00 0.01
2.43 2.93 4.20 5.91 5.47 3.00 1.27 0.88 0.34 0.26 0.24 0.08 0.00 0.00 0.00 0.00 0.00 0.00 0.00 0.00 0.00 0.00 0.00 0.00 0.00 0.00 0.00 0.00 0.00 0.00 0.00 0.00 0.00 0.00 0.00 0.00 0.00 0.00 0.00 0.00 0.00 0.00 0.00
1.24 1.39 1.47 2.54 3.79 2.57 1.26 0.81 0.46 0.41 0.35 0.18 0.03 0.00 0.00 0.00 0.00 0.00 0.00 0.00 0.00 0.00 0.00 0.00 0.00 0.00 0.00 0.00 0.00 0.00 0.00 0.00 0.00 0.00 0.00 0.00 0.00 0.01 0.01 0.00 0.00 0.00 0.01
0.73 0.53 0.50 0.57 1.18 1.73 1.25 0.81 0.55 0.41 0.35 0.23 0.09 0.00 0.00 0.01 0.00 0.00 0.00 0.01 0.02 0.00 0.00 0.00 0.00 0.00 0.00 0.00 0.00 0.00 0.00 0.00 0.00 0.00 0.00 0.00 0.00 0.01 0.02 0.01 0.00 0.00 0.00
0.33 0.28 0.27 0.22 0.22 0.40 0.66 0.64 0.38 0.29 0.28 0.15 0.08 0.01 0.04 0.04 0.03 0.00 0.00 0.01 0.00 0.00 0.00 0.00 0.00 0.00 0.00 0.00 0.00 0.00 0.00 0.00 0.00 0.00 0.00 0.00 0.00 0.01 0.04 0.03 0.01 0.00 0.00
0.19 0.28 0.22 0.10 0.11 0.15 0.17 0.21 0.24 0.19 0.21 0.21 0.16 0.16 0.10 0.05 0.04 0.00 0.00 0.00 0.00 0.00 0.00 0.00 0.00 0.00 0.00 0.00 0.00 0.00 0.00 0.00 0.00 0.00 0.00 0.00 0.00 0.01 0.05 0.05 0.02 0.00 0.00
0.29 0.31 0.26 0.26 0.17 0.21 0.19 0.11 0.11 0.15 0.22 0.30 0.30 0.33 0.25 0.16 0.10 0.04 0.03 0.00 0.00 0.00 0.00 0.00 0.00 0.00 0.00 0.00 0.00 0.00 0.00 0.00 0.00 0.00 0.00 0.00 0.00 0.00 0.02 0.02 0.01 0.00 0.00
0.40 0.22 0.23 0.30 0.35 0.34 0.21 0.08 0.14 0.13 0.09 0.13 0.17 0.27 0.25 0.20 0.11 0.03 0.04 0.01 0.00 0.00 0.00 0.00 0.00 0.00 0.00 0.00 0.00 0.00 0.00 0.00 0.00 0.00 0.00 0.00 0.00 0.00 0.00 0.00 0.00 0.00 0.00
0.23 0.46 0.15 0.16 0.37 0.31 0.29 0.10 0.14 0.11 0.05 0.05 0.16 0.13 0.06 0.04 0.01 0.00 0.01 0.00 0.00 0.00 0.00 0.00 0.00 0.00 0.00 0.00 0.00 0.00 0.00 0.00 0.00 0.00 0.00 0.00 0.00 0.00 0.00 0.00 0.00 0.00 0.00
0.02 0.29 0.31 0.14 0.24 0.36 0.24 0.17 0.06 0.07 0.03 0.05 0.07 0.09 0.07 0.02 0.00 0.00 0.00 0.00 0.00 0.00 0.00 0.00 0.00 0.00 0.00 0.00 0.00 0.00 0.00 0.00 0.00 0.00 0.00 0.00 0.00 0.00 0.00 0.00 0.00 0.00 0.00
0.02 0.01 0.11 0.12 0.18 0.29 0.17 0.06 0.04 0.02 0.03 0.07 0.10 0.05 0.04 0.01 0.04 0.03 0.01 0.01 0.00 0.00 0.00 0.00 0.00 0.00 0.00 0.00 0.00 0.00 0.00 0.00 0.00 0.00 0.00 0.00 0.00 0.00 0.00 0.00 0.00 0.00 0.00
0.06 0.03 0.06 0.07 0.05 0.14 0.15 0.05 0.05 0.04 0.04 0.08 0.17 0.07 0.23 0.11 0.12 0.06 0.02 0.02 0.01 0.00 0.00 0.00 0.00 0.00 0.00 0.00 0.00 0.00 0.00 0.00 0.00 0.00 0.00 0.00 0.00 0.00 0.00 0.00 0.00 0.00 0.00
0.04 0.03 0.00 0.01 0.02 0.07 0.07 0.06 0.02 0.03 0.04 0.10 0.15 0.13 0.22 0.20 0.07 0.07 0.04 0.01 0.01 0.01 0.00 0.00 0.00 0.00 0.00 0.00 0.00 0.00 0.00 0.00 0.00 0.00 0.00 0.00 0.00 0.00 0.00 0.00 0.00 0.00 0.00
0.01 0.01 0.01 0.01 0.01 0.01 0.01 0.01 0.00 0.07 0.05 0.07 0.12 0.11 0.11 0.10 0.04 0.06 0.03 0.00 0.00 0.00 0.00 0.00 0.00 0.00 0.00 0.00 0.00 0.00 0.00 0.00 0.00 0.00 0.00 0.00 0.00 0.00 0.00 0.00 0.00 0.00 0.00
0.03 0.03 0.05 0.03 0.03 0.00 0.00 0.00 0.00 0.05 0.05 0.09 0.10 0.05 0.03 0.01 0.06 0.19 0.07 0.02 0.00 0.00 0.00 0.01 0.00 0.01 0.01 0.00 0.01 0.01 0.00 0.00 0.00 0.00 0.00 0.00 0.00 0.00 0.00 0.00 0.00 0.00 0.00
0.04 0.04 0.02 0.02 0.04 0.02 0.01 0.01 0.02 0.05 0.07 0.05 0.02 0.01 0.01 0.03 0.03 0.11 0.09 0.06 0.02 0.05 0.08 0.09 0.08 0.10 0.12 0.14 0.09 0.03 0.01 0.01 0.00 0.00 0.00 0.00 0.00 0.00 0.00 0.00 0.00 0.00 0.00
0.05 0.05 0.06 0.04 0.04 0.07 0.08 0.07 0.04 0.09 0.07 0.03 0.03 0.04 0.04 0.03 0.17 0.21 0.19 0.16 0.13 0.14 0.23 0.27 0.26 0.19 0.15 0.09 0.07 0.05 0.05 0.06 0.04 0.01 0.00 0.00 0.00 0.00 0.00 0.00 0.00 0.00 0.00

GFSSE_prec_precacc_051.txt.gz
Total_Precipitation_Accumulation
0.88 0.35 0.15 0.16 0.15 0.06 0.01 0.01 0.00 0.00 0.00 0.00 0.00 0.00 0.00 0.00 0.00 0.00 0.00 0.00 0.00 0.01 0.00 0.00 0.00 0.00 0.00 0.00 0.00 0.00 0.00 0.00 0.01 0.04 0.04 0.05 0.08 0.04 0.03 0.01 0.02 0.04 0.09
1.66 1.34 0.76 0.27 0.21 0.03 0.01 0.00 0.00 0.00 0.00 0.00 0.00 0.00 0.00 0.00 0.00 0.00 0.00 0.00 0.00 0.00 0.00 0.00 0.00 0.00 0.00 0.00 0.00 0.00 0.00 0.00 0.00 0.01 0.01 0.04 0.10 0.02 0.06 0.02 0.02 0.03 0.05
1.23 2.35 1.77 0.98 0.45 0.14 0.06 0.02 0.03 0.01 0.00 0.00 0.00 0.00 0.00 0.00 0.00 0.00 0.00 0.00 0.00 0.00 0.00 0.00 0.00 0.00 0.00 0.00 0.00 0.00 0.00 0.00 0.00 0.00 0.00 0.06 0.02 0.02 0.05 0.05 0.02 0.01 0.02
0.38 0.78 1.84 1.47 0.85 0.43 0.21 0.16 0.15 0.13 0.02 0.00 0.00 0.00 0.00 0.00 0.00 0.00 0.00 0.00 0.00 0.00 0.00 0.00 0.00 0.00 0.00 0.00 0.00 0.00 0.00 0.00 0.00 0.00 0.00 0.01 0.02 0.04 0.10 0.11 0.07 0.02 0.01
0.96 0.81 0.69 0.84 1.00 0.83 0.49 0.34 0.25 0.13 0.03 0.01 0.00 0.00 0.00 0.00 0.00 0.00 0.00 0.00 0.00 0.00 0.00 0.00 0.00 0.00 0.00 0.00 0.00 0.00 0.00 0.00 0.00 0.00 0.00 0.00 0.00 0.04 0.11 0.10 0.03 0.03 0.03
2.23 1.88 1.45 1.01 0.97 1.14 1.09 0.64 0.27 0.11 0.02 0.01 0.01 0.00 0.00 0.00 0.00 0.00 0.00 0.00 0.00 0.00 0.00 0.00 0.00 0.00 0.00 0.00 0.00 0.00 0.00 0.00 0.00 0.00 0.00 0.00 0.00 0.02 0.06 0.07 0.07 0.03 0.03
3.72 2.99 2.76 3.32 2.68 1.50 1.52 0.79 0.32 0.19 0.06 0.03 0.01 0.00 0.00 0.00 0.01 0.01 0.00 0.00 0.00 0.00 0.00 0.00 0.00 0.00 0.00 0.00 0.00 0.00 0.00 0.00 0.00 0.00 0.00 0.00 0.00 0.00 0.01 0.02 0.03 0.01 0.02
5.50 4.26 4.40 4.48 4.06 4.15 1.86 0.80 0.27 0.18 0.12 0.06 0.01 0.00 0.00 0.00 0.01 0.00 0.00 0.00 0.00 0.00 0.00 0.00 0.00 0.00 0.00 0.00 0.00 0.00 0.00 0.00 0.00 0.00 0.00 0.00 0.00 0.00 0.00 0.01 0.01 0.00 0.00
6.52 7.95 7.85 7.10 5.31 4.49 2.85 1.07 0.38 0.23 0.18 0.11 0.01 0.00 0.00 0.00 0.00 0.00 0.00 0.00 0.00 0.00 0.00 0.00 0.00 0.00 0.00 0.00 0.00 0.00 0.00 0.00 0.00 0.00 0.00 0.00 0.00 0.00 0.00 0.00 0.02 0.02 0.01
4.69 6.41 7.10 8.24 7.98 3.34 1.94 1.14 0.37 0.29 0.29 0.18 0.02 0.00 0.00 0.00 0.00 0.00 0.00 0.00 0.00 0.00 0.00 0.00 0.00 0.00 0.00 0.00 0.00 0.00 0.00 0.00 0.00 0.00 0.00 0.00 0.00 0.00 0.00 0.00 0.00 0.00 0.01
2.51 3.10 4.36 6.08 5.58 3.18 1.39 0.93 0.35 0.32 0.38 0.26 0.04 0.00 0.00 0.00 0.00 0.00 0.00 0.00 0.00 0.00 0.00 0.00 0.00 0.00 0.00 0.00 0.00 0.00 0.00 0.00 0.00 0.00 0.00 0.00 0.00 0.00 0.00 0.00 0.00 0.00 0.00
1.28 1.47 1.61 2.75 3.88 2.69 1.37 0.87 0.46 0.43 0.47 0.42 0.07 0.00 0.00 0.00 0.00 0.00 0.00 0.00 0.00 0.00 0.00 0.00 0.00 0.00 0.00 0.00 0.00 0.00 0.00 0.00 0.00 0.00 0.00 0.00 0.00 0.01 0.01 0.00 0.00 0.00 0.01
0.76 0.71 0.71 0.97 1.26 1.80 1.38 0.87 0.56 0.42 0.45 0.51 0.12 0.00 0.00 0.01 0.00 0.00 0.00 0.01 0.02 0.00 0.00 0.00 0.00 0.00 0.00 0.00 0.00 0.00 0.00 0.00 0.00 0.00 0.00 0.00 0.00 0.01 0.02 0.01 0.00 0.00 0.00
0.37 0.31 0.34 0.29 0.31 0.53 0.95 0.87 0.45 0.32 0.39 0.30 0.11 0.01 0.04 0.04 0.03 0.00 0.00 0.01 0.00 0.00 0.00 0.00 0.00 0.00 0.00 0.00 0.00 0.00 0.00 0.00 0.00 0.00 0.00 0.00 0.00 0.01 0.04 0.03 0.01 0.00 0.00
0.20 0.31 0.22 0.12 0.14 0.31 0.51 0.55 0.48 0.30 0.27 0.24 0.19 0.16 0.10 0.05 0.04 0.00 0.00 0.00 0.00 0.00 0.00 0.00 0.00 0.00 0.00 0.00 0.00 0.00 0.00 0.00 0.00 0.00 0.00 0.00 0.00 0.01 0.05 0.05 0.02 0.00 0.00
0.30 0.31 0.27 0.27 0.19 0.29 0.42 0.35 0.32 0.33 0.32 0.33 0.32 0.33 0.25 0.16 0.10 0.04 0.03 0.00 0.00 0.00 0.00 0.00 0.00 0.00 0.00 0.00 0.00 0.00 0.00 0.00 0.00 0.00 0.00 0.00 0.00 0.00 0.02 0.02 0.01 0.00 0.00
0.40 0.23 0.27 0.31 0.38 0.37 0.30 0.18 0.23 0.23 0.19 0.18 0.19 0.27 0.25 0.20 0.11 0.03 0.04 0.01 0.00 0.00 0.00 0.00 0.00 0.00 0.00 0.00 0.00 0.00 0.00 0.00 0.00 0.00 0.00 0.00 0.00 0.00 0.00 0.00 0.00 0.00 0.00
0.29 0.49 0.17 0.20 0.61 0.45 0.35 0.18 0.18 0.16 0.13 0.12 0.17 0.13 0.06 0.04 0.01 0.00 0.01 0.00 0.00 0.00 0.00 0.00 0.00 0.00 0.00 0.00 0.00 0.00 0.00 0.00 0.00 0.00 0.00 0.00 0.00 0.00 0.00 0.00 0.00 0.00 0.00
0.04 0.41 0.48 0.30 0.38 0.50 0.49 0.28 0.16 0.10 0.08 0.10 0.08 0.10 0.07 0.02 0.00 0.00 0.00 0.00 0.00 0.00 0.00 0.00 0.00 0.00 0.00 0.00 0.00 0.00 0.00 0.00 0.00 0.00 0.00 0.00 0.00 0.00 0.00 0.00 0.00 0.00 0.00
0.02 0.02 0.30 0.39 0.35 0.38 0.34 0.11 0.09 0.03 0.03 0.09 0.10 0.05 0.04 0.01 0.04 0.03 0.01 0.01 0.00 0.00 0.00 0.00 0.00 0.00 0.00 0.00 0.00 0.00 0.00 0.00 0.00 0.00 0.00 0.00 0.00 0.00 0.00 0.00 0.00 0.00 0.00
0.06 0.03 0.08 0.13 0.11 0.29 0.28 0.10 0.07 0.05 0.04 0.08 0.17 0.07 0.23 0.11 0.12 0.06 0.02 0.02 0.01 0.01 0.00 0.00 0.00 0.00 0.00 0.00 0.00 0.00 0.00 0.00 0.00 0.00 0.00 0.00 0.00 0.00 0.00 0.00 0.00 0.00 0.00
0.04 0.03 0.00 0.02 0.04 0.11 0.16 0.17 0.05 0.03 0.04 0.10 0.15 0.15 0.22 0.20 0.07 0.07 0.05 0.04 0.03 0.02 0.00 0.00 0.00 0.00 0.00 0.00 0.00 0.00 0.00 0.00 0.00 0.00 0.00 0.00 0.00 0.00 0.00 0.00 0.00 0.00 0.00
0.01 0.01 0.01 0.01 0.02 0.03 0.05 0.16 0.04 0.08 0.05 0.07 0.13 0.12 0.11 0.11 0.05 0.06 0.04 0.03 0.04 0.03 0.01 0.00 0.00 0.00 0.00 0.00 0.00 0.00 0.00 0.00 0.00 0.00 0.00 0.00 0.00 0.00 0.00 0.00 0.00 0.00 0.00
0.03 0.03 0.05 0.03 0.03 0.00 0.01 0.03 0.01 0.05 0.05 0.09 0.10 0.05 0.03 0.01 0.07 0.19 0.07 0.02 0.01 0.01 0.01 0.03 0.01 0.01 0.01 0.00 0.01 0.01 0.00 0.00 0.00 0.00 0.00 0.00 0.00 0.00 0.00 0.00 0.00 0.00 0.00
0.04 0.04 0.02 0.02 0.04 0.02 0.01 0.01 0.02 0.05 0.07 0.05 0.02 0.01 0.01 0.03 0.03 0.11 0.09 0.06 0.02 0.05 0.08 0.11 0.11 0.12 0.13 0.15 0.09 0.04 0.02 0.01 0.01 0.01 0.01 0.00 0.00 0.00 0.00 0.00 0.00 0.00 0.00
0.05 0.05 0.06 0.04 0.04 0.07 0.08 0.07 0.04 0.09 0.07 0.03 0.03 0.04 0.04 0.03 0.17 0.21 0.19 0.16 0.13 0.14 0.23 0.27 0.29 0.21 0.17 0.12 0.09 0.06 0.06 0.08 0.04 0.02 0.01 0.01 0.00 0.00 0.00 0.00 0.00 0.00 0.00

GFSSE_prec_precacc_057.txt.gz
Total_Precipitation_Accumulation
0.88 0.36 0.15 0.16 0.16 0.06 0.01 0.01 0.00 0.00 0.00 0.00 0.00 0.00 0.00 0.00 0.00 0.00 0.00 0.00 0.01 0.03 0.01 0.01 0.01 0.02 0.01 0.01 0.00 0.00 0.00 0.01 0.01 0.05 0.05 0.07 0.10 0.06 0.04 0.03 0.05 0.06 0.11
1.66 1.34 0.76 0.27 0.22 0.03 0.01 0.00 0.00 0.00 0.00 0.00 0.00 0.00 0.00 0.00 0.00 0.00 0.00 0.00 0.01 0.01 0.01 0.00 0.00 0.00 0.01 0.00 0.00 0.00 0.00 0.00 0.00 0.01 0.02 0.06 0.12 0.04 0.07 0.03 0.04 0.04 0.06
1.24 2.36 1.78 0.98 0.49 0.17 0.06 0.02 0.03 0.02 0.00 0.00 0.00 0.00 0.01 0.01 0.01 0.00 0.00 0.00 0.00 0.00 0.00 0.00 0.00 0.00 0.00 0.00 0.00 0.00 0.00 0.00 0.00 0.00 0.00 0.06 0.02 0.02 0.05 0.05 0.02 0.01 0.02
0.39 0.79 1.84 1.47 0.90 0.55 0.23 0.17 0.15 0.14 0.03 0.01 0.01 0.00 0.01 0.03 0.02 0.00 0.00 0.00 0.00 0.00 0.00 0.00 0.01 0.01 0.00 0.00 0.00 0.00 0.00 0.00 0.00 0.00 0.00 0.01 0.02 0.05 0.10 0.11 0.07 0.02 0.01
0.96 0.81 0.69 0.84 1.03 1.04 0.51 0.34 0.26 0.14 0.05 0.03 0.04 0.01 0.00 0.01 0.01 0.00 0.00 0.00 0.00 0.00 0.00 0.01 0.01 0.01 0.00 0.00 0.00 0.00 0.00 0.00 0.00 0.00 0.00 0.00 0.00 0.04 0.11 0.10 0.03 0.03 0.03
2.24 1.89 1.46 1.03 1.01 1.44 1.30 0.65 0.28 0.12 0.03 0.04 0.07 0.02 0.01 0.01 0.00 0.00 0.00 0.00 0.01 0.01 0.01 0.00 0.01 0.00 0.00 0.00 0.00 0.00 0.00 0.00 0.00 0.00 0.00 0.00 0.00 0.02 0.06 0.07 0.07 0.03 0.03
3.77 3.03 2.81 3.34 2.78 1.84 2.21 1.38 0.58 0.34 0.17 0.06 0.01 0.00 0.01 0.01 0.01 0.01 0.00 0.01 0.02 0.02 0.00 0.00 0.00 0.00 0.00 0.00 0.00 0.00 0.00 0.00 0.00 0.00 0.00 0.00 0.00 0.01 0.01 0.02 0.03 0.01 0.02
5.54 4.46 4.75 4.58 4.20 4.43 2.17 2.04 1.15 0.32 0.29 0.16 0.02 0.03 0.01 0.01 0.02 0.01 0.01 0.01 0.02 0.01 0.00 0.00 0.00 0.00 0.00 0.00 0.00 0.00 0.00 0.00 0.00 0.00 0.00 0.00 0.00 0.00 0.00 0.01 0.01 0.00 0.00
6.57 8.13 8.31 7.51 5.46 4.72 3.20 1.91 1.90 0.83 0.36 0.24 0.06 0.02 0.01 0.00 0.02 0.02 0.01 0.00 0.01 0.00 0.00 0.00 0.00 0.00 0.00 0.00 0.00 0.00 0.00 0.00 0.00 0.00 0.00 0.00 0.00 0.00 0.00 0.00 0.02 0.02 0.01
4.78 6.69 7.59 8.84 8.26 3.53 2.15 1.66 1.98 1.44 0.79 0.44 0.12 0.07 0.01 0.00 0.00 0.02 0.01 0.01 0.01 0.00 0.00 0.00 0.00 0.00 0.00 0.00 0.00 0.00 0.00 0.00 0.00 0.00 0.00 0.00 0.00 0.00 0.00 0.00 0.00 0.00 0.01
2.60 3.28 4.88 7.50 6.11 3.30 1.56 1.19 1.13 1.74 0.95 0.62 0.28 0.20 0.10 0.01 0.00 0.02 0.02 0.02 0.01 0.00 0.00 0.00 0.00 0.00 0.00 0.00 0.00 0.00 0.00 0.00 0.00 0.00 0.00 0.00 0.00 0.00 0.00 0.00 0.00 0.00 0.00
1.39 1.69 1.90 3.55 4.13 2.81 1.54 1.17 0.89 1.24 0.88 0.68 0.41 0.20 0.16 0.09 0.03 0.01 0.02 0.01 0.00 0.00 0.00 0.00 0.00 0.00 0.00 0.00 0.00 0.00 0.00 0.00 0.00 0.00 0.00 0.00 0.01 0.01 0.01 0.00 0.00 0.00 0.01
0.92 0.81 0.96 1.47 1.76 2.16 1.70 1.34 1.12 0.96 0.80 0.87 0.49 0.18 0.18 0.12 0.03 0.03 0.02 0.02 0.02 0.00 0.00 0.00 0.00 0.00 0.00 0.00 0.00 0.00 0.00 0.00 0.00 0.00 0.00 0.00 0.01 0.01 0.02 0.01 0.00 0.00 0.00
0.39 0.37 0.57 0.57 0.63 0.91 1.27 1.21 0.83 0.84 0.90 0.69 0.42 0.16 0.22 0.12 0.05 0.02 0.01 0.01 0.00 0.00 0.00 0.00 0.00 0.00 0.00 0.00 0.00 0.00 0.00 0.00 0.00 0.00 0.00 0.00 0.00 0.01 0.04 0.03 0.01 0.00 0.00
0.21 0.32 0.31 0.34 0.27 0.43 0.65 0.88 0.86 0.57 0.58 0.53 0.46 0.27 0.18 0.08 0.05 0.01 0.01 0.01 0.00 0.00 0.00 0.00 0.00 0.00 0.00 0.00 0.00 0.00 0.00 0.00 0.00 0.00 0.00 0.00 0.00 0.01 0.05 0.05 0.02 0.00 0.00
0.30 0.31 0.27 0.32 0.26 0.36 0.67 0.76 0.90 0.80 0.59 0.62 0.51 0.39 0.28 0.17 0.12 0.05 0.04 0.01 0.00 0.00 0.00 0.00 0.00 0.00 0.00 0.00 0.00 0.00 0.00 0.00 0.00 0.00 0.00 0.00 0.00 0.01 0.02 0.02 0.01 0.00 0.00
0.41 0.24 0.27 0.31 0.40 0.40 0.44 0.52 0.80 0.85 0.67 0.52 0.32 0.30 0.26 0.20 0.11 0.03 0.04 0.01 0.00 0.00 0.00 0.00 0.00 0.00 0.00 0.00 0.00 0.00 0.00 0.00 0.00 0.00 0.00 0.00 0.00 0.00 0.01 0.01 0.00 0.00 0.00
0.30 0.52 0.19 0.21 0.62 0.50 0.43 0.40 0.54 0.72 0.67 0.50 0.28 0.15 0.06 0.04 0.01 0.00 0.01 0.00 0.00 0.00 0.00 0.00 0.00 0.00 0.00 0.00 0.00 0.00 0.00 0.00 0.00 0.00 0.00 0.00 0.00 0.00 0.00 0.01 0.00 0.00 0.00
0.05 0.48 0.52 0.32 0.39 0.58 0.61 0.47 0.42 0.48 0.47 0.40 0.16 0.10 0.07 0.02 0.00 0.00 0.00 0.00 0.00 0.00 0.00 0.00 0.00 0.00 0.00 0.00 0.00 0.00 0.00 0.00 0.00 0.00 0.00 0.00 0.00 0.00 0.00 0.00 0.00 0.00 0.00
0.03 0.05 0.35 0.45 0.39 0.40 0.43 0.30 0.33 0.31 0.31 0.26 0.14 0.06 0.04 0.01 0.04 0.03 0.01 0.01 0.00 0.00 0.00 0.00 0.00 0.00 0.00 0.00 0.00 0.00 0.00 0.00 0.00 0.00 0.00 0.00 0.00 0.00 0.00 0.00 0.00 0.00 0.00
0.06 0.04 0.10 0.23 0.20 0.34 0.32 0.18 0.19 0.17 0.14 0.14 0.19 0.08 0.23 0.11 0.12 0.06 0.02 0.02 0.01 0.01 0.01 0.01 0.00 0.00 0.00 0.00 0.00 0.00 0.00 0.00 0.00 0.00 0.00 0.00 0.00 0.00 0.00 0.00 0.01 0.00 0.00
0.05 0.04 0.01 0.03 0.08 0.18 0.23 0.23 0.09 0.07 0.08 0.11 0.15 0.15 0.22 0.22 0.07 0.07 0.05 0.04 0.03 0.02 0.00 0.01 0.00 0.00 0.00 0.00 0.00 0.00 0.00 0.00 0.00 0.00 0.00 0.00 0.00 0.00 0.00 0.00 0.00 0.00 0.00
0.01 0.01 0.01 0.02 0.03 0.05 0.13 0.23 0.15 0.18 0.12 0.11 0.14 0.13 0.11 0.14 0.05 0.06 0.04 0.03 0.04 0.03 0.01 0.00 0.00 0.00 0.00 0.00 0.00 0.00 0.00 0.00 0.00 0.00 0.00 0.00 0.00 0.00 0.00 0.00 0.00 0.00 0.00
0.03 0.03 0.06 0.04 0.03 0.01 0.02 0.05 0.05 0.12 0.09 0.11 0.10 0.05 0.03 0.04 0.09 0.19 0.07 0.02 0.01 0.01 0.01 0.03 0.02 0.02 0.01 0.01 0.01 0.01 0.00 0.00 0.01 0.03 0.01 0.00 0.00 0.00 0.00 0.00 0.00 0.00 0.00
0.04 0.04 0.03 0.03 0.05 0.02 0.02 0.02 0.03 0.06 0.08 0.06 0.02 0.02 0.02 0.05 0.07 0.12 0.09 0.06 0.04 0.06 0.09 0.11 0.11 0.12 0.14 0.19 0.13 0.04 0.02 0.01 0.01 0.03 0.06 0.04 0.01 0.00 0.00 0.00 0.00 0.00 0.00
0.05 0.05 0.06 0.05 0.04 0.07 0.08 0.08 0.04 0.09 0.07 0.03 0.03 0.04 0.04 0.04 0.20 0.24 0.20 0.16 0.17 0.21 0.29 0.34 0.39 0.26 0.19 0.18 0.21 0.12 0.13 0.12 0.07 0.05 0.03 0.04 0.07 0.04 0.02 0.03 0.04 0.03 0.02

GFSSE_prec_precacc_060.txt.gz
Total_Precipitation_Accumulation
0.88 0.36 0.15 0.16 0.16 0.06 0.01 0.01 0.00 0.00 0.00 0.00 0.00 0.00 0.00 0.00 0.00 0.00 0.00 0.00 0.01 0.03 0.02 0.02 0.02 0.02 0.01 0.01 0.00 0.00 0.00 0.01 0.01 0.05 0.06 0.08 0.10 0.06 0.05 0.04 0.05 0.06 0.12
1.66 1.34 0.76 0.27 0.22 0.04 0.02 0.00 0.00 0.00 0.00 0.00 0.00 0.00 0.00 0.00 0.00 0.00 0.00 0.00 0.01 0.01 0.01 0.01 0.01 0.01 0.01 0.00 0.00 0.00 0.00 0.00 0.00 0.01 0.03 0.07 0.13 0.05 0.07 0.03 0.04 0.04 0.06
1.24 2.36 1.78 0.98 0.49 0.18 0.07 0.03 0.04 0.02 0.00 0.00 0.00 0.01 0.01 0.01 0.01 0.00 0.00 0.00 0.00 0.00 0.00 0.00 0.00 0.01 0.01 0.00 0.00 0.00 0.00 0.00 0.00 0.00 0.00 0.06 0.03 0.02 0.05 0.05 0.02 0.01 0.02
0.39 0.79 1.84 1.47 0.91 0.56 0.23 0.17 0.16 0.18 0.06 0.01 0.01 0.00 0.01 0.03 0.03 0.02 0.01 0.00 0.00 0.00 0.00 0.01 0.01 0.01 0.00 0.00 0.00 0.00 0.00 0.00 0.00 0.00 0.00 0.01 0.02 0.05 0.10 0.11 0.07 0.03 0.02
0.96 0.81 0.69 0.84 1.03 1.05 0.52 0.35 0.28 0.19 0.10 0.05 0.05 0.01 0.00 0.03 0.02 0.03 0.01 0.00 0.00 0.00 0.00 0.01 0.01 0.01 0.00 0.00 0.00 0.00 0.00 0.00 0.00 0.00 0.00 0.00 0.01 0.04 0.11 0.11 0.03 0.03 0.03
2.24 1.89 1.46 1.03 1.03 1.46 1.41 0.75 0.37 0.17 0.06 0.09 0.09 0.03 0.02 0.03 0.02 0.01 0.01 0.00 0.01 0.01 0.01 0.01 0.01 0.00 0.00 0.00 0.00 0.00 0.00 0.00 0.00 0.00 0.00 0.00 0.00 0.02 0.06 0.07 0.07 0.03 0.03
3.77 3.05 2.81 3.34 2.79 1.88 2.37 1.69 0.90 0.63 0.28 0.15 0.06 0.02 0.01 0.02 0.02 0.01 0.00 0.01 0.02 0.02 0.01 0.00 0.00 0.00 0.00 0.00 0.00 0.00 0.00 0.00 0.00 0.00 0.00 0.00 0.00 0.01 0.02 0.02 0.03 0.01 0.02
5.54 4.48 4.79 4.59 4.22 4.49 2.32 2.51 2.37 1.72 0.90 0.26 0.05 0.04 0.01 0.01 0.02 0.02 0.01 0.01 0.02 0.01 0.00 0.00 0.00 0.00 0.00 0.00 0.00 0.00 0.00 0.00 0.00 0.00 0.00 0.00 0.00 0.00 0.01 0.01 0.01 0.00 0.00
6.57 8.14 8.35 7.55 5.55 4.83 3.30 2.11 2.44 2.42 1.81 0.83 0.10 0.04 0.01 0.00 0.02 0.03 0.02 0.01 0.01 0.00 0.00 0.00 0.00 0.00 0.00 0.00 0.00 0.00 0.00 0.00 0.00 0.00 0.00 0.00 0.00 0.00 0.00 0.00 0.02 0.02 0.01
4.79 6.69 7.60 8.91 8.38 3.70 2.29 1.82 2.45 3.21 2.33 1.66 0.26 0.09 0.02 0.00 0.01 0.02 0.03 0.01 0.01 0.00 0.00 0.00 0.00 0.00 0.00 0.00 0.00 0.00 0.00 0.00 0.00 0.00 0.00 0.00 0.01 0.00 0.00 0.00 0.00 0.00 0.01
2.63 3.30 4.89 7.53 6.13 3.40 1.76 1.30 1.44 2.92 2.99 1.87 0.56 0.35 0.11 0.01 0.03 0.02 0.06 0.04 0.01 0.00 0.00 0.00 0.00 0.00 0.00 0.00 0.00 0.00 0.00 0.00 0.00 0.00 0.00 0.00 0.00 0.00 0.00 0.00 0.00 0.00 0.00
1.41 1.71 1.91 3.61 4.18 2.87 1.69 1.29 0.99 1.55 2.33 2.00 0.73 0.41 0.22 0.10 0.05 0.03 0.08 0.06 0.00 0.00 0.00 0.00 0.00 0.00 0.00 0.00 0.00 0.00 0.00 0.00 0.00 0.00 0.00 0.01 0.01 0.01 0.01 0.01 0.00 0.00 0.01
0.94 0.83 0.97 1.49 1.79 2.20 1.75 1.40 1.30 1.19 1.15 1.84 0.68 0.24 0.23 0.21 0.11 0.10 0.06 0.06 0.02 0.00 0.00 0.00 0.00 0.00 0.00 0.00 0.00 0.00 0.00 0.00 0.00 0.00 0.00 0.01 0.01 0.01 0.02 0.01 0.00 0.00 0.00
0.39 0.37 0.58 0.58 0.64 0.94 1.28 1.22 0.90 0.99 1.04 0.83 0.47 0.18 0.23 0.17 0.12 0.06 0.03 0.03 0.00 0.00 0.00 0.00 0.00 0.00 0.00 0.00 0.00 0.00 0.00 0.00 0.00 0.00 0.00 0.00 0.00 0.01 0.04 0.03 0.01 0.00 0.00
0.21 0.33 0.32 0.35 0.28 0.45 0.66 0.92 0.89 0.61 0.72 0.69 0.52 0.30 0.22 0.12 0.13 0.10 0.02 0.01 0.00 0.00 0.00 0.00 0.00 0.00 0.00 0.00 0.00 0.00 0.00 0.00 0.00 0.00 0.00 0.00 0.00 0.01 0.05 0.05 0.02 0.00 0.00
0.30 0.32 0.28 0.32 0.26 0.36 0.68 0.78 0.92 0.82 0.62 0.70 0.54 0.44 0.31 0.21 0.17 0.12 0.04 0.02 0.00 0.00 0.00 0.00 0.00 0.00 0.00 0.00 0.00 0.00 0.00 0.00 0.00 0.00 0.00 0.00 0.00 0.01 0.03 0.02 0.01 0.00 0.00
0.41 0.24 0.27 0.31 0.41 0.40 0.44 0.52 0.81 0.88 0.69 0.55 0.35 0.32 0.29 0.23 0.14 0.06 0.04 0.01 0.00 0.00 0.00 0.00 0.00 0.00 0.00 0.00 0.00 0.00 0.00 0.00 0.00 0.00 0.00 0.00 0.00 0.00 0.01 0.01 0.00 0.00 0.00
0.30 0.52 0.19 0.21 0.62 0.50 0.43 0.40 0.56 0.82 0.80 0.58 0.34 0.18 0.10 0.05 0.03 0.03 0.02 0.01 0.00 0.00 0.00 0.00 0.00 0.00 0.00 0.00 0.00 0.00 0.00 0.00 0.00 0.00 0.00 0.00 0.00 0.00 0.00 0.01 0.00 0.00 0.00
0.05 0.48 0.52 0.32 0.40 0.58 0.61 0.47 0.45 0.60 0.67 0.56 0.27 0.15 0.10 0.02 0.01 0.03 0.08 0.05 0.01 0.01 0.00 0.00 0.00 0.00 0.00 0.00 0.00 0.00 0.00 0.00 0.00 0.00 0.00 0.00 0.00 0.00 0.00 0.00 0.00 0.00 0.00
0.03 0.05 0.35 0.45 0.39 0.40 0.43 0.31 0.39 0.49 0.56 0.44 0.26 0.10 0.07 0.02 0.04 0.04 0.01 0.02 0.01 0.00 0.00 0.00 0.00 0.00 0.00 0.00 0.00 0.00 0.00 0.00 0.00 0.00 0.00 0.00 0.00 0.00 0.00 0.00 0.00 0.00 0.00
0.06 0.04 0.10 0.24 0.21 0.35 0.32 0.19 0.24 0.29 0.43 0.28 0.25 0.09 0.23 0.11 0.12 0.06 0.02 0.02 0.01 0.01 0.01 0.01 0.00 0.00 0.00 0.00 0.00 0.00 0.00 0.00 0.00 0.00 0.00 0.00 0.00 0.00 0.00 0.00 0.01 0.00 0.00
0.05 0.04 0.02 0.03 0.08 0.18 0.23 0.23 0.10 0.11 0.15 0.18 0.17 0.16 0.23 0.22 0.07 0.07 0.05 0.04 0.03 0.02 0.00 0.01 0.00 0.00 0.00 0.00 0.00 0.00 0.00 0.00 0.00 0.00 0.00 0.00 0.00 0.00 0.00 0.00 0.00 0.00 0.00
0.01 0.01 0.02 0.02 0.03 0.05 0.13 0.23 0.16 0.18 0.14 0.14 0.15 0.13 0.11 0.14 0.05 0.06 0.04 0.03 0.04 0.03 0.01 0.00 0.00 0.00 0.00 0.00 0.00 0.00 0.00 0.00 0.00 0.00 0.00 0.00 0.00 0.00 0.00 0.00 0.00 0.00 0.00
0.03 0.03 0.06 0.04 0.03 0.01 0.03 0.06 0.06 0.12 0.10 0.11 0.10 0.06 0.04 0.05 0.10 0.19 0.07 0.02 0.01 0.01 0.02 0.04 0.02 0.02 0.02 0.01 0.01 0.01 0.00 0.03 0.09 0.08 0.01 0.00 0.00 0.00 0.00 0.00 0.00 0.00 0.00
0.04 0.04 0.03 0.03 0.05 0.02 0.02 0.02 0.03 0.06 0.08 0.06 0.02 0.02 0.02 0.06 0.08 0.12 0.09 0.06 0.04 0.06 0.09 0.15 0.12 0.13 0.14 0.21 0.14 0.04 0.02 0.01 0.01 0.10 0.10 0.05 0.01 0.00 0.00 0.00 0.00 0.00 0.00
0.05 0.05 0.06 0.05 0.05 0.08 0.08 0.08 0.04 0.09 0.07 0.03 0.03 0.04 0.04 0.04 0.20 0.25 0.20 0.17 0.18 0.22 0.30 0.36 0.40 0.26 0.19 0.19 0.27 0.16 0.16 0.14 0.08 0.06 0.05 0.06 0.10 0.05 0.02 0.03 0.04 0.03 0.02

GFSSE_prec_precacc_063.txt.gz
Total_Precipitation_Accumulation
0.88 0.36 0.15 0.16 0.16 0.06 0.01 0.01 0.00 0.00 0.00 0.00 0.00 0.00 0.00 0.00 0.00 0.00 0.00 0.00 0.01 0.03 0.02 0.02 0.02 0.02 0.01 0.01 0.00 0.00 0.00 0.01 0.01 0.05 0.06 0.09 0.11 0.07 0.05 0.04 0.05 0.07 0.12
1.66 1.34 0.76 0.27 0.22 0.04 0.02 0.00 0.00 0.00 0.00 0.00 0.00 0.00 0.00 0.00 0.00 0.00 0.00 0.00 0.01 0.02 0.01 0.01 0.01 0.01 0.01 0.00 0.00 0.00 0.00 0.00 0.00 0.02 0.04 0.08 0.14 0.05 0.07 0.03 0.04 0.05 0.06
1.24 2.36 1.78 0.98 0.49 0.18 0.07 0.03 0.04 0.02 0.00 0.00 0.00 0.01 0.01 0.01 0.01 0.00 0.00 0.00 0.00 0.01 0.01 0.01 0.01 0.01 0.01 0.00 0.00 0.00 0.00 0.00 0.00 0.00 0.01 0.07 0.03 0.03 0.06 0.05 0.02 0.01 0.02
0.39 0.79 1.84 1.47 0.91 0.56 0.23 0.17 0.16 0.20 0.06 0.01 0.02 0.00 0.01 0.03 0.03 0.02 0.01 0.00 0.00 0.01 0.01 0.01 0.02 0.01 0.00 0.00 0.00 0.00 0.00 0.00 0.00 0.00 0.00 0.02 0.03 0.07 0.10 0.11 0.08 0.03 0.02
0.96 0.81 0.69 0.84 1.03 1.05 0.53 0.35 0.30 0.21 0.11 0.05 0.06 0.01 0.00 0.03 0.02 0.04 0.02 0.00 0.00 0.00 0.01 0.02 0.01 0.01 0.00 0.00 0.00 0.00 0.00 0.00 0.00 0.00 0.00 0.00 0.01 0.05 0.11 0.11 0.03 0.03 0.03
2.24 1.89 1.46 1.03 1.05 1.51 1.41 0.76 0.38 0.19 0.16 0.11 0.10 0.04 0.02 0.03 0.02 0.02 0.01 0.00 0.01 0.02 0.02 0.01 0.01 0.00 0.00 0.00 0.00 0.00 0.00 0.00 0.00 0.00 0.00 0.00 0.00 0.02 0.06 0.07 0.07 0.03 0.03
3.77 3.05 2.81 3.34 2.79 1.99 2.49 1.71 0.98 0.71 0.50 0.35 0.08 0.02 0.02 0.03 0.02 0.01 0.00 0.01 0.02 0.03 0.01 0.00 0.00 0.00 0.00 0.00 0.00 0.00 0.00 0.00 0.00 0.00 0.00 0.00 0.00 0.01 0.02 0.02 0.03 0.01 0.02
5.54 4.48 4.79 4.59 4.22 4.53 2.48 2.74 2.63 2.23 1.54 0.65 0.21 0.07 0.02 0.09 0.03 0.02 0.01 0.01 0.02 0.01 0.00 0.00 0.00 0.00 0.00 0.00 0.00 0.00 0.00 0.00 0.00 0.00 0.00 0.00 0.01 0.01 0.01 0.01 0.01 0.00 0.00
6.57 8.14 8.36 7.55 5.56 4.85 3.39 2.26 2.71 3.33 3.87 3.34 0.94 0.23 0.06 0.04 0.02 0.03 0.02 0.01 0.01 0.00 0.00 0.00 0.00 0.00 0.00 0.00 0.00 0.00 0.00 0.00 0.00 0.00 0.00 0.00 0.00 0.00 0.00 0.00 0.02 0.02 0.01
4.79 6.70 7.61 8.92 8.42 3.81 2.50 1.86 2.58 3.52 2.74 3.29 2.83 1.15 0.14 0.08 0.01 0.02 0.03 0.01 0.01 0.00 0.00 0.00 0.00 0.00 0.00 0.00 0.00 0.00 0.00 0.00 0.00 0.00 0.00 0.00 0.01 0.00 0.00 0.00 0.00 0.00 0.01
2.64 3.34 4.89 7.53 6.15 3.44 1.90 1.38 1.56 3.15 3.23 2.58 2.10 1.82 0.39 0.04 0.03 0.02 0.06 0.04 0.01 0.00 0.00 0.00 0.00 0.00 0.00 0.00 0.00 0.00 0.00 0.00 0.00 0.00 0.00 0.01 0.00 0.00 0.00 0.00 0.00 0.00 0.00
1.41 1.71 1.91 3.61 4.18 2.92 1.73 1.37 1.06 1.63 2.46 2.83 1.55 1.24 0.45 0.12 0.05 0.03 0.09 0.06 0.00 0.00 0.00 0.00 0.00 0.00 0.00 0.00 0.00 0.00 0.00 0.00 0.00 0.00 0.00 0.01 0.01 0.01 0.01 0.01 0.00 0.00 0.01
0.94 0.83 0.97 1.49 1.79 2.25 1.79 1.43 1.32 1.22 1.22 2.72 1.73 0.73 0.43 0.27 0.13 0.11 0.07 0.06 0.02 0.00 0.00 0.00 0.00 0.00 0.00 0.00 0.00 0.00 0.00 0.00 0.00 0.00 0.00 0.01 0.01 0.01 0.02 0.01 0.00 0.00 0.00
0.39 0.37 0.58 0.59 0.66 0.94 1.28 1.24 0.90 0.99 1.05 1.30 1.52 0.51 0.32 0.20 0.15 0.08 0.04 0.03 0.00 0.00 0.00 0.00 0.00 0.00 0.00 0.00 0.00 0.00 0.00 0.00 0.00 0.00 0.00 0.00 0.00 0.01 0.04 0.03 0.01 0.00 0.00
0.21 0.33 0.32 0.35 0.28 0.45 0.67 0.92 0.89 0.61 0.72 0.75 0.91 0.51 0.25 0.12 0.14 0.16 0.03 0.01 0.00 0.00 0.00 0.00 0.00 0.00 0.00 0.00 0.00 0.00 0.00 0.00 0.00 0.00 0.00 0.00 0.00 0.01 0.05 0.05 0.02 0.00 0.00
0.30 0.32 0.28 0.33 0.27 0.37 0.68 0.78 0.93 0.83 0.62 0.70 0.56 0.46 0.31 0.22 0.17 0.14 0.05 0.02 0.00 0.00 0.00 0.00 0.00 0.00 0.00 0.00 0.00 0.00 0.00 0.00 0.00 0.00 0.00 0.00 0.00 0.01 0.03 0.02 0.01 0.00 0.00
0.41 0.24 0.27 0.32 0.43 0.41 0.44 0.53 0.81 0.88 0.69 0.55 0.35 0.32 0.29 0.23 0.14 0.08 0.04 0.01 0.00 0.00 0.00 0.00 0.00 0.00 0.00 0.00 0.00 0.00 0.00 0.00 0.00 0.00 0.00 0.00 0.00 0.00 0.01 0.01 0.00 0.00 0.00
0.30 0.52 0.19 0.22 0.64 0.51 0.44 0.41 0.56 0.82 0.80 0.59 0.34 0.18 0.10 0.05 0.03 0.04 0.03 0.02 0.00 0.00 0.00 0.00 0.00 0.00 0.00 0.00 0.00 0.00 0.00 0.00 0.00 0.00 0.00 0.00 0.00 0.00 0.00 0.01 0.00 0.00 0.00
0.05 0.48 0.52 0.33 0.41 0.59 0.61 0.48 0.46 0.61 0.70 0.57 0.27 0.15 0.10 0.02 0.01 0.05 0.11 0.08 0.02 0.02 0.00 0.00 0.00 0.00 0.00 0.00 0.00 0.00 0.00 0.00 0.00 0.00 0.00 0.00 0.00 0.00 0.00 0.00 0.00 0.00 0.00
0.03 0.05 0.35 0.46 0.40 0.41 0.43 0.32 0.39 0.51 0.68 0.47 0.28 0.10 0.07 0.02 0.04 0.04 0.02 0.05 0.03 0.03 0.00 0.00 0.00 0.00 0.00 0.00 0.00 0.00 0.00 0.00 0.00 0.00 0.00 0.00 0.00 0.00 0.00 0.00 0.00 0.00 0.00
0.06 0.04 0.10 0.24 0.21 0.35 0.32 0.20 0.25 0.31 0.49 0.33 0.34 0.12 0.24 0.11 0.12 0.07 0.02 0.03 0.02 0.04 0.01 0.01 0.00 0.00 0.00 0.00 0.00 0.00 0.00 0.00 0.00 0.00 0.00 0.00 0.00 0.00 0.00 0.00 0.01 0.00 0.00
0.05 0.04 0.02 0.03 0.08 0.18 0.23 0.23 0.10 0.12 0.17 0.22 0.23 0.21 0.23 0.22 0.07 0.07 0.05 0.04 0.04 0.04 0.02 0.01 0.00 0.00 0.00 0.00 0.00 0.00 0.00 0.00 0.00 0.00 0.00 0.00 0.00 0.00 0.00 0.00 0.00 0.00 0.00
0.01 0.01 0.02 0.02 0.03 0.05 0.13 0.24 0.16 0.19 0.15 0.18 0.17 0.14 0.11 0.14 0.05 0.06 0.04 0.03 0.04 0.03 0.01 0.00 0.00 0.00 0.00 0.00 0.00 0.00 0.00 0.00 0.00 0.00 0.00 0.00 0.00 0.00 0.00 0.00 0.00 0.00 0.00
0.03 0.03 0.06 0.04 0.03 0.01 0.03 0.06 0.06 0.12 0.10 0.11 0.10 0.06 0.04 0.05 0.10 0.19 0.07 0.02 0.01 0.01 0.02 0.04 0.02 0.02 0.02 0.01 0.01 0.01 0.00 0.03 0.10 0.09 0.01 0.00 0.00 0.00 0.00 0.00 0.00 0.00 0.00
0.04 0.04 0.03 0.04 0.05 0.02 0.02 0.02 0.03 0.06 0.08 0.06 0.02 0.02 0.02 0.06 0.08 0.12 0.09 0.06 0.04 0.06 0.09 0.16 0.13 0.13 0.14 0.21 0.14 0.04 0.02 0.01 0.02 0.13 0.11 0.05 0.01 0.00 0.00 0.00 0.00 0.00 0.00
0.05 0.05 0.06 0.05 0.05 0.08 0.08 0.08 0.04 0.09 0.07 0.03 0.03 0.04 0.04 0.04 0.21 0.25 0.20 0.17 0.18 0.22 0.30 0.36 0.43 0.27 0.19 0.19 0.29 0.16 0.17 0.14 0.08 0.06 0.05 0.06 0.10 0.05 0.02 0.03 0.04 0.03 0.02

GFSSE_prec_precacc_066.txt.gz
Total_Precipitation_Accumulation
0.88 0.36 0.15 0.16 0.16 0.06 0.01 0.01 0.00 0.00 0.00 0.00 0.00 0.00 0.00 0.00 0.00 0.00 0.00 0.00 0.01 0.03 0.02 0.02 0.02 0.03 0.03 0.01 0.01 0.00 0.00 0.01 0.02 0.07 0.07 0.11 0.13 0.08 0.05 0.04 0.05 0.07 0.14
1.66 1.34 0.76 0.27 0.22 0.04 0.02 0.00 0.00 0.00 0.00 0.00 0.00 0.00 0.00 0.00 0.00 0.00 0.00 0.00 0.01 0.02 0.01 0.01 0.02 0.02 0.02 0.01 0.00 0.00 0.00 0.00 0.01 0.02 0.04 0.09 0.15 0.06 0.08 0.04 0.05 0.05 0.07
1.24 2.36 1.78 0.98 0.49 0.18 0.07 0.03 0.04 0.02 0.00 0.00 0.00 0.01 0.01 0.01 0.01 0.00 0.00 0.00 0.00 0.01 0.01 0.01 0.02 0.03 0.01 0.00 0.00 0.00 0.00 0.00 0.00 0.01 0.01 0.07 0.04 0.04 0.07 0.05 0.03 0.01 0.02
0.39 0.79 1.84 1.47 0.91 0.56 0.23 0.17 0.16 0.20 0.06 0.01 0.02 0.00 0.01 0.03 0.03 0.02 0.01 0.00 0.00 0.01 0.01 0.02 0.03 0.02 0.01 0.00 0.00 0.00 0.00 0.00 0.00 0.00 0.00 0.02 0.04 0.08 0.11 0.12 0.08 0.03 0.02
0.96 0.81 0.69 0.84 1.03 1.05 0.53 0.35 0.30 0.21 0.11 0.05 0.06 0.01 0.00 0.03 0.02 0.04 0.02 0.00 0.01 0.01 0.02 0.03 0.02 0.01 0.00 0.00 0.00 0.00 0.00 0.00 0.00 0.00 0.00 0.00 0.01 0.05 0.11 0.11 0.03 0.03 0.03
2.24 1.89 1.46 1.03 1.05 1.51 1.41 0.76 0.38 0.19 0.16 0.12 0.11 0.04 0.02 0.03 0.02 0.02 0.01 0.00 0.03 0.03 0.03 0.02 0.01 0.00 0.00 0.01 0.00 0.00 0.00 0.00 0.00 0.00 0.00 0.00 0.00 0.03 0.06 0.07 0.07 0.04 0.03
3.77 3.05 2.81 3.34 2.80 2.06 2.57 1.71 0.98 0.72 0.53 0.38 0.11 0.02 0.02 0.03 0.02 0.01 0.00 0.01 0.04 0.04 0.02 0.01 0.00 0.00 0.00 0.00 0.00 0.00 0.00 0.00 0.00 0.00 0.00 0.00 0.00 0.02 0.02 0.03 0.03 0.02 0.02
5.54 4.48 4.79 4.59 4.25 4.60 2.67 3.07 2.81 2.34 1.72 0.81 0.38 0.14 0.03 0.09 0.03 0.02 0.01 0.01 0.02 0.01 0.01 0.00 0.00 0.00 0.00 0.00 0.00 0.00 0.00 0.00 0.00 0.00 0.00 0.00 0.01 0.01 0.01 0.01 0.01 0.01 0.01
6.57 8.14 8.36 7.55 5.58 4.86 3.43 2.46 3.38 4.23 4.38 3.92 1.93 1.16 0.30 0.11 0.03 0.03 0.02 0.01 0.02 0.01 0.00 0.00 0.00 0.00 0.00 0.00 0.00 0.00 0.00 0.00 0.00 0.00 0.00 0.00 0.00 0.00 0.01 0.01 0.02 0.02 0.02
4.79 6.70 7.63 8.93 8.43 3.81 2.50 1.87 2.70 4.01 3.35 3.92 4.01 2.97 1.13 0.61 0.14 0.04 0.03 0.01 0.01 0.00 0.00 0.00 0.00 0.00 0.00 0.00 0.00 0.00 0.00 0.00 0.00 0.00 0.00 0.00 0.01 0.01 0.00 0.00 0.00 0.00 0.01
2.64 3.34 4.89 7.54 6.16 3.44 1.91 1.39 1.63 3.29 3.37 2.72 2.48 2.86 1.60 0.98 0.29 0.06 0.06 0.04 0.01 0.00 0.00 0.00 0.00 0.00 0.00 0.00 0.00 0.00 0.00 0.00 0.00 0.00 0.00 0.01 0.01 0.01 0.01 0.00 0.00 0.00 0.00
1.41 1.71 1.91 3.61 4.18 2.92 1.74 1.39 1.09 1.70 2.52 2.89 1.62 1.65 1.37 0.74 0.30 0.04 0.09 0.06 0.00 0.00 0.00 0.00 0.00 0.00 0.00 0.00 0.00 0.00 0.00 0.00 0.00 0.00 0.00 0.01 0.01 0.01 0.02 0.01 0.01 0.00 0.01
0.94 0.83 0.97 1.49 1.80 2.25 1.81 1.46 1.32 1.22 1.22 2.74 1.76 0.84 0.88 0.88 0.28 0.12 0.07 0.06 0.02 0.00 0.00 0.00 0.00 0.00 0.00 0.00 0.00 0.00 0.00 0.00 0.00 0.00 0.00 0.01 0.01 0.01 0.02 0.02 0.00 0.00 0.00
0.39 0.37 0.58 0.60 0.66 0.95 1.28 1.24 0.90 0.99 1.05 1.30 1.64 0.70 0.52 0.63 0.20 0.08 0.04 0.03 0.00 0.00 0.00 0.00 0.00 0.00 0.00 0.00 0.00 0.00 0.00 0.00 0.00 0.00 0.00 0.00 0.01 0.01 0.04 0.03 0.01 0.00 0.00
0.21 0.33 0.32 0.35 0.29 0.46 0.67 0.92 0.89 0.62 0.72 0.76 1.03 0.76 0.35 0.19 0.14 0.16 0.03 0.01 0.00 0.00 0.00 0.00 0.00 0.00 0.00 0.00 0.00 0.00 0.00 0.00 0.00 0.00 0.00 0.00 0.00 0.01 0.05 0.05 0.02 0.00 0.00
0.30 0.32 0.28 0.33 0.28 0.38 0.68 0.78 0.93 0.84 0.62 0.71 0.64 0.58 0.34 0.22 0.17 0.14 0.05 0.02 0.00 0.00 0.00 0.00 0.00 0.00 0.00 0.00 0.00 0.00 0.00 0.00 0.00 0.00 0.00 0.00 0.00 0.01 0.03 0.02 0.01 0.00 0.00
0.41 0.24 0.28 0.33 0.43 0.42 0.45 0.53 0.81 0.88 0.70 0.56 0.39 0.37 0.30 0.23 0.14 0.08 0.04 0.01 0.00 0.00 0.00 0.00 0.00 0.00 0.00 0.00 0.00 0.00 0.00 0.00 0.00 0.00 0.00 0.00 0.00 0.00 0.01 0.01 0.00 0.00 0.00
0.30 0.52 0.19 0.22 0.64 0.51 0.44 0.41 0.56 0.82 0.81 0.59 0.35 0.20 0.10 0.05 0.03 0.04 0.03 0.02 0.00 0.00 0.00 0.00 0.00 0.00 0.00 0.00 0.00 0.00 0.00 0.00 0.00 0.00 0.00 0.00 0.00 0.00 0.00 0.01 0.00 0.00 0.00
0.05 0.48 0.52 0.33 0.42 0.60 0.62 0.48 0.46 0.61 0.71 0.59 0.29 0.16 0.10 0.03 0.01 0.05 0.11 0.08 0.02 0.02 0.00 0.00 0.00 0.00 0.00 0.00 0.00 0.00 0.00 0.00 0.00 0.00 0.00 0.00 0.00 0.00 0.00 0.00 0.00 0.00 0.00
0.03 0.05 0.35 0.46 0.41 0.42 0.43 0.32 0.40 0.51 0.69 0.48 0.29 0.10 0.07 0.02 0.04 0.04 0.02 0.05 0.03 0.03 0.00 0.00 0.00 0.00 0.00 0.00 0.00 0.00 0.00 0.00 0.00 0.00 0.00 0.00 0.00 0.00 0.00 0.00 0.00 0.00 0.00
0.06 0.04 0.10 0.25 0.22 0.36 0.32 0.20 0.26 0.32 0.51 0.35 0.37 0.14 0.24 0.11 0.12 0.07 0.03 0.03 0.02 0.05 0.01 0.01 0.00 0.00 0.00 0.00 0.00 0.00 0.00 0.00 0.00 0.00 0.00 0.00 0.00 0.00 0.00 0.00 0.01 0.00 0.00
0.05 0.04 0.02 0.04 0.09 0.19 0.23 0.23 0.11 0.12 0.19 0.26 0.30 0.31 0.29 0.23 0.07 0.07 0.05 0.05 0.04 0.05 0.02 0.01 0.00 0.00 0.00 0.00 0.00 0.00 0.00 0.00 0.00 0.00 0.00 0.00 0.00 0.00 0.00 0.00 0.00 0.00 0.00
0.01 0.01 0.02 0.02 0.04 0.06 0.14 0.24 0.16 0.19 0.16 0.20 0.29 0.36 0.26 0.16 0.05 0.06 0.04 0.04 0.04 0.04 0.02 0.01 0.00 0.00 0.00 0.00 0.00 0.00 0.00 0.00 0.00 0.00 0.00 0.00 0.00 0.00 0.00 0.00 0.00 0.00 0.00
0.03 0.03 0.06 0.04 0.03 0.02 0.03 0.06 0.06 0.12 0.11 0.12 0.12 0.14 0.18 0.08 0.10 0.19 0.07 0.03 0.01 0.01 0.04 0.04 0.02 0.02 0.02 0.01 0.01 0.01 0.00 0.03 0.10 0.09 0.01 0.00 0.00 0.00 0.00 0.00 0.00 0.00 0.00
0.04 0.04 0.03 0.04 0.05 0.03 0.03 0.03 0.04 0.06 0.08 0.06 0.03 0.04 0.08 0.11 0.09 0.12 0.09 0.07 0.04 0.07 0.10 0.17 0.13 0.13 0.14 0.21 0.14 0.04 0.02 0.01 0.02 0.13 0.11 0.05 0.01 0.00 0.00 0.00 0.00 0.00 0.00
0.05 0.05 0.06 0.05 0.05 0.08 0.08 0.08 0.04 0.09 0.07 0.03 0.03 0.05 0.07 0.05 0.21 0.25 0.20 0.17 0.19 0.22 0.30 0.37 0.43 0.27 0.19 0.19 0.29 0.16 0.17 0.14 0.08 0.06 0.05 0.06 0.10 0.05 0.02 0.03 0.04 0.03 0.02

GFSSE_prec_precacc_069.txt.gz
Total_Precipitation_Accumulation
0.88 0.36 0.15 0.16 0.16 0.06 0.01 0.01 0.00 0.00 0.00 0.00 0.00 0.00 0.00 0.00 0.00 0.00 0.00 0.00 0.01 0.03 0.02 0.02 0.02 0.03 0.04 0.02 0.01 0.03 0.02 0.01 0.02 0.08 0.10 0.14 0.16 0.09 0.06 0.04 0.06 0.07 0.15
1.66 1.34 0.76 0.27 0.22 0.04 0.02 0.00 0.00 0.00 0.00 0.00 0.00 0.00 0.00 0.00 0.00 0.00 0.00 0.00 0.01 0.02 0.01 0.01 0.02 0.03 0.03 0.01 0.00 0.00 0.00 0.00 0.01 0.03 0.06 0.11 0.17 0.09 0.09 0.04 0.05 0.06 0.08
1.24 2.36 1.78 0.98 0.49 0.18 0.07 0.03 0.04 0.02 0.00 0.00 0.00 0.01 0.01 0.01 0.01 0.00 0.00 0.00 0.00 0.01 0.01 0.01 0.02 0.04 0.03 0.00 0.00 0.00 0.00 0.00 0.00 0.01 0.01 0.07 0.05 0.05 0.08 0.06 0.03 0.02 0.03
0.39 0.79 1.84 1.47 0.91 0.56 0.23 0.17 0.16 0.20 0.06 0.01 0.02 0.00 0.01 0.03 0.03 0.02 0.01 0.00 0.00 0.01 0.01 0.03 0.05 0.04 0.02 0.00 0.00 0.00 0.00 0.00 0.00 0.00 0.00 0.03 0.04 0.08 0.11 0.12 0.08 0.03 0.02
0.96 0.81 0.69 0.84 1.03 1.05 0.53 0.35 0.30 0.21 0.11 0.05 0.06 0.01 0.00 0.03 0.02 0.04 0.02 0.00 0.01 0.01 0.03 0.04 0.04 0.03 0.01 0.00 0.00 0.00 0.00 0.00 0.00 0.00 0.00 0.01 0.01 0.06 0.12 0.11 0.03 0.04 0.03
2.24 1.89 1.46 1.03 1.05 1.51 1.41 0.76 0.38 0.19 0.16 0.12 0.11 0.04 0.02 0.03 0.02 0.02 0.01 0.00 0.03 0.03 0.04 0.04 0.04 0.02 0.01 0.01 0.00 0.00 0.00 0.00 0.00 0.00 0.00 0.00 0.00 0.03 0.06 0.07 0.07 0.04 0.03
3.77 3.05 2.81 3.34 2.80 2.06 2.58 1.72 0.99 0.72 0.53 0.38 0.11 0.02 0.02 0.03 0.02 0.01 0.00 0.01 0.05 0.05 0.04 0.02 0.02 0.02 0.01 0.00 0.00 0.00 0.00 0.00 0.00 0.00 0.00 0.00 0.00 0.02 0.02 0.03 0.03 0.02 0.02
5.54 4.48 4.79 4.59 4.25 4.60 2.68 3.20 3.06 2.50 1.77 0.86 0.41 0.18 0.06 0.09 0.03 0.02 0.01 0.01 0.04 0.02 0.02 0.01 0.00 0.00 0.00 0.00 0.00 0.00 0.00 0.00 0.00 0.00 0.00 0.00 0.01 0.01 0.01 0.01 0.01 0.01 0.01
6.57 8.14 8.36 7.57 5.70 4.95 3.51 2.58 3.70 4.97 5.38 4.42 2.23 1.60 0.78 0.38 0.13 0.06 0.02 0.01 0.02 0.01 0.00 0.00 0.00 0.00 0.00 0.00 0.00 0.00 0.00 0.00 0.00 0.00 0.00 0.00 0.01 0.01 0.01 0.01 0.03 0.02 0.02
4.79 6.70 7.63 8.94 8.45 3.86 2.56 1.92 2.76 4.33 5.81 5.79 4.62 3.50 1.95 1.22 0.76 0.21 0.08 0.02 0.01 0.00 0.00 0.00 0.00 0.00 0.00 0.00 0.00 0.00 0.00 0.00 0.00 0.00 0.00 0.00 0.01 0.01 0.01 0.00 0.00 0.00 0.01
2.64 3.34 4.89 7.54 6.16 3.45 1.91 1.40 1.66 3.42 3.47 3.02 2.90 3.37 2.00 1.66 1.05 0.40 0.16 0.07 0.01 0.00 0.00 0.00 0.00 0.00 0.00 0.00 0.00 0.00 0.00 0.00 0.00 0.00 0.00 0.01 0.01 0.01 0.01 0.00 0.00 0.00 0.01
1.41 1.71 1.91 3.61 4.18 2.92 1.74 1.39 1.09 1.74 2.60 3.02 1.74 1.82 1.52 1.43 1.04 0.39 0.22 0.07 0.00 0.00 0.00 0.00 0.00 0.00 0.00 0.00 0.00 0.00 0.00 0.00 0.00 0.00 0.00 0.01 0.01 0.01 0.02 0.01 0.01 0.00 0.01
0.94 0.83 0.97 1.49 1.80 2.25 1.81 1.46 1.34 1.25 1.27 2.84 1.84 0.87 0.92 1.06 0.82 0.48 0.20 0.07 0.02 0.00 0.00 0.00 0.00 0.00 0.00 0.00 0.00 0.00 0.00 0.00 0.00 0.00 0.00 0.01 0.01 0.02 0.03 0.02 0.01 0.00 0.00
0.39 0.37 0.58 0.60 0.66 0.95 1.28 1.24 0.92 1.01 1.08 1.33 1.69 0.72 0.52 0.78 0.37 0.31 0.11 0.03 0.00 0.00 0.00 0.00 0.00 0.00 0.00 0.00 0.00 0.00 0.00 0.00 0.00 0.00 0.00 0.00 0.01 0.01 0.04 0.03 0.01 0.00 0.00
0.21 0.33 0.32 0.35 0.29 0.46 0.67 0.93 0.90 0.62 0.73 0.78 1.08 0.77 0.36 0.35 0.22 0.21 0.05 0.01 0.00 0.00 0.00 0.00 0.00 0.00 0.00 0.00 0.00 0.00 0.00 0.00 0.00 0.00 0.00 0.00 0.00 0.02 0.05 0.05 0.02 0.00 0.00
0.30 0.32 0.28 0.33 0.28 0.39 0.68 0.78 0.93 0.84 0.64 0.71 0.65 0.59 0.37 0.28 0.21 0.14 0.05 0.02 0.00 0.00 0.00 0.00 0.00 0.00 0.00 0.00 0.00 0.00 0.00 0.00 0.00 0.00 0.00 0.00 0.00 0.01 0.03 0.02 0.01 0.00 0.00
0.41 0.24 0.28 0.33 0.43 0.43 0.45 0.53 0.81 0.88 0.70 0.56 0.43 0.41 0.34 0.27 0.16 0.08 0.04 0.01 0.00 0.00 0.00 0.00 0.00 0.00 0.00 0.00 0.00 0.00 0.00 0.00 0.00 0.00 0.00 0.00 0.00 0.00 0.01 0.01 0.00 0.00 0.00
0.30 0.52 0.19 0.22 0.64 0.52 0.45 0.41 0.56 0.82 0.81 0.60 0.42 0.35 0.23 0.11 0.04 0.04 0.03 0.02 0.00 0.00 0.00 0.00 0.00 0.00 0.00 0.00 0.00 0.00 0.00 0.00 0.00 0.00 0.00 0.00 0.00 0.00 0.00 0.01 0.00 0.00 0.00
0.05 0.48 0.52 0.33 0.42 0.60 0.62 0.48 0.46 0.61 0.71 0.59 0.37 0.43 0.31 0.08 0.02 0.05 0.11 0.08 0.02 0.02 0.00 0.00 0.00 0.00 0.00 0.00 0.00 0.00 0.00 0.00 0.00 0.00 0.00 0.00 0.00 0.00 0.00 0.00 0.00 0.00 0.00
0.03 0.05 0.35 0.46 0.41 0.42 0.43 0.32 0.40 0.51 0.69 0.49 0.30 0.16 0.17 0.06 0.05 0.04 0.02 0.05 0.03 0.03 0.00 0.00 0.00 0.00 0.00 0.00 0.00 0.00 0.00 0.00 0.00 0.00 0.00 0.00 0.00 0.00 0.00 0.00 0.00 0.00 0.00
0.06 0.04 0.10 0.25 0.22 0.36 0.33 0.20 0.26 0.32 0.51 0.35 0.37 0.15 0.26 0.14 0.14 0.07 0.03 0.03 0.02 0.05 0.01 0.01 0.00 0.00 0.00 0.00 0.00 0.00 0.00 0.00 0.00 0.00 0.00 0.00 0.00 0.00 0.00 0.00 0.01 0.00 0.00
0.05 0.04 0.02 0.04 0.09 0.19 0.24 0.23 0.11 0.12 0.19 0.27 0.32 0.35 0.30 0.24 0.10 0.09 0.06 0.05 0.04 0.05 0.02 0.01 0.00 0.00 0.00 0.00 0.00 0.00 0.00 0.00 0.00 0.00 0.00 0.00 0.00 0.00 0.00 0.00 0.00 0.00 0.00
0.01 0.01 0.02 0.02 0.04 0.06 0.14 0.24 0.16 0.20 0.17 0.21 0.36 0.55 0.31 0.18 0.10 0.10 0.05 0.04 0.04 0.04 0.02 0.01 0.00 0.00 0.00 0.00 0.00 0.00 0.00 0.01 0.00 0.00 0.00 0.00 0.00 0.00 0.00 0.00 0.00 0.00 0.00
0.03 0.03 0.06 0.04 0.03 0.02 0.03 0.07 0.06 0.12 0.11 0.13 0.13 0.25 0.35 0.16 0.14 0.24 0.10 0.05 0.01 0.02 0.04 0.05 0.02 0.02 0.02 0.01 0.01 0.01 0.00 0.03 0.10 0.10 0.01 0.00 0.00 0.00 0.00 0.00 0.00 0.00 0.00
0.04 0.04 0.03 0.04 0.05 0.03 0.03 0.03 0.04 0.06 0.09 0.06 0.03 0.05 0.23 0.24 0.15 0.16 0.11 0.09 0.06 0.07 0.11 0.18 0.13 0.13 0.14 0.21 0.14 0.04 0.02 0.01 0.02 0.13 0.11 0.05 0.01 0.00 0.00 0.00 0.00 0.00 0.00
0.05 0.05 0.06 0.05 0.05 0.08 0.08 0.08 0.04 0.09 0.07 0.04 0.04 0.05 0.08 0.15 0.29 0.31 0.23 0.19 0.21 0.23 0.31 0.41 0.46 0.27 0.19 0.19 0.29 0.16 0.17 0.14 0.08 0.06 0.05 0.06 0.10 0.05 0.02 0.03 0.04 0.03 0.02

GFSSE_prec_precacc_075.txt.gz
Total_Precipitation_Accumulation
0.88 0.36 0.15 0.16 0.17 0.06 0.01 0.01 0.00 0.00 0.00 0.00 0.00 0.00 0.00 0.00 0.00 0.00 0.00 0.00 0.01 0.03 0.02 0.02 0.02 0.03 0.04 0.03 0.03 0.05 0.03 0.02 0.03 0.10 0.14 0.19 0.18 0.10 0.07 0.05 0.07 0.07 0.18
1.66 1.34 0.76 0.27 0.23 0.04 0.02 0.00 0.00 0.00 0.00 0.00 0.00 0.00 0.00 0.00 0.00 0.00 0.00 0.00 0.01 0.02 0.02 0.01 0.02 0.03 0.04 0.02 0.02 0.00 0.00 0.00 0.01 0.04 0.14 0.16 0.19 0.10 0.10 0.04 0.06 0.07 0.11
1.24 2.36 1.78 0.99 0.50 0.18 0.07 0.03 0.04 0.02 0.00 0.00 0.00 0.01 0.01 0.01 0.01 0.00 0.00 0.01 0.00 0.02 0.02 0.01 0.03 0.05 0.05 0.02 0.00 0.00 0.00 0.00 0.01 0.02 0.04 0.08 0.07 0.07 0.09 0.09 0.07 0.05 0.06
0.39 0.79 1.84 1.47 0.91 0.56 0.23 0.17 0.16 0.20 0.07 0.01 0.02 0.00 0.01 0.04 0.04 0.02 0.01 0.00 0.01 0.02 0.04 0.04 0.06 0.06 0.05 0.01 0.00 0.00 0.00 0.00 0.00 0.00 0.00 0.03 0.06 0.11 0.13 0.14 0.10 0.05 0.04
0.96 0.81 0.69 0.84 1.04 1.06 0.53 0.35 0.30 0.22 0.12 0.05 0.06 0.01 0.00 0.03 0.02 0.04 0.02 0.01 0.01 0.03 0.07 0.09 0.07 0.06 0.03 0.00 0.00 0.00 0.00 0.00 0.00 0.00 0.00 0.01 0.02 0.07 0.14 0.12 0.04 0.04 0.04
2.24 1.89 1.46 1.03 1.05 1.52 1.41 0.76 0.38 0.19 0.20 0.15 0.11 0.04 0.02 0.03 0.02 0.03 0.02 0.01 0.05 0.06 0.10 0.10 0.07 0.05 0.02 0.01 0.00 0.00 0.00 0.00 0.00 0.00 0.00 0.00 0.00 0.03 0.07 0.07 0.07 0.04 0.03
3.77 3.05 2.81 3.34 2.80 2.07 2.58 1.72 0.99 0.73 0.55 0.40 0.11 0.02 0.02 0.03 0.03 0.08 0.04 0.05 0.08 0.06 0.06 0.05 0.03 0.03 0.01 0.00 0.00 0.00 0.00 0.00 0.00 0.00 0.00 0.00 0.00 0.02 0.03 0.03 0.03 0.02 0.02
5.54 4.48 4.79 4.60 4.25 4.62 2.69 3.28 3.28 2.76 1.91 0.91 0.50 0.27 0.33 0.51 0.29 0.27 0.18 0.15 0.12 0.06 0.03 0.02 0.01 0.00 0.00 0.00 0.00 0.00 0.00 0.00 0.00 0.00 0.00 0.00 0.02 0.02 0.02 0.02 0.01 0.01 0.01
6.57 8.14 8.36 7.58 5.71 5.01 3.66 2.81 3.95 5.37 5.95 5.38 3.33 2.72 1.93 1.22 0.73 0.37 0.25 0.16 0.12 0.06 0.01 0.01 0.00 0.00 0.00 0.00 0.00 0.00 0.00 0.00 0.00 0.00 0.00 0.00 0.01 0.02 0.02 0.01 0.03 0.03 0.02
4.79 6.70 7.63 8.94 8.46 3.91 2.82 2.27 2.97 4.38 5.93 6.76 5.83 4.67 3.04 1.94 1.38 0.70 0.53 0.34 0.13 0.08 0.03 0.01 0.00 0.00 0.00 0.00 0.00 0.00 0.00 0.00 0.00 0.00 0.00 0.00 0.02 0.02 0.01 0.01 0.01 0.01 0.02
2.64 3.34 4.89 7.54 6.16 3.45 1.93 1.50 1.82 3.56 3.54 3.12 3.16 4.03 3.01 2.15 1.63 0.99 0.75 0.61 0.34 0.16 0.05 0.00 0.00 0.00 0.00 0.00 0.00 0.00 0.00 0.00 0.00 0.00 0.00 0.01 0.02 0.01 0.02 0.01 0.01 0.01 0.01
1.41 1.71 1.91 3.61 4.18 2.92 1.74 1.41 1.11 1.76 2.67 3.09 1.78 1.91 1.84 1.83 1.59 0.84 0.78 0.83 0.63 0.31 0.07 0.01 0.00 0.00 0.00 0.00 0.00 0.00 0.00 0.00 0.00 0.00 0.00 0.02 0.01 0.02 0.02 0.01 0.01 0.01 0.01
0.94 0.83 0.97 1.49 1.80 2.25 1.81 1.47 1.35 1.25 1.29 2.87 1.89 0.91 0.96 1.13 1.04 0.78 0.46 0.58 0.56 0.39 0.04 0.01 0.00 0.00 0.00 0.00 0.00 0.00 0.00 0.00 0.00 0.00 0.00 0.02 0.02 0.02 0.03 0.02 0.01 0.01 0.01
0.39 0.37 0.58 0.60 0.67 0.95 1.28 1.25 0.93 1.03 1.10 1.36 1.72 0.77 0.56 0.80 0.45 0.46 0.24 0.24 0.22 0.17 0.02 0.00 0.00 0.00 0.00 0.00 0.00 0.00 0.00 0.00 0.00 0.00 0.00 0.01 0.02 0.02 0.04 0.04 0.02 0.01 0.01
0.21 0.33 0.32 0.36 0.30 0.47 0.67 0.93 0.91 0.64 0.75 0.82 1.13 0.83 0.40 0.38 0.27 0.29 0.14 0.11 0.09 0.07 0.01 0.00 0.00 0.00 0.00 0.00 0.00 0.00 0.00 0.00 0.00 0.00 0.00 0.00 0.01 0.02 0.05 0.06 0.02 0.01 0.00
0.30 0.32 0.28 0.34 0.29 0.39 0.69 0.79 0.94 0.85 0.66 0.75 0.70 0.63 0.39 0.31 0.23 0.19 0.09 0.10 0.05 0.04 0.01 0.00 0.00 0.00 0.00 0.00 0.00 0.00 0.00 0.00 0.00 0.00 0.00 0.00 0.00 0.02 0.03 0.03 0.01 0.01 0.00
0.41 0.24 0.28 0.33 0.44 0.43 0.46 0.53 0.82 0.90 0.73 0.62 0.49 0.47 0.39 0.30 0.19 0.12 0.06 0.07 0.07 0.02 0.00 0.00 0.00 0.00 0.00 0.00 0.00 0.00 0.00 0.00 0.00 0.00 0.00 0.00 0.00 0.00 0.01 0.01 0.00 0.00 0.00
0.30 0.52 0.20 0.23 0.65 0.53 0.46 0.42 0.57 0.83 0.84 0.63 0.50 0.47 0.34 0.17 0.10 0.09 0.06 0.07 0.07 0.02 0.00 0.00 0.00 0.00 0.00 0.00 0.00 0.00 0.00 0.00 0.00 0.00 0.00 0.00 0.00 0.00 0.00 0.01 0.01 0.00 0.00
0.05 0.48 0.53 0.34 0.43 0.61 0.63 0.49 0.46 0.61 0.73 0.61 0.44 0.65 0.62 0.43 0.12 0.12 0.16 0.14 0.10 0.04 0.00 0.00 0.00 0.00 0.00 0.00 0.00 0.00 0.00 0.00 0.00 0.00 0.00 0.00 0.00 0.00 0.00 0.00 0.00 0.00 0.00
0.03 0.05 0.35 0.47 0.41 0.42 0.44 0.33 0.41 0.52 0.70 0.50 0.37 0.73 0.66 0.67 0.35 0.16 0.08 0.08 0.10 0.05 0.00 0.00 0.00 0.00 0.00 0.00 0.00 0.00 0.00 0.00 0.00 0.00 0.00 0.00 0.00 0.00 0.00 0.00 0.00 0.00 0.00
0.06 0.04 0.10 0.25 0.23 0.36 0.33 0.21 0.27 0.33 0.53 0.36 0.40 0.43 0.88 0.80 0.69 0.23 0.14 0.06 0.04 0.05 0.01 0.01 0.00 0.00 0.00 0.00 0.00 0.00 0.00 0.00 0.00 0.00 0.00 0.00 0.00 0.00 0.00 0.00 0.01 0.00 0.00
0.05 0.04 0.02 0.04 0.10 0.19 0.24 0.24 0.12 0.12 0.20 0.27 0.33 0.42 0.54 0.70 0.69 0.34 0.22 0.10 0.05 0.05 0.02 0.01 0.00 0.00 0.00 0.00 0.00 0.00 0.00 0.00 0.00 0.00 0.00 0.00 0.00 0.00 0.00 0.00 0.00 0.00 0.00
0.01 0.01 0.02 0.02 0.04 0.06 0.14 0.25 0.17 0.20 0.17 0.22 0.38 0.59 0.42 0.37 0.53 0.43 0.23 0.11 0.05 0.04 0.02 0.01 0.00 0.00 0.00 0.00 0.00 0.00 0.00 0.01 0.00 0.00 0.00 0.00 0.00 0.00 0.00 0.00 0.00 0.00 0.00
0.03 0.03 0.06 0.04 0.03 0.03 0.04 0.07 0.07 0.13 0.12 0.13 0.13 0.27 0.46 0.22 0.26 0.46 0.28 0.12 0.02 0.02 0.04 0.05 0.02 0.02 0.02 0.01 0.01 0.01 0.00 0.03 0.10 0.10 0.02 0.00 0.00 0.00 0.00 0.00 0.00 0.00 0.00
0.04 0.04 0.03 0.04 0.05 0.03 0.04 0.03 0.04 0.07 0.09 0.06 0.04 0.06 0.28 0.44 0.26 0.23 0.30 0.21 0.09 0.07 0.11 0.18 0.13 0.13 0.14 0.21 0.14 0.04 0.02 0.01 0.02 0.13 0.11 0.05 0.01 0.00 0.00 0.00 0.00 0.00 0.00
0.05 0.05 0.06 0.05 0.05 0.09 0.09 0.09 0.05 0.09 0.07 0.04 0.05 0.06 0.10 0.28 0.59 0.47 0.38 0.38 0.28 0.24 0.31 0.42 0.46 0.28 0.19 0.19 0.29 0.16 0.17 0.14 0.08 0.06 0.05 0.06 0.10 0.05 0.02 0.03 0.04 0.03 0.02

GFSSE_prec_precacc_078.txt.gz
Total_Precipitation_Accumulation
0.88 0.36 0.15 0.16 0.17 0.06 0.01 0.01 0.00 0.00 0.00 0.00 0.00 0.00 0.00 0.00 0.00 0.00 0.00 0.00 0.02 0.05 0.04 0.03 0.02 0.03 0.04 0.03 0.03 0.05 0.03 0.02 0.03 0.10 0.15 0.21 0.19 0.10 0.07 0.07 0.09 0.08 0.20
1.66 1.34 0.76 0.27 0.23 0.04 0.02 0.00 0.00 0.00 0.00 0.00 0.00 0.00 0.00 0.00 0.00 0.00 0.00 0.00 0.02 0.03 0.03 0.02 0.02 0.03 0.05 0.03 0.02 0.00 0.00 0.00 0.02 0.06 0.17 0.18 0.20 0.10 0.10 0.07 0.07 0.08 0.13
1.24 2.36 1.78 0.99 0.50 0.18 0.07 0.03 0.04 0.02 0.00 0.00 0.00 0.01 0.01 0.01 0.01 0.00 0.00 0.01 0.00 0.03 0.04 0.02 0.05 0.06 0.05 0.02 0.00 0.00 0.00 0.00 0.01 0.02 0.08 0.09 0.08 0.08 0.10 0.09 0.08 0.07 0.08
0.39 0.79 1.84 1.47 0.91 0.56 0.23 0.17 0.16 0.20 0.07 0.02 0.02 0.01 0.01 0.04 0.04 0.02 0.01 0.00 0.01 0.02 0.06 0.05 0.08 0.07 0.06 0.01 0.00 0.00 0.00 0.00 0.00 0.00 0.01 0.04 0.07 0.12 0.13 0.15 0.12 0.06 0.04
0.96 0.81 0.69 0.84 1.04 1.06 0.53 0.35 0.30 0.22 0.12 0.06 0.06 0.01 0.00 0.03 0.02 0.04 0.02 0.01 0.02 0.04 0.08 0.11 0.12 0.09 0.04 0.00 0.00 0.00 0.00 0.00 0.00 0.01 0.01 0.01 0.03 0.11 0.16 0.14 0.06 0.06 0.07
2.24 1.89 1.46 1.03 1.06 1.52 1.41 0.76 0.38 0.20 0.22 0.15 0.11 0.04 0.03 0.03 0.02 0.04 0.02 0.01 0.05 0.07 0.12 0.16 0.14 0.05 0.02 0.01 0.00 0.00 0.00 0.00 0.00 0.00 0.00 0.01 0.02 0.05 0.08 0.08 0.08 0.04 0.04
3.77 3.05 2.81 3.34 2.80 2.07 2.59 1.72 0.99 0.73 0.58 0.41 0.12 0.05 0.03 0.04 0.04 0.14 0.09 0.07 0.12 0.13 0.13 0.10 0.05 0.03 0.01 0.00 0.00 0.00 0.00 0.00 0.00 0.00 0.00 0.01 0.01 0.02 0.03 0.03 0.04 0.02 0.02
5.54 4.48 4.79 4.60 4.26 4.62 2.70 3.28 3.28 2.80 1.98 0.97 0.61 0.46 0.53 0.85 0.56 0.53 0.40 0.32 0.28 0.22 0.12 0.03 0.01 0.00 0.00 0.00 0.00 0.00 0.00 0.00 0.00 0.00 0.00 0.00 0.02 0.02 0.02 0.02 0.01 0.01 0.02
6.57 8.14 8.36 7.58 5.71 5.02 3.66 2.81 3.96 5.41 6.06 5.55 3.70 3.25 2.86 1.89 1.61 0.90 0.51 0.35 0.26 0.20 0.08 0.01 0.00 0.00 0.00 0.00 0.00 0.00 0.00 0.00 0.00 0.00 0.00 0.00 0.02 0.02 0.02 0.01 0.03 0.03 0.03
4.79 6.70 7.63 8.94 8.46 3.91 2.83 2.27 2.98 4.39 5.93 6.80 5.90 4.74 3.28 2.13 1.92 1.91 0.90 0.51 0.31 0.23 0.10 0.01 0.00 0.00 0.00 0.00 0.00 0.00 0.00 0.00 0.00 0.00 0.00 0.00 0.02 0.02 0.01 0.01 0.01 0.01 0.02
2.64 3.34 4.89 7.54 6.16 3.45 1.94 1.51 1.83 3.58 3.55 3.13 3.16 4.03 3.09 2.18 1.68 1.12 0.88 0.68 0.52 0.42 0.27 0.08 0.05 0.01 0.00 0.00 0.00 0.00 0.00 0.00 0.00 0.00 0.00 0.01 0.02 0.01 0.02 0.02 0.01 0.01 0.01
1.41 1.71 1.91 3.61 4.19 2.92 1.75 1.41 1.12 1.79 2.74 3.15 1.80 1.92 1.84 1.83 1.59 0.85 0.78 0.84 0.76 0.52 0.39 0.30 0.10 0.02 0.01 0.00 0.00 0.00 0.00 0.00 0.00 0.00 0.00 0.02 0.02 0.03 0.03 0.02 0.01 0.01 0.01
0.94 0.83 0.97 1.49 1.80 2.25 1.81 1.47 1.35 1.26 1.33 2.92 1.91 0.91 0.96 1.13 1.04 0.79 0.46 0.63 0.82 0.76 0.32 0.16 0.07 0.03 0.03 0.01 0.00 0.00 0.00 0.00 0.00 0.00 0.00 0.02 0.02 0.03 0.03 0.02 0.01 0.01 0.01
0.39 0.37 0.58 0.60 0.67 0.95 1.28 1.25 0.93 1.03 1.10 1.37 1.73 0.77 0.56 0.80 0.45 0.46 0.25 0.27 0.36 0.36 0.31 0.16 0.06 0.05 0.02 0.01 0.00 0.00 0.00 0.00 0.00 0.00 0.00 0.01 0.03 0.02 0.05 0.04 0.02 0.01 0.01
0.21 0.33 0.32 0.36 0.30 0.47 0.67 0.93 0.91 0.64 0.75 0.82 1.14 0.83 0.40 0.38 0.27 0.29 0.15 0.14 0.14 0.18 0.28 0.14 0.06 0.03 0.02 0.00 0.00 0.00 0.00 0.00 0.00 0.00 0.00 0.00 0.01 0.03 0.06 0.06 0.03 0.01 0.01
0.30 0.32 0.28 0.34 0.29 0.39 0.69 0.79 0.94 0.85 0.66 0.76 0.70 0.64 0.39 0.31 0.24 0.19 0.10 0.14 0.09 0.13 0.21 0.08 0.02 0.02 0.01 0.00 0.00 0.00 0.00 0.00 0.00 0.00 0.00 0.00 0.00 0.02 0.04 0.04 0.02 0.01 0.01
0.41 0.24 0.28 0.33 0.44 0.43 0.46 0.53 0.83 0.90 0.74 0.62 0.50 0.48 0.39 0.31 0.21 0.15 0.07 0.10 0.12 0.09 0.15 0.09 0.03 0.02 0.01 0.00 0.00 0.00 0.00 0.00 0.00 0.00 0.00 0.00 0.00 0.01 0.02 0.02 0.01 0.00 0.00
0.30 0.52 0.20 0.23 0.65 0.53 0.46 0.42 0.57 0.84 0.85 0.64 0.50 0.49 0.35 0.18 0.15 0.13 0.08 0.08 0.11 0.12 0.12 0.06 0.01 0.01 0.01 0.00 0.00 0.00 0.00 0.00 0.00 0.00 0.00 0.00 0.00 0.00 0.00 0.01 0.01 0.01 0.01
0.05 0.48 0.53 0.34 0.43 0.61 0.63 0.49 0.47 0.62 0.74 0.62 0.45 0.67 0.66 0.58 0.19 0.14 0.20 0.15 0.14 0.16 0.11 0.03 0.00 0.01 0.01 0.00 0.00 0.00 0.00 0.00 0.00 0.00 0.00 0.00 0.00 0.00 0.00 0.00 0.00 0.00 0.00
0.03 0.05 0.35 0.47 0.41 0.43 0.44 0.33 0.42 0.52 0.70 0.51 0.38 0.75 0.74 1.11 0.89 0.26 0.12 0.09 0.15 0.16 0.07 0.03 0.01 0.00 0.00 0.00 0.00 0.00 0.00 0.00 0.00 0.00 0.00 0.00 0.00 0.00 0.00 0.00 0.00 0.00 0.00
0.06 0.04 0.10 0.25 0.23 0.37 0.34 0.22 0.28 0.33 0.53 0.36 0.41 0.44 0.89 0.94 1.44 0.70 0.27 0.10 0.10 0.15 0.06 0.02 0.01 0.00 0.00 0.00 0.00 0.00 0.00 0.00 0.00 0.00 0.00 0.00 0.00 0.00 0.00 0.01 0.01 0.00 0.00
0.05 0.04 0.02 0.04 0.10 0.19 0.24 0.24 0.12 0.12 0.20 0.28 0.34 0.43 0.57 0.73 0.93 0.81 0.41 0.23 0.12 0.12 0.10 0.02 0.01 0.01 0.01 0.00 0.00 0.00 0.01 0.01 0.00 0.00 0.00 0.00 0.00 0.00 0.00 0.00 0.00 0.00 0.00
0.01 0.01 0.02 0.02 0.05 0.07 0.14 0.25 0.18 0.20 0.18 0.23 0.38 0.60 0.43 0.44 0.69 0.77 0.45 0.37 0.19 0.09 0.06 0.01 0.00 0.00 0.00 0.00 0.00 0.00 0.01 0.01 0.01 0.00 0.00 0.00 0.00 0.00 0.00 0.00 0.00 0.00 0.00
0.03 0.03 0.06 0.04 0.04 0.03 0.04 0.07 0.07 0.13 0.12 0.14 0.14 0.28 0.46 0.24 0.42 0.82 0.53 0.38 0.22 0.06 0.06 0.05 0.02 0.02 0.02 0.01 0.01 0.01 0.00 0.03 0.10 0.10 0.02 0.00 0.00 0.00 0.00 0.00 0.00 0.00 0.00
0.04 0.04 0.03 0.04 0.05 0.03 0.04 0.03 0.05 0.07 0.10 0.07 0.04 0.07 0.31 0.47 0.29 0.54 0.52 0.40 0.19 0.11 0.12 0.18 0.13 0.13 0.14 0.21 0.14 0.05 0.02 0.01 0.02 0.13 0.11 0.05 0.01 0.00 0.00 0.00 0.00 0.00 0.00
0.05 0.05 0.06 0.05 0.05 0.09 0.09 0.09 0.05 0.10 0.08 0.05 0.05 0.07 0.12 0.31 0.69 0.65 0.52 0.45 0.33 0.26 0.32 0.42 0.46 0.28 0.19 0.19 0.29 0.16 0.17 0.15 0.08 0.06 0.05 0.06 0.10 0.05 0.02 0.03 0.04 0.03 0.02

GFSSE_prec_precacc_081.txt.gz
Total_Precipitation_Accumulation
0.88 0.36 0.15 0.16 0.17 0.06 0.01 0.01 0.00 0.00 0.00 0.00 0.00 0.00 0.00 0.00 0.00 0.00 0.00 0.00 0.02 0.05 0.06 0.04 0.03 0.03 0.04 0.03 0.03 0.05 0.03 0.02 0.03 0.10 0.16 0.24 0.20 0.10 0.07 0.11 0.14 0.10 0.23
1.66 1.34 0.76 0.27 0.23 0.04 0.02 0.00 0.00 0.00 0.00 0.00 0.00 0.00 0.00 0.00 0.00 0.00 0.00 0.00 0.02 0.03 0.03 0.02 0.02 0.03 0.05 0.03 0.02 0.00 0.00 0.00 0.02 0.07 0.19 0.20 0.21 0.10 0.11 0.13 0.11 0.10 0.14
1.24 2.36 1.78 0.99 0.50 0.18 0.07 0.03 0.04 0.02 0.00 0.00 0.00 0.01 0.01 0.01 0.01 0.00 0.00 0.01 0.00 0.03 0.04 0.02 0.05 0.07 0.06 0.02 0.00 0.00 0.00 0.00 0.01 0.04 0.15 0.12 0.10 0.09 0.11 0.10 0.09 0.09 0.08
0.39 0.79 1.84 1.47 0.91 0.56 0.23 0.17 0.16 0.20 0.07 0.02 0.03 0.03 0.03 0.04 0.04 0.07 0.03 0.00 0.01 0.03 0.08 0.05 0.08 0.08 0.06 0.01 0.00 0.00 0.00 0.00 0.00 0.01 0.02 0.06 0.08 0.13 0.13 0.15 0.13 0.07 0.05
0.96 0.81 0.69 0.84 1.04 1.06 0.53 0.35 0.30 0.22 0.12 0.06 0.06 0.02 0.00 0.03 0.04 0.16 0.09 0.01 0.02 0.06 0.16 0.19 0.16 0.11 0.04 0.00 0.00 0.00 0.00 0.00 0.02 0.08 0.03 0.05 0.05 0.15 0.18 0.17 0.10 0.11 0.13
2.24 1.89 1.46 1.03 1.06 1.52 1.41 0.76 0.38 0.20 0.22 0.15 0.11 0.04 0.03 0.04 0.06 0.21 0.09 0.03 0.08 0.11 0.20 0.26 0.21 0.06 0.02 0.01 0.00 0.00 0.00 0.01 0.05 0.07 0.03 0.05 0.05 0.11 0.11 0.09 0.09 0.05 0.04
3.77 3.05 2.81 3.34 2.80 2.07 2.59 1.72 0.99 0.73 0.59 0.42 0.14 0.09 0.05 0.10 0.10 0.31 0.21 0.16 0.28 0.30 0.25 0.21 0.05 0.03 0.01 0.00 0.00 0.00 0.00 0.01 0.09 0.05 0.06 0.08 0.06 0.05 0.04 0.03 0.04 0.02 0.02
5.54 4.48 4.79 4.60 4.26 4.62 2.70 3.28 3.28 2.80 1.99 1.00 0.73 0.70 0.84 1.36 1.05 0.86 0.60 0.59 0.49 0.51 0.36 0.16 0.01 0.00 0.00 0.00 0.00 0.00 0.00 0.00 0.03 0.01 0.02 0.06 0.03 0.02 0.02 0.02 0.01 0.01 0.02
6.57 8.14 8.36 7.58 5.71 5.02 3.66 2.81 3.96 5.42 6.09 5.61 3.87 3.38 3.31 2.55 2.19 1.58 0.96 0.67 0.62 0.42 0.24 0.15 0.01 0.01 0.00 0.00 0.00 0.00 0.00 0.01 0.01 0.01 0.00 0.00 0.02 0.02 0.02 0.01 0.03 0.03 0.03
4.79 6.70 7.63 8.94 8.46 3.91 2.83 2.27 2.98 4.40 5.94 6.80 5.91 4.75 3.29 2.17 2.28 2.94 2.45 1.07 0.68 0.59 0.47 0.20 0.11 0.04 0.01 0.00 0.01 0.00 0.00 0.00 0.00 0.00 0.00 0.00 0.02 0.02 0.01 0.02 0.02 0.01 0.02
2.64 3.34 4.89 7.54 6.16 3.45 1.95 1.51 1.83 3.59 3.55 3.13 3.16 4.03 3.09 2.18 1.70 1.32 1.66 1.55 0.76 0.60 0.56 0.38 0.23 0.09 0.03 0.01 0.01 0.00 0.00 0.00 0.00 0.00 0.00 0.01 0.02 0.01 0.02 0.02 0.01 0.01 0.01
1.41 1.71 1.91 3.61 4.19 2.92 1.75 1.42 1.13 1.80 2.75 3.15 1.80 1.93 1.88 1.88 1.63 0.94 0.80 0.94 0.84 0.58 0.51 0.51 0.28 0.17 0.10 0.02 0.01 0.00 0.00 0.00 0.00 0.00 0.00 0.02 0.02 0.03 0.03 0.02 0.02 0.01 0.02
0.94 0.83 0.97 1.49 1.80 2.25 1.81 1.48 1.36 1.27 1.34 2.95 1.96 0.95 1.03 1.20 1.06 0.86 0.48 0.65 0.86 0.82 0.38 0.28 0.18 0.13 0.12 0.04 0.00 0.00 0.00 0.00 0.00 0.00 0.00 0.02 0.03 0.03 0.03 0.02 0.01 0.01 0.01
0.39 0.37 0.58 0.60 0.67 0.95 1.29 1.25 0.93 1.04 1.11 1.39 1.76 0.81 0.60 0.84 0.46 0.48 0.26 0.28 0.40 0.44 0.35 0.26 0.15 0.18 0.10 0.05 0.00 0.00 0.00 0.00 0.00 0.00 0.00 0.01 0.03 0.03 0.05 0.04 0.03 0.01 0.01
0.21 0.33 0.32 0.36 0.30 0.47 0.67 0.93 0.91 0.64 0.76 0.85 1.17 0.86 0.43 0.40 0.27 0.30 0.16 0.15 0.15 0.22 0.43 0.41 0.28 0.14 0.09 0.04 0.00 0.00 0.00 0.00 0.00 0.00 0.00 0.01 0.02 0.03 0.06 0.06 0.03 0.01 0.01
0.30 0.32 0.28 0.34 0.29 0.39 0.69 0.79 0.94 0.86 0.67 0.76 0.71 0.66 0.42 0.34 0.25 0.20 0.13 0.15 0.10 0.18 0.36 0.43 0.34 0.13 0.06 0.00 0.00 0.00 0.00 0.00 0.00 0.00 0.00 0.00 0.01 0.03 0.04 0.04 0.02 0.02 0.01
0.41 0.24 0.28 0.33 0.44 0.43 0.46 0.54 0.83 0.90 0.74 0.63 0.50 0.50 0.44 0.36 0.25 0.16 0.09 0.11 0.14 0.14 0.31 0.39 0.38 0.17 0.04 0.00 0.00 0.00 0.00 0.00 0.00 0.00 0.00 0.00 0.00 0.01 0.03 0.04 0.02 0.01 0.01
0.30 0.52 0.20 0.23 0.65 0.53 0.46 0.42 0.58 0.84 0.86 0.65 0.51 0.50 0.38 0.22 0.20 0.15 0.09 0.09 0.14 0.20 0.31 0.27 0.25 0.12 0.05 0.00 0.00 0.00 0.00 0.00 0.00 0.00 0.00 0.00 0.00 0.00 0.01 0.02 0.02 0.01 0.02
0.05 0.48 0.53 0.34 0.43 0.61 0.63 0.49 0.47 0.62 0.75 0.63 0.45 0.68 0.70 0.60 0.24 0.21 0.22 0.16 0.16 0.27 0.35 0.22 0.15 0.08 0.03 0.00 0.00 0.00 0.00 0.00 0.00 0.00 0.00 0.00 0.00 0.00 0.00 0.00 0.00 0.00 0.01
0.03 0.05 0.35 0.47 0.41 0.43 0.44 0.33 0.42 0.53 0.70 0.51 0.38 0.75 0.76 1.14 0.97 0.34 0.19 0.14 0.16 0.21 0.35 0.23 0.12 0.06 0.01 0.00 0.00 0.00 0.00 0.00 0.00 0.00 0.00 0.00 0.00 0.00 0.00 0.00 0.00 0.00 0.00
0.06 0.04 0.10 0.25 0.23 0.37 0.34 0.22 0.29 0.34 0.54 0.37 0.41 0.44 0.91 0.96 1.68 0.90 0.45 0.16 0.14 0.17 0.19 0.15 0.12 0.06 0.03 0.01 0.00 0.01 0.01 0.00 0.00 0.00 0.00 0.00 0.00 0.00 0.00 0.01 0.01 0.00 0.00
0.05 0.04 0.02 0.04 0.10 0.19 0.24 0.24 0.12 0.13 0.21 0.29 0.35 0.44 0.59 0.75 1.00 1.28 0.71 0.46 0.20 0.19 0.18 0.12 0.10 0.07 0.05 0.01 0.00 0.01 0.02 0.02 0.01 0.00 0.00 0.00 0.00 0.00 0.00 0.00 0.00 0.00 0.00
0.01 0.01 0.02 0.02 0.05 0.07 0.14 0.25 0.18 0.21 0.19 0.25 0.41 0.61 0.44 0.47 0.74 0.96 0.80 0.58 0.36 0.23 0.13 0.04 0.05 0.05 0.01 0.02 0.00 0.00 0.01 0.02 0.01 0.00 0.00 0.00 0.00 0.00 0.00 0.00 0.00 0.00 0.00
0.03 0.03 0.06 0.04 0.04 0.03 0.04 0.07 0.07 0.14 0.13 0.14 0.14 0.28 0.47 0.27 0.46 0.87 0.78 0.64 0.41 0.24 0.21 0.09 0.06 0.07 0.05 0.02 0.02 0.01 0.00 0.03 0.10 0.11 0.02 0.01 0.00 0.00 0.00 0.00 0.00 0.00 0.00
0.04 0.04 0.03 0.04 0.05 0.03 0.04 0.03 0.05 0.07 0.10 0.08 0.05 0.07 0.31 0.47 0.30 0.61 0.72 0.74 0.46 0.34 0.27 0.25 0.17 0.17 0.16 0.22 0.14 0.05 0.03 0.02 0.02 0.13 0.11 0.05 0.01 0.00 0.00 0.00 0.00 0.00 0.00
0.05 0.05 0.06 0.05 0.05 0.09 0.09 0.09 0.05 0.10 0.08 0.06 0.06 0.08 0.13 0.31 0.70 0.79 0.84 0.70 0.68 0.51 0.47 0.48 0.49 0.31 0.21 0.20 0.29 0.17 0.17 0.15 0.09 0.06 0.05 0.06 0.10 0.05 0.02 0.03 0.04 0.03 0.02

GFSSE_prec_precacc_084.txt.gz
Total_Precipitation_Accumulation
0.88 0.36 0.15 0.16 0.17 0.06 0.01 0.01 0.00 0.00 0.00 0.00 0.00 0.00 0.00 0.00 0.00 0.00 0.00 0.00 0.02 0.05 0.06 0.04 0.03 0.03 0.04 0.03 0.04 0.05 0.03 0.03 0.03 0.11 0.16 0.24 0.20 0.11 0.09 0.16 0.20 0.10 0.24
1.66 1.34 0.76 0.27 0.23 0.04 0.02 0.00 0.00 0.00 0.00 0.00 0.00 0.00 0.00 0.00 0.00 0.00 0.00 0.00 0.02 0.03 0.03 0.02 0.02 0.03 0.05 0.03 0.02 0.00 0.00 0.00 0.02 0.07 0.20 0.20 0.23 0.13 0.13 0.19 0.12 0.11 0.16
1.24 2.36 1.78 0.99 0.50 0.18 0.07 0.03 0.04 0.02 0.00 0.00 0.00 0.01 0.01 0.01 0.01 0.01 0.00 0.01 0.00 0.05 0.07 0.02 0.05 0.07 0.06 0.02 0.00 0.00 0.00 0.00 0.01 0.04 0.20 0.14 0.11 0.12 0.13 0.14 0.10 0.11 0.10
0.39 0.79 1.84 1.47 0.91 0.56 0.23 0.17 0.16 0.20 0.07 0.02 0.03 0.03 0.04 0.05 0.09 0.15 0.07 0.01 0.02 0.08 0.14 0.08 0.11 0.08 0.06 0.01 0.00 0.00 0.00 0.00 0.02 0.04 0.03 0.11 0.10 0.17 0.15 0.16 0.14 0.08 0.06
0.96 0.81 0.69 0.84 1.04 1.06 0.53 0.35 0.30 0.22 0.12 0.06 0.06 0.02 0.01 0.05 0.11 0.19 0.18 0.03 0.06 0.10 0.20 0.24 0.27 0.13 0.04 0.00 0.00 0.00 0.00 0.03 0.08 0.18 0.06 0.12 0.08 0.23 0.21 0.21 0.12 0.14 0.17
2.24 1.89 1.46 1.03 1.06 1.52 1.41 0.76 0.38 0.20 0.22 0.15 0.11 0.06 0.04 0.06 0.14 0.28 0.19 0.11 0.13 0.17 0.26 0.33 0.27 0.06 0.02 0.01 0.00 0.00 0.01 0.02 0.07 0.16 0.05 0.16 0.08 0.15 0.12 0.11 0.10 0.05 0.04
3.77 3.05 2.81 3.34 2.80 2.07 2.59 1.72 0.99 0.73 0.59 0.42 0.14 0.10 0.06 0.13 0.15 0.36 0.26 0.29 0.45 0.55 0.35 0.33 0.07 0.03 0.01 0.00 0.00 0.01 0.02 0.01 0.10 0.10 0.09 0.15 0.10 0.10 0.04 0.04 0.04 0.02 0.02
5.54 4.48 4.79 4.60 4.26 4.62 2.70 3.28 3.28 2.80 1.99 1.00 0.73 0.72 0.88 1.51 1.32 1.15 0.82 0.91 0.86 0.74 0.69 0.42 0.14 0.00 0.00 0.00 0.00 0.01 0.03 0.03 0.08 0.08 0.03 0.09 0.09 0.07 0.03 0.02 0.01 0.01 0.02
6.57 8.14 8.36 7.58 5.71 5.02 3.66 2.81 3.96 5.42 6.09 5.61 3.90 3.42 3.39 2.74 2.35 2.12 1.81 1.51 1.41 0.92 0.52 0.48 0.05 0.01 0.00 0.00 0.00 0.02 0.04 0.01 0.06 0.10 0.02 0.01 0.05 0.05 0.02 0.02 0.03 0.03 0.03
4.79 6.70 7.63 8.94 8.46 3.91 2.83 2.27 2.98 4.40 5.94 6.80 5.91 4.75 3.29 2.18 2.33 3.01 2.90 2.22 1.71 1.21 0.78 0.54 0.43 0.17 0.06 0.04 0.02 0.01 0.00 0.00 0.00 0.03 0.01 0.00 0.02 0.02 0.02 0.02 0.02 0.02 0.02
2.64 3.34 4.89 7.54 6.16 3.45 1.95 1.51 1.83 3.59 3.55 3.13 3.16 4.03 3.09 2.18 1.71 1.33 1.69 1.67 1.39 1.26 0.93 0.70 0.46 0.24 0.18 0.16 0.11 0.05 0.00 0.00 0.00 0.00 0.00 0.01 0.02 0.01 0.02 0.02 0.02 0.01 0.01
1.41 1.71 1.91 3.61 4.19 2.92 1.75 1.42 1.13 1.80 2.75 3.15 1.80 1.93 1.89 1.88 1.63 1.04 0.88 0.96 1.17 0.93 0.75 0.69 0.32 0.26 0.24 0.09 0.05 0.05 0.01 0.00 0.00 0.00 0.00 0.02 0.02 0.03 0.03 0.02 0.02 0.01 0.02
0.94 0.83 0.97 1.49 1.80 2.25 1.81 1.48 1.36 1.27 1.34 2.96 1.97 0.97 1.07 1.25 1.07 0.89 0.50 0.65 0.87 0.86 0.45 0.31 0.19 0.18 0.21 0.07 0.01 0.03 0.00 0.00 0.00 0.00 0.00 0.02 0.03 0.03 0.03 0.02 0.02 0.01 0.01
0.39 0.37 0.58 0.60 0.67 0.95 1.29 1.25 0.93 1.04 1.12 1.40 1.78 0.86 0.65 0.89 0.47 0.49 0.27 0.29 0.40 0.45 0.37 0.26 0.15 0.21 0.20 0.15 0.01 0.00 0.00 0.00 0.00 0.00 0.00 0.01 0.03 0.03 0.05 0.04 0.03 0.01 0.01
0.21 0.33 0.32 0.36 0.30 0.47 0.67 0.93 0.91 0.65 0.76 0.86 1.20 0.89 0.46 0.44 0.29 0.30 0.16 0.16 0.16 0.22 0.43 0.43 0.31 0.26 0.23 0.13 0.01 0.00 0.00 0.00 0.00 0.00 0.00 0.01 0.02 0.03 0.06 0.07 0.03 0.02 0.01
0.30 0.32 0.28 0.34 0.29 0.39 0.69 0.79 0.94 0.86 0.67 0.77 0.74 0.68 0.44 0.37 0.29 0.21 0.13 0.15 0.10 0.18 0.38 0.49 0.46 0.38 0.27 0.10 0.04 0.00 0.00 0.00 0.00 0.00 0.00 0.00 0.01 0.03 0.05 0.05 0.03 0.02 0.02
0.41 0.24 0.28 0.33 0.44 0.43 0.46 0.54 0.83 0.91 0.74 0.63 0.51 0.53 0.47 0.39 0.28 0.18 0.11 0.12 0.14 0.15 0.32 0.45 0.56 0.62 0.38 0.16 0.02 0.00 0.00 0.00 0.00 0.00 0.00 0.00 0.00 0.01 0.03 0.04 0.03 0.01 0.02
0.30 0.52 0.20 0.23 0.65 0.53 0.46 0.42 0.58 0.84 0.86 0.65 0.51 0.51 0.41 0.28 0.26 0.19 0.12 0.11 0.14 0.20 0.36 0.41 0.43 0.64 0.39 0.13 0.01 0.00 0.00 0.00 0.00 0.00 0.00 0.00 0.00 0.00 0.01 0.03 0.02 0.02 0.03
0.05 0.48 0.53 0.34 0.43 0.61 0.63 0.49 0.47 0.62 0.75 0.63 0.46 0.69 0.72 0.64 0.30 0.26 0.26 0.17 0.17 0.28 0.41 0.44 0.39 0.47 0.27 0.11 0.00 0.00 0.00 0.00 0.00 0.00 0.00 0.00 0.00 0.00 0.00 0.00 0.01 0.01 0.02
0.03 0.05 0.35 0.47 0.43 0.43 0.44 0.33 0.42 0.53 0.71 0.51 0.39 0.76 0.78 1.19 1.01 0.38 0.23 0.15 0.17 0.22 0.39 0.49 0.43 0.31 0.16 0.04 0.00 0.00 0.00 0.00 0.00 0.00 0.00 0.00 0.00 0.00 0.00 0.00 0.00 0.00 0.00
0.06 0.04 0.10 0.26 0.24 0.37 0.34 0.22 0.29 0.34 0.54 0.37 0.41 0.45 0.91 0.98 1.73 0.97 0.49 0.19 0.15 0.17 0.21 0.32 0.40 0.24 0.22 0.04 0.00 0.01 0.01 0.00 0.00 0.00 0.00 0.00 0.00 0.00 0.00 0.01 0.01 0.00 0.00
0.05 0.04 0.02 0.04 0.10 0.19 0.24 0.24 0.12 0.13 0.22 0.29 0.36 0.44 0.59 0.75 1.02 1.33 0.74 0.49 0.25 0.23 0.20 0.32 0.31 0.19 0.17 0.04 0.00 0.01 0.03 0.03 0.01 0.00 0.00 0.00 0.00 0.00 0.00 0.00 0.00 0.00 0.00
0.01 0.01 0.02 0.03 0.05 0.07 0.14 0.25 0.18 0.21 0.19 0.25 0.42 0.63 0.44 0.48 0.76 1.00 0.92 0.71 0.45 0.34 0.19 0.14 0.23 0.13 0.07 0.05 0.00 0.00 0.02 0.02 0.02 0.01 0.00 0.00 0.00 0.00 0.00 0.00 0.00 0.00 0.00
0.03 0.03 0.06 0.04 0.04 0.03 0.04 0.07 0.07 0.14 0.13 0.14 0.15 0.30 0.48 0.29 0.51 0.91 0.79 0.68 0.48 0.33 0.33 0.17 0.18 0.17 0.10 0.04 0.03 0.01 0.00 0.03 0.10 0.11 0.03 0.01 0.00 0.00 0.00 0.00 0.00 0.00 0.00
0.04 0.04 0.03 0.04 0.05 0.03 0.04 0.03 0.05 0.07 0.10 0.08 0.05 0.08 0.32 0.47 0.31 0.62 0.73 0.78 0.57 0.46 0.41 0.36 0.26 0.27 0.23 0.25 0.14 0.06 0.03 0.02 0.02 0.13 0.11 0.05 0.01 0.00 0.00 0.00 0.00 0.00 0.00
0.05 0.05 0.06 0.06 0.07 0.09 0.09 0.09 0.05 0.10 0.08 0.06 0.06 0.08 0.13 0.31 0.70 0.79 0.86 0.76 0.81 0.63 0.61 0.67 0.58 0.39 0.28 0.23 0.31 0.18 0.18 0.16 0.09 0.07 0.06 0.07 0.10 0.05 0.02 0.03 0.04 0.03 0.02

GFSSE_prec_precacc_087.txt.gz
Total_Precipitation_Accumulation
0.88 0.36 0.15 0.16 0.17 0.06 0.01 0.01 0.00 0.00 0.00 0.00 0.00 0.00 0.00 0.00 0.00 0.00 0.00 0.00 0.03 0.07 0.06 0.04 0.03 0.03 0.05 0.07 0.09 0.09 0.06 0.05 0.06 0.16 0.24 0.31 0.22 0.11 0.10 0.16 0.20 0.10 0.26
1.66 1.34 0.76 0.27 0.23 0.04 0.02 0.00 0.00 0.00 0.00 0.00 0.00 0.00 0.00 0.00 0.00 0.00 0.00 0.00 0.02 0.04 0.03 0.02 0.02 0.03 0.09 0.04 0.02 0.00 0.00 0.01 0.03 0.09 0.23 0.21 0.23 0.13 0.13 0.22 0.13 0.11 0.17
1.24 2.36 1.78 0.99 0.50 0.18 0.07 0.03 0.04 0.02 0.00 0.00 0.00 0.01 0.01 0.01 0.01 0.01 0.00 0.01 0.00 0.05 0.08 0.02 0.05 0.07 0.07 0.03 0.00 0.00 0.00 0.00 0.01 0.04 0.20 0.14 0.11 0.12 0.15 0.19 0.11 0.12 0.10
0.39 0.79 1.84 1.47 0.91 0.56 0.23 0.17 0.16 0.20 0.07 0.02 0.03 0.03 0.05 0.05 0.09 0.15 0.07 0.01 0.02 0.09 0.15 0.08 0.11 0.08 0.06 0.01 0.00 0.00 0.00 0.01 0.05 0.07 0.04 0.11 0.11 0.21 0.18 0.18 0.16 0.10 0.07
0.96 0.81 0.69 0.84 1.04 1.06 0.53 0.35 0.30 0.22 0.12 0.06 0.06 0.03 0.02 0.07 0.14 0.22 0.20 0.04 0.06 0.12 0.25 0.26 0.28 0.14 0.04 0.00 0.00 0.00 0.01 0.04 0.10 0.24 0.10 0.13 0.08 0.30 0.25 0.24 0.15 0.16 0.18
2.24 1.89 1.46 1.03 1.06 1.52 1.41 0.76 0.38 0.20 0.22 0.15 0.11 0.06 0.05 0.08 0.16 0.32 0.21 0.14 0.13 0.18 0.39 0.39 0.30 0.06 0.02 0.01 0.00 0.01 0.01 0.02 0.07 0.19 0.08 0.22 0.08 0.22 0.14 0.11 0.10 0.06 0.05
3.77 3.05 2.81 3.34 2.80 2.07 2.59 1.72 0.99 0.73 0.59 0.42 0.14 0.10 0.06 0.15 0.18 0.39 0.30 0.39 0.55 0.76 0.58 0.43 0.09 0.03 0.01 0.00 0.00 0.01 0.02 0.01 0.10 0.11 0.09 0.21 0.12 0.17 0.05 0.04 0.04 0.02 0.03
5.54 4.48 4.79 4.60 4.26 4.62 2.70 3.28 3.28 2.80 1.99 1.00 0.74 0.73 0.89 1.53 1.38 1.23 0.91 1.11 1.26 1.19 1.11 0.84 0.34 0.00 0.00 0.00 0.01 0.01 0.04 0.04 0.10 0.11 0.03 0.09 0.16 0.19 0.07 0.03 0.02 0.01 0.02
6.57 8.14 8.36 7.58 5.71 5.02 3.66 2.81 3.96 5.42 6.09 5.61 3.90 3.42 3.40 2.78 2.39 2.14 1.83 1.56 1.98 2.28 1.46 0.99 0.31 0.03 0.00 0.02 0.01 0.03 0.05 0.02 0.06 0.11 0.02 0.01 0.12 0.15 0.07 0.02 0.03 0.03 0.03
4.79 6.70 7.63 8.94 8.46 3.91 2.83 2.27 2.98 4.40 5.94 6.80 5.91 4.75 3.29 2.19 2.33 3.01 2.93 2.35 1.94 2.00 1.85 1.42 0.85 0.44 0.22 0.19 0.08 0.03 0.01 0.05 0.02 0.06 0.05 0.01 0.03 0.02 0.02 0.03 0.02 0.02 0.02
2.64 3.34 4.89 7.54 6.16 3.45 1.95 1.51 1.83 3.59 3.55 3.13 3.16 4.03 3.09 2.18 1.71 1.33 1.81 1.73 1.40 1.35 1.60 1.64 0.87 0.49 0.37 0.24 0.18 0.14 0.08 0.05 0.06 0.02 0.04 0.02 0.02 0.01 0.02 0.04 0.03 0.02 0.02
1.41 1.71 1.91 3.61 4.19 2.92 1.75 1.42 1.13 1.80 2.75 3.15 1.80 1.93 1.89 1.88 1.63 1.05 0.99 0.97 1.17 0.94 1.01 1.51 0.86 0.38 0.35 0.13 0.09 0.09 0.04 0.01 0.02 0.00 0.00 0.02 0.02 0.03 0.03 0.03 0.03 0.02 0.02
0.94 0.83 0.97 1.49 1.80 2.25 1.81 1.48 1.36 1.27 1.34 2.96 1.97 0.97 1.08 1.25 1.07 0.89 0.53 0.65 0.87 0.86 0.48 0.54 0.46 0.21 0.23 0.08 0.03 0.05 0.02 0.00 0.01 0.00 0.00 0.02 0.03 0.03 0.03 0.03 0.02 0.02 0.01
0.39 0.37 0.58 0.60 0.67 0.95 1.29 1.25 0.93 1.04 1.12 1.40 1.78 0.86 0.65 0.89 0.47 0.49 0.27 0.29 0.40 0.45 0.37 0.28 0.20 0.22 0.20 0.15 0.02 0.02 0.01 0.00 0.00 0.00 0.00 0.01 0.03 0.03 0.05 0.05 0.03 0.01 0.02
0.21 0.33 0.32 0.36 0.30 0.47 0.67 0.93 0.91 0.65 0.76 0.86 1.20 0.89 0.46 0.44 0.29 0.30 0.16 0.16 0.16 0.22 0.43 0.43 0.32 0.30 0.27 0.13 0.01 0.02 0.01 0.00 0.00 0.00 0.00 0.01 0.02 0.03 0.06 0.07 0.04 0.02 0.02
0.30 0.32 0.29 0.34 0.29 0.39 0.69 0.79 0.94 0.86 0.67 0.77 0.74 0.68 0.44 0.37 0.29 0.21 0.13 0.15 0.10 0.18 0.38 0.49 0.47 0.40 0.38 0.21 0.13 0.04 0.02 0.00 0.00 0.00 0.00 0.00 0.01 0.03 0.05 0.05 0.03 0.03 0.02
0.41 0.24 0.28 0.33 0.45 0.43 0.46 0.54 0.83 0.91 0.74 0.63 0.51 0.53 0.47 0.40 0.28 0.18 0.12 0.12 0.14 0.15 0.32 0.45 0.57 0.67 0.50 0.30 0.18 0.05 0.00 0.00 0.00 0.00 0.00 0.00 0.00 0.01 0.03 0.05 0.03 0.02 0.02
0.30 0.52 0.20 0.23 0.65 0.53 0.46 0.42 0.58 0.84 0.86 0.65 0.51 0.51 0.41 0.29 0.27 0.20 0.12 0.12 0.16 0.25 0.42 0.41 0.43 0.66 0.54 0.29 0.15 0.03 0.00 0.00 0.00 0.00 0.00 0.00 0.00 0.00 0.01 0.03 0.03 0.03 0.04
0.05 0.48 0.53 0.34 0.43 0.63 0.64 0.49 0.47 0.62 0.75 0.63 0.46 0.69 0.72 0.64 0.30 0.27 0.26 0.19 0.21 0.36 0.45 0.44 0.39 0.54 0.62 0.34 0.10 0.02 0.00 0.00 0.00 0.00 0.00 0.00 0.00 0.00 0.00 0.01 0.01 0.01 0.03
0.03 0.05 0.35 0.47 0.44 0.49 0.45 0.33 0.42 0.53 0.71 0.51 0.39 0.76 0.78 1.20 1.02 0.41 0.27 0.21 0.25 0.26 0.40 0.49 0.47 0.47 0.58 0.32 0.07 0.02 0.00 0.00 0.00 0.00 0.00 0.00 0.00 0.00 0.00 0.00 0.00 0.00 0.00
0.06 0.04 0.10 0.26 0.26 0.38 0.34 0.22 0.29 0.34 0.54 0.37 0.41 0.45 0.91 0.99 1.75 1.01 0.52 0.22 0.18 0.19 0.22 0.33 0.50 0.47 0.57 0.35 0.10 0.03 0.01 0.00 0.00 0.00 0.00 0.00 0.00 0.00 0.00 0.01 0.01 0.00 0.00
0.05 0.04 0.02 0.04 0.12 0.20 0.24 0.24 0.12 0.13 0.22 0.29 0.36 0.44 0.59 0.76 1.03 1.35 0.76 0.52 0.28 0.24 0.20 0.33 0.40 0.41 0.43 0.20 0.04 0.01 0.03 0.03 0.01 0.00 0.00 0.00 0.00 0.00 0.00 0.00 0.00 0.00 0.00
0.01 0.01 0.02 0.03 0.06 0.07 0.14 0.25 0.18 0.21 0.19 0.25 0.42 0.63 0.44 0.49 0.77 1.00 0.93 0.72 0.46 0.35 0.23 0.16 0.26 0.21 0.23 0.18 0.02 0.00 0.02 0.03 0.02 0.01 0.00 0.00 0.00 0.00 0.00 0.00 0.00 0.00 0.00
0.03 0.03 0.06 0.05 0.05 0.03 0.04 0.07 0.07 0.14 0.13 0.14 0.15 0.30 0.48 0.29 0.51 0.92 0.79 0.68 0.49 0.35 0.40 0.28 0.24 0.24 0.18 0.18 0.05 0.01 0.00 0.03 0.10 0.11 0.03 0.01 0.00 0.00 0.00 0.00 0.00 0.00 0.00
0.04 0.04 0.03 0.08 0.09 0.03 0.04 0.03 0.05 0.07 0.10 0.08 0.05 0.08 0.33 0.48 0.32 0.62 0.73 0.78 0.58 0.47 0.44 0.47 0.39 0.37 0.29 0.34 0.17 0.06 0.03 0.02 0.02 0.13 0.11 0.05 0.01 0.00 0.00 0.00 0.00 0.00 0.00
0.05 0.05 0.06 0.08 0.08 0.09 0.09 0.09 0.05 0.10 0.08 0.06 0.06 0.08 0.14 0.32 0.71 0.80 0.86 0.76 0.81 0.64 0.63 0.75 0.71 0.48 0.34 0.31 0.36 0.19 0.18 0.16 0.09 0.07 0.06 0.07 0.10 0.05 0.02 0.03 0.04 0.03 0.02

GFSSE_prec_precacc_090.txt.gz
Total_Precipitation_Accumulation
0.88 0.36 0.15 0.16 0.17 0.06 0.01 0.01 0.00 0.00 0.00 0.00 0.00 0.00 0.00 0.00 0.00 0.00 0.00 0.00 0.03 0.10 0.07 0.04 0.03 0.03 0.05 0.08 0.12 0.09 0.07 0.07 0.07 0.21 0.25 0.33 0.23 0.11 0.10 0.16 0.20 0.10 0.27
1.66 1.34 0.76 0.27 0.23 0.04 0.02 0.00 0.00 0.00 0.00 0.00 0.00 0.00 0.00 0.00 0.00 0.00 0.00 0.00 0.02 0.06 0.03 0.02 0.02 0.03 0.09 0.05 0.05 0.01 0.00 0.01 0.03 0.10 0.23 0.24 0.26 0.14 0.13 0.22 0.13 0.12 0.18
1.24 2.36 1.78 0.99 0.50 0.18 0.07 0.03 0.04 0.02 0.00 0.00 0.00 0.01 0.01 0.01 0.01 0.01 0.00 0.01 0.01 0.06 0.08 0.02 0.05 0.07 0.07 0.03 0.01 0.01 0.00 0.00 0.01 0.04 0.21 0.18 0.11 0.14 0.15 0.19 0.11 0.13 0.11
0.39 0.79 1.84 1.47 0.91 0.56 0.23 0.17 0.16 0.20 0.07 0.02 0.03 0.03 0.05 0.05 0.09 0.15 0.07 0.01 0.02 0.09 0.15 0.08 0.11 0.08 0.06 0.01 0.00 0.00 0.01 0.01 0.05 0.07 0.04 0.17 0.12 0.23 0.18 0.18 0.17 0.11 0.08
0.96 0.81 0.69 0.84 1.04 1.06 0.53 0.35 0.30 0.22 0.12 0.06 0.06 0.03 0.02 0.07 0.14 0.22 0.20 0.08 0.08 0.13 0.27 0.26 0.29 0.14 0.04 0.00 0.00 0.00 0.01 0.04 0.10 0.24 0.15 0.17 0.10 0.33 0.28 0.26 0.19 0.18 0.20
2.24 1.89 1.46 1.03 1.06 1.52 1.41 0.76 0.38 0.20 0.22 0.15 0.11 0.06 0.05 0.08 0.17 0.32 0.22 0.18 0.15 0.20 0.47 0.50 0.35 0.10 0.02 0.01 0.00 0.01 0.01 0.02 0.07 0.19 0.09 0.22 0.08 0.29 0.17 0.12 0.11 0.07 0.05
3.77 3.05 2.81 3.34 2.80 2.07 2.59 1.72 0.99 0.73 0.59 0.42 0.14 0.10 0.06 0.15 0.19 0.40 0.32 0.43 0.66 0.97 0.84 0.74 0.44 0.15 0.01 0.00 0.00 0.01 0.02 0.01 0.10 0.11 0.09 0.21 0.13 0.21 0.07 0.06 0.05 0.03 0.03
5.54 4.48 4.79 4.60 4.26 4.62 2.70 3.28 3.28 2.80 1.99 1.00 0.74 0.73 0.89 1.53 1.39 1.25 0.95 1.18 1.39 1.38 1.27 1.11 0.77 0.25 0.09 0.01 0.01 0.01 0.04 0.04 0.10 0.11 0.03 0.09 0.18 0.29 0.14 0.04 0.02 0.02 0.02
6.57 8.14 8.36 7.58 5.71 5.02 3.66 2.81 3.96 5.42 6.09 5.61 3.91 3.42 3.40 2.78 2.39 2.14 1.83 1.56 1.99 2.32 1.52 1.26 0.68 0.40 0.25 0.10 0.01 0.04 0.06 0.02 0.07 0.12 0.02 0.01 0.19 0.21 0.11 0.03 0.04 0.03 0.03
4.79 6.70 7.63 8.94 8.46 3.91 2.83 2.27 2.98 4.40 5.94 6.80 5.91 4.75 3.29 2.19 2.33 3.01 2.93 2.35 1.99 2.04 1.87 1.65 1.41 1.14 0.64 0.38 0.10 0.05 0.03 0.11 0.12 0.09 0.06 0.01 0.04 0.03 0.03 0.03 0.03 0.02 0.02
2.64 3.34 4.89 7.54 6.16 3.45 1.95 1.51 1.83 3.59 3.55 3.13 3.16 4.03 3.09 2.18 1.71 1.33 1.82 1.77 1.48 1.42 1.60 1.70 1.52 1.43 0.92 0.54 0.35 0.20 0.15 0.13 0.14 0.04 0.07 0.07 0.04 0.01 0.03 0.04 0.03 0.02 0.02
1.41 1.71 1.91 3.61 4.19 2.92 1.75 1.42 1.13 1.80 2.75 3.15 1.80 1.93 1.89 1.88 1.63 1.05 1.04 1.01 1.23 0.96 1.01 1.52 1.33 1.10 0.71 0.37 0.32 0.16 0.09 0.05 0.06 0.01 0.02 0.14 0.05 0.03 0.03 0.03 0.03 0.02 0.03
0.94 0.83 0.97 1.49 1.80 2.25 1.81 1.48 1.36 1.27 1.34 2.96 1.97 0.97 1.08 1.25 1.07 0.89 0.54 0.65 0.87 0.87 0.48 0.56 0.98 0.61 0.39 0.23 0.18 0.09 0.04 0.00 0.02 0.02 0.03 0.13 0.04 0.04 0.04 0.03 0.03 0.02 0.02
0.39 0.37 0.58 0.60 0.67 0.95 1.29 1.25 0.93 1.04 1.12 1.40 1.78 0.86 0.65 0.89 0.47 0.49 0.27 0.29 0.40 0.45 0.37 0.28 0.31 0.46 0.33 0.29 0.12 0.06 0.01 0.00 0.00 0.01 0.01 0.04 0.04 0.03 0.06 0.05 0.04 0.02 0.02
0.21 0.33 0.32 0.36 0.30 0.47 0.67 0.93 0.91 0.65 0.76 0.86 1.20 0.89 0.46 0.44 0.29 0.30 0.16 0.16 0.16 0.22 0.43 0.43 0.33 0.33 0.38 0.25 0.10 0.05 0.02 0.00 0.00 0.00 0.01 0.01 0.02 0.03 0.06 0.07 0.04 0.02 0.02
0.30 0.32 0.29 0.34 0.30 0.39 0.69 0.79 0.94 0.86 0.67 0.77 0.74 0.68 0.44 0.37 0.29 0.21 0.13 0.15 0.10 0.18 0.38 0.49 0.47 0.40 0.46 0.30 0.27 0.09 0.02 0.00 0.00 0.00 0.00 0.00 0.01 0.03 0.05 0.05 0.03 0.03 0.02
0.41 0.24 0.28 0.33 0.47 0.46 0.46 0.54 0.83 0.91 0.74 0.63 0.51 0.53 0.47 0.40 0.28 0.18 0.12 0.12 0.14 0.15 0.33 0.45 0.58 0.69 0.62 0.41 0.36 0.18 0.03 0.00 0.00 0.00 0.00 0.00 0.00 0.01 0.03 0.05 0.04 0.03 0.03
0.30 0.52 0.20 0.23 0.66 0.57 0.46 0.42 0.58 0.84 0.86 0.65 0.51 0.51 0.41 0.29 0.27 0.20 0.13 0.12 0.16 0.26 0.43 0.46 0.44 0.68 0.56 0.32 0.24 0.21 0.04 0.01 0.00 0.00 0.00 0.00 0.00 0.00 0.01 0.03 0.03 0.04 0.05
0.05 0.48 0.53 0.34 0.43 0.64 0.68 0.49 0.47 0.62 0.75 0.63 0.46 0.69 0.72 0.64 0.30 0.27 0.26 0.19 0.21 0.38 0.47 0.49 0.44 0.54 0.62 0.37 0.17 0.22 0.05 0.00 0.00 0.00 0.00 0.00 0.00 0.00 0.00 0.01 0.01 0.01 0.03
0.03 0.05 0.35 0.47 0.46 0.55 0.54 0.46 0.50 0.53 0.71 0.51 0.39 0.76 0.78 1.20 1.02 0.41 0.27 0.21 0.27 0.31 0.44 0.50 0.49 0.49 0.60 0.40 0.22 0.24 0.07 0.00 0.00 0.00 0.00 0.00 0.00 0.00 0.00 0.00 0.00 0.00 0.00
0.06 0.04 0.10 0.27 0.28 0.43 0.38 0.26 0.31 0.34 0.54 0.38 0.41 0.45 0.91 0.99 1.76 1.01 0.52 0.23 0.19 0.22 0.29 0.38 0.52 0.47 0.59 0.55 0.46 0.35 0.08 0.00 0.00 0.00 0.00 0.00 0.00 0.00 0.00 0.01 0.01 0.00 0.00
0.05 0.04 0.02 0.04 0.13 0.21 0.26 0.27 0.13 0.14 0.22 0.29 0.36 0.44 0.59 0.76 1.04 1.35 0.77 0.53 0.31 0.28 0.22 0.35 0.41 0.42 0.50 0.42 0.37 0.21 0.12 0.05 0.02 0.00 0.00 0.00 0.00 0.00 0.00 0.00 0.00 0.00 0.00
0.01 0.01 0.02 0.03 0.06 0.08 0.16 0.28 0.19 0.23 0.19 0.25 0.42 0.63 0.44 0.49 0.77 1.01 0.93 0.73 0.48 0.41 0.27 0.17 0.26 0.22 0.30 0.32 0.14 0.13 0.05 0.04 0.02 0.01 0.00 0.00 0.00 0.00 0.00 0.00 0.00 0.00 0.00
0.03 0.03 0.06 0.05 0.05 0.03 0.06 0.09 0.07 0.14 0.13 0.14 0.15 0.30 0.48 0.29 0.51 0.92 0.79 0.68 0.50 0.36 0.43 0.28 0.25 0.25 0.22 0.27 0.15 0.09 0.01 0.05 0.11 0.11 0.03 0.01 0.00 0.00 0.00 0.00 0.00 0.00 0.00
0.04 0.04 0.03 0.08 0.09 0.04 0.06 0.05 0.05 0.07 0.10 0.08 0.05 0.08 0.33 0.48 0.32 0.63 0.73 0.78 0.58 0.47 0.45 0.48 0.43 0.44 0.33 0.40 0.22 0.09 0.04 0.03 0.03 0.13 0.11 0.05 0.01 0.00 0.00 0.00 0.00 0.00 0.00
0.13 0.09 0.06 0.08 0.09 0.13 0.12 0.10 0.05 0.10 0.08 0.06 0.06 0.08 0.14 0.32 0.72 0.81 0.87 0.76 0.81 0.65 0.65 0.75 0.75 0.58 0.45 0.38 0.43 0.22 0.19 0.17 0.09 0.07 0.06 0.07 0.10 0.05 0.02 0.03 0.04 0.03 0.02

GFSSE_prec_precacc_096.txt.gz
Total_Precipitation_Accumulation
0.88 0.36 0.15 0.16 0.17 0.06 0.01 0.01 0.00 0.00 0.00 0.00 0.00 0.00 0.00 0.00 0.00 0.00 0.00 0.00 0.05 0.14 0.09 0.04 0.03 0.03 0.05 0.09 0.14 0.10 0.07 0.07 0.08 0.28 0.39 0.37 0.25 0.11 0.10 0.16 0.21 0.10 0.32
1.66 1.34 0.76 0.27 0.23 0.04 0.02 0.00 0.00 0.00 0.00 0.00 0.00 0.00 0.00 0.00 0.00 0.00 0.00 0.00 0.04 0.09 0.04 0.02 0.02 0.03 0.10 0.06 0.07 0.02 0.00 0.01 0.05 0.22 0.34 0.25 0.30 0.15 0.14 0.22 0.13 0.13 0.23
1.24 2.36 1.78 0.99 0.50 0.18 0.07 0.03 0.04 0.02 0.00 0.00 0.00 0.01 0.01 0.01 0.01 0.01 0.00 0.01 0.01 0.07 0.08 0.02 0.06 0.07 0.08 0.04 0.04 0.02 0.01 0.03 0.03 0.07 0.23 0.18 0.13 0.16 0.15 0.19 0.11 0.15 0.13
0.39 0.79 1.84 1.47 0.91 0.56 0.23 0.17 0.16 0.20 0.07 0.02 0.03 0.03 0.05 0.05 0.09 0.15 0.07 0.03 0.04 0.09 0.15 0.08 0.12 0.13 0.11 0.04 0.03 0.01 0.01 0.01 0.05 0.07 0.04 0.20 0.13 0.27 0.19 0.19 0.18 0.12 0.10
0.96 0.81 0.69 0.84 1.04 1.06 0.53 0.35 0.30 0.22 0.12 0.06 0.06 0.03 0.02 0.07 0.14 0.22 0.20 0.12 0.09 0.14 0.29 0.27 0.31 0.24 0.11 0.04 0.01 0.01 0.01 0.04 0.10 0.24 0.15 0.23 0.17 0.37 0.29 0.29 0.24 0.22 0.22
2.24 1.89 1.46 1.03 1.06 1.52 1.41 0.76 0.38 0.20 0.22 0.15 0.11 0.06 0.05 0.08 0.17 0.32 0.23 0.22 0.16 0.22 0.54 0.57 0.46 0.25 0.08 0.05 0.00 0.01 0.01 0.02 0.07 0.19 0.09 0.26 0.16 0.32 0.20 0.14 0.13 0.10 0.08
3.77 3.05 2.81 3.34 2.80 2.07 2.59 1.72 0.99 0.73 0.59 0.42 0.14 0.10 0.06 0.15 0.19 0.40 0.33 0.47 0.74 1.14 1.08 1.05 0.80 0.27 0.08 0.01 0.00 0.01 0.02 0.01 0.10 0.11 0.12 0.29 0.22 0.31 0.09 0.07 0.06 0.05 0.05
5.54 4.48 4.79 4.60 4.26 4.62 2.70 3.28 3.28 2.80 1.99 1.00 0.74 0.73 0.89 1.53 1.39 1.25 0.95 1.21 1.45 1.45 1.31 1.17 0.79 0.27 0.18 0.12 0.04 0.05 0.05 0.04 0.10 0.16 0.10 0.22 0.36 0.44 0.18 0.04 0.03 0.02 0.02
6.57 8.14 8.36 7.58 5.71 5.02 3.66 2.81 3.96 5.42 6.09 5.61 3.91 3.42 3.40 2.78 2.39 2.14 1.83 1.57 2.00 2.32 1.52 1.26 0.68 0.41 0.33 0.34 0.24 0.31 0.16 0.06 0.09 0.16 0.15 0.15 0.35 0.26 0.14 0.04 0.04 0.03 0.03
4.79 6.70 7.63 8.94 8.46 3.91 2.83 2.27 2.98 4.40 5.94 6.80 5.91 4.75 3.29 2.19 2.33 3.01 2.93 2.36 1.99 2.04 1.87 1.65 1.42 1.25 0.84 0.68 0.51 0.38 0.25 0.28 0.29 0.24 0.17 0.12 0.14 0.11 0.07 0.04 0.03 0.02 0.03
2.64 3.34 4.89 7.54 6.16 3.45 1.95 1.51 1.83 3.59 3.55 3.13 3.16 4.03 3.09 2.18 1.71 1.33 1.82 1.77 1.49 1.42 1.61 1.71 1.52 1.53 1.44 0.85 0.86 0.62 0.50 0.41 0.37 0.31 0.16 0.24 0.12 0.12 0.06 0.05 0.04 0.03 0.03
1.41 1.71 1.91 3.61 4.19 2.92 1.75 1.42 1.13 1.80 2.75 3.15 1.80 1.93 1.89 1.88 1.63 1.05 1.04 1.01 1.26 1.01 1.03 1.64 1.41 1.11 0.98 0.66 0.79 0.62 0.44 0.39 0.34 0.20 0.18 0.49 0.17 0.13 0.08 0.04 0.03 0.03 0.05
0.94 0.83 0.97 1.49 1.80 2.26 1.81 1.48 1.36 1.27 1.34 2.96 1.97 0.97 1.08 1.25 1.07 0.89 0.54 0.65 0.87 0.91 0.49 0.57 0.99 0.62 0.47 0.39 0.53 0.52 0.33 0.25 0.28 0.26 0.21 0.44 0.35 0.22 0.09 0.05 0.04 0.03 0.05
0.40 0.37 0.58 0.60 0.67 0.95 1.29 1.25 0.93 1.04 1.12 1.40 1.78 0.86 0.65 0.89 0.47 0.49 0.27 0.29 0.40 0.45 0.38 0.28 0.31 0.46 0.36 0.39 0.40 0.47 0.32 0.23 0.20 0.26 0.20 0.22 0.52 0.22 0.18 0.08 0.06 0.07 0.05
0.22 0.33 0.32 0.36 0.30 0.47 0.67 0.93 0.91 0.65 0.76 0.86 1.20 0.89 0.46 0.44 0.29 0.30 0.16 0.16 0.16 0.22 0.43 0.43 0.33 0.33 0.42 0.38 0.38 0.46 0.41 0.27 0.23 0.18 0.15 0.17 0.31 0.39 0.15 0.12 0.09 0.07 0.04
0.30 0.32 0.29 0.35 0.31 0.41 0.69 0.79 0.95 0.86 0.67 0.77 0.74 0.68 0.44 0.37 0.29 0.21 0.14 0.16 0.11 0.18 0.38 0.49 0.47 0.40 0.47 0.43 0.60 0.55 0.50 0.34 0.23 0.23 0.05 0.03 0.05 0.27 0.22 0.11 0.08 0.05 0.04
0.41 0.24 0.29 0.33 0.50 0.48 0.48 0.55 0.84 0.91 0.74 0.63 0.51 0.53 0.47 0.40 0.29 0.19 0.12 0.13 0.15 0.15 0.33 0.45 0.58 0.69 0.62 0.45 0.62 0.59 0.52 0.37 0.22 0.24 0.11 0.00 0.01 0.03 0.11 0.08 0.07 0.07 0.05
0.30 0.52 0.20 0.23 0.68 0.61 0.49 0.45 0.61 0.87 0.87 0.65 0.51 0.51 0.41 0.29 0.27 0.20 0.13 0.12 0.16 0.27 0.44 0.46 0.44 0.68 0.57 0.36 0.31 0.46 0.43 0.35 0.21 0.21 0.17 0.06 0.03 0.00 0.02 0.04 0.04 0.06 0.07
0.05 0.48 0.53 0.34 0.43 0.65 0.72 0.54 0.52 0.66 0.78 0.66 0.47 0.69 0.72 0.64 0.31 0.27 0.26 0.19 0.22 0.39 0.48 0.49 0.44 0.54 0.62 0.38 0.19 0.29 0.29 0.33 0.27 0.16 0.15 0.13 0.05 0.01 0.00 0.01 0.01 0.02 0.04
0.03 0.05 0.35 0.47 0.46 0.57 0.62 0.56 0.62 0.60 0.77 0.54 0.41 0.76 0.78 1.20 1.02 0.41 0.27 0.21 0.28 0.32 0.45 0.51 0.51 0.50 0.61 0.44 0.27 0.29 0.19 0.16 0.22 0.17 0.09 0.09 0.04 0.00 0.00 0.00 0.00 0.01 0.01
0.06 0.04 0.10 0.27 0.28 0.44 0.41 0.29 0.36 0.35 0.56 0.41 0.44 0.49 0.93 0.99 1.76 1.01 0.52 0.23 0.19 0.23 0.30 0.39 0.55 0.49 0.61 0.59 0.53 0.47 0.34 0.17 0.11 0.14 0.11 0.04 0.02 0.00 0.00 0.01 0.01 0.00 0.00
0.05 0.04 0.02 0.04 0.13 0.21 0.26 0.29 0.18 0.23 0.33 0.44 0.51 0.61 0.68 0.77 1.04 1.36 0.78 0.54 0.31 0.29 0.23 0.37 0.45 0.44 0.52 0.44 0.40 0.34 0.41 0.42 0.36 0.19 0.10 0.07 0.01 0.00 0.00 0.00 0.00 0.00 0.00
0.01 0.01 0.02 0.03 0.06 0.08 0.16 0.28 0.24 0.35 0.35 0.53 0.70 0.87 0.59 0.54 0.78 1.01 0.94 0.75 0.49 0.43 0.29 0.21 0.32 0.27 0.33 0.36 0.16 0.24 0.21 0.22 0.18 0.26 0.19 0.08 0.02 0.00 0.00 0.00 0.00 0.00 0.00
0.03 0.03 0.06 0.05 0.05 0.03 0.06 0.10 0.09 0.15 0.13 0.15 0.18 0.45 0.66 0.39 0.55 0.94 0.81 0.70 0.51 0.38 0.47 0.34 0.33 0.36 0.32 0.32 0.20 0.19 0.07 0.09 0.17 0.28 0.25 0.20 0.05 0.01 0.00 0.00 0.00 0.00 0.00
0.04 0.04 0.03 0.08 0.09 0.04 0.06 0.05 0.08 0.10 0.13 0.14 0.09 0.12 0.38 0.49 0.34 0.65 0.75 0.80 0.60 0.49 0.47 0.53 0.49 0.49 0.40 0.46 0.25 0.18 0.15 0.11 0.17 0.31 0.35 0.26 0.12 0.03 0.01 0.00 0.00 0.00 0.00
0.13 0.09 0.06 0.08 0.09 0.13 0.12 0.13 0.09 0.12 0.13 0.10 0.08 0.10 0.14 0.33 0.72 0.82 0.88 0.77 0.83 0.67 0.66 0.78 0.81 0.63 0.50 0.45 0.52 0.26 0.25 0.26 0.22 0.25 0.28 0.25 0.24 0.14 0.04 0.03 0.04 0.03 0.02

GFSSE_prec_precacc_102.txt.gz
Total_Precipitation_Accumulation
0.88 0.36 0.15 0.16 0.17 0.06 0.01 0.01 0.00 0.00 0.00 0.00 0.00 0.00 0.00 0.00 0.00 0.00 0.00 0.00 0.05 0.14 0.10 0.04 0.03 0.03 0.05 0.09 0.14 0.10 0.07 0.07 0.09 0.29 0.44 0.43 0.25 0.11 0.10 0.17 0.22 0.12 0.35
1.66 1.34 0.76 0.27 0.23 0.04 0.02 0.00 0.00 0.00 0.00 0.00 0.00 0.00 0.00 0.00 0.00 0.00 0.00 0.00 0.04 0.09 0.05 0.02 0.02 0.03 0.10 0.08 0.07 0.02 0.00 0.01 0.05 0.22 0.37 0.25 0.30 0.15 0.14 0.22 0.14 0.13 0.27
1.24 2.36 1.78 0.99 0.50 0.18 0.07 0.03 0.04 0.02 0.00 0.00 0.00 0.01 0.01 0.01 0.01 0.01 0.00 0.01 0.01 0.07 0.08 0.02 0.06 0.07 0.09 0.04 0.04 0.02 0.01 0.03 0.04 0.11 0.27 0.18 0.13 0.16 0.16 0.20 0.12 0.17 0.17
0.39 0.79 1.84 1.47 0.91 0.56 0.23 0.17 0.16 0.20 0.07 0.02 0.03 0.03 0.05 0.05 0.09 0.15 0.07 0.03 0.04 0.09 0.15 0.08 0.13 0.15 0.12 0.04 0.03 0.01 0.01 0.01 0.06 0.09 0.05 0.20 0.13 0.28 0.19 0.19 0.19 0.13 0.14
0.96 0.81 0.69 0.84 1.04 1.06 0.53 0.35 0.30 0.22 0.12 0.06 0.06 0.03 0.02 0.07 0.14 0.22 0.20 0.12 0.09 0.15 0.29 0.27 0.31 0.25 0.11 0.04 0.01 0.01 0.01 0.04 0.10 0.24 0.15 0.23 0.17 0.38 0.30 0.31 0.26 0.26 0.27
2.24 1.89 1.46 1.03 1.06 1.52 1.41 0.76 0.38 0.20 0.22 0.15 0.11 0.06 0.05 0.08 0.17 0.32 0.23 0.23 0.16 0.22 0.54 0.58 0.47 0.26 0.08 0.05 0.00 0.01 0.01 0.02 0.07 0.20 0.09 0.26 0.17 0.36 0.25 0.18 0.15 0.12 0.15
3.77 3.05 2.81 3.34 2.80 2.07 2.59 1.72 0.99 0.73 0.59 0.42 0.14 0.10 0.06 0.15 0.19 0.40 0.33 0.50 0.75 1.16 1.09 1.07 0.80 0.28 0.08 0.01 0.00 0.01 0.02 0.01 0.10 0.11 0.12 0.29 0.24 0.37 0.12 0.11 0.11 0.09 0.09
5.54 4.48 4.79 4.60 4.26 4.62 2.70 3.28 3.28 2.80 1.99 1.00 0.74 0.73 0.89 1.53 1.39 1.25 0.96 1.27 1.51 1.48 1.34 1.17 0.80 0.27 0.18 0.12 0.06 0.07 0.05 0.04 0.11 0.16 0.11 0.23 0.39 0.51 0.25 0.09 0.11 0.07 0.04
6.57 8.14 8.36 7.58 5.71 5.02 3.66 2.81 3.96 5.42 6.09 5.61 3.91 3.42 3.40 2.78 2.39 2.14 1.83 1.61 2.05 2.35 1.54 1.27 0.72 0.42 0.33 0.34 0.28 0.36 0.17 0.07 0.10 0.19 0.18 0.20 0.49 0.39 0.29 0.09 0.09 0.06 0.05
4.79 6.70 7.63 8.94 8.46 3.91 2.83 2.27 2.98 4.40 5.94 6.80 5.91 4.75 3.29 2.19 2.33 3.01 2.93 2.37 2.04 2.07 1.87 1.70 1.47 1.26 0.84 0.68 0.51 0.39 0.29 0.33 0.35 0.29 0.22 0.16 0.32 0.47 0.28 0.09 0.10 0.06 0.04
2.64 3.34 4.89 7.54 6.16 3.45 1.95 1.51 1.83 3.59 3.55 3.13 3.16 4.03 3.09 2.18 1.71 1.33 1.82 1.78 1.53 1.45 1.63 1.79 1.59 1.56 1.45 0.94 0.96 0.68 0.55 0.48 0.47 0.39 0.27 0.44 0.39 0.57 0.46 0.19 0.12 0.09 0.05
1.41 1.71 1.91 3.61 4.19 2.92 1.75 1.42 1.13 1.80 2.75 3.15 1.80 1.93 1.89 1.88 1.63 1.05 1.04 1.02 1.28 1.02 1.04 1.73 1.48 1.17 1.12 0.73 0.83 0.67 0.45 0.42 0.40 0.27 0.29 0.72 0.50 0.60 0.70 0.38 0.16 0.09 0.08
0.95 0.83 0.97 1.50 1.80 2.26 1.81 1.49 1.36 1.27 1.34 2.96 1.97 0.98 1.08 1.26 1.07 0.89 0.54 0.66 0.88 0.92 0.50 0.60 1.06 0.69 0.53 0.44 0.58 0.53 0.36 0.28 0.31 0.29 0.38 0.69 0.81 0.65 0.65 0.42 0.18 0.08 0.07
0.41 0.37 0.59 0.60 0.67 0.95 1.29 1.25 0.93 1.04 1.12 1.40 1.78 0.86 0.65 0.89 0.47 0.49 0.27 0.29 0.41 0.46 0.38 0.30 0.36 0.50 0.40 0.44 0.46 0.52 0.36 0.24 0.23 0.30 0.36 0.47 1.01 0.68 0.57 0.37 0.14 0.13 0.06
0.22 0.33 0.32 0.37 0.31 0.47 0.67 0.93 0.91 0.65 0.76 0.86 1.20 0.89 0.46 0.44 0.29 0.30 0.16 0.16 0.16 0.22 0.44 0.45 0.36 0.35 0.45 0.42 0.42 0.47 0.42 0.28 0.27 0.23 0.28 0.42 0.70 1.07 0.57 0.31 0.19 0.12 0.09
0.30 0.32 0.29 0.35 0.32 0.44 0.71 0.79 0.95 0.86 0.67 0.77 0.74 0.69 0.45 0.37 0.29 0.21 0.14 0.16 0.11 0.18 0.39 0.51 0.48 0.42 0.51 0.47 0.63 0.57 0.53 0.39 0.32 0.34 0.20 0.21 0.31 0.85 1.12 0.39 0.21 0.10 0.11
0.41 0.24 0.29 0.33 0.50 0.49 0.48 0.55 0.84 0.91 0.74 0.63 0.51 0.53 0.47 0.40 0.29 0.19 0.13 0.13 0.15 0.15 0.33 0.46 0.58 0.71 0.64 0.48 0.64 0.60 0.55 0.49 0.45 0.44 0.33 0.15 0.17 0.33 1.53 0.96 0.45 0.15 0.15
0.30 0.52 0.20 0.23 0.68 0.61 0.49 0.46 0.61 0.87 0.87 0.65 0.51 0.51 0.41 0.29 0.28 0.20 0.13 0.12 0.16 0.27 0.44 0.47 0.44 0.68 0.57 0.38 0.34 0.48 0.47 0.52 0.51 0.57 0.52 0.35 0.33 0.21 0.75 0.99 0.45 0.30 0.19
0.05 0.48 0.53 0.34 0.43 0.65 0.72 0.54 0.52 0.71 0.81 0.66 0.47 0.69 0.72 0.64 0.31 0.27 0.27 0.19 0.22 0.40 0.48 0.50 0.45 0.55 0.63 0.39 0.20 0.30 0.33 0.45 0.53 0.57 0.65 0.53 0.57 0.51 0.22 0.18 0.12 0.14 0.11
0.03 0.05 0.35 0.47 0.46 0.57 0.62 0.58 0.63 0.62 0.78 0.55 0.41 0.76 0.78 1.20 1.03 0.42 0.27 0.21 0.28 0.33 0.46 0.52 0.51 0.50 0.61 0.44 0.28 0.31 0.22 0.25 0.40 0.51 0.61 0.64 0.60 0.78 0.29 0.13 0.03 0.05 0.04
0.06 0.04 0.10 0.27 0.28 0.44 0.41 0.29 0.36 0.35 0.57 0.42 0.45 0.54 0.94 0.99 1.76 1.01 0.53 0.23 0.19 0.23 0.31 0.40 0.55 0.50 0.62 0.60 0.54 0.49 0.36 0.21 0.20 0.35 0.49 0.46 0.66 0.47 0.20 0.18 0.08 0.05 0.02
0.05 0.04 0.02 0.04 0.13 0.21 0.26 0.29 0.18 0.23 0.33 0.51 0.56 0.65 0.72 0.78 1.05 1.36 0.78 0.54 0.31 0.30 0.23 0.38 0.46 0.45 0.53 0.45 0.41 0.36 0.43 0.46 0.43 0.32 0.31 0.35 0.34 0.27 0.13 0.10 0.08 0.06 0.03
0.01 0.01 0.02 0.03 0.06 0.08 0.16 0.28 0.25 0.37 0.40 0.61 0.73 0.88 0.67 0.70 0.93 1.09 0.97 0.76 0.50 0.43 0.30 0.22 0.33 0.29 0.34 0.37 0.16 0.25 0.22 0.23 0.21 0.31 0.31 0.26 0.30 0.21 0.13 0.11 0.04 0.02 0.01
0.03 0.03 0.06 0.05 0.05 0.03 0.06 0.10 0.09 0.15 0.13 0.15 0.18 0.47 0.74 0.79 1.13 1.42 1.07 0.90 0.64 0.42 0.48 0.35 0.34 0.38 0.36 0.34 0.23 0.21 0.08 0.10 0.18 0.30 0.30 0.31 0.21 0.17 0.12 0.11 0.09 0.03 0.00
0.04 0.04 0.03 0.08 0.09 0.04 0.07 0.05 0.08 0.10 0.14 0.14 0.09 0.13 0.41 0.69 0.56 1.08 1.20 1.16 0.80 0.58 0.54 0.59 0.51 0.52 0.44 0.50 0.30 0.21 0.17 0.12 0.19 0.31 0.36 0.31 0.26 0.16 0.07 0.05 0.04 0.02 0.00
0.13 0.09 0.06 0.08 0.09 0.13 0.13 0.13 0.09 0.13 0.13 0.10 0.09 0.11 0.17 0.36 0.77 0.86 0.95 0.88 0.92 0.72 0.72 0.84 0.82 0.66 0.53 0.49 0.58 0.34 0.31 0.29 0.23 0.26 0.29 0.28 0.34 0.27 0.20 0.15 0.09 0.05 0.03

GFSSE_prec_precacc_105.txt.gz
Total_Precipitation_Accumulation
0.88 0.36 0.15 0.16 0.17 0.06 0.01 0.01 0.00 0.00 0.00 0.00 0.00 0.00 0.00 0.00 0.00 0.00 0.00 0.00 0.05 0.14 0.10 0.04 0.03 0.03 0.05 0.09 0.14 0.10 0.07 0.07 0.09 0.29 0.44 0.43 0.25 0.11 0.10 0.17 0.24 0.15 0.37
1.66 1.34 0.76 0.27 0.23 0.04 0.02 0.00 0.00 0.00 0.00 0.00 0.00 0.00 0.00 0.00 0.00 0.00 0.00 0.00 0.04 0.09 0.05 0.02 0.02 0.03 0.10 0.08 0.07 0.02 0.00 0.01 0.05 0.22 0.38 0.26 0.30 0.15 0.14 0.24 0.32 0.16 0.28
1.24 2.36 1.78 0.99 0.50 0.18 0.07 0.03 0.04 0.02 0.00 0.00 0.00 0.01 0.01 0.01 0.01 0.01 0.00 0.01 0.01 0.07 0.08 0.03 0.06 0.07 0.09 0.04 0.04 0.02 0.01 0.03 0.04 0.11 0.28 0.18 0.13 0.16 0.16 0.22 0.16 0.21 0.18
0.39 0.79 1.84 1.47 0.91 0.56 0.23 0.17 0.16 0.20 0.07 0.02 0.03 0.03 0.05 0.05 0.09 0.15 0.07 0.03 0.04 0.09 0.15 0.08 0.13 0.15 0.12 0.04 0.03 0.01 0.01 0.01 0.06 0.09 0.05 0.21 0.13 0.28 0.19 0.20 0.23 0.16 0.16
0.96 0.81 0.69 0.84 1.04 1.06 0.53 0.35 0.30 0.22 0.12 0.06 0.06 0.03 0.02 0.07 0.14 0.22 0.20 0.12 0.10 0.15 0.29 0.27 0.32 0.25 0.12 0.04 0.01 0.01 0.01 0.04 0.10 0.24 0.16 0.26 0.17 0.39 0.30 0.31 0.27 0.30 0.34
2.24 1.89 1.46 1.03 1.06 1.52 1.41 0.76 0.38 0.20 0.22 0.15 0.11 0.06 0.05 0.08 0.17 0.32 0.23 0.23 0.17 0.23 0.54 0.60 0.47 0.28 0.08 0.05 0.00 0.01 0.01 0.02 0.07 0.20 0.11 0.27 0.17 0.37 0.26 0.18 0.16 0.15 0.19
3.77 3.05 2.81 3.34 2.80 2.07 2.59 1.72 0.99 0.73 0.59 0.42 0.14 0.10 0.06 0.15 0.19 0.40 0.33 0.50 0.77 1.19 1.11 1.08 0.81 0.28 0.08 0.01 0.00 0.01 0.02 0.01 0.10 0.11 0.14 0.29 0.35 0.44 0.13 0.14 0.13 0.13 0.19
5.54 4.48 4.79 4.60 4.26 4.62 2.70 3.28 3.28 2.80 1.99 1.00 0.74 0.73 0.89 1.53 1.39 1.25 0.96 1.28 1.53 1.51 1.36 1.18 0.80 0.27 0.18 0.12 0.06 0.07 0.05 0.04 0.11 0.17 0.11 0.23 0.41 0.60 0.25 0.10 0.15 0.14 0.08
6.57 8.14 8.36 7.58 5.71 5.02 3.66 2.81 3.96 5.42 6.09 5.61 3.91 3.42 3.40 2.78 2.39 2.14 1.83 1.61 2.07 2.37 1.55 1.30 0.74 0.42 0.33 0.34 0.28 0.36 0.17 0.07 0.10 0.19 0.19 0.20 0.51 0.44 0.33 0.10 0.12 0.14 0.09
4.79 6.71 7.63 8.94 8.46 3.91 2.83 2.27 2.98 4.40 5.94 6.80 5.91 4.75 3.29 2.19 2.33 3.01 2.93 2.37 2.05 2.08 1.88 1.73 1.50 1.27 0.84 0.68 0.51 0.40 0.31 0.37 0.35 0.29 0.22 0.18 0.37 0.50 0.33 0.14 0.14 0.14 0.08
2.64 3.34 4.89 7.54 6.16 3.45 1.95 1.51 1.83 3.59 3.55 3.13 3.16 4.03 3.09 2.18 1.71 1.33 1.82 1.78 1.55 1.46 1.65 1.83 1.63 1.57 1.46 0.94 0.98 0.71 0.64 0.50 0.48 0.41 0.32 0.53 0.47 0.65 0.54 0.37 0.20 0.19 0.08
1.41 1.71 1.91 3.61 4.19 2.92 1.75 1.42 1.13 1.80 2.75 3.15 1.80 1.93 1.89 1.88 1.63 1.05 1.04 1.02 1.28 1.02 1.05 1.75 1.50 1.19 1.16 0.75 0.86 0.68 0.47 0.43 0.51 0.39 0.38 0.84 0.67 0.71 0.97 0.79 0.41 0.14 0.16
0.95 0.83 0.97 1.50 1.80 2.26 1.81 1.49 1.36 1.27 1.34 2.96 1.97 0.98 1.08 1.26 1.07 0.89 0.54 0.66 0.88 0.92 0.51 0.60 1.06 0.70 0.54 0.45 0.63 0.54 0.36 0.33 0.39 0.31 0.42 0.80 0.90 0.76 0.90 0.80 0.57 0.38 0.32
0.41 0.37 0.59 0.60 0.67 0.96 1.29 1.25 0.93 1.04 1.12 1.40 1.78 0.86 0.65 0.89 0.47 0.49 0.27 0.29 0.41 0.46 0.39 0.31 0.36 0.51 0.41 0.44 0.49 0.58 0.42 0.31 0.23 0.30 0.39 0.52 1.09 0.75 0.72 0.59 0.39 0.40 0.25
0.22 0.33 0.32 0.37 0.31 0.47 0.68 0.94 0.91 0.65 0.76 0.86 1.20 0.89 0.46 0.44 0.29 0.30 0.16 0.16 0.16 0.23 0.44 0.45 0.37 0.36 0.48 0.45 0.47 0.52 0.45 0.31 0.30 0.24 0.29 0.42 0.72 1.12 0.68 0.84 0.43 0.29 0.19
0.30 0.32 0.29 0.35 0.32 0.44 0.71 0.79 0.95 0.86 0.67 0.77 0.74 0.69 0.45 0.37 0.30 0.21 0.14 0.16 0.11 0.19 0.40 0.51 0.50 0.44 0.54 0.52 0.68 0.60 0.56 0.42 0.36 0.35 0.20 0.21 0.31 0.87 1.23 0.75 0.93 0.28 0.15
0.41 0.24 0.29 0.33 0.50 0.49 0.48 0.55 0.84 0.91 0.74 0.63 0.51 0.53 0.47 0.40 0.29 0.19 0.13 0.13 0.15 0.15 0.34 0.47 0.60 0.74 0.68 0.51 0.66 0.63 0.56 0.51 0.48 0.46 0.35 0.16 0.18 0.35 1.59 1.39 1.32 0.43 0.21
0.30 0.52 0.20 0.23 0.68 0.61 0.49 0.46 0.61 0.87 0.87 0.65 0.51 0.51 0.41 0.29 0.28 0.20 0.13 0.12 0.16 0.27 0.45 0.47 0.45 0.70 0.59 0.40 0.36 0.51 0.50 0.54 0.53 0.60 0.55 0.37 0.33 0.26 0.84 1.74 1.81 1.56 0.43
0.05 0.48 0.53 0.34 0.43 0.65 0.72 0.54 0.52 0.71 0.81 0.66 0.47 0.69 0.72 0.64 0.31 0.27 0.27 0.19 0.22 0.40 0.49 0.50 0.45 0.55 0.64 0.40 0.23 0.32 0.36 0.47 0.54 0.58 0.66 0.54 0.58 0.53 0.39 0.93 1.09 1.03 0.58
0.03 0.05 0.35 0.47 0.46 0.57 0.62 0.58 0.63 0.62 0.78 0.55 0.41 0.76 0.78 1.20 1.03 0.42 0.28 0.21 0.28 0.33 0.47 0.52 0.51 0.50 0.62 0.45 0.29 0.31 0.23 0.27 0.42 0.52 0.62 0.64 0.61 0.85 0.56 0.68 0.41 0.47 0.24
0.06 0.04 0.10 0.27 0.28 0.44 0.41 0.29 0.36 0.35 0.57 0.42 0.45 0.54 0.94 0.99 1.77 1.02 0.53 0.23 0.20 0.23 0.31 0.40 0.56 0.50 0.62 0.60 0.55 0.49 0.37 0.23 0.24 0.38 0.50 0.46 0.68 0.66 0.79 0.90 0.44 0.23 0.09
0.05 0.04 0.02 0.04 0.13 0.21 0.26 0.29 0.18 0.23 0.33 0.51 0.56 0.65 0.72 0.78 1.05 1.36 0.78 0.54 0.32 0.31 0.24 0.39 0.46 0.45 0.54 0.46 0.41 0.36 0.43 0.47 0.44 0.33 0.32 0.36 0.40 0.51 0.55 1.08 0.88 0.31 0.11
0.01 0.01 0.02 0.03 0.06 0.08 0.16 0.28 0.25 0.37 0.40 0.61 0.73 0.88 0.67 0.72 0.94 1.10 0.97 0.77 0.50 0.44 0.31 0.23 0.33 0.29 0.34 0.38 0.17 0.25 0.22 0.24 0.21 0.31 0.32 0.27 0.32 0.33 0.29 0.51 0.82 0.43 0.18
0.03 0.03 0.06 0.05 0.05 0.03 0.06 0.10 0.09 0.15 0.13 0.15 0.18 0.47 0.75 0.81 1.16 1.43 1.07 0.90 0.64 0.43 0.51 0.36 0.35 0.39 0.36 0.35 0.24 0.22 0.09 0.12 0.19 0.31 0.31 0.31 0.22 0.21 0.24 0.22 0.27 0.26 0.15
0.04 0.04 0.03 0.08 0.09 0.04 0.07 0.05 0.08 0.10 0.14 0.14 0.09 0.13 0.42 0.70 0.57 1.08 1.22 1.17 0.92 0.68 0.61 0.63 0.54 0.53 0.45 0.51 0.30 0.22 0.19 0.14 0.22 0.33 0.37 0.32 0.28 0.17 0.09 0.11 0.15 0.14 0.11
0.13 0.09 0.06 0.08 0.09 0.13 0.13 0.13 0.09 0.13 0.13 0.10 0.09 0.12 0.20 0.39 0.79 0.89 1.07 0.91 0.98 0.94 0.92 1.06 1.04 0.73 0.54 0.50 0.59 0.34 0.32 0.30 0.25 0.30 0.31 0.29 0.34 0.28 0.22 0.17 0.10 0.08 0.08

GFSSE_prec_precacc_108.txt.gz
Total_Precipitation_Accumulation
0.88 0.36 0.15 0.16 0.17 0.06 0.01 0.01 0.00 0.00 0.00 0.00 0.00 0.00 0.00 0.00 0.00 0.00 0.00 0.00 0.05 0.14 0.10 0.04 0.03 0.03 0.05 0.09 0.14 0.10 0.07 0.07 0.09 0.29 0.44 0.43 0.25 0.11 0.10 0.17 0.25 0.16 0.37
1.66 1.34 0.76 0.27 0.23 0.04 0.02 0.00 0.00 0.00 0.00 0.00 0.00 0.00 0.00 0.00 0.00 0.00 0.00 0.00 0.04 0.09 0.05 0.02 0.02 0.03 0.10 0.08 0.07 0.02 0.00 0.01 0.05 0.22 0.38 0.26 0.30 0.15 0.14 0.27 0.45 0.20 0.29
1.24 2.36 1.78 0.99 0.50 0.18 0.07 0.03 0.04 0.02 0.00 0.00 0.00 0.01 0.01 0.01 0.01 0.01 0.00 0.01 0.01 0.07 0.08 0.03 0.06 0.07 0.09 0.04 0.04 0.02 0.01 0.03 0.04 0.11 0.28 0.18 0.13 0.17 0.16 0.22 0.19 0.28 0.20
0.39 0.79 1.84 1.47 0.91 0.56 0.23 0.17 0.16 0.20 0.07 0.02 0.03 0.03 0.05 0.05 0.09 0.15 0.07 0.03 0.04 0.09 0.15 0.09 0.13 0.16 0.12 0.04 0.03 0.01 0.01 0.01 0.06 0.09 0.06 0.29 0.15 0.28 0.19 0.20 0.24 0.19 0.17
0.96 0.81 0.69 0.84 1.04 1.06 0.53 0.35 0.30 0.22 0.12 0.06 0.06 0.03 0.02 0.07 0.14 0.22 0.20 0.12 0.10 0.15 0.30 0.28 0.32 0.25 0.12 0.04 0.01 0.01 0.01 0.04 0.10 0.24 0.24 0.69 0.58 0.41 0.30 0.33 0.29 0.32 0.38
2.24 1.89 1.46 1.03 1.06 1.52 1.41 0.76 0.38 0.20 0.22 0.15 0.11 0.06 0.05 0.08 0.17 0.32 0.23 0.23 0.17 0.23 0.55 0.61 0.48 0.29 0.09 0.05 0.00 0.01 0.01 0.02 0.07 0.20 0.28 0.51 0.75 0.47 0.26 0.19 0.16 0.15 0.20
3.77 3.05 2.81 3.34 2.80 2.07 2.59 1.72 0.99 0.73 0.59 0.42 0.14 0.10 0.06 0.15 0.19 0.40 0.33 0.50 0.77 1.19 1.12 1.09 0.83 0.29 0.08 0.01 0.00 0.01 0.02 0.01 0.10 0.12 0.31 0.72 0.86 0.54 0.14 0.14 0.15 0.14 0.21
5.54 4.48 4.79 4.60 4.26 4.62 2.70 3.28 3.28 2.80 1.99 1.00 0.74 0.73 0.89 1.53 1.39 1.25 0.96 1.28 1.53 1.52 1.38 1.19 0.83 0.28 0.18 0.12 0.06 0.07 0.05 0.04 0.11 0.19 0.29 0.51 0.61 0.66 0.27 0.10 0.16 0.15 0.09
6.57 8.14 8.36 7.58 5.71 5.02 3.66 2.81 3.96 5.42 6.09 5.61 3.91 3.42 3.40 2.78 2.39 2.14 1.83 1.61 2.07 2.37 1.56 1.31 0.76 0.43 0.33 0.34 0.28 0.36 0.17 0.07 0.10 0.20 0.31 0.61 0.83 0.50 0.34 0.10 0.12 0.14 0.13
4.79 6.71 7.64 8.95 8.46 3.91 2.83 2.27 2.98 4.40 5.94 6.80 5.91 4.75 3.29 2.19 2.33 3.01 2.93 2.37 2.05 2.09 1.89 1.74 1.52 1.29 0.84 0.68 0.51 0.40 0.31 0.37 0.35 0.29 0.29 0.28 0.47 0.55 0.36 0.16 0.15 0.16 0.20
2.64 3.34 4.90 7.55 6.17 3.45 1.95 1.51 1.83 3.59 3.55 3.13 3.16 4.03 3.09 2.18 1.71 1.33 1.82 1.78 1.55 1.46 1.65 1.83 1.63 1.59 1.46 0.94 0.98 0.71 0.64 0.50 0.48 0.41 0.37 0.59 0.57 0.75 0.66 0.55 0.31 0.34 0.24
1.41 1.71 1.92 3.62 4.20 2.93 1.75 1.42 1.13 1.80 2.75 3.15 1.80 1.93 1.89 1.88 1.63 1.05 1.04 1.02 1.28 1.02 1.05 1.75 1.50 1.19 1.17 0.76 0.86 0.68 0.47 0.43 0.52 0.39 0.40 0.87 0.72 0.77 1.07 0.96 0.65 0.39 0.46
0.95 0.83 0.97 1.50 1.81 2.28 1.82 1.50 1.37 1.27 1.34 2.96 1.97 0.98 1.08 1.26 1.07 0.89 0.54 0.66 0.89 0.92 0.51 0.60 1.06 0.70 0.54 0.45 0.65 0.54 0.36 0.33 0.41 0.32 0.45 0.90 0.92 0.77 1.00 0.96 0.75 0.71 0.71
0.41 0.37 0.59 0.61 0.69 0.98 1.34 1.26 0.94 1.06 1.12 1.40 1.78 0.86 0.65 0.89 0.47 0.49 0.27 0.29 0.41 0.47 0.39 0.31 0.36 0.51 0.41 0.45 0.51 0.61 0.44 0.32 0.25 0.33 0.46 0.58 1.10 0.77 0.80 0.70 0.57 0.82 0.72
0.22 0.33 0.32 0.40 0.35 0.53 0.82 1.06 0.97 0.68 0.80 0.87 1.22 0.89 0.46 0.44 0.29 0.30 0.16 0.16 0.16 0.23 0.45 0.45 0.37 0.36 0.48 0.46 0.48 0.54 0.49 0.34 0.36 0.37 0.36 0.43 0.76 1.14 0.74 0.97 0.65 0.57 0.60
0.30 0.32 0.29 0.35 0.32 0.44 0.74 0.90 1.05 0.94 0.76 0.79 0.75 0.69 0.45 0.37 0.30 0.21 0.14 0.16 0.11 0.19 0.40 0.52 0.50 0.46 0.56 0.53 0.69 0.62 0.59 0.46 0.41 0.43 0.27 0.23 0.32 0.87 1.27 0.85 1.11 0.58 0.42
0.41 0.24 0.29 0.33 0.50 0.49 0.48 0.57 0.88 0.96 0.80 0.67 0.52 0.53 0.47 0.40 0.29 0.19 0.13 0.13 0.15 0.16 0.34 0.47 0.61 0.77 0.69 0.53 0.66 0.64 0.58 0.53 0.50 0.48 0.40 0.20 0.19 0.35 1.62 1.47 1.48 0.67 0.64
0.30 0.52 0.20 0.23 0.68 0.61 0.49 0.46 0.61 0.88 0.88 0.66 0.51 0.51 0.41 0.29 0.28 0.20 0.13 0.12 0.16 0.28 0.46 0.47 0.46 0.71 0.60 0.41 0.37 0.51 0.50 0.56 0.55 0.61 0.57 0.40 0.34 0.26 0.86 1.81 1.94 1.98 1.03
0.05 0.48 0.53 0.34 0.43 0.65 0.72 0.54 0.52 0.71 0.81 0.66 0.47 0.69 0.74 0.64 0.31 0.28 0.27 0.19 0.22 0.40 0.50 0.50 0.45 0.56 0.64 0.41 0.23 0.32 0.37 0.49 0.57 0.60 0.68 0.57 0.59 0.53 0.41 0.97 1.15 1.49 1.65
0.03 0.05 0.35 0.47 0.46 0.57 0.62 0.58 0.63 0.62 0.78 0.55 0.41 0.76 0.80 1.25 1.03 0.42 0.28 0.21 0.28 0.33 0.47 0.53 0.51 0.51 0.62 0.45 0.30 0.32 0.24 0.29 0.45 0.54 0.63 0.65 0.61 0.86 0.57 0.72 0.42 0.51 0.64
0.06 0.04 0.10 0.27 0.28 0.44 0.41 0.29 0.36 0.35 0.57 0.42 0.45 0.54 0.94 1.07 1.79 1.02 0.53 0.24 0.20 0.24 0.31 0.40 0.56 0.51 0.62 0.61 0.57 0.50 0.38 0.24 0.25 0.38 0.50 0.47 0.68 0.66 0.80 0.92 0.45 0.27 0.23
0.05 0.04 0.02 0.04 0.13 0.21 0.26 0.29 0.18 0.23 0.33 0.51 0.56 0.65 0.72 0.82 1.18 1.43 0.84 0.59 0.38 0.33 0.24 0.39 0.46 0.46 0.55 0.47 0.42 0.36 0.44 0.47 0.44 0.35 0.33 0.36 0.40 0.51 0.55 1.10 1.05 0.42 0.23
0.01 0.01 0.02 0.03 0.06 0.08 0.16 0.28 0.25 0.37 0.40 0.61 0.73 0.88 0.67 0.72 0.97 1.14 1.00 0.85 0.76 0.86 0.64 0.29 0.34 0.30 0.35 0.39 0.17 0.25 0.22 0.24 0.21 0.31 0.32 0.28 0.32 0.33 0.29 0.53 1.12 0.77 0.45
0.03 0.03 0.06 0.05 0.05 0.03 0.06 0.10 0.09 0.15 0.13 0.15 0.18 0.47 0.75 0.81 1.20 1.48 1.11 0.97 0.78 0.62 0.69 0.56 0.43 0.41 0.37 0.35 0.25 0.23 0.09 0.12 0.19 0.31 0.31 0.32 0.23 0.21 0.24 0.24 0.53 0.91 0.69
0.04 0.04 0.03 0.08 0.09 0.04 0.07 0.05 0.08 0.10 0.14 0.14 0.09 0.13 0.42 0.70 0.58 1.10 1.24 1.18 0.96 0.77 0.69 0.73 0.59 0.55 0.47 0.51 0.31 0.22 0.19 0.15 0.22 0.34 0.37 0.33 0.29 0.17 0.09 0.12 0.20 0.44 0.69
0.13 0.09 0.06 0.08 0.09 0.13 0.13 0.13 0.09 0.13 0.13 0.10 0.09 0.12 0.20 0.42 0.86 0.97 1.15 0.95 1.01 0.97 0.97 1.19 1.25 0.88 0.64 0.56 0.60 0.35 0.32 0.31 0.25 0.30 0.31 0.30 0.35 0.28 0.23 0.17 0.11 0.14 0.27

GFSSE_prec_precacc_111.txt.gz
Total_Precipitation_Accumulation
0.88 0.36 0.15 0.16 0.17 0.06 0.01 0.01 0.00 0.00 0.00 0.00 0.00 0.00 0.00 0.00 0.00 0.00 0.00 0.00 0.05 0.14 0.10 0.04 0.03 0.03 0.05 0.09 0.14 0.10 0.07 0.08 0.09 0.29 0.45 0.48 0.27 0.11 0.10 0.17 0.25 0.16 0.37
1.66 1.34 0.76 0.27 0.23 0.04 0.02 0.00 0.00 0.00 0.00 0.00 0.00 0.00 0.00 0.00 0.00 0.00 0.00 0.00 0.04 0.09 0.05 0.02 0.02 0.03 0.10 0.08 0.07 0.02 0.00 0.01 0.05 0.22 0.38 0.28 0.31 0.15 0.14 0.27 0.45 0.20 0.29
1.24 2.36 1.78 0.99 0.50 0.18 0.07 0.03 0.04 0.02 0.00 0.00 0.00 0.01 0.01 0.01 0.01 0.01 0.00 0.01 0.01 0.07 0.08 0.03 0.06 0.07 0.09 0.04 0.04 0.02 0.01 0.03 0.04 0.11 0.28 0.21 0.15 0.17 0.16 0.22 0.19 0.28 0.20
0.39 0.79 1.84 1.47 0.91 0.56 0.23 0.17 0.16 0.20 0.07 0.02 0.03 0.03 0.05 0.05 0.09 0.15 0.07 0.03 0.04 0.09 0.15 0.09 0.13 0.16 0.12 0.04 0.03 0.01 0.01 0.01 0.06 0.09 0.09 0.35 0.23 0.32 0.20 0.23 0.29 0.22 0.17
0.96 0.81 0.69 0.84 1.04 1.06 0.53 0.35 0.30 0.22 0.12 0.06 0.06 0.03 0.02 0.07 0.14 0.22 0.20 0.12 0.10 0.15 0.30 0.28 0.32 0.26 0.12 0.04 0.01 0.01 0.01 0.04 0.11 0.27 0.36 0.87 0.74 0.52 0.37 0.38 0.35 0.40 0.41
2.24 1.89 1.46 1.03 1.06 1.52 1.41 0.76 0.38 0.20 0.22 0.15 0.11 0.06 0.05 0.08 0.17 0.32 0.23 0.23 0.17 0.23 0.55 0.61 0.48 0.29 0.09 0.05 0.00 0.01 0.01 0.02 0.07 0.24 0.47 0.72 1.09 0.76 0.42 0.26 0.21 0.17 0.22
3.77 3.05 2.81 3.34 2.80 2.07 2.59 1.72 0.99 0.73 0.59 0.42 0.14 0.10 0.06 0.15 0.19 0.40 0.33 0.50 0.77 1.19 1.12 1.09 0.83 0.29 0.08 0.01 0.00 0.01 0.02 0.01 0.10 0.23 0.54 0.92 1.25 1.01 0.31 0.24 0.17 0.16 0.22
5.54 4.48 4.79 4.60 4.26 4.62 2.70 3.28 3.28 2.80 1.99 1.00 0.74 0.73 0.89 1.53 1.39 1.25 0.96 1.28 1.53 1.52 1.38 1.19 0.83 0.28 0.18 0.12 0.06 0.07 0.05 0.04 0.11 0.31 0.53 0.72 0.90 0.81 0.39 0.20 0.18 0.16 0.11
6.57 8.14 8.36 7.58 5.71 5.02 3.66 2.81 3.96 5.42 6.09 5.61 3.91 3.42 3.40 2.78 2.39 2.14 1.83 1.61 2.07 2.37 1.56 1.31 0.76 0.43 0.33 0.34 0.28 0.36 0.17 0.07 0.10 0.33 0.53 0.78 1.21 0.57 0.45 0.16 0.16 0.17 0.16
4.79 6.71 7.64 8.95 8.46 3.91 2.83 2.27 2.98 4.40 5.94 6.80 5.91 4.75 3.29 2.19 2.33 3.01 2.93 2.37 2.05 2.09 1.89 1.74 1.52 1.29 0.84 0.68 0.51 0.40 0.31 0.37 0.35 0.34 0.43 0.33 0.50 0.63 0.46 0.22 0.17 0.20 0.28
2.64 3.34 4.90 7.55 6.17 3.45 1.95 1.51 1.83 3.59 3.55 3.13 3.16 4.03 3.09 2.18 1.71 1.33 1.82 1.78 1.55 1.46 1.65 1.83 1.63 1.59 1.46 0.94 0.98 0.71 0.64 0.50 0.48 0.41 0.45 0.62 0.65 0.90 0.80 0.62 0.35 0.42 0.33
1.41 1.72 1.92 3.62 4.21 2.94 1.75 1.42 1.13 1.80 2.75 3.15 1.80 1.93 1.89 1.88 1.63 1.05 1.04 1.02 1.28 1.02 1.05 1.75 1.50 1.19 1.17 0.76 0.86 0.68 0.47 0.43 0.52 0.40 0.46 0.93 0.78 0.87 1.18 1.06 0.68 0.40 0.54
0.95 0.83 0.97 1.50 1.81 2.29 1.83 1.50 1.37 1.27 1.34 2.96 1.97 0.98 1.08 1.26 1.07 0.89 0.54 0.66 0.89 0.92 0.51 0.60 1.06 0.70 0.54 0.45 0.65 0.54 0.36 0.33 0.41 0.32 0.52 1.00 0.96 0.83 1.09 1.02 0.77 0.74 0.78
0.41 0.38 0.62 0.66 0.70 0.98 1.35 1.27 0.95 1.06 1.12 1.40 1.78 0.86 0.65 0.89 0.47 0.49 0.27 0.29 0.41 0.47 0.39 0.31 0.36 0.51 0.41 0.45 0.51 0.61 0.44 0.32 0.25 0.34 0.47 0.62 1.13 0.79 0.84 0.74 0.57 0.86 0.86
0.22 0.33 0.33 0.43 0.40 0.60 0.87 1.11 1.00 0.73 0.85 0.87 1.24 0.90 0.46 0.44 0.29 0.30 0.16 0.16 0.16 0.23 0.45 0.45 0.37 0.36 0.48 0.46 0.48 0.54 0.49 0.34 0.36 0.38 0.40 0.48 0.81 1.15 0.76 1.00 0.67 0.61 0.70
0.30 0.32 0.29 0.35 0.32 0.44 0.76 0.93 1.11 1.04 0.89 0.85 0.88 0.74 0.45 0.37 0.30 0.21 0.14 0.16 0.11 0.19 0.40 0.52 0.50 0.46 0.56 0.53 0.69 0.62 0.59 0.46 0.41 0.45 0.28 0.27 0.33 0.88 1.27 0.86 1.14 0.61 0.50
0.41 0.24 0.29 0.33 0.50 0.49 0.48 0.58 0.91 0.99 0.90 0.76 0.64 0.68 0.57 0.47 0.30 0.19 0.13 0.13 0.15 0.16 0.34 0.47 0.61 0.77 0.69 0.53 0.66 0.64 0.58 0.53 0.50 0.50 0.41 0.21 0.19 0.35 1.63 1.47 1.49 0.72 0.75
0.30 0.52 0.20 0.23 0.68 0.61 0.49 0.46 0.62 0.91 0.92 0.71 0.55 0.62 0.56 0.36 0.32 0.22 0.13 0.12 0.16 0.28 0.46 0.47 0.46 0.71 0.60 0.41 0.37 0.51 0.50 0.56 0.56 0.63 0.62 0.42 0.34 0.26 0.86 1.81 1.95 2.00 1.08
0.05 0.48 0.53 0.34 0.43 0.65 0.72 0.54 0.52 0.71 0.81 0.68 0.49 0.72 0.91 0.68 0.35 0.32 0.28 0.20 0.22 0.40 0.50 0.50 0.45 0.56 0.64 0.41 0.23 0.32 0.37 0.50 0.58 0.62 0.69 0.58 0.59 0.53 0.41 0.97 1.15 1.49 1.66
0.03 0.05 0.35 0.47 0.46 0.57 0.62 0.58 0.63 0.62 0.78 0.55 0.41 0.77 0.82 1.33 1.06 0.48 0.31 0.22 0.29 0.34 0.47 0.54 0.51 0.51 0.62 0.45 0.30 0.32 0.25 0.30 0.45 0.54 0.64 0.66 0.61 0.86 0.57 0.72 0.42 0.52 0.65
0.06 0.04 0.10 0.27 0.28 0.44 0.41 0.29 0.36 0.35 0.57 0.42 0.45 0.54 0.94 1.17 1.88 1.02 0.54 0.26 0.22 0.25 0.32 0.41 0.58 0.52 0.65 0.61 0.57 0.50 0.38 0.24 0.26 0.38 0.50 0.47 0.68 0.66 0.80 0.92 0.45 0.27 0.23
0.05 0.04 0.02 0.04 0.13 0.21 0.26 0.29 0.18 0.23 0.33 0.51 0.56 0.65 0.72 0.83 1.21 1.45 0.84 0.60 0.41 0.45 0.35 0.44 0.60 0.55 0.60 0.52 0.46 0.36 0.44 0.47 0.44 0.35 0.33 0.37 0.40 0.51 0.55 1.10 1.05 0.42 0.23
0.01 0.01 0.02 0.03 0.06 0.08 0.16 0.28 0.25 0.37 0.40 0.61 0.73 0.88 0.67 0.72 0.98 1.17 1.05 0.90 0.83 1.13 1.14 1.06 1.21 1.04 0.80 0.61 0.28 0.30 0.22 0.24 0.21 0.31 0.33 0.28 0.32 0.33 0.29 0.53 1.12 0.77 0.47
0.03 0.03 0.06 0.05 0.05 0.03 0.06 0.10 0.09 0.15 0.13 0.15 0.18 0.47 0.75 0.81 1.21 1.50 1.15 1.07 0.85 0.77 0.91 0.92 0.99 1.07 1.06 0.65 0.43 0.29 0.10 0.12 0.19 0.31 0.31 0.33 0.23 0.21 0.24 0.24 0.53 0.91 0.70
0.04 0.04 0.03 0.08 0.09 0.04 0.07 0.05 0.08 0.10 0.14 0.14 0.09 0.13 0.42 0.70 0.60 1.16 1.33 1.29 1.06 0.89 0.77 0.78 0.65 0.61 0.53 0.71 0.48 0.27 0.22 0.15 0.22 0.34 0.37 0.33 0.30 0.17 0.09 0.12 0.20 0.44 0.71
0.13 0.09 0.06 0.08 0.09 0.13 0.13 0.13 0.09 0.13 0.13 0.10 0.09 0.12 0.20 0.42 0.86 1.03 1.31 1.12 1.19 1.15 1.07 1.24 1.31 0.98 0.71 0.59 0.65 0.37 0.33 0.31 0.25 0.30 0.31 0.30 0.35 0.28 0.23 0.17 0.11 0.14 0.29

GFSSE_prec_precacc_117.txt.gz
Total_Precipitation_Accumulation
0.88 0.36 0.15 0.16 0.17 0.06 0.01 0.01 0.00 0.00 0.00 0.00 0.00 0.00 0.00 0.00 0.00 0.00 0.00 0.00 0.05 0.14 0.10 0.04 0.03 0.03 0.05 0.09 0.14 0.10 0.08 0.10 0.10 0.30 0.47 0.51 0.32 0.14 0.10 0.17 0.25 0.16 0.37
1.66 1.34 0.76 0.27 0.23 0.04 0.02 0.00 0.00 0.00 0.00 0.00 0.00 0.00 0.00 0.00 0.00 0.00 0.00 0.00 0.04 0.09 0.05 0.02 0.02 0.03 0.10 0.08 0.07 0.02 0.00 0.02 0.05 0.23 0.41 0.35 0.38 0.15 0.14 0.27 0.46 0.21 0.29
1.24 2.36 1.78 0.99 0.50 0.18 0.07 0.03 0.04 0.02 0.00 0.00 0.00 0.01 0.01 0.01 0.01 0.01 0.00 0.01 0.01 0.07 0.08 0.03 0.06 0.07 0.09 0.04 0.04 0.02 0.01 0.03 0.04 0.11 0.30 0.24 0.19 0.19 0.16 0.25 0.21 0.30 0.21
0.39 0.79 1.84 1.47 0.91 0.56 0.23 0.17 0.16 0.20 0.07 0.02 0.03 0.03 0.05 0.05 0.09 0.15 0.07 0.03 0.04 0.09 0.15 0.09 0.13 0.16 0.12 0.04 0.03 0.01 0.01 0.01 0.07 0.09 0.12 0.37 0.26 0.39 0.23 0.29 0.33 0.24 0.19
0.96 0.81 0.69 0.84 1.04 1.06 0.53 0.35 0.30 0.22 0.12 0.06 0.06 0.03 0.02 0.07 0.14 0.22 0.20 0.12 0.10 0.15 0.30 0.28 0.32 0.26 0.12 0.04 0.01 0.01 0.01 0.04 0.11 0.28 0.43 0.95 0.78 0.68 0.58 0.49 0.43 0.45 0.48
2.24 1.89 1.46 1.03 1.06 1.52 1.41 0.76 0.38 0.20 0.22 0.15 0.11 0.06 0.05 0.08 0.17 0.32 0.23 0.23 0.17 0.23 0.55 0.61 0.48 0.29 0.09 0.05 0.00 0.01 0.01 0.02 0.07 0.27 0.48 0.74 1.14 0.84 0.56 0.37 0.30 0.20 0.30
3.77 3.05 2.81 3.34 2.80 2.07 2.59 1.72 0.99 0.73 0.59 0.42 0.14 0.10 0.06 0.15 0.19 0.40 0.33 0.50 0.77 1.19 1.12 1.09 0.83 0.29 0.08 0.01 0.00 0.01 0.02 0.01 0.10 0.24 0.54 0.95 1.29 1.09 0.50 0.33 0.19 0.19 0.30
5.54 4.48 4.79 4.60 4.26 4.62 2.70 3.28 3.28 2.80 1.99 1.00 0.74 0.73 0.89 1.53 1.39 1.25 0.96 1.28 1.53 1.52 1.38 1.19 0.83 0.28 0.18 0.12 0.06 0.07 0.05 0.04 0.13 0.32 0.54 0.76 0.92 0.81 0.40 0.30 0.27 0.21 0.14
6.57 8.14 8.36 7.58 5.71 5.02 3.66 2.81 3.96 5.42 6.09 5.61 3.91 3.42 3.40 2.78 2.39 2.14 1.83 1.61 2.07 2.37 1.56 1.31 0.76 0.43 0.33 0.34 0.28 0.36 0.17 0.07 0.13 0.35 0.53 0.80 1.23 0.57 0.45 0.23 0.26 0.24 0.21
4.79 6.71 7.64 8.95 8.46 3.91 2.83 2.27 2.98 4.40 5.94 6.80 5.91 4.75 3.29 2.19 2.33 3.01 2.93 2.37 2.05 2.09 1.89 1.74 1.52 1.29 0.84 0.68 0.51 0.40 0.31 0.37 0.36 0.36 0.44 0.34 0.50 0.63 0.49 0.27 0.24 0.25 0.33
2.64 3.34 4.90 7.55 6.17 3.45 1.95 1.51 1.83 3.59 3.55 3.13 3.16 4.03 3.09 2.18 1.71 1.33 1.82 1.78 1.55 1.46 1.65 1.83 1.63 1.59 1.46 0.94 0.98 0.71 0.64 0.50 0.49 0.42 0.45 0.62 0.66 0.90 0.82 0.65 0.42 0.49 0.40
1.41 1.72 1.92 3.62 4.21 2.94 1.75 1.42 1.13 1.80 2.75 3.15 1.80 1.93 1.89 1.88 1.63 1.05 1.04 1.02 1.28 1.02 1.05 1.75 1.50 1.19 1.17 0.76 0.86 0.68 0.47 0.43 0.52 0.40 0.46 0.94 0.78 0.89 1.24 1.11 0.74 0.45 0.63
0.95 0.83 0.98 1.53 1.82 2.29 1.83 1.50 1.37 1.27 1.34 2.96 1.97 0.98 1.08 1.26 1.07 0.89 0.54 0.66 0.89 0.92 0.51 0.60 1.06 0.70 0.54 0.45 0.65 0.54 0.36 0.33 0.41 0.32 0.53 1.01 0.96 0.86 1.17 1.12 0.86 0.84 0.88
0.41 0.39 0.65 0.71 0.75 1.00 1.35 1.27 0.95 1.06 1.12 1.40 1.78 0.86 0.65 0.90 0.47 0.49 0.27 0.29 0.41 0.47 0.39 0.31 0.36 0.51 0.41 0.45 0.51 0.61 0.44 0.32 0.25 0.34 0.48 0.67 1.15 0.82 0.91 0.83 0.66 0.95 0.96
0.22 0.34 0.37 0.45 0.43 0.63 0.89 1.14 1.07 0.75 0.85 0.88 1.24 0.90 0.47 0.44 0.29 0.30 0.16 0.16 0.16 0.23 0.45 0.45 0.37 0.36 0.48 0.46 0.48 0.54 0.49 0.34 0.36 0.38 0.40 0.53 0.87 1.18 0.84 1.08 0.75 0.73 0.76
0.30 0.32 0.29 0.35 0.32 0.44 0.77 0.96 1.16 1.16 1.03 0.95 0.95 0.80 0.48 0.37 0.30 0.21 0.14 0.16 0.11 0.19 0.40 0.52 0.50 0.46 0.56 0.53 0.69 0.62 0.59 0.46 0.41 0.45 0.28 0.29 0.36 0.90 1.29 0.92 1.21 0.67 0.54
0.41 0.24 0.29 0.33 0.50 0.49 0.48 0.58 0.95 1.09 1.02 0.90 0.82 0.96 0.87 0.61 0.35 0.22 0.13 0.13 0.17 0.18 0.37 0.48 0.61 0.77 0.69 0.53 0.66 0.64 0.58 0.53 0.50 0.50 0.41 0.21 0.19 0.35 1.63 1.47 1.52 0.78 0.82
0.30 0.52 0.20 0.23 0.68 0.61 0.49 0.46 0.62 0.92 0.97 0.85 0.75 0.90 0.88 0.68 0.62 0.70 0.50 0.32 0.30 0.51 0.66 0.56 0.50 0.72 0.60 0.41 0.37 0.51 0.50 0.56 0.56 0.63 0.62 0.42 0.34 0.26 0.86 1.81 1.96 2.03 1.15
0.05 0.48 0.53 0.34 0.43 0.65 0.72 0.54 0.52 0.71 0.81 0.69 0.52 0.84 1.13 0.99 0.74 0.70 0.70 0.73 0.71 0.82 0.82 0.72 0.60 0.63 0.66 0.42 0.24 0.32 0.37 0.50 0.58 0.62 0.69 0.58 0.59 0.53 0.41 0.97 1.15 1.50 1.70
0.03 0.05 0.35 0.47 0.46 0.57 0.62 0.58 0.63 0.62 0.78 0.55 0.41 0.77 0.83 1.37 1.12 0.58 0.48 0.54 0.87 1.00 1.05 1.05 0.81 0.70 0.77 0.59 0.39 0.35 0.30 0.33 0.47 0.55 0.64 0.66 0.61 0.86 0.57 0.72 0.42 0.52 0.67
0.06 0.04 0.10 0.27 0.28 0.44 0.41 0.29 0.36 0.35 0.57 0.42 0.45 0.54 0.94 1.17 1.89 1.03 0.56 0.32 0.42 0.48 0.53 0.79 1.18 1.05 1.11 1.04 0.88 0.78 0.59 0.39 0.41 0.50 0.57 0.52 0.70 0.66 0.80 0.92 0.45 0.27 0.23
0.05 0.04 0.02 0.04 0.13 0.21 0.26 0.29 0.18 0.23 0.33 0.51 0.56 0.65 0.72 0.83 1.21 1.45 0.85 0.61 0.43 0.52 0.58 0.70 1.08 1.14 1.06 1.02 1.14 0.90 0.79 0.67 0.64 0.59 0.56 0.51 0.46 0.53 0.56 1.10 1.05 0.42 0.23
0.01 0.01 0.02 0.03 0.06 0.08 0.16 0.28 0.25 0.37 0.40 0.61 0.73 0.88 0.67 0.72 0.98 1.17 1.05 0.91 0.85 1.18 1.21 1.24 1.46 1.48 1.28 1.22 0.98 1.12 0.97 0.89 0.85 0.85 0.84 0.61 0.42 0.36 0.31 0.54 1.12 0.77 0.47
0.03 0.03 0.06 0.05 0.05 0.03 0.06 0.10 0.09 0.15 0.13 0.15 0.18 0.47 0.75 0.81 1.21 1.50 1.15 1.08 0.87 0.81 0.96 0.98 1.12 1.30 1.46 1.50 1.53 1.56 1.23 1.06 0.86 0.76 0.75 0.75 0.37 0.24 0.24 0.25 0.53 0.91 0.70
0.05 0.04 0.03 0.08 0.09 0.04 0.07 0.05 0.08 0.10 0.14 0.14 0.09 0.13 0.42 0.70 0.60 1.16 1.33 1.29 1.06 0.91 0.80 0.82 0.71 0.68 0.59 0.75 0.52 0.44 0.53 0.43 0.42 0.50 0.46 0.37 0.32 0.17 0.09 0.12 0.20 0.44 0.71
0.14 0.09 0.06 0.08 0.09 0.13 0.13 0.13 0.09 0.13 0.13 0.10 0.09 0.12 0.20 0.42 0.86 1.03 1.31 1.12 1.19 1.15 1.10 1.30 1.37 1.05 0.77 0.63 0.68 0.41 0.37 0.34 0.27 0.31 0.32 0.30 0.35 0.28 0.23 0.17 0.11 0.14 0.29

GFSSE_prec_precacc_120.txt.gz
Total_Precipitation_Accumulation
0.88 0.36 0.15 0.16 0.17 0.06 0.01 0.01 0.00 0.00 0.00 0.00 0.00 0.00 0.00 0.00 0.00 0.00 0.00 0.00 0.05 0.14 0.10 0.04 0.03 0.03 0.05 0.09 0.14 0.10 0.08 0.10 0.10 0.30 0.47 0.51 0.32 0.14 0.11 0.19 0.25 0.16 0.38
1.66 1.34 0.76 0.27 0.23 0.04 0.02 0.00 0.00 0.00 0.00 0.00 0.00 0.00 0.00 0.00 0.00 0.00 0.00 0.00 0.04 0.09 0.05 0.02 0.02 0.03 0.10 0.08 0.07 0.02 0.00 0.02 0.05 0.23 0.41 0.35 0.38 0.16 0.15 0.27 0.46 0.21 0.29
1.24 2.36 1.78 0.99 0.50 0.18 0.07 0.03 0.04 0.02 0.00 0.00 0.00 0.01 0.01 0.01 0.01 0.01 0.00 0.01 0.01 0.07 0.08 0.03 0.06 0.07 0.09 0.04 0.04 0.02 0.01 0.03 0.04 0.11 0.30 0.24 0.19 0.20 0.16 0.25 0.21 0.30 0.21
0.39 0.79 1.84 1.47 0.91 0.56 0.23 0.17 0.16 0.20 0.07 0.02 0.03 0.03 0.05 0.05 0.09 0.15 0.07 0.03 0.04 0.09 0.15 0.09 0.13 0.16 0.12 0.04 0.03 0.01 0.01 0.01 0.07 0.09 0.12 0.37 0.26 0.45 0.24 0.29 0.35 0.24 0.20
0.96 0.81 0.69 0.84 1.04 1.06 0.53 0.35 0.30 0.22 0.12 0.06 0.06 0.03 0.02 0.07 0.14 0.22 0.20 0.12 0.10 0.15 0.30 0.28 0.32 0.26 0.12 0.04 0.01 0.01 0.01 0.04 0.11 0.28 0.43 0.95 0.80 0.80 0.69 0.55 0.45 0.47 0.50
2.24 1.89 1.46 1.03 1.06 1.52 1.41 0.76 0.38 0.20 0.22 0.15 0.11 0.06 0.05 0.08 0.17 0.32 0.23 0.23 0.17 0.23 0.55 0.61 0.48 0.29 0.09 0.05 0.00 0.01 0.01 0.02 0.07 0.27 0.48 0.74 1.15 0.86 0.58 0.42 0.35 0.25 0.31
3.77 3.05 2.81 3.34 2.80 2.07 2.59 1.72 0.99 0.73 0.59 0.42 0.14 0.10 0.06 0.15 0.19 0.40 0.33 0.50 0.77 1.19 1.12 1.09 0.83 0.29 0.08 0.01 0.00 0.01 0.02 0.01 0.10 0.24 0.54 0.95 1.29 1.13 0.61 0.38 0.27 0.25 0.36
5.54 4.48 4.79 4.60 4.26 4.62 2.70 3.28 3.28 2.80 1.99 1.00 0.74 0.73 0.89 1.53 1.39 1.25 0.96 1.28 1.53 1.52 1.38 1.19 0.83 0.28 0.18 0.12 0.06 0.07 0.05 0.04 0.13 0.32 0.54 0.76 0.92 0.83 0.47 0.47 0.37 0.26 0.15
6.57 8.14 8.36 7.58 5.71 5.02 3.66 2.81 3.96 5.42 6.09 5.61 3.91 3.42 3.40 2.78 2.39 2.14 1.83 1.61 2.07 2.37 1.56 1.31 0.76 0.43 0.33 0.34 0.28 0.36 0.17 0.07 0.13 0.35 0.53 0.80 1.23 0.57 0.49 0.29 0.31 0.31 0.23
4.79 6.71 7.64 8.95 8.46 3.91 2.83 2.27 2.98 4.40 5.94 6.80 5.91 4.75 3.29 2.19 2.33 3.01 2.93 2.37 2.05 2.09 1.89 1.74 1.52 1.29 0.84 0.68 0.51 0.40 0.31 0.37 0.36 0.36 0.44 0.34 0.50 0.63 0.50 0.30 0.27 0.31 0.40
2.64 3.34 4.90 7.55 6.17 3.45 1.95 1.51 1.83 3.59 3.55 3.13 3.16 4.03 3.09 2.18 1.71 1.33 1.82 1.78 1.55 1.46 1.65 1.83 1.63 1.59 1.46 0.94 0.98 0.71 0.64 0.50 0.49 0.42 0.45 0.62 0.66 0.90 0.82 0.65 0.43 0.52 0.49
1.41 1.72 1.92 3.62 4.21 2.94 1.75 1.42 1.13 1.80 2.75 3.15 1.80 1.93 1.89 1.88 1.63 1.05 1.04 1.02 1.28 1.02 1.05 1.75 1.50 1.19 1.17 0.76 0.86 0.68 0.47 0.43 0.52 0.40 0.46 0.94 0.78 0.89 1.24 1.11 0.77 0.54 0.72
0.95 0.83 0.98 1.53 1.82 2.29 1.83 1.50 1.37 1.27 1.34 2.96 1.97 0.98 1.08 1.26 1.08 0.89 0.54 0.66 0.89 0.92 0.51 0.60 1.06 0.70 0.54 0.45 0.65 0.54 0.36 0.33 0.41 0.32 0.53 1.01 0.96 0.86 1.17 1.13 0.86 0.85 0.90
0.41 0.39 0.65 0.71 0.75 1.00 1.35 1.27 0.95 1.06 1.12 1.40 1.78 0.87 0.66 0.91 0.49 0.50 0.27 0.29 0.41 0.47 0.39 0.31 0.36 0.51 0.41 0.45 0.51 0.61 0.44 0.32 0.25 0.34 0.48 0.67 1.15 0.82 0.91 0.86 0.67 0.97 0.99
0.22 0.34 0.37 0.45 0.43 0.63 0.89 1.14 1.07 0.75 0.85 0.88 1.24 0.90 0.48 0.46 0.34 0.34 0.18 0.18 0.18 0.23 0.45 0.45 0.37 0.36 0.48 0.46 0.48 0.54 0.49 0.34 0.36 0.38 0.40 0.53 0.87 1.18 0.84 1.10 0.78 0.75 0.78
0.30 0.32 0.29 0.35 0.33 0.45 0.77 0.96 1.16 1.16 1.04 0.96 0.95 0.80 0.48 0.40 0.32 0.24 0.16 0.17 0.13 0.21 0.47 0.52 0.50 0.46 0.56 0.53 0.69 0.62 0.59 0.46 0.41 0.45 0.28 0.29 0.36 0.90 1.29 0.92 1.22 0.68 0.54
0.41 0.24 0.29 0.34 0.51 0.50 0.49 0.59 0.95 1.09 1.03 0.92 0.87 1.01 0.90 0.65 0.38 0.24 0.14 0.14 0.17 0.23 0.54 0.55 0.66 0.79 0.70 0.53 0.66 0.64 0.58 0.53 0.50 0.50 0.41 0.21 0.19 0.35 1.63 1.47 1.52 0.78 0.83
0.30 0.52 0.20 0.23 0.68 0.61 0.49 0.46 0.63 0.93 0.98 0.86 0.76 0.94 0.94 0.78 0.70 0.75 0.53 0.33 0.31 0.66 0.89 0.66 0.59 0.84 0.67 0.45 0.38 0.52 0.51 0.57 0.56 0.63 0.62 0.42 0.34 0.26 0.86 1.81 1.96 2.03 1.15
0.05 0.48 0.53 0.34 0.43 0.65 0.72 0.54 0.52 0.71 0.82 0.69 0.52 0.84 1.13 1.01 0.79 0.78 0.80 0.83 0.86 1.09 1.11 1.05 0.84 0.81 0.76 0.50 0.35 0.40 0.41 0.56 0.63 0.65 0.69 0.58 0.59 0.53 0.41 0.97 1.15 1.50 1.70
0.03 0.05 0.35 0.47 0.46 0.57 0.62 0.58 0.63 0.62 0.78 0.55 0.41 0.77 0.83 1.37 1.12 0.59 0.49 0.58 0.98 1.16 1.31 1.46 1.22 0.97 0.95 0.76 0.59 0.52 0.40 0.45 0.60 0.68 0.72 0.76 0.69 0.92 0.60 0.73 0.42 0.52 0.67
0.06 0.04 0.10 0.27 0.28 0.44 0.41 0.29 0.36 0.35 0.57 0.42 0.45 0.54 0.94 1.17 1.89 1.03 0.56 0.32 0.43 0.50 0.61 1.02 1.46 1.35 1.31 1.32 1.34 1.08 0.72 0.49 0.54 0.64 0.74 0.73 0.90 0.82 0.91 0.97 0.47 0.27 0.23
0.05 0.04 0.02 0.04 0.13 0.21 0.26 0.29 0.18 0.23 0.33 0.51 0.56 0.65 0.72 0.83 1.21 1.45 0.85 0.61 0.43 0.52 0.58 0.72 1.10 1.20 1.22 1.29 1.43 1.18 0.94 0.83 0.76 0.67 0.70 0.73 0.66 0.70 0.67 1.18 1.08 0.42 0.23
0.01 0.01 0.02 0.03 0.06 0.08 0.16 0.28 0.25 0.37 0.40 0.61 0.73 0.88 0.67 0.72 0.98 1.17 1.05 0.91 0.85 1.18 1.21 1.24 1.46 1.49 1.30 1.27 1.14 1.31 1.07 0.94 0.89 0.90 0.87 0.70 0.67 0.59 0.42 0.62 1.15 0.78 0.47
0.04 0.04 0.06 0.06 0.06 0.03 0.06 0.10 0.09 0.15 0.13 0.15 0.18 0.47 0.75 0.81 1.21 1.50 1.15 1.08 0.87 0.81 0.96 0.98 1.12 1.30 1.47 1.52 1.54 1.60 1.28 1.08 0.87 0.76 0.75 0.79 0.58 0.40 0.30 0.26 0.54 0.91 0.70
0.05 0.05 0.05 0.11 0.12 0.05 0.07 0.05 0.08 0.10 0.14 0.14 0.09 0.13 0.42 0.70 0.60 1.16 1.33 1.29 1.06 0.91 0.80 0.83 0.71 0.68 0.59 0.76 0.53 0.44 0.53 0.44 0.43 0.50 0.46 0.37 0.33 0.18 0.09 0.12 0.20 0.44 0.71
0.14 0.09 0.06 0.09 0.10 0.14 0.13 0.13 0.09 0.13 0.13 0.10 0.09 0.12 0.20 0.42 0.86 1.03 1.31 1.12 1.19 1.15 1.11 1.30 1.37 1.05 0.77 0.64 0.69 0.41 0.37 0.34 0.27 0.31 0.32 0.31 0.35 0.28 0.23 0.17 0.11 0.14 0.29

GFSSE_prec_precacc_123.txt.gz
Total_Precipitation_Accumulation
0.88 0.36 0.15 0.16 0.17 0.06 0.01 0.01 0.00 0.00 0.00 0.00 0.00 0.00 0.00 0.00 0.00 0.00 0.00 0.00 0.05 0.14 0.10 0.04 0.03 0.03 0.05 0.09 0.14 0.10 0.08 0.10 0.10 0.30 0.47 0.51 0.32 0.15 0.11 0.20 0.25 0.16 0.38
1.66 1.34 0.76 0.27 0.23 0.04 0.02 0.00 0.00 0.00 0.00 0.00 0.00 0.00 0.00 0.00 0.00 0.00 0.00 0.00 0.04 0.09 0.05 0.02 0.02 0.03 0.10 0.08 0.07 0.02 0.00 0.02 0.05 0.23 0.41 0.35 0.39 0.16 0.15 0.27 0.46 0.21 0.30
1.24 2.36 1.78 0.99 0.50 0.18 0.07 0.03 0.04 0.02 0.00 0.00 0.00 0.01 0.01 0.01 0.01 0.01 0.00 0.01 0.01 0.07 0.08 0.03 0.06 0.07 0.09 0.04 0.04 0.02 0.01 0.03 0.04 0.11 0.30 0.24 0.19 0.20 0.16 0.25 0.21 0.30 0.21
0.39 0.79 1.84 1.47 0.91 0.56 0.23 0.17 0.16 0.20 0.07 0.02 0.03 0.03 0.05 0.05 0.09 0.15 0.07 0.03 0.04 0.09 0.15 0.09 0.13 0.16 0.12 0.04 0.03 0.01 0.01 0.01 0.07 0.09 0.12 0.37 0.26 0.45 0.24 0.29 0.35 0.24 0.20
0.96 0.81 0.69 0.84 1.04 1.06 0.53 0.35 0.30 0.22 0.12 0.06 0.06 0.03 0.02 0.07 0.14 0.22 0.20 0.12 0.10 0.15 0.30 0.28 0.32 0.26 0.12 0.04 0.01 0.01 0.01 0.04 0.11 0.28 0.43 0.95 0.80 0.81 0.69 0.56 0.45 0.48 0.50
2.24 1.89 1.46 1.03 1.06 1.52 1.41 0.76 0.38 0.20 0.22 0.15 0.11 0.06 0.05 0.08 0.17 0.32 0.23 0.23 0.17 0.23 0.55 0.61 0.48 0.29 0.09 0.05 0.00 0.01 0.01 0.02 0.07 0.27 0.48 0.74 1.15 0.89 0.66 0.48 0.39 0.26 0.32
3.77 3.05 2.81 3.34 2.80 2.07 2.59 1.72 0.99 0.73 0.59 0.42 0.14 0.10 0.06 0.15 0.19 0.40 0.33 0.50 0.77 1.19 1.12 1.09 0.83 0.29 0.08 0.01 0.00 0.01 0.02 0.01 0.10 0.24 0.54 0.95 1.29 1.14 0.67 0.43 0.32 0.29 0.39
5.54 4.48 4.79 4.60 4.26 4.62 2.70 3.28 3.28 2.80 1.99 1.00 0.74 0.73 0.89 1.53 1.39 1.25 0.96 1.28 1.53 1.52 1.38 1.19 0.83 0.28 0.18 0.12 0.06 0.07 0.05 0.04 0.13 0.32 0.54 0.76 0.92 0.84 0.49 0.48 0.39 0.30 0.20
6.57 8.14 8.36 7.58 5.71 5.02 3.66 2.81 3.96 5.42 6.09 5.61 3.91 3.42 3.40 2.78 2.39 2.14 1.83 1.61 2.07 2.37 1.56 1.31 0.76 0.43 0.33 0.34 0.28 0.36 0.17 0.07 0.13 0.35 0.53 0.80 1.23 0.57 0.49 0.30 0.31 0.32 0.31
4.79 6.71 7.64 8.95 8.46 3.91 2.83 2.27 2.98 4.40 5.94 6.80 5.91 4.75 3.29 2.19 2.33 3.01 2.93 2.37 2.05 2.09 1.89 1.74 1.52 1.29 0.84 0.68 0.51 0.40 0.31 0.37 0.36 0.36 0.44 0.34 0.50 0.63 0.50 0.31 0.27 0.31 0.43
2.64 3.34 4.90 7.55 6.17 3.45 1.95 1.51 1.83 3.59 3.55 3.13 3.16 4.03 3.09 2.18 1.71 1.33 1.82 1.78 1.55 1.46 1.65 1.83 1.63 1.59 1.46 0.94 0.98 0.71 0.64 0.50 0.49 0.42 0.45 0.62 0.66 0.90 0.82 0.65 0.43 0.52 0.50
1.41 1.72 1.92 3.62 4.21 2.94 1.75 1.42 1.13 1.80 2.75 3.15 1.80 1.93 1.89 1.88 1.63 1.05 1.04 1.02 1.28 1.02 1.05 1.75 1.50 1.19 1.17 0.76 0.86 0.68 0.47 0.43 0.52 0.40 0.46 0.94 0.78 0.89 1.24 1.11 0.77 0.54 0.73
0.95 0.83 0.98 1.53 1.82 2.29 1.83 1.50 1.37 1.27 1.34 2.96 1.97 0.98 1.08 1.26 1.08 0.89 0.54 0.66 0.89 0.92 0.51 0.60 1.06 0.70 0.55 0.45 0.65 0.54 0.36 0.33 0.41 0.32 0.53 1.01 0.96 0.86 1.17 1.13 0.86 0.85 0.92
0.41 0.39 0.65 0.71 0.75 1.00 1.35 1.28 0.96 1.06 1.12 1.40 1.78 0.87 0.67 0.92 0.51 0.54 0.30 0.29 0.41 0.47 0.39 0.31 0.36 0.51 0.42 0.45 0.51 0.61 0.44 0.32 0.25 0.34 0.48 0.67 1.15 0.82 0.91 0.87 0.70 0.97 1.00
0.22 0.34 0.37 0.45 0.43 0.64 0.92 1.16 1.09 0.75 0.85 0.88 1.25 0.90 0.49 0.48 0.37 0.38 0.21 0.20 0.21 0.24 0.45 0.45 0.37 0.36 0.48 0.46 0.48 0.54 0.49 0.34 0.36 0.38 0.40 0.53 0.87 1.18 0.84 1.13 0.85 0.79 0.80
0.30 0.32 0.29 0.35 0.34 0.49 0.81 0.99 1.21 1.18 1.04 0.96 0.96 0.81 0.49 0.42 0.37 0.28 0.18 0.20 0.17 0.24 0.52 0.55 0.50 0.46 0.56 0.53 0.69 0.62 0.60 0.46 0.41 0.45 0.28 0.29 0.36 0.90 1.29 0.94 1.31 0.77 0.62
0.41 0.24 0.29 0.34 0.52 0.52 0.51 0.61 0.98 1.12 1.04 0.94 0.89 1.03 0.93 0.72 0.45 0.32 0.23 0.17 0.19 0.26 0.61 0.57 0.68 0.82 0.70 0.53 0.66 0.64 0.60 0.55 0.50 0.50 0.41 0.21 0.19 0.35 1.63 1.47 1.56 0.87 0.93
0.30 0.52 0.20 0.23 0.68 0.62 0.50 0.47 0.65 0.95 1.00 0.88 0.78 0.96 0.96 0.82 0.76 0.83 0.62 0.45 0.36 0.70 0.93 0.67 0.61 0.88 0.71 0.46 0.38 0.53 0.53 0.63 0.59 0.65 0.62 0.42 0.34 0.26 0.86 1.81 1.96 2.04 1.18
0.05 0.48 0.53 0.34 0.43 0.65 0.72 0.54 0.53 0.72 0.82 0.70 0.52 0.84 1.13 1.01 0.80 0.79 0.83 0.89 0.95 1.16 1.18 1.15 1.02 0.87 0.84 0.51 0.35 0.41 0.44 0.61 0.67 0.72 0.75 0.61 0.61 0.54 0.41 0.97 1.15 1.50 1.70
0.03 0.05 0.35 0.47 0.46 0.57 0.62 0.58 0.63 0.62 0.78 0.55 0.41 0.77 0.83 1.37 1.12 0.59 0.49 0.58 0.99 1.21 1.41 1.61 1.53 1.20 1.18 0.95 0.79 0.69 0.50 0.52 0.62 0.70 0.75 0.81 0.73 0.93 0.62 0.74 0.43 0.52 0.67
0.06 0.04 0.10 0.27 0.28 0.44 0.41 0.29 0.36 0.35 0.57 0.42 0.45 0.54 0.94 1.17 1.89 1.03 0.56 0.32 0.43 0.50 0.61 1.05 1.49 1.43 1.48 1.76 2.24 2.13 1.37 0.78 0.63 0.65 0.75 0.74 0.93 0.89 0.98 0.99 0.48 0.28 0.23
0.05 0.04 0.02 0.04 0.13 0.21 0.26 0.29 0.18 0.23 0.33 0.51 0.56 0.65 0.72 0.83 1.21 1.45 0.85 0.61 0.43 0.52 0.58 0.72 1.10 1.21 1.23 1.34 1.55 1.50 1.36 0.99 0.78 0.67 0.70 0.74 0.68 0.74 0.70 1.20 1.09 0.42 0.23
0.01 0.01 0.02 0.03 0.06 0.08 0.16 0.28 0.25 0.37 0.40 0.61 0.73 0.88 0.67 0.72 0.98 1.17 1.05 0.91 0.85 1.18 1.21 1.24 1.46 1.49 1.30 1.28 1.16 1.35 1.11 0.96 0.89 0.91 0.88 0.71 0.68 0.59 0.42 0.62 1.15 0.78 0.47
0.04 0.04 0.06 0.06 0.06 0.04 0.06 0.10 0.09 0.15 0.13 0.15 0.18 0.47 0.75 0.81 1.21 1.50 1.15 1.08 0.87 0.81 0.96 0.98 1.12 1.30 1.47 1.52 1.55 1.62 1.30 1.09 0.87 0.77 0.76 0.80 0.58 0.40 0.30 0.26 0.54 0.91 0.70
0.05 0.05 0.05 0.11 0.13 0.08 0.10 0.08 0.10 0.11 0.14 0.14 0.09 0.13 0.42 0.70 0.60 1.16 1.33 1.29 1.06 0.91 0.80 0.83 0.71 0.68 0.59 0.76 0.53 0.45 0.55 0.46 0.44 0.51 0.47 0.37 0.33 0.18 0.09 0.12 0.20 0.44 0.71
0.15 0.09 0.06 0.09 0.11 0.15 0.16 0.18 0.14 0.15 0.14 0.10 0.09 0.12 0.20 0.42 0.86 1.03 1.31 1.12 1.19 1.15 1.11 1.30 1.38 1.05 0.78 0.64 0.70 0.42 0.38 0.35 0.27 0.31 0.33 0.31 0.35 0.28 0.23 0.17 0.11 0.14 0.29

GFSSE_prec_precacc_126.txt.gz
Total_Precipitation_Accumulation
0.88 0.36 0.15 0.16 0.17 0.06 0.01 0.01 0.00 0.00 0.00 0.00 0.00 0.00 0.00 0.00 0.00 0.00 0.00 0.00 0.05 0.14 0.10 0.04 0.03 0.03 0.05 0.09 0.14 0.10 0.08 0.10 0.10 0.30 0.47 0.51 0.32 0.15 0.11 0.20 0.25 0.16 0.38
1.66 1.34 0.76 0.27 0.23 0.04 0.02 0.00 0.00 0.00 0.00 0.00 0.00 0.00 0.00 0.00 0.00 0.00 0.00 0.00 0.04 0.09 0.05 0.02 0.02 0.03 0.10 0.08 0.07 0.02 0.00 0.02 0.05 0.23 0.41 0.35 0.39 0.16 0.15 0.27 0.46 0.21 0.30
1.24 2.36 1.78 0.99 0.50 0.18 0.07 0.03 0.04 0.02 0.00 0.00 0.00 0.01 0.01 0.01 0.01 0.01 0.00 0.01 0.01 0.07 0.08 0.03 0.06 0.07 0.09 0.04 0.04 0.02 0.01 0.03 0.04 0.11 0.31 0.25 0.20 0.20 0.16 0.25 0.21 0.30 0.21
0.39 0.79 1.84 1.47 0.91 0.56 0.23 0.17 0.16 0.20 0.07 0.02 0.03 0.03 0.05 0.05 0.09 0.15 0.07 0.03 0.04 0.09 0.15 0.09 0.13 0.16 0.12 0.04 0.03 0.01 0.01 0.01 0.07 0.09 0.12 0.37 0.27 0.45 0.24 0.29 0.35 0.24 0.20
0.96 0.81 0.69 0.84 1.04 1.06 0.53 0.35 0.30 0.22 0.12 0.06 0.06 0.03 0.02 0.07 0.14 0.22 0.20 0.12 0.10 0.15 0.30 0.28 0.32 0.26 0.12 0.04 0.01 0.01 0.01 0.04 0.11 0.28 0.43 0.95 0.80 0.81 0.69 0.56 0.45 0.48 0.50
2.24 1.89 1.46 1.03 1.06 1.52 1.41 0.76 0.38 0.20 0.22 0.15 0.11 0.06 0.05 0.08 0.17 0.32 0.23 0.23 0.17 0.23 0.55 0.61 0.48 0.29 0.09 0.05 0.00 0.01 0.01 0.02 0.07 0.27 0.48 0.74 1.15 0.90 0.66 0.49 0.40 0.26 0.32
3.77 3.05 2.81 3.34 2.80 2.07 2.59 1.72 0.99 0.73 0.59 0.42 0.14 0.10 0.06 0.15 0.19 0.40 0.33 0.50 0.77 1.19 1.12 1.09 0.83 0.29 0.08 0.01 0.00 0.01 0.02 0.01 0.10 0.24 0.54 0.95 1.29 1.14 0.67 0.43 0.32 0.29 0.39
5.54 4.48 4.79 4.60 4.26 4.62 2.70 3.28 3.28 2.80 1.99 1.00 0.74 0.73 0.89 1.53 1.39 1.25 0.96 1.28 1.53 1.52 1.38 1.19 0.83 0.28 0.18 0.12 0.06 0.07 0.05 0.04 0.13 0.32 0.54 0.76 0.92 0.84 0.49 0.48 0.39 0.30 0.20
6.57 8.14 8.36 7.58 5.71 5.02 3.66 2.81 3.96 5.42 6.09 5.61 3.91 3.42 3.40 2.78 2.39 2.14 1.83 1.61 2.07 2.37 1.56 1.31 0.76 0.43 0.33 0.34 0.28 0.36 0.17 0.07 0.13 0.35 0.53 0.80 1.23 0.57 0.50 0.31 0.32 0.34 0.31
4.79 6.71 7.64 8.95 8.46 3.91 2.83 2.27 2.98 4.40 5.94 6.80 5.91 4.75 3.29 2.19 2.33 3.01 2.93 2.37 2.05 2.09 1.89 1.74 1.52 1.29 0.84 0.68 0.51 0.40 0.31 0.37 0.36 0.36 0.44 0.34 0.50 0.63 0.50 0.31 0.27 0.33 0.45
2.64 3.34 4.90 7.55 6.17 3.45 1.95 1.51 1.83 3.59 3.55 3.13 3.16 4.03 3.09 2.18 1.71 1.33 1.82 1.78 1.55 1.46 1.65 1.83 1.63 1.59 1.46 0.94 0.98 0.71 0.64 0.50 0.49 0.42 0.45 0.62 0.66 0.90 0.82 0.65 0.43 0.52 0.50
1.41 1.72 1.92 3.62 4.21 2.94 1.75 1.42 1.13 1.80 2.75 3.15 1.80 1.93 1.90 1.89 1.64 1.05 1.04 1.02 1.28 1.02 1.05 1.75 1.51 1.20 1.18 0.76 0.86 0.68 0.47 0.43 0.52 0.40 0.46 0.94 0.78 0.89 1.24 1.12 0.78 0.54 0.73
0.95 0.83 0.98 1.53 1.82 2.29 1.83 1.50 1.37 1.27 1.34 2.96 1.97 0.98 1.08 1.27 1.08 0.89 0.55 0.66 0.89 0.92 0.51 0.61 1.09 0.76 0.58 0.45 0.65 0.54 0.36 0.33 0.41 0.32 0.53 1.01 0.96 0.86 1.17 1.13 0.87 0.86 0.92
0.41 0.39 0.65 0.71 0.75 1.00 1.35 1.28 0.96 1.06 1.12 1.40 1.78 0.87 0.68 0.94 0.53 0.56 0.31 0.30 0.42 0.47 0.40 0.34 0.42 0.56 0.47 0.49 0.52 0.61 0.44 0.32 0.25 0.34 0.48 0.67 1.15 0.82 0.91 0.88 0.72 1.02 1.06
0.22 0.34 0.37 0.45 0.44 0.65 0.92 1.16 1.09 0.76 0.86 0.88 1.25 0.91 0.50 0.49 0.40 0.42 0.23 0.21 0.23 0.27 0.46 0.48 0.43 0.46 0.55 0.52 0.52 0.57 0.50 0.34 0.36 0.38 0.40 0.53 0.87 1.18 0.84 1.13 0.91 0.84 0.86
0.30 0.32 0.29 0.35 0.34 0.50 0.82 1.01 1.23 1.21 1.05 0.97 0.97 0.83 0.50 0.43 0.38 0.29 0.21 0.22 0.19 0.29 0.60 0.62 0.53 0.51 0.62 0.58 0.71 0.65 0.62 0.47 0.42 0.45 0.28 0.29 0.36 0.90 1.29 0.94 1.33 0.78 0.66
0.41 0.24 0.29 0.34 0.52 0.52 0.52 0.62 0.99 1.12 1.05 0.95 0.93 1.09 0.96 0.74 0.47 0.35 0.25 0.19 0.22 0.30 0.65 0.61 0.73 0.89 0.76 0.60 0.69 0.65 0.60 0.57 0.54 0.51 0.42 0.21 0.19 0.35 1.63 1.47 1.56 0.87 0.93
0.30 0.52 0.20 0.23 0.68 0.62 0.50 0.47 0.65 0.95 1.00 0.90 0.80 0.98 0.98 0.83 0.78 0.85 0.65 0.48 0.41 0.78 1.01 0.77 0.67 0.93 0.76 0.50 0.43 0.57 0.56 0.64 0.61 0.67 0.64 0.44 0.35 0.26 0.86 1.81 1.96 2.04 1.18
0.05 0.48 0.53 0.34 0.43 0.65 0.72 0.54 0.53 0.72 0.83 0.70 0.53 0.84 1.14 1.01 0.81 0.80 0.83 0.90 0.97 1.20 1.21 1.17 1.10 0.97 0.91 0.54 0.38 0.44 0.45 0.62 0.68 0.75 0.76 0.63 0.62 0.54 0.41 0.97 1.15 1.50 1.70
0.03 0.05 0.35 0.47 0.46 0.57 0.62 0.58 0.63 0.62 0.78 0.55 0.41 0.77 0.83 1.37 1.12 0.59 0.49 0.58 0.99 1.21 1.42 1.63 1.54 1.25 1.26 1.11 1.05 0.95 0.77 0.74 0.79 0.84 0.83 0.84 0.74 0.93 0.62 0.74 0.43 0.52 0.67
0.06 0.04 0.10 0.27 0.28 0.44 0.41 0.29 0.36 0.36 0.57 0.42 0.45 0.54 0.94 1.17 1.89 1.03 0.56 0.32 0.43 0.50 0.61 1.05 1.50 1.43 1.50 1.82 2.44 2.35 1.67 1.20 1.24 1.50 1.47 0.94 0.95 0.89 0.98 0.99 0.48 0.28 0.23
0.05 0.04 0.02 0.04 0.13 0.21 0.26 0.29 0.18 0.23 0.33 0.51 0.56 0.65 0.72 0.83 1.21 1.45 0.85 0.61 0.43 0.52 0.58 0.72 1.10 1.21 1.24 1.36 1.61 1.63 1.64 1.27 0.94 0.71 0.75 0.78 0.71 0.74 0.70 1.20 1.09 0.42 0.23
0.01 0.01 0.02 0.03 0.06 0.08 0.16 0.28 0.25 0.37 0.40 0.61 0.73 0.88 0.67 0.72 0.98 1.17 1.05 0.91 0.85 1.18 1.21 1.24 1.46 1.49 1.31 1.29 1.18 1.38 1.12 0.97 0.90 0.91 0.88 0.71 0.68 0.60 0.42 0.62 1.15 0.78 0.47
0.04 0.04 0.06 0.06 0.06 0.04 0.06 0.10 0.09 0.15 0.13 0.15 0.18 0.47 0.75 0.81 1.21 1.50 1.15 1.08 0.87 0.81 0.96 0.99 1.12 1.30 1.47 1.53 1.55 1.65 1.33 1.11 0.89 0.77 0.76 0.80 0.58 0.40 0.30 0.26 0.54 0.91 0.70
0.05 0.05 0.05 0.11 0.13 0.08 0.10 0.08 0.10 0.11 0.14 0.14 0.09 0.13 0.42 0.70 0.60 1.16 1.33 1.29 1.07 0.91 0.80 0.83 0.71 0.69 0.60 0.76 0.54 0.45 0.58 0.50 0.48 0.55 0.48 0.38 0.33 0.18 0.09 0.12 0.20 0.44 0.71
0.15 0.09 0.06 0.09 0.11 0.15 0.16 0.18 0.14 0.16 0.16 0.12 0.09 0.12 0.20 0.42 0.86 1.03 1.31 1.12 1.20 1.15 1.11 1.30 1.38 1.05 0.78 0.65 0.70 0.42 0.38 0.36 0.29 0.34 0.35 0.31 0.35 0.28 0.23 0.17 0.11 0.14 0.29

GFSSE_prec_precacc_129.txt.gz
Total_Precipitation_Accumulation
0.88 0.36 0.15 0.16 0.17 0.06 0.01 0.01 0.00 0.00 0.00 0.00 0.00 0.00 0.00 0.00 0.00 0.00 0.00 0.00 0.05 0.14 0.10 0.04 0.03 0.03 0.05 0.09 0.14 0.10 0.08 0.10 0.10 0.30 0.47 0.51 0.32 0.15 0.11 0.20 0.25 0.16 0.38
1.66 1.34 0.76 0.27 0.23 0.04 0.02 0.00 0.00 0.00 0.00 0.00 0.00 0.00 0.00 0.00 0.00 0.00 0.00 0.00 0.04 0.09 0.05 0.02 0.02 0.03 0.10 0.08 0.07 0.02 0.00 0.02 0.05 0.23 0.41 0.35 0.39 0.16 0.15 0.27 0.47 0.21 0.30
1.24 2.36 1.78 0.99 0.50 0.18 0.07 0.03 0.04 0.02 0.00 0.00 0.00 0.01 0.01 0.01 0.01 0.01 0.00 0.01 0.01 0.07 0.08 0.03 0.06 0.07 0.09 0.04 0.04 0.02 0.01 0.03 0.04 0.11 0.31 0.26 0.20 0.20 0.16 0.25 0.21 0.30 0.21
0.39 0.79 1.84 1.47 0.91 0.56 0.23 0.17 0.16 0.20 0.07 0.02 0.03 0.03 0.05 0.05 0.09 0.15 0.07 0.03 0.04 0.09 0.15 0.09 0.13 0.16 0.12 0.04 0.03 0.01 0.01 0.01 0.07 0.09 0.12 0.41 0.28 0.45 0.24 0.29 0.35 0.24 0.20
0.96 0.81 0.69 0.84 1.04 1.06 0.53 0.35 0.30 0.22 0.12 0.06 0.06 0.03 0.02 0.07 0.14 0.22 0.20 0.12 0.10 0.15 0.30 0.28 0.32 0.26 0.12 0.04 0.01 0.01 0.01 0.04 0.11 0.28 0.44 0.96 0.82 0.81 0.69 0.56 0.45 0.48 0.50
2.24 1.89 1.46 1.03 1.06 1.52 1.41 0.76 0.38 0.20 0.22 0.15 0.11 0.06 0.05 0.08 0.17 0.32 0.23 0.23 0.17 0.23 0.55 0.61 0.48 0.29 0.09 0.05 0.00 0.01 0.01 0.02 0.07 0.27 0.48 0.74 1.17 0.93 0.66 0.49 0.40 0.26 0.32
3.77 3.05 2.81 3.34 2.80 2.07 2.59 1.72 0.99 0.73 0.59 0.42 0.14 0.10 0.06 0.15 0.19 0.40 0.33 0.50 0.77 1.19 1.12 1.09 0.83 0.29 0.08 0.01 0.00 0.01 0.02 0.01 0.10 0.24 0.54 0.95 1.33 1.16 0.67 0.43 0.32 0.29 0.39
5.54 4.48 4.79 4.60 4.26 4.62 2.70 3.28 3.28 2.80 1.99 1.00 0.74 0.73 0.89 1.53 1.39 1.25 0.96 1.28 1.53 1.52 1.38 1.19 0.83 0.28 0.18 0.12 0.06 0.07 0.05 0.04 0.13 0.32 0.54 0.76 0.92 0.84 0.49 0.49 0.40 0.30 0.20
6.57 8.14 8.36 7.58 5.71 5.02 3.66 2.81 3.96 5.42 6.09 5.61 3.91 3.42 3.40 2.78 2.39 2.14 1.83 1.61 2.07 2.37 1.57 1.31 0.76 0.43 0.33 0.34 0.28 0.36 0.17 0.07 0.13 0.35 0.53 0.80 1.23 0.57 0.50 0.31 0.33 0.35 0.32
4.79 6.71 7.64 8.95 8.46 3.91 2.83 2.27 2.98 4.40 5.94 6.80 5.91 4.75 3.29 2.19 2.33 3.01 2.93 2.37 2.05 2.11 1.94 1.76 1.52 1.29 0.84 0.68 0.51 0.40 0.31 0.37 0.36 0.36 0.44 0.34 0.50 0.63 0.51 0.32 0.27 0.34 0.47
2.64 3.34 4.90 7.55 6.17 3.45 1.95 1.51 1.83 3.59 3.55 3.13 3.16 4.03 3.09 2.18 1.71 1.33 1.82 1.78 1.55 1.51 1.70 1.87 1.67 1.60 1.46 0.94 0.98 0.71 0.64 0.50 0.49 0.42 0.45 0.62 0.66 0.90 0.82 0.66 0.44 0.53 0.52
1.41 1.72 1.92 3.62 4.21 2.94 1.75 1.42 1.13 1.80 2.75 3.15 1.80 1.93 1.90 1.89 1.64 1.05 1.05 1.02 1.28 1.04 1.10 1.80 1.56 1.23 1.18 0.76 0.86 0.68 0.47 0.43 0.52 0.40 0.46 0.94 0.78 0.89 1.24 1.12 0.79 0.54 0.74
0.95 0.83 0.98 1.53 1.82 2.29 1.83 1.50 1.37 1.27 1.34 2.96 1.97 0.98 1.10 1.29 1.13 0.94 0.63 0.71 0.90 0.92 0.51 0.62 1.10 0.77 0.58 0.45 0.65 0.54 0.36 0.33 0.41 0.32 0.53 1.01 0.96 0.86 1.17 1.13 0.87 0.87 0.93
0.41 0.39 0.65 0.71 0.75 1.00 1.35 1.28 0.96 1.06 1.13 1.40 1.79 0.88 0.70 0.98 0.59 0.63 0.37 0.37 0.52 0.56 0.47 0.47 0.51 0.63 0.51 0.51 0.52 0.61 0.44 0.32 0.25 0.34 0.48 0.67 1.15 0.82 0.91 0.88 0.72 1.02 1.07
0.22 0.34 0.37 0.45 0.44 0.65 0.92 1.17 1.13 0.81 0.92 0.94 1.31 0.96 0.57 0.55 0.46 0.52 0.32 0.30 0.28 0.35 0.56 0.60 0.53 0.55 0.65 0.62 0.59 0.58 0.50 0.34 0.36 0.38 0.40 0.53 0.87 1.18 0.84 1.13 0.91 0.84 0.86
0.30 0.32 0.29 0.35 0.34 0.50 0.82 1.01 1.25 1.26 1.12 1.05 1.03 0.86 0.54 0.47 0.42 0.34 0.31 0.33 0.27 0.36 0.67 0.72 0.62 0.62 0.74 0.65 0.75 0.71 0.68 0.51 0.44 0.45 0.28 0.29 0.36 0.90 1.29 0.94 1.33 0.78 0.67
0.41 0.24 0.29 0.34 0.52 0.52 0.52 0.62 1.00 1.14 1.07 0.97 0.94 1.10 0.98 0.76 0.49 0.36 0.31 0.29 0.33 0.46 0.82 0.78 0.89 1.05 0.89 0.64 0.69 0.66 0.66 0.66 0.59 0.52 0.42 0.21 0.19 0.35 1.63 1.47 1.56 0.87 0.93
0.30 0.52 0.20 0.23 0.68 0.62 0.50 0.47 0.65 0.96 1.02 0.90 0.80 0.98 0.98 0.84 0.78 0.85 0.65 0.49 0.43 0.80 1.04 0.84 0.83 1.21 1.02 0.65 0.48 0.59 0.57 0.68 0.66 0.79 0.74 0.48 0.35 0.26 0.87 1.81 1.96 2.04 1.18
0.05 0.48 0.53 0.34 0.43 0.65 0.72 0.54 0.53 0.72 0.83 0.70 0.53 0.84 1.14 1.01 0.81 0.80 0.84 0.90 0.97 1.21 1.22 1.18 1.13 1.06 1.08 0.79 0.62 0.59 0.51 0.64 0.77 0.90 0.86 0.76 0.71 0.59 0.44 0.99 1.15 1.50 1.70
0.03 0.05 0.35 0.47 0.46 0.57 0.62 0.58 0.63 0.62 0.78 0.55 0.41 0.78 0.84 1.38 1.12 0.59 0.49 0.58 0.99 1.21 1.42 1.63 1.55 1.25 1.29 1.20 1.21 1.14 1.03 1.02 1.05 1.21 1.17 1.20 1.03 1.17 0.75 0.81 0.47 0.52 0.67
0.06 0.04 0.10 0.27 0.28 0.44 0.41 0.29 0.36 0.36 0.57 0.42 0.45 0.54 0.95 1.17 1.89 1.03 0.56 0.32 0.43 0.50 0.61 1.05 1.50 1.44 1.51 1.84 2.51 2.42 1.85 1.68 2.02 2.28 2.58 1.74 1.44 1.11 1.15 1.08 0.52 0.32 0.24
0.05 0.04 0.02 0.04 0.13 0.21 0.26 0.29 0.18 0.23 0.33 0.51 0.56 0.65 0.72 0.83 1.21 1.45 0.85 0.61 0.43 0.52 0.58 0.72 1.10 1.21 1.24 1.37 1.64 1.66 1.70 1.35 1.06 0.85 0.86 0.86 0.73 0.75 0.71 1.20 1.10 0.45 0.26
0.01 0.01 0.02 0.03 0.06 0.08 0.16 0.28 0.25 0.37 0.40 0.61 0.73 0.88 0.67 0.72 0.98 1.17 1.05 0.91 0.85 1.18 1.22 1.24 1.46 1.49 1.31 1.29 1.19 1.40 1.17 0.99 0.91 0.93 0.90 0.72 0.68 0.60 0.42 0.62 1.15 0.79 0.49
0.04 0.04 0.06 0.06 0.06 0.04 0.06 0.10 0.09 0.15 0.13 0.15 0.18 0.47 0.75 0.81 1.21 1.50 1.15 1.08 0.87 0.81 0.97 0.99 1.12 1.31 1.48 1.53 1.55 1.66 1.34 1.14 0.93 0.80 0.78 0.81 0.58 0.40 0.30 0.26 0.54 0.91 0.70
0.05 0.05 0.05 0.11 0.13 0.08 0.10 0.08 0.10 0.11 0.14 0.14 0.09 0.13 0.42 0.70 0.60 1.16 1.33 1.29 1.07 0.91 0.80 0.83 0.71 0.69 0.60 0.77 0.54 0.46 0.58 0.51 0.50 0.59 0.51 0.40 0.37 0.20 0.10 0.12 0.20 0.45 0.72
0.15 0.09 0.06 0.09 0.11 0.15 0.16 0.18 0.14 0.16 0.16 0.12 0.09 0.12 0.20 0.42 0.86 1.03 1.31 1.12 1.20 1.15 1.11 1.31 1.38 1.06 0.78 0.65 0.70 0.43 0.39 0.37 0.29 0.35 0.38 0.33 0.38 0.29 0.23 0.18 0.11 0.15 0.30

GFSSE_prec_precacc_132.txt.gz
Total_Precipitation_Accumulation
0.88 0.36 0.15 0.16 0.17 0.06 0.01 0.01 0.00 0.00 0.00 0.00 0.00 0.00 0.00 0.00 0.00 0.00 0.00 0.00 0.05 0.14 0.10 0.04 0.03 0.03 0.05 0.09 0.14 0.10 0.08 0.10 0.10 0.30 0.47 0.51 0.32 0.15 0.11 0.20 0.25 0.16 0.38
1.66 1.34 0.76 0.27 0.23 0.04 0.02 0.00 0.00 0.00 0.00 0.00 0.00 0.00 0.00 0.00 0.00 0.00 0.00 0.00 0.04 0.09 0.05 0.02 0.02 0.03 0.10 0.08 0.07 0.02 0.00 0.02 0.05 0.23 0.41 0.35 0.39 0.16 0.15 0.27 0.47 0.21 0.30
1.24 2.36 1.78 0.99 0.50 0.18 0.07 0.03 0.04 0.02 0.00 0.00 0.00 0.01 0.01 0.01 0.01 0.01 0.00 0.01 0.01 0.07 0.08 0.03 0.06 0.07 0.09 0.04 0.04 0.02 0.01 0.03 0.04 0.11 0.31 0.26 0.20 0.20 0.16 0.25 0.21 0.30 0.21
0.39 0.79 1.84 1.47 0.91 0.56 0.23 0.17 0.16 0.20 0.07 0.02 0.03 0.03 0.05 0.05 0.09 0.15 0.07 0.03 0.04 0.09 0.15 0.09 0.13 0.16 0.12 0.04 0.03 0.01 0.01 0.01 0.07 0.09 0.16 0.59 0.35 0.45 0.24 0.29 0.35 0.24 0.20
0.96 0.81 0.69 0.84 1.04 1.06 0.53 0.35 0.30 0.22 0.12 0.06 0.06 0.03 0.02 0.07 0.14 0.22 0.20 0.12 0.10 0.15 0.30 0.28 0.32 0.26 0.12 0.04 0.01 0.01 0.01 0.04 0.11 0.28 0.49 1.02 0.88 0.81 0.69 0.56 0.45 0.48 0.50
2.24 1.89 1.46 1.03 1.06 1.52 1.41 0.76 0.38 0.20 0.22 0.15 0.11 0.06 0.05 0.08 0.17 0.32 0.23 0.23 0.17 0.23 0.55 0.61 0.48 0.29 0.09 0.05 0.00 0.01 0.01 0.02 0.07 0.27 0.61 0.75 1.18 0.94 0.66 0.49 0.40 0.26 0.32
3.77 3.05 2.81 3.34 2.80 2.07 2.59 1.72 0.99 0.73 0.59 0.42 0.14 0.10 0.06 0.15 0.19 0.40 0.33 0.50 0.77 1.19 1.12 1.09 0.83 0.29 0.08 0.01 0.00 0.01 0.02 0.01 0.10 0.28 0.60 0.98 1.33 1.18 0.68 0.43 0.32 0.29 0.39
5.54 4.48 4.79 4.60 4.26 4.62 2.70 3.28 3.28 2.80 1.99 1.00 0.74 0.73 0.89 1.53 1.39 1.25 0.96 1.28 1.53 1.52 1.38 1.19 0.83 0.28 0.18 0.12 0.06 0.07 0.05 0.04 0.13 0.32 0.55 0.77 0.92 0.85 0.49 0.49 0.40 0.30 0.20
6.57 8.14 8.36 7.58 5.71 5.02 3.66 2.81 3.96 5.42 6.09 5.61 3.91 3.42 3.40 2.78 2.39 2.14 1.83 1.61 2.07 2.37 1.57 1.32 0.76 0.43 0.33 0.34 0.28 0.36 0.17 0.07 0.13 0.35 0.53 0.81 1.23 0.57 0.51 0.33 0.33 0.35 0.32
4.79 6.71 7.64 8.95 8.46 3.91 2.83 2.27 2.98 4.40 5.94 6.80 5.91 4.75 3.29 2.19 2.33 3.01 2.93 2.37 2.05 2.11 1.94 1.78 1.55 1.30 0.84 0.68 0.51 0.40 0.31 0.37 0.36 0.36 0.44 0.35 0.50 0.64 0.52 0.33 0.27 0.34 0.47
2.64 3.34 4.90 7.55 6.17 3.45 1.95 1.51 1.83 3.59 3.55 3.13 3.16 4.03 3.09 2.18 1.71 1.33 1.82 1.78 1.56 1.51 1.71 1.87 1.69 1.62 1.46 0.94 0.98 0.71 0.64 0.50 0.49 0.42 0.45 0.62 0.66 0.90 0.82 0.66 0.45 0.53 0.52
1.41 1.72 1.92 3.62 4.21 2.94 1.75 1.43 1.14 1.80 2.75 3.15 1.80 1.93 1.90 1.89 1.64 1.05 1.06 1.02 1.30 1.04 1.10 1.81 1.56 1.23 1.19 0.76 0.86 0.68 0.47 0.43 0.52 0.40 0.46 0.94 0.78 0.89 1.24 1.12 0.79 0.54 0.74
0.95 0.83 0.98 1.53 1.82 2.29 1.83 1.50 1.38 1.28 1.35 2.97 1.98 0.99 1.12 1.32 1.16 0.97 0.73 0.80 0.94 0.94 0.52 0.62 1.10 0.77 0.58 0.45 0.65 0.54 0.36 0.33 0.41 0.32 0.53 1.01 0.96 0.86 1.17 1.13 0.88 0.87 0.93
0.41 0.39 0.65 0.71 0.75 1.00 1.35 1.28 0.96 1.07 1.14 1.43 1.93 1.10 0.81 1.03 0.63 0.68 0.43 0.47 0.63 0.78 0.60 0.57 0.54 0.63 0.51 0.51 0.52 0.61 0.45 0.32 0.25 0.34 0.48 0.67 1.15 0.82 0.91 0.88 0.72 1.02 1.07
0.22 0.34 0.37 0.45 0.44 0.65 0.92 1.17 1.14 0.84 0.98 1.04 1.49 1.15 0.66 0.63 0.55 0.60 0.39 0.39 0.49 0.58 0.76 0.78 0.66 0.59 0.66 0.63 0.59 0.59 0.51 0.37 0.40 0.38 0.40 0.53 0.87 1.18 0.84 1.13 0.91 0.84 0.86
0.30 0.32 0.29 0.35 0.34 0.50 0.82 1.01 1.25 1.27 1.14 1.08 1.06 0.91 0.57 0.51 0.47 0.40 0.36 0.38 0.33 0.49 0.94 1.00 0.94 0.92 0.89 0.74 0.78 0.71 0.69 0.53 0.46 0.46 0.29 0.32 0.39 0.90 1.29 0.94 1.33 0.78 0.67
0.41 0.24 0.29 0.34 0.52 0.52 0.52 0.62 1.00 1.14 1.07 0.97 0.94 1.12 1.00 0.78 0.50 0.37 0.31 0.30 0.35 0.49 0.91 1.00 1.32 1.51 1.31 1.01 0.97 0.88 0.78 0.72 0.62 0.62 0.46 0.23 0.23 0.38 1.65 1.47 1.56 0.87 0.94
0.30 0.52 0.20 0.23 0.68 0.62 0.50 0.47 0.65 0.96 1.02 0.91 0.81 0.99 0.98 0.84 0.78 0.86 0.66 0.50 0.43 0.80 1.05 0.85 0.89 1.38 1.26 0.95 0.86 1.14 1.06 1.16 1.06 0.96 0.84 0.50 0.41 0.32 0.96 1.87 1.97 2.04 1.19
0.05 0.48 0.53 0.34 0.43 0.65 0.72 0.54 0.53 0.72 0.83 0.70 0.53 0.85 1.14 1.02 0.81 0.80 0.84 0.90 0.98 1.21 1.22 1.18 1.13 1.07 1.09 0.83 0.75 1.01 1.31 1.68 1.84 1.49 1.14 0.95 0.90 0.84 0.67 1.17 1.26 1.56 1.71
0.03 0.05 0.35 0.47 0.46 0.57 0.62 0.58 0.63 0.62 0.78 0.55 0.41 0.78 0.84 1.38 1.12 0.59 0.49 0.58 0.99 1.21 1.42 1.63 1.55 1.26 1.29 1.20 1.22 1.17 1.12 1.29 1.47 1.68 1.49 1.65 1.55 1.57 1.08 1.03 0.61 0.63 0.73
0.06 0.04 0.10 0.27 0.28 0.44 0.41 0.29 0.36 0.36 0.57 0.42 0.45 0.54 0.95 1.17 1.89 1.04 0.56 0.32 0.43 0.50 0.61 1.05 1.50 1.44 1.51 1.84 2.51 2.43 1.86 1.70 2.06 2.41 2.97 2.94 3.29 2.90 2.34 1.68 0.70 0.37 0.29
0.05 0.04 0.02 0.04 0.13 0.21 0.26 0.29 0.18 0.23 0.33 0.51 0.56 0.65 0.72 0.83 1.21 1.45 0.85 0.61 0.43 0.52 0.58 0.72 1.10 1.21 1.24 1.37 1.64 1.67 1.71 1.35 1.06 0.86 0.88 0.90 0.80 0.83 0.76 1.23 1.10 0.45 0.29
0.01 0.01 0.02 0.03 0.06 0.08 0.16 0.28 0.25 0.37 0.40 0.61 0.73 0.88 0.67 0.72 0.98 1.17 1.05 0.91 0.85 1.18 1.22 1.24 1.46 1.49 1.31 1.29 1.19 1.41 1.18 1.00 0.92 0.95 0.92 0.73 0.70 0.61 0.43 0.62 1.15 0.79 0.50
0.04 0.04 0.06 0.06 0.06 0.04 0.06 0.10 0.09 0.15 0.13 0.15 0.18 0.47 0.75 0.81 1.21 1.50 1.15 1.08 0.87 0.81 0.97 0.99 1.12 1.31 1.48 1.53 1.55 1.66 1.34 1.14 0.94 0.81 0.80 0.84 0.60 0.41 0.31 0.27 0.54 0.91 0.70
0.05 0.05 0.05 0.11 0.13 0.08 0.10 0.08 0.10 0.11 0.14 0.14 0.09 0.13 0.42 0.70 0.60 1.16 1.33 1.29 1.07 0.91 0.80 0.83 0.71 0.69 0.60 0.77 0.54 0.46 0.58 0.51 0.50 0.59 0.52 0.40 0.39 0.23 0.14 0.15 0.21 0.45 0.72
0.15 0.09 0.06 0.09 0.11 0.15 0.16 0.18 0.14 0.16 0.16 0.12 0.09 0.12 0.20 0.42 0.86 1.03 1.31 1.12 1.20 1.15 1.11 1.31 1.38 1.06 0.78 0.65 0.71 0.43 0.39 0.37 0.30 0.37 0.39 0.33 0.38 0.30 0.27 0.23 0.18 0.18 0.31

GFSSE_prec_precacc_138.txt.gz
Total_Precipitation_Accumulation
0.88 0.36 0.15 0.16 0.17 0.06 0.01 0.01 0.00 0.00 0.00 0.00 0.00 0.00 0.00 0.00 0.00 0.00 0.00 0.00 0.05 0.14 0.10 0.04 0.03 0.03 0.05 0.09 0.14 0.10 0.08 0.10 0.10 0.30 0.47 0.51 0.32 0.15 0.11 0.20 0.25 0.16 0.38
1.67 1.34 0.76 0.27 0.23 0.04 0.02 0.00 0.00 0.00 0.00 0.00 0.00 0.00 0.00 0.00 0.00 0.00 0.00 0.00 0.04 0.09 0.05 0.02 0.02 0.03 0.10 0.08 0.07 0.02 0.00 0.02 0.05 0.23 0.42 0.37 0.39 0.16 0.15 0.27 0.47 0.21 0.30
1.26 2.36 1.78 0.99 0.50 0.18 0.07 0.03 0.04 0.02 0.00 0.00 0.00 0.01 0.01 0.01 0.01 0.01 0.00 0.01 0.01 0.07 0.08 0.03 0.06 0.07 0.09 0.04 0.04 0.02 0.01 0.03 0.04 0.11 0.32 0.27 0.22 0.21 0.16 0.25 0.21 0.30 0.21
0.39 0.79 1.84 1.47 0.91 0.56 0.23 0.17 0.16 0.20 0.07 0.02 0.03 0.03 0.05 0.05 0.09 0.15 0.07 0.03 0.04 0.09 0.15 0.09 0.13 0.16 0.12 0.04 0.03 0.01 0.01 0.01 0.07 0.12 0.26 0.73 0.43 0.47 0.24 0.29 0.35 0.24 0.20
0.96 0.81 0.69 0.84 1.04 1.06 0.53 0.35 0.30 0.22 0.12 0.06 0.06 0.03 0.02 0.07 0.14 0.22 0.20 0.12 0.10 0.15 0.30 0.28 0.32 0.26 0.12 0.04 0.01 0.01 0.01 0.04 0.11 0.29 0.57 1.19 0.95 0.91 0.71 0.57 0.45 0.48 0.50
2.24 1.89 1.46 1.03 1.06 1.52 1.41 0.76 0.38 0.20 0.22 0.15 0.11 0.06 0.05 0.08 0.17 0.32 0.23 0.23 0.17 0.23 0.55 0.61 0.48 0.29 0.09 0.05 0.00 0.01 0.01 0.02 0.07 0.27 0.65 0.87 1.23 1.03 0.68 0.49 0.40 0.26 0.32
3.77 3.05 2.81 3.34 2.80 2.07 2.59 1.72 0.99 0.73 0.59 0.42 0.14 0.10 0.06 0.15 0.19 0.40 0.33 0.50 0.77 1.19 1.12 1.09 0.83 0.29 0.08 0.01 0.00 0.01 0.02 0.01 0.10 0.28 0.63 1.12 1.39 1.27 0.74 0.44 0.32 0.29 0.39
5.54 4.48 4.79 4.60 4.26 4.62 2.70 3.28 3.28 2.80 1.99 1.00 0.74 0.73 0.89 1.53 1.39 1.25 0.96 1.28 1.53 1.52 1.38 1.19 0.83 0.28 0.18 0.12 0.06 0.07 0.05 0.04 0.13 0.32 0.56 0.86 0.97 0.91 0.54 0.49 0.40 0.30 0.20
6.57 8.14 8.36 7.58 5.71 5.02 3.66 2.81 3.96 5.42 6.09 5.61 3.91 3.42 3.40 2.78 2.39 2.14 1.83 1.61 2.07 2.37 1.57 1.32 0.76 0.43 0.33 0.34 0.28 0.36 0.17 0.07 0.13 0.35 0.53 0.86 1.25 0.64 0.60 0.36 0.33 0.35 0.32
4.79 6.71 7.64 8.95 8.46 3.91 2.83 2.27 2.98 4.40 5.94 6.80 5.91 4.75 3.29 2.19 2.33 3.01 2.93 2.37 2.05 2.11 1.94 1.78 1.55 1.31 0.84 0.68 0.51 0.40 0.31 0.37 0.36 0.36 0.44 0.36 0.52 0.76 0.60 0.37 0.28 0.34 0.47
2.64 3.34 4.90 7.55 6.17 3.45 1.95 1.51 1.83 3.59 3.58 3.14 3.16 4.03 3.09 2.18 1.71 1.33 1.82 1.78 1.57 1.51 1.71 1.87 1.69 1.69 1.55 1.00 0.99 0.72 0.65 0.50 0.49 0.42 0.45 0.62 0.66 0.98 0.90 0.70 0.48 0.53 0.52
1.41 1.72 1.92 3.62 4.21 2.94 1.75 1.43 1.15 1.82 2.76 3.18 1.84 1.93 1.90 1.89 1.64 1.05 1.06 1.03 1.32 1.06 1.11 1.82 1.57 1.25 1.28 0.78 0.86 0.71 0.49 0.43 0.52 0.40 0.46 0.94 0.78 0.94 1.32 1.15 0.81 0.55 0.74
0.95 0.83 0.98 1.53 1.82 2.29 1.83 1.50 1.38 1.32 1.42 3.06 2.08 1.07 1.17 1.37 1.20 0.99 0.75 0.82 0.94 0.94 0.57 0.75 1.17 0.81 0.66 0.58 0.73 0.56 0.38 0.33 0.41 0.32 0.53 1.01 0.96 0.90 1.25 1.19 0.91 0.88 0.93
0.41 0.39 0.65 0.71 0.75 1.00 1.35 1.28 0.96 1.07 1.14 1.48 2.01 1.23 0.97 1.20 0.72 0.77 0.54 0.62 0.76 0.89 0.72 0.74 0.63 0.77 0.67 0.71 0.71 0.71 0.51 0.33 0.26 0.35 0.48 0.69 1.16 0.83 0.99 0.97 0.78 1.06 1.08
0.22 0.34 0.37 0.45 0.44 0.65 0.92 1.17 1.14 0.84 0.98 1.04 1.50 1.22 0.78 0.76 0.62 0.69 0.48 0.47 0.66 0.72 0.90 0.96 0.84 0.83 0.96 0.85 0.80 0.83 0.68 0.48 0.60 0.63 0.57 0.72 0.98 1.23 1.01 1.29 1.01 0.93 0.91
0.30 0.32 0.29 0.35 0.34 0.50 0.82 1.01 1.25 1.27 1.14 1.08 1.06 0.92 0.58 0.53 0.48 0.41 0.38 0.41 0.38 0.53 0.96 1.03 1.00 1.08 1.11 1.12 1.23 1.17 1.15 1.10 1.00 1.03 0.89 0.76 0.81 1.15 1.59 1.20 1.56 0.98 0.80
0.41 0.24 0.29 0.34 0.52 0.52 0.52 0.62 1.00 1.14 1.07 0.97 0.94 1.12 1.00 0.79 0.51 0.37 0.31 0.30 0.35 0.49 0.91 1.00 1.34 1.57 1.40 1.13 1.17 1.21 1.17 1.20 1.42 1.65 1.60 1.55 1.80 1.82 2.63 2.25 2.22 1.38 1.10
0.30 0.52 0.20 0.23 0.68 0.62 0.50 0.47 0.65 0.96 1.02 0.91 0.81 0.99 0.98 0.84 0.79 0.86 0.66 0.50 0.43 0.80 1.05 0.85 0.89 1.38 1.27 0.97 0.89 1.22 1.39 1.60 1.66 1.94 2.09 1.61 1.43 1.25 1.67 2.61 2.77 3.07 1.95
0.05 0.48 0.53 0.34 0.43 0.65 0.72 0.54 0.53 0.72 0.83 0.70 0.53 0.85 1.14 1.02 0.81 0.80 0.84 0.90 0.98 1.21 1.22 1.18 1.13 1.07 1.09 0.83 0.75 1.01 1.32 1.71 1.95 1.99 1.80 1.46 1.27 1.42 1.34 1.61 1.70 2.10 2.38
0.03 0.05 0.35 0.47 0.46 0.57 0.62 0.58 0.63 0.62 0.78 0.55 0.41 0.78 0.84 1.38 1.12 0.59 0.50 0.59 0.99 1.21 1.42 1.63 1.55 1.26 1.29 1.20 1.22 1.17 1.12 1.29 1.47 1.68 1.49 1.66 1.63 1.93 1.92 2.35 2.40 2.32 2.11
0.06 0.04 0.10 0.27 0.28 0.44 0.41 0.29 0.36 0.36 0.57 0.42 0.45 0.54 0.95 1.17 1.89 1.04 0.56 0.32 0.43 0.50 0.61 1.05 1.50 1.44 1.51 1.84 2.51 2.43 1.86 1.70 2.06 2.41 2.97 2.95 3.36 3.32 3.32 2.76 1.81 1.40 1.05
0.05 0.04 0.02 0.04 0.13 0.21 0.26 0.29 0.18 0.23 0.33 0.51 0.56 0.65 0.72 0.83 1.21 1.45 0.85 0.61 0.43 0.52 0.58 0.72 1.10 1.21 1.24 1.37 1.64 1.67 1.71 1.35 1.06 0.86 0.88 0.90 0.80 0.84 0.78 1.28 1.16 0.50 0.31
0.01 0.01 0.02 0.03 0.06 0.08 0.16 0.28 0.25 0.37 0.40 0.61 0.73 0.88 0.67 0.72 0.98 1.17 1.05 0.91 0.85 1.18 1.22 1.24 1.46 1.49 1.31 1.29 1.19 1.41 1.18 1.00 0.92 0.95 0.92 0.73 0.70 0.61 0.44 0.62 1.16 0.80 0.50
0.04 0.04 0.06 0.06 0.06 0.04 0.06 0.10 0.09 0.15 0.13 0.15 0.18 0.47 0.75 0.81 1.21 1.50 1.15 1.08 0.87 0.81 0.97 0.99 1.12 1.31 1.48 1.53 1.55 1.66 1.35 1.15 0.94 0.81 0.80 0.84 0.60 0.42 0.32 0.28 0.54 0.92 0.71
0.05 0.05 0.05 0.11 0.13 0.08 0.10 0.08 0.10 0.11 0.14 0.14 0.09 0.13 0.42 0.70 0.60 1.16 1.33 1.29 1.07 0.91 0.80 0.83 0.71 0.69 0.60 0.77 0.55 0.47 0.59 0.51 0.50 0.60 0.52 0.40 0.39 0.23 0.15 0.16 0.21 0.45 0.72
0.15 0.09 0.06 0.09 0.11 0.15 0.16 0.18 0.14 0.16 0.16 0.12 0.09 0.12 0.20 0.42 0.86 1.03 1.31 1.12 1.20 1.15 1.11 1.31 1.38 1.06 0.78 0.65 0.71 0.44 0.41 0.39 0.31 0.38 0.40 0.33 0.38 0.30 0.27 0.23 0.18 0.18 0.32

GFSSE_prec_precacc_141.txt.gz
Total_Precipitation_Accumulation
0.88 0.36 0.15 0.16 0.17 0.06 0.01 0.01 0.00 0.00 0.00 0.00 0.00 0.00 0.00 0.00 0.00 0.00 0.00 0.00 0.05 0.14 0.10 0.04 0.03 0.03 0.05 0.09 0.14 0.10 0.08 0.10 0.10 0.30 0.47 0.51 0.32 0.15 0.11 0.20 0.26 0.16 0.39
1.67 1.34 0.76 0.27 0.23 0.04 0.02 0.00 0.00 0.00 0.00 0.00 0.00 0.00 0.00 0.00 0.00 0.00 0.00 0.00 0.04 0.09 0.05 0.02 0.02 0.03 0.10 0.08 0.07 0.02 0.00 0.02 0.05 0.23 0.42 0.37 0.39 0.16 0.15 0.27 0.47 0.21 0.30
1.26 2.36 1.78 0.99 0.50 0.18 0.07 0.03 0.04 0.02 0.00 0.00 0.00 0.01 0.01 0.01 0.01 0.01 0.00 0.01 0.01 0.07 0.08 0.03 0.06 0.07 0.10 0.04 0.04 0.02 0.01 0.03 0.04 0.11 0.32 0.27 0.22 0.22 0.16 0.25 0.21 0.31 0.21
0.40 0.79 1.84 1.47 0.91 0.56 0.23 0.17 0.16 0.20 0.07 0.02 0.03 0.03 0.05 0.05 0.09 0.15 0.07 0.03 0.04 0.09 0.15 0.09 0.13 0.16 0.12 0.04 0.03 0.01 0.01 0.01 0.07 0.13 0.27 0.74 0.43 0.49 0.25 0.32 0.35 0.24 0.21
0.96 0.81 0.69 0.84 1.04 1.06 0.53 0.35 0.30 0.22 0.12 0.06 0.06 0.03 0.02 0.07 0.14 0.22 0.20 0.12 0.10 0.15 0.30 0.28 0.32 0.26 0.12 0.04 0.01 0.01 0.01 0.04 0.11 0.30 0.59 1.24 0.98 0.98 0.81 0.64 0.47 0.48 0.50
2.24 1.89 1.46 1.03 1.06 1.52 1.41 0.76 0.38 0.20 0.22 0.15 0.11 0.06 0.05 0.08 0.17 0.32 0.23 0.23 0.17 0.23 0.55 0.61 0.48 0.29 0.09 0.05 0.00 0.01 0.01 0.02 0.07 0.27 0.66 0.92 1.28 1.05 0.78 0.60 0.46 0.29 0.32
3.77 3.05 2.81 3.34 2.80 2.07 2.59 1.72 0.99 0.73 0.59 0.42 0.14 0.10 0.06 0.15 0.19 0.40 0.33 0.50 0.77 1.19 1.12 1.09 0.83 0.29 0.08 0.01 0.00 0.01 0.02 0.01 0.10 0.28 0.63 1.14 1.54 1.29 0.79 0.48 0.37 0.32 0.40
5.54 4.48 4.79 4.60 4.26 4.62 2.70 3.28 3.28 2.80 1.99 1.00 0.74 0.73 0.89 1.53 1.39 1.25 0.96 1.28 1.53 1.52 1.38 1.19 0.83 0.28 0.18 0.12 0.06 0.07 0.05 0.04 0.13 0.32 0.56 0.87 1.05 0.96 0.65 0.53 0.44 0.34 0.21
6.57 8.14 8.36 7.58 5.71 5.02 3.66 2.81 3.96 5.42 6.09 5.61 3.91 3.42 3.40 2.78 2.39 2.14 1.83 1.61 2.07 2.37 1.57 1.32 0.76 0.43 0.33 0.34 0.28 0.36 0.17 0.07 0.13 0.35 0.53 0.86 1.26 0.67 0.71 0.42 0.36 0.37 0.36
4.79 6.71 7.64 8.95 8.46 3.91 2.83 2.27 2.98 4.40 5.94 6.80 5.91 4.75 3.29 2.19 2.33 3.01 2.93 2.37 2.05 2.11 1.94 1.78 1.56 1.32 0.84 0.68 0.52 0.40 0.31 0.37 0.36 0.36 0.44 0.36 0.52 0.77 0.64 0.41 0.31 0.34 0.50
2.64 3.34 4.90 7.55 6.17 3.45 1.95 1.51 1.83 3.59 3.58 3.14 3.16 4.03 3.09 2.18 1.71 1.33 1.82 1.78 1.57 1.51 1.71 1.87 1.70 1.73 1.62 1.05 1.00 0.75 0.66 0.50 0.49 0.42 0.45 0.62 0.66 0.99 0.95 0.73 0.50 0.54 0.53
1.41 1.72 1.92 3.62 4.21 2.94 1.75 1.43 1.15 1.82 2.76 3.18 1.84 1.94 1.90 1.89 1.64 1.05 1.06 1.03 1.32 1.06 1.11 1.82 1.57 1.26 1.29 0.79 0.88 0.76 0.57 0.48 0.54 0.41 0.46 0.94 0.78 0.94 1.35 1.18 0.82 0.56 0.74
0.95 0.83 0.98 1.53 1.82 2.29 1.83 1.50 1.38 1.32 1.42 3.06 2.08 1.07 1.18 1.37 1.20 0.99 0.75 0.82 0.94 0.94 0.58 0.76 1.19 0.85 0.70 0.61 0.89 0.72 0.40 0.34 0.41 0.32 0.53 1.02 0.96 0.90 1.26 1.24 0.96 0.92 0.97
0.41 0.39 0.65 0.71 0.75 1.00 1.35 1.28 0.96 1.07 1.14 1.48 2.01 1.23 0.97 1.20 0.72 0.77 0.54 0.63 0.77 0.90 0.74 0.76 0.64 0.79 0.68 0.74 0.84 0.86 0.57 0.34 0.29 0.37 0.50 0.72 1.17 0.83 1.00 1.04 0.89 1.15 1.15
0.22 0.34 0.37 0.45 0.44 0.65 0.92 1.17 1.14 0.84 0.98 1.04 1.50 1.22 0.78 0.76 0.62 0.69 0.48 0.47 0.66 0.72 0.90 0.96 0.84 0.83 0.96 0.85 0.82 0.85 0.69 0.48 0.60 0.64 0.62 0.78 1.02 1.30 1.04 1.33 1.09 1.02 1.02
0.30 0.32 0.29 0.35 0.34 0.50 0.82 1.01 1.25 1.27 1.14 1.08 1.06 0.92 0.58 0.53 0.48 0.41 0.38 0.41 0.38 0.53 0.96 1.03 1.00 1.08 1.11 1.12 1.23 1.17 1.17 1.13 1.01 1.03 0.89 0.78 0.88 1.25 1.68 1.27 1.66 1.10 0.96
0.41 0.24 0.29 0.34 0.52 0.52 0.52 0.62 1.00 1.14 1.07 0.97 0.94 1.12 1.00 0.79 0.51 0.37 0.31 0.30 0.35 0.49 0.91 1.00 1.34 1.57 1.40 1.13 1.17 1.21 1.17 1.20 1.43 1.66 1.63 1.60 1.92 1.96 2.74 2.32 2.26 1.55 1.65
0.30 0.52 0.20 0.23 0.68 0.62 0.50 0.47 0.65 0.96 1.02 0.91 0.81 0.99 0.98 0.84 0.79 0.86 0.66 0.50 0.43 0.80 1.05 0.85 0.89 1.38 1.27 0.97 0.89 1.22 1.39 1.60 1.66 1.94 2.10 1.61 1.44 1.27 1.69 2.62 2.77 3.20 2.71
0.05 0.48 0.53 0.34 0.43 0.65 0.72 0.54 0.53 0.72 0.83 0.70 0.53 0.85 1.14 1.02 0.81 0.80 0.84 0.90 0.98 1.21 1.22 1.18 1.13 1.07 1.09 0.83 0.75 1.01 1.32 1.71 1.95 1.99 1.80 1.46 1.27 1.42 1.34 1.61 1.70 2.12 2.57
0.03 0.05 0.35 0.47 0.46 0.57 0.62 0.58 0.63 0.62 0.78 0.55 0.41 0.78 0.84 1.38 1.12 0.59 0.50 0.59 0.99 1.21 1.42 1.63 1.55 1.26 1.29 1.20 1.22 1.17 1.12 1.29 1.47 1.68 1.49 1.66 1.63 1.93 1.92 2.35 2.41 2.33 2.14
0.06 0.04 0.10 0.27 0.28 0.44 0.41 0.29 0.36 0.36 0.57 0.42 0.45 0.54 0.95 1.17 1.89 1.04 0.56 0.32 0.43 0.50 0.61 1.05 1.50 1.44 1.51 1.84 2.51 2.43 1.86 1.70 2.06 2.41 2.97 2.95 3.36 3.33 3.32 2.76 1.82 1.41 1.06
0.05 0.04 0.02 0.04 0.13 0.21 0.26 0.29 0.18 0.23 0.33 0.51 0.56 0.65 0.72 0.83 1.21 1.45 0.85 0.61 0.43 0.52 0.58 0.72 1.10 1.21 1.24 1.37 1.64 1.67 1.71 1.35 1.06 0.86 0.88 0.90 0.81 0.84 0.78 1.28 1.18 0.52 0.34
0.01 0.01 0.02 0.03 0.06 0.08 0.16 0.28 0.25 0.37 0.40 0.61 0.73 0.88 0.67 0.72 0.98 1.17 1.05 0.91 0.85 1.18 1.22 1.24 1.46 1.49 1.31 1.29 1.19 1.41 1.18 1.00 0.92 0.95 0.92 0.73 0.71 0.62 0.44 0.62 1.16 0.80 0.50
0.04 0.04 0.06 0.06 0.06 0.04 0.06 0.10 0.09 0.15 0.13 0.15 0.18 0.47 0.75 0.81 1.21 1.50 1.15 1.08 0.87 0.81 0.97 0.99 1.12 1.31 1.48 1.53 1.55 1.66 1.35 1.15 0.94 0.81 0.80 0.84 0.60 0.42 0.32 0.28 0.54 0.92 0.72
0.05 0.05 0.05 0.11 0.13 0.08 0.10 0.08 0.10 0.11 0.14 0.14 0.09 0.13 0.42 0.70 0.60 1.16 1.33 1.29 1.07 0.91 0.80 0.83 0.71 0.69 0.60 0.78 0.55 0.47 0.59 0.51 0.50 0.60 0.53 0.40 0.39 0.23 0.15 0.16 0.21 0.45 0.72
0.15 0.09 0.06 0.09 0.11 0.15 0.16 0.18 0.14 0.16 0.16 0.12 0.09 0.12 0.20 0.42 0.86 1.03 1.31 1.12 1.20 1.15 1.11 1.31 1.38 1.06 0.78 0.65 0.71 0.44 0.41 0.40 0.31 0.39 0.40 0.33 0.38 0.30 0.27 0.23 0.18 0.18 0.32

GFSSE_prec_precacc_144.txt.gz
Total_Precipitation_Accumulation
0.88 0.36 0.15 0.16 0.17 0.06 0.01 0.01 0.00 0.00 0.00 0.00 0.00 0.00 0.00 0.00 0.00 0.00 0.00 0.00 0.05 0.14 0.10 0.04 0.03 0.03 0.05 0.09 0.14 0.10 0.08 0.10 0.10 0.30 0.48 0.52 0.32 0.15 0.11 0.21 0.26 0.16 0.40
1.67 1.34 0.76 0.27 0.23 0.04 0.02 0.00 0.00 0.00 0.00 0.00 0.00 0.00 0.00 0.00 0.00 0.00 0.00 0.00 0.04 0.09 0.05 0.02 0.02 0.03 0.10 0.08 0.07 0.02 0.00 0.02 0.05 0.23 0.42 0.37 0.39 0.16 0.15 0.28 0.48 0.22 0.31
1.26 2.36 1.78 0.99 0.50 0.18 0.07 0.03 0.04 0.02 0.00 0.00 0.00 0.01 0.01 0.01 0.01 0.01 0.00 0.01 0.01 0.07 0.08 0.03 0.06 0.07 0.10 0.04 0.04 0.02 0.01 0.03 0.04 0.12 0.33 0.27 0.22 0.26 0.16 0.25 0.21 0.31 0.23
0.40 0.79 1.84 1.47 0.91 0.56 0.23 0.17 0.16 0.20 0.07 0.02 0.03 0.03 0.05 0.05 0.09 0.15 0.07 0.03 0.04 0.09 0.15 0.09 0.13 0.16 0.12 0.04 0.03 0.01 0.01 0.01 0.07 0.13 0.29 0.74 0.44 0.55 0.32 0.38 0.37 0.24 0.21
0.96 0.81 0.69 0.84 1.04 1.06 0.53 0.35 0.30 0.22 0.12 0.06 0.06 0.03 0.02 0.07 0.14 0.22 0.20 0.12 0.10 0.15 0.30 0.28 0.32 0.26 0.12 0.04 0.01 0.01 0.01 0.04 0.11 0.30 0.60 1.24 0.98 1.02 0.92 0.74 0.56 0.50 0.51
2.25 1.89 1.46 1.03 1.06 1.52 1.41 0.76 0.38 0.20 0.22 0.15 0.11 0.06 0.05 0.08 0.17 0.32 0.23 0.23 0.17 0.23 0.55 0.61 0.48 0.29 0.09 0.05 0.00 0.01 0.01 0.02 0.07 0.27 0.66 0.93 1.32 1.08 0.81 0.62 0.52 0.38 0.36
3.77 3.05 2.81 3.34 2.80 2.07 2.59 1.72 0.99 0.73 0.59 0.42 0.14 0.10 0.06 0.15 0.19 0.40 0.33 0.50 0.77 1.19 1.12 1.09 0.83 0.29 0.08 0.01 0.00 0.01 0.02 0.01 0.10 0.28 0.63 1.14 1.56 1.30 0.81 0.49 0.42 0.42 0.50
5.54 4.48 4.79 4.60 4.26 4.62 2.70 3.28 3.28 2.80 1.99 1.00 0.74 0.73 0.89 1.53 1.39 1.25 0.96 1.28 1.53 1.52 1.38 1.19 0.84 0.29 0.18 0.12 0.06 0.07 0.05 0.04 0.13 0.32 0.56 0.87 1.05 0.96 0.68 0.54 0.45 0.38 0.29
6.57 8.14 8.36 7.58 5.71 5.02 3.66 2.81 3.97 5.42 6.09 5.61 3.91 3.42 3.40 2.78 2.39 2.14 1.83 1.61 2.07 2.37 1.57 1.32 0.77 0.46 0.38 0.38 0.29 0.36 0.17 0.07 0.13 0.35 0.53 0.86 1.26 0.67 0.72 0.44 0.37 0.37 0.39
4.79 6.71 7.64 8.95 8.46 3.91 2.83 2.28 2.98 4.40 5.95 6.81 5.91 4.75 3.29 2.19 2.33 3.01 2.93 2.37 2.05 2.11 1.94 1.78 1.57 1.36 0.92 0.79 0.62 0.44 0.35 0.38 0.36 0.36 0.44 0.36 0.52 0.77 0.64 0.42 0.32 0.34 0.50
2.64 3.34 4.90 7.55 6.17 3.45 1.95 1.51 1.83 3.59 3.58 3.14 3.16 4.04 3.09 2.18 1.71 1.33 1.82 1.79 1.57 1.51 1.71 1.87 1.70 1.74 1.64 1.08 1.04 0.82 0.79 0.57 0.56 0.43 0.45 0.62 0.66 0.99 0.95 0.74 0.54 0.55 0.53
1.41 1.72 1.92 3.62 4.21 2.94 1.75 1.43 1.15 1.82 2.76 3.18 1.84 1.94 1.90 1.89 1.65 1.05 1.06 1.03 1.32 1.06 1.11 1.82 1.57 1.27 1.29 0.80 0.89 0.77 0.60 0.50 0.56 0.42 0.46 0.94 0.78 0.94 1.35 1.19 0.84 0.59 0.75
0.95 0.83 0.98 1.53 1.82 2.29 1.83 1.50 1.38 1.32 1.42 3.06 2.08 1.08 1.18 1.38 1.21 1.00 0.75 0.82 0.94 0.94 0.58 0.77 1.20 0.86 0.73 0.63 0.90 0.75 0.41 0.34 0.41 0.32 0.53 1.03 0.96 0.90 1.26 1.24 0.97 0.95 1.00
0.41 0.39 0.65 0.71 0.75 1.00 1.35 1.28 0.96 1.07 1.14 1.48 2.01 1.23 0.98 1.21 0.73 0.77 0.54 0.63 0.77 0.90 0.74 0.77 0.65 0.79 0.69 0.75 0.84 0.86 0.57 0.34 0.29 0.37 0.51 0.73 1.20 0.85 1.00 1.04 0.89 1.16 1.16
0.22 0.34 0.37 0.45 0.44 0.65 0.92 1.17 1.14 0.84 0.98 1.04 1.50 1.22 0.78 0.76 0.62 0.69 0.49 0.48 0.66 0.72 0.90 0.96 0.84 0.83 0.96 0.85 0.82 0.85 0.69 0.48 0.60 0.64 0.63 0.78 1.07 1.34 1.04 1.33 1.09 1.02 1.02
0.30 0.32 0.29 0.35 0.34 0.50 0.82 1.01 1.25 1.27 1.14 1.08 1.06 0.92 0.58 0.53 0.48 0.41 0.38 0.41 0.38 0.53 0.96 1.03 1.00 1.08 1.11 1.12 1.23 1.17 1.17 1.13 1.01 1.03 0.89 0.78 0.88 1.28 1.76 1.34 1.69 1.14 1.02
0.41 0.24 0.29 0.34 0.52 0.52 0.52 0.62 1.00 1.14 1.07 0.97 0.94 1.12 1.00 0.79 0.51 0.37 0.31 0.30 0.35 0.49 0.91 1.00 1.34 1.57 1.40 1.13 1.17 1.21 1.17 1.20 1.43 1.66 1.63 1.60 1.92 1.96 2.74 2.35 2.34 1.62 1.78
0.30 0.52 0.20 0.23 0.68 0.62 0.50 0.47 0.65 0.96 1.02 0.91 0.81 0.99 0.98 0.84 0.79 0.86 0.66 0.50 0.43 0.80 1.05 0.85 0.89 1.38 1.27 0.97 0.89 1.22 1.39 1.60 1.66 1.94 2.10 1.61 1.44 1.27 1.69 2.62 2.77 3.21 2.72
0.05 0.48 0.53 0.34 0.43 0.65 0.72 0.54 0.53 0.72 0.83 0.70 0.53 0.85 1.14 1.02 0.81 0.80 0.84 0.90 0.98 1.21 1.22 1.18 1.13 1.07 1.09 0.83 0.75 1.01 1.32 1.71 1.95 1.99 1.80 1.46 1.27 1.42 1.34 1.61 1.70 2.12 2.57
0.03 0.05 0.35 0.47 0.46 0.57 0.62 0.58 0.63 0.62 0.78 0.55 0.41 0.78 0.84 1.38 1.12 0.59 0.50 0.59 0.99 1.21 1.42 1.63 1.55 1.26 1.29 1.20 1.22 1.17 1.12 1.29 1.47 1.68 1.49 1.66 1.63 1.93 1.92 2.35 2.41 2.33 2.14
0.06 0.04 0.10 0.27 0.28 0.44 0.41 0.29 0.36 0.36 0.57 0.42 0.45 0.54 0.95 1.17 1.89 1.04 0.56 0.32 0.43 0.50 0.61 1.05 1.50 1.44 1.51 1.84 2.51 2.43 1.86 1.70 2.06 2.41 2.97 2.95 3.36 3.33 3.32 2.77 1.83 1.41 1.06
0.05 0.04 0.02 0.04 0.13 0.21 0.26 0.29 0.18 0.23 0.33 0.51 0.56 0.65 0.72 0.83 1.21 1.45 0.85 0.61 0.43 0.52 0.58 0.72 1.10 1.21 1.24 1.37 1.64 1.67 1.71 1.35 1.06 0.86 0.88 0.90 0.81 0.84 0.78 1.29 1.18 0.52 0.35
0.01 0.01 0.02 0.03 0.06 0.08 0.16 0.28 0.25 0.37 0.40 0.61 0.73 0.88 0.67 0.72 0.98 1.17 1.05 0.91 0.85 1.18 1.22 1.24 1.46 1.49 1.31 1.29 1.19 1.41 1.18 1.00 0.92 0.95 0.92 0.73 0.71 0.62 0.44 0.63 1.17 0.80 0.51
0.04 0.04 0.06 0.06 0.06 0.04 0.06 0.10 0.09 0.15 0.13 0.15 0.18 0.47 0.75 0.81 1.21 1.50 1.15 1.08 0.87 0.81 0.97 0.99 1.12 1.31 1.48 1.53 1.55 1.66 1.35 1.15 0.94 0.81 0.80 0.84 0.60 0.42 0.32 0.28 0.54 0.92 0.72
0.05 0.05 0.05 0.11 0.13 0.08 0.10 0.08 0.10 0.11 0.14 0.14 0.09 0.13 0.42 0.70 0.60 1.16 1.33 1.29 1.07 0.91 0.80 0.83 0.71 0.69 0.60 0.78 0.55 0.47 0.59 0.51 0.51 0.61 0.53 0.40 0.39 0.23 0.15 0.16 0.21 0.45 0.72
0.15 0.09 0.06 0.09 0.11 0.15 0.16 0.18 0.14 0.16 0.16 0.12 0.09 0.12 0.20 0.42 0.86 1.03 1.31 1.12 1.20 1.15 1.11 1.31 1.38 1.06 0.78 0.65 0.71 0.44 0.41 0.40 0.31 0.39 0.40 0.34 0.38 0.30 0.27 0.23 0.18 0.18 0.32

GFSSE_prec_precacc_147.txt.gz
Total_Precipitation_Accumulation
0.88 0.36 0.15 0.16 0.17 0.06 0.01 0.01 0.00 0.00 0.00 0.00 0.00 0.00 0.00 0.00 0.00 0.00 0.00 0.00 0.05 0.14 0.10 0.04 0.03 0.03 0.05 0.09 0.14 0.10 0.08 0.10 0.10 0.30 0.48 0.52 0.33 0.15 0.11 0.21 0.26 0.16 0.40
1.67 1.34 0.76 0.27 0.23 0.04 0.02 0.00 0.00 0.00 0.00 0.00 0.00 0.00 0.00 0.00 0.00 0.00 0.00 0.00 0.04 0.09 0.05 0.02 0.02 0.03 0.10 0.08 0.07 0.02 0.00 0.02 0.05 0.23 0.42 0.38 0.39 0.16 0.15 0.28 0.48 0.22 0.31
1.26 2.36 1.78 0.99 0.50 0.18 0.07 0.03 0.04 0.02 0.00 0.00 0.00 0.01 0.01 0.01 0.01 0.01 0.00 0.01 0.01 0.07 0.08 0.03 0.06 0.07 0.10 0.04 0.04 0.02 0.01 0.03 0.04 0.12 0.33 0.27 0.22 0.27 0.17 0.25 0.22 0.31 0.23
0.40 0.79 1.84 1.47 0.91 0.56 0.23 0.17 0.16 0.20 0.07 0.02 0.03 0.03 0.05 0.05 0.09 0.15 0.07 0.03 0.04 0.09 0.15 0.09 0.13 0.16 0.12 0.04 0.03 0.01 0.01 0.01 0.07 0.13 0.29 0.74 0.44 0.56 0.34 0.40 0.40 0.25 0.21
0.97 0.81 0.69 0.84 1.04 1.06 0.53 0.35 0.30 0.22 0.12 0.06 0.06 0.03 0.02 0.07 0.14 0.22 0.20 0.12 0.10 0.15 0.30 0.28 0.32 0.26 0.12 0.04 0.01 0.01 0.01 0.04 0.11 0.30 0.60 1.24 0.98 1.02 0.92 0.76 0.58 0.52 0.51
2.25 1.89 1.46 1.03 1.06 1.52 1.41 0.76 0.38 0.20 0.22 0.15 0.11 0.06 0.05 0.08 0.17 0.32 0.23 0.23 0.17 0.23 0.55 0.61 0.48 0.29 0.09 0.05 0.00 0.01 0.01 0.02 0.07 0.27 0.66 0.93 1.32 1.08 0.81 0.62 0.52 0.40 0.37
3.78 3.05 2.81 3.34 2.81 2.07 2.59 1.72 0.99 0.73 0.59 0.42 0.14 0.10 0.06 0.15 0.19 0.40 0.33 0.50 0.77 1.19 1.12 1.09 0.83 0.29 0.08 0.01 0.00 0.01 0.02 0.01 0.10 0.28 0.63 1.14 1.56 1.30 0.81 0.50 0.42 0.42 0.50
5.55 4.49 4.80 4.60 4.26 4.62 2.70 3.28 3.28 2.80 1.99 1.00 0.74 0.73 0.89 1.53 1.39 1.25 0.96 1.28 1.53 1.52 1.38 1.20 0.85 0.31 0.19 0.12 0.06 0.07 0.05 0.04 0.13 0.32 0.56 0.87 1.05 0.96 0.68 0.55 0.48 0.38 0.29
6.57 8.14 8.36 7.58 5.71 5.02 3.66 2.81 3.97 5.42 6.09 5.61 3.91 3.42 3.40 2.78 2.40 2.14 1.83 1.61 2.07 2.37 1.57 1.32 0.77 0.48 0.40 0.42 0.30 0.36 0.17 0.07 0.13 0.35 0.53 0.86 1.26 0.67 0.72 0.47 0.43 0.38 0.39
4.79 6.71 7.64 8.95 8.46 3.91 2.83 2.28 2.98 4.40 5.95 6.81 5.91 4.75 3.29 2.19 2.34 3.02 2.93 2.37 2.06 2.11 1.94 1.78 1.57 1.36 0.92 0.80 0.62 0.44 0.37 0.40 0.36 0.36 0.44 0.36 0.52 0.77 0.64 0.42 0.35 0.35 0.50
2.64 3.34 4.90 7.55 6.17 3.45 1.95 1.51 1.83 3.59 3.58 3.14 3.16 4.04 3.10 2.18 1.71 1.33 1.82 1.79 1.57 1.51 1.71 1.87 1.70 1.74 1.64 1.08 1.04 0.82 0.81 0.60 0.57 0.43 0.45 0.62 0.66 0.99 0.95 0.74 0.54 0.58 0.53
1.41 1.72 1.92 3.62 4.21 2.94 1.75 1.43 1.15 1.82 2.76 3.18 1.84 1.94 1.90 1.89 1.65 1.06 1.07 1.03 1.32 1.06 1.12 1.82 1.57 1.27 1.30 0.81 0.90 0.77 0.60 0.50 0.56 0.42 0.46 0.94 0.78 0.94 1.35 1.19 0.84 0.60 0.76
0.95 0.83 0.98 1.53 1.82 2.29 1.83 1.50 1.38 1.32 1.42 3.06 2.08 1.08 1.18 1.38 1.21 1.00 0.75 0.82 0.94 0.94 0.58 0.77 1.20 0.87 0.74 0.63 0.90 0.76 0.41 0.34 0.41 0.32 0.53 1.03 0.96 0.90 1.26 1.24 0.97 0.95 1.00
0.41 0.39 0.65 0.71 0.75 1.00 1.35 1.28 0.96 1.07 1.14 1.48 2.01 1.23 0.98 1.21 0.73 0.78 0.54 0.63 0.77 0.90 0.74 0.77 0.65 0.79 0.69 0.75 0.84 0.86 0.57 0.34 0.29 0.37 0.52 0.77 1.25 0.88 1.00 1.04 0.92 1.17 1.18
0.22 0.34 0.37 0.45 0.44 0.65 0.92 1.17 1.14 0.84 0.98 1.04 1.50 1.22 0.78 0.76 0.62 0.69 0.49 0.48 0.66 0.72 0.90 0.96 0.84 0.83 0.96 0.85 0.82 0.85 0.69 0.48 0.60 0.64 0.63 0.79 1.09 1.34 1.04 1.33 1.10 1.13 1.20
0.30 0.32 0.29 0.35 0.34 0.50 0.82 1.01 1.25 1.27 1.14 1.08 1.06 0.92 0.58 0.53 0.48 0.41 0.38 0.41 0.38 0.53 0.96 1.03 1.00 1.08 1.11 1.12 1.23 1.17 1.17 1.13 1.01 1.03 0.89 0.78 0.88 1.28 1.76 1.36 1.71 1.24 1.27
0.41 0.24 0.29 0.34 0.52 0.52 0.52 0.62 1.00 1.14 1.07 0.97 0.94 1.12 1.00 0.79 0.51 0.37 0.31 0.30 0.35 0.49 0.91 1.00 1.34 1.57 1.40 1.13 1.17 1.21 1.17 1.20 1.43 1.66 1.63 1.60 1.92 1.96 2.75 2.36 2.35 1.63 1.83
0.30 0.52 0.20 0.23 0.68 0.62 0.50 0.47 0.65 0.96 1.02 0.91 0.81 0.99 0.98 0.84 0.79 0.86 0.66 0.50 0.43 0.80 1.05 0.85 0.89 1.38 1.27 0.97 0.89 1.22 1.39 1.60 1.66 1.94 2.10 1.61 1.44 1.27 1.69 2.62 2.78 3.22 2.73
0.05 0.48 0.53 0.34 0.43 0.65 0.72 0.54 0.53 0.72 0.83 0.70 0.53 0.85 1.14 1.02 0.81 0.80 0.84 0.90 0.98 1.21 1.22 1.18 1.13 1.07 1.09 0.83 0.75 1.01 1.32 1.71 1.95 1.99 1.80 1.46 1.27 1.42 1.35 1.62 1.71 2.12 2.57
0.03 0.05 0.35 0.47 0.46 0.57 0.62 0.58 0.63 0.62 0.78 0.55 0.41 0.78 0.84 1.38 1.12 0.59 0.50 0.59 0.99 1.21 1.42 1.63 1.55 1.26 1.29 1.20 1.22 1.17 1.12 1.29 1.47 1.68 1.49 1.66 1.63 1.93 1.92 2.35 2.41 2.34 2.15
0.06 0.04 0.10 0.27 0.28 0.44 0.41 0.29 0.36 0.36 0.57 0.42 0.45 0.54 0.95 1.17 1.89 1.04 0.56 0.32 0.43 0.50 0.61 1.05 1.50 1.44 1.51 1.84 2.51 2.43 1.86 1.70 2.06 2.41 2.97 2.95 3.36 3.33 3.32 2.77 1.83 1.41 1.09
0.05 0.04 0.02 0.04 0.13 0.21 0.26 0.29 0.18 0.23 0.33 0.51 0.56 0.65 0.72 0.83 1.21 1.45 0.85 0.61 0.43 0.52 0.58 0.72 1.10 1.21 1.24 1.37 1.64 1.67 1.71 1.35 1.06 0.86 0.88 0.90 0.81 0.84 0.78 1.29 1.18 0.52 0.35
0.01 0.01 0.02 0.03 0.06 0.08 0.16 0.28 0.25 0.37 0.40 0.61 0.73 0.88 0.67 0.72 0.98 1.17 1.05 0.91 0.85 1.18 1.22 1.24 1.46 1.49 1.31 1.29 1.19 1.41 1.18 1.00 0.92 0.95 0.92 0.73 0.71 0.62 0.44 0.63 1.17 0.80 0.51
0.04 0.04 0.06 0.06 0.06 0.04 0.06 0.10 0.09 0.15 0.13 0.15 0.18 0.47 0.75 0.81 1.21 1.50 1.15 1.08 0.87 0.81 0.97 0.99 1.12 1.31 1.48 1.53 1.55 1.66 1.35 1.15 0.95 0.81 0.80 0.84 0.60 0.42 0.32 0.28 0.54 0.92 0.72
0.05 0.05 0.05 0.11 0.13 0.08 0.10 0.08 0.10 0.11 0.14 0.14 0.09 0.13 0.42 0.70 0.60 1.16 1.33 1.29 1.07 0.91 0.80 0.83 0.71 0.69 0.60 0.78 0.55 0.47 0.59 0.51 0.51 0.61 0.53 0.40 0.39 0.23 0.15 0.16 0.21 0.45 0.72
0.15 0.09 0.06 0.09 0.11 0.15 0.16 0.18 0.14 0.16 0.16 0.12 0.09 0.12 0.20 0.42 0.86 1.03 1.31 1.12 1.20 1.15 1.11 1.31 1.38 1.06 0.78 0.65 0.71 0.44 0.41 0.40 0.31 0.39 0.40 0.34 0.38 0.30 0.27 0.23 0.18 0.18 0.32

GFSSE_prec_precacc_153.txt.gz
Total_Precipitation_Accumulation
0.88 0.36 0.15 0.16 0.17 0.06 0.01 0.01 0.00 0.00 0.00 0.00 0.00 0.00 0.00 0.00 0.00 0.00 0.00 0.00 0.05 0.14 0.10 0.04 0.03 0.03 0.05 0.09 0.14 0.10 0.08 0.10 0.10 0.30 0.48 0.52 0.33 0.15 0.11 0.21 0.26 0.16 0.40
1.67 1.34 0.76 0.27 0.23 0.04 0.02 0.00 0.00 0.00 0.00 0.00 0.00 0.00 0.00 0.00 0.00 0.00 0.00 0.00 0.04 0.09 0.05 0.02 0.02 0.03 0.10 0.08 0.07 0.02 0.00 0.02 0.05 0.23 0.42 0.38 0.40 0.16 0.15 0.28 0.48 0.22 0.31
1.26 2.36 1.78 0.99 0.50 0.18 0.07 0.03 0.04 0.02 0.00 0.00 0.00 0.01 0.01 0.01 0.01 0.01 0.00 0.01 0.01 0.07 0.08 0.03 0.06 0.07 0.10 0.04 0.04 0.02 0.01 0.03 0.04 0.12 0.36 0.31 0.22 0.27 0.17 0.25 0.22 0.31 0.23
0.40 0.79 1.84 1.47 0.91 0.56 0.23 0.17 0.16 0.20 0.07 0.02 0.03 0.03 0.05 0.05 0.09 0.15 0.07 0.03 0.04 0.09 0.15 0.09 0.13 0.16 0.12 0.04 0.03 0.01 0.01 0.01 0.07 0.13 0.30 0.77 0.44 0.56 0.34 0.40 0.40 0.25 0.21
0.97 0.81 0.69 0.84 1.04 1.06 0.53 0.35 0.30 0.22 0.12 0.06 0.06 0.03 0.02 0.07 0.14 0.22 0.20 0.12 0.10 0.15 0.30 0.28 0.32 0.26 0.12 0.04 0.01 0.01 0.01 0.04 0.11 0.30 0.60 1.25 0.99 1.02 0.92 0.76 0.58 0.52 0.51
2.26 1.89 1.46 1.03 1.06 1.52 1.41 0.76 0.38 0.20 0.22 0.15 0.11 0.06 0.05 0.08 0.17 0.32 0.23 0.23 0.17 0.23 0.55 0.61 0.48 0.29 0.09 0.05 0.00 0.01 0.01 0.02 0.07 0.27 0.66 0.93 1.34 1.09 0.82 0.62 0.52 0.40 0.37
3.78 3.05 2.81 3.35 2.81 2.07 2.59 1.72 0.99 0.73 0.59 0.42 0.14 0.10 0.06 0.15 0.19 0.40 0.33 0.50 0.77 1.19 1.12 1.09 0.84 0.29 0.08 0.01 0.00 0.01 0.02 0.01 0.10 0.28 0.63 1.14 1.56 1.30 0.84 0.54 0.43 0.43 0.50
5.55 4.49 4.80 4.60 4.26 4.62 2.70 3.28 3.28 2.80 1.99 1.00 0.74 0.73 0.89 1.53 1.39 1.25 0.96 1.28 1.53 1.52 1.38 1.20 0.85 0.31 0.19 0.12 0.06 0.07 0.05 0.04 0.13 0.32 0.56 0.87 1.05 0.96 0.68 0.57 0.51 0.38 0.29
6.57 8.14 8.36 7.58 5.71 5.02 3.66 2.81 3.97 5.42 6.09 5.61 3.91 3.42 3.40 2.79 2.40 2.14 1.84 1.61 2.07 2.37 1.57 1.32 0.78 0.49 0.41 0.42 0.30 0.36 0.17 0.07 0.13 0.35 0.53 0.86 1.26 0.67 0.72 0.48 0.46 0.42 0.43
4.79 6.71 7.64 8.95 8.46 3.91 2.83 2.28 2.98 4.40 5.95 6.81 5.91 4.75 3.30 2.19 2.34 3.02 2.94 2.38 2.06 2.11 1.94 1.78 1.57 1.36 0.92 0.80 0.62 0.44 0.37 0.40 0.36 0.36 0.44 0.37 0.52 0.77 0.64 0.42 0.36 0.38 0.53
2.64 3.34 4.90 7.55 6.17 3.45 1.95 1.51 1.83 3.59 3.58 3.14 3.16 4.04 3.10 2.18 1.72 1.33 1.83 1.79 1.58 1.51 1.72 1.87 1.70 1.74 1.64 1.08 1.04 0.82 0.81 0.61 0.61 0.44 0.45 0.74 0.67 0.99 0.95 0.74 0.54 0.58 0.54
1.41 1.72 1.92 3.62 4.21 2.94 1.75 1.43 1.15 1.82 2.76 3.18 1.84 1.94 1.91 1.90 1.65 1.06 1.07 1.03 1.32 1.06 1.12 1.82 1.58 1.27 1.31 0.87 0.97 0.80 0.66 0.60 0.68 0.49 0.52 1.10 0.84 1.00 1.45 1.33 0.91 0.62 0.76
0.95 0.83 0.98 1.53 1.82 2.29 1.83 1.50 1.38 1.32 1.42 3.06 2.08 1.08 1.18 1.38 1.21 1.00 0.75 0.82 0.94 0.94 0.58 0.77 1.21 0.87 0.77 0.67 0.99 0.83 0.47 0.38 0.43 0.38 0.60 1.14 1.08 0.99 1.41 1.50 1.17 1.12 1.05
0.41 0.39 0.65 0.71 0.75 1.00 1.35 1.28 0.96 1.07 1.14 1.48 2.01 1.23 0.98 1.21 0.73 0.78 0.54 0.63 0.77 0.90 0.74 0.77 0.65 0.79 0.69 0.75 0.84 0.87 0.57 0.35 0.29 0.37 0.56 0.85 1.32 0.90 1.02 1.09 1.25 1.42 1.36
0.22 0.34 0.37 0.45 0.44 0.65 0.92 1.17 1.14 0.84 0.98 1.04 1.50 1.22 0.78 0.76 0.62 0.69 0.49 0.48 0.66 0.72 0.90 0.96 0.84 0.83 0.96 0.85 0.82 0.85 0.69 0.48 0.60 0.64 0.63 0.79 1.09 1.34 1.04 1.34 1.16 1.38 1.43
0.30 0.32 0.29 0.35 0.34 0.50 0.82 1.01 1.25 1.27 1.14 1.08 1.06 0.92 0.58 0.53 0.48 0.41 0.38 0.41 0.38 0.53 0.96 1.03 1.00 1.08 1.11 1.12 1.23 1.17 1.17 1.13 1.01 1.03 0.89 0.78 0.88 1.28 1.76 1.36 1.72 1.29 1.39
0.41 0.24 0.29 0.34 0.52 0.52 0.52 0.62 1.00 1.14 1.07 0.97 0.94 1.12 1.00 0.79 0.51 0.37 0.31 0.30 0.35 0.49 0.91 1.00 1.34 1.57 1.40 1.13 1.17 1.21 1.17 1.20 1.43 1.66 1.63 1.60 1.92 1.96 2.75 2.36 2.36 1.65 1.86
0.30 0.52 0.20 0.23 0.68 0.62 0.50 0.47 0.65 0.96 1.02 0.91 0.81 0.99 0.98 0.84 0.79 0.86 0.66 0.50 0.43 0.80 1.05 0.85 0.89 1.38 1.27 0.97 0.89 1.22 1.39 1.60 1.66 1.94 2.10 1.61 1.44 1.27 1.69 2.63 2.78 3.22 2.74
0.05 0.48 0.53 0.34 0.43 0.65 0.72 0.54 0.53 0.72 0.83 0.70 0.53 0.85 1.14 1.02 0.81 0.80 0.84 0.90 0.98 1.21 1.22 1.18 1.13 1.07 1.09 0.83 0.75 1.01 1.32 1.71 1.95 1.99 1.80 1.46 1.27 1.42 1.35 1.63 1.71 2.13 2.58
0.03 0.05 0.35 0.47 0.46 0.57 0.62 0.58 0.63 0.62 0.78 0.55 0.41 0.78 0.84 1.38 1.12 0.59 0.50 0.59 0.99 1.21 1.42 1.63 1.55 1.26 1.29 1.20 1.22 1.17 1.12 1.29 1.47 1.68 1.49 1.66 1.63 1.93 1.92 2.35 2.41 2.35 2.16
0.06 0.04 0.10 0.27 0.28 0.44 0.41 0.29 0.36 0.36 0.57 0.42 0.45 0.54 0.95 1.17 1.89 1.04 0.56 0.32 0.43 0.50 0.61 1.05 1.50 1.44 1.51 1.84 2.51 2.43 1.86 1.70 2.06 2.41 2.97 2.95 3.36 3.33 3.32 2.77 1.83 1.41 1.09
0.05 0.04 0.02 0.04 0.13 0.21 0.26 0.29 0.18 0.23 0.33 0.51 0.56 0.65 0.72 0.83 1.21 1.45 0.85 0.61 0.43 0.52 0.58 0.72 1.10 1.21 1.24 1.37 1.64 1.67 1.71 1.35 1.06 0.86 0.88 0.90 0.81 0.84 0.78 1.29 1.18 0.52 0.35
0.01 0.01 0.02 0.03 0.06 0.08 0.16 0.28 0.25 0.37 0.40 0.61 0.73 0.88 0.67 0.72 0.98 1.17 1.05 0.91 0.85 1.18 1.22 1.24 1.46 1.49 1.31 1.29 1.19 1.41 1.18 1.00 0.92 0.95 0.92 0.73 0.71 0.62 0.44 0.63 1.17 0.80 0.51
0.04 0.04 0.06 0.06 0.06 0.04 0.06 0.10 0.09 0.15 0.13 0.15 0.18 0.47 0.75 0.81 1.21 1.50 1.15 1.08 0.87 0.81 0.97 0.99 1.12 1.31 1.48 1.53 1.55 1.66 1.35 1.15 0.95 0.82 0.80 0.84 0.60 0.42 0.32 0.28 0.54 0.92 0.72
0.05 0.05 0.05 0.11 0.13 0.08 0.10 0.08 0.10 0.11 0.14 0.14 0.09 0.13 0.42 0.70 0.60 1.16 1.33 1.29 1.07 0.91 0.80 0.83 0.71 0.69 0.60 0.78 0.55 0.47 0.59 0.51 0.51 0.61 0.53 0.40 0.39 0.23 0.15 0.16 0.21 0.45 0.72
0.15 0.09 0.06 0.09 0.11 0.15 0.16 0.18 0.14 0.16 0.16 0.12 0.09 0.12 0.20 0.42 0.86 1.03 1.31 1.12 1.20 1.15 1.11 1.31 1.38 1.06 0.78 0.65 0.71 0.44 0.41 0.40 0.31 0.39 0.40 0.34 0.38 0.30 0.27 0.23 0.18 0.18 0.32

GFSSE_prec_precacc_156.txt.gz
Total_Precipitation_Accumulation
0.88 0.36 0.15 0.16 0.17 0.06 0.01 0.01 0.00 0.00 0.00 0.00 0.00 0.00 0.00 0.00 0.00 0.00 0.00 0.00 0.05 0.14 0.10 0.04 0.03 0.03 0.05 0.09 0.14 0.10 0.08 0.10 0.10 0.30 0.48 0.52 0.33 0.15 0.11 0.21 0.27 0.16 0.40
1.67 1.34 0.76 0.27 0.23 0.04 0.02 0.00 0.00 0.00 0.00 0.00 0.00 0.00 0.00 0.00 0.00 0.00 0.00 0.00 0.04 0.09 0.05 0.02 0.02 0.03 0.10 0.08 0.07 0.02 0.00 0.02 0.05 0.23 0.42 0.38 0.40 0.16 0.15 0.28 0.49 0.22 0.31
1.26 2.36 1.78 0.99 0.50 0.18 0.07 0.03 0.04 0.02 0.00 0.00 0.00 0.01 0.01 0.01 0.01 0.01 0.00 0.01 0.01 0.07 0.08 0.03 0.06 0.07 0.10 0.04 0.04 0.02 0.01 0.03 0.04 0.12 0.41 0.36 0.22 0.27 0.17 0.25 0.22 0.31 0.23
0.40 0.79 1.84 1.47 0.91 0.56 0.23 0.17 0.16 0.20 0.07 0.02 0.03 0.03 0.05 0.05 0.09 0.15 0.07 0.03 0.04 0.09 0.15 0.09 0.13 0.16 0.12 0.04 0.03 0.01 0.01 0.01 0.07 0.13 0.33 0.83 0.44 0.56 0.34 0.40 0.40 0.25 0.21
0.97 0.81 0.69 0.84 1.04 1.06 0.53 0.35 0.30 0.22 0.12 0.06 0.06 0.03 0.02 0.07 0.14 0.22 0.20 0.12 0.10 0.15 0.30 0.28 0.32 0.26 0.12 0.04 0.01 0.01 0.01 0.04 0.11 0.30 0.63 1.25 1.00 1.02 0.92 0.76 0.58 0.52 0.52
2.26 1.89 1.46 1.03 1.06 1.52 1.41 0.76 0.38 0.20 0.22 0.15 0.11 0.06 0.05 0.08 0.17 0.32 0.23 0.23 0.17 0.23 0.55 0.61 0.48 0.29 0.09 0.05 0.00 0.01 0.01 0.02 0.07 0.28 0.68 0.93 1.34 1.09 0.82 0.62 0.52 0.40 0.37
3.78 3.05 2.81 3.35 2.81 2.07 2.59 1.72 0.99 0.73 0.59 0.42 0.14 0.10 0.06 0.15 0.19 0.40 0.33 0.50 0.77 1.19 1.12 1.09 0.84 0.29 0.08 0.01 0.00 0.01 0.02 0.01 0.10 0.28 0.63 1.14 1.56 1.30 0.84 0.55 0.43 0.43 0.50
5.55 4.49 4.80 4.60 4.26 4.62 2.70 3.28 3.28 2.80 1.99 1.00 0.74 0.73 0.89 1.53 1.39 1.25 0.96 1.28 1.53 1.52 1.38 1.20 0.85 0.31 0.19 0.12 0.06 0.07 0.05 0.04 0.13 0.32 0.56 0.87 1.05 0.96 0.68 0.57 0.52 0.38 0.29
6.57 8.14 8.36 7.58 5.71 5.02 3.66 2.81 3.97 5.42 6.09 5.61 3.91 3.42 3.40 2.79 2.40 2.14 1.84 1.61 2.07 2.37 1.57 1.32 0.78 0.49 0.41 0.42 0.30 0.36 0.17 0.07 0.13 0.35 0.53 0.86 1.26 0.67 0.72 0.48 0.46 0.43 0.43
4.79 6.71 7.64 8.95 8.46 3.91 2.83 2.28 2.98 4.40 5.95 6.81 5.91 4.75 3.30 2.19 2.34 3.02 2.95 2.38 2.06 2.12 1.94 1.78 1.57 1.36 0.92 0.80 0.62 0.44 0.37 0.40 0.36 0.36 0.45 0.39 0.52 0.77 0.64 0.42 0.36 0.38 0.54
2.64 3.34 4.90 7.55 6.17 3.45 1.95 1.51 1.83 3.59 3.58 3.14 3.16 4.04 3.10 2.19 1.72 1.34 1.83 1.79 1.58 1.51 1.72 1.87 1.71 1.74 1.64 1.08 1.04 0.82 0.81 0.61 0.61 0.45 0.46 0.81 0.67 1.00 0.95 0.75 0.54 0.58 0.54
1.41 1.72 1.92 3.62 4.21 2.94 1.75 1.43 1.15 1.82 2.76 3.18 1.84 1.94 1.91 1.90 1.66 1.07 1.07 1.03 1.32 1.06 1.12 1.82 1.58 1.27 1.31 0.88 1.00 0.82 0.67 0.62 0.70 0.50 0.56 1.18 0.87 1.07 1.53 1.38 0.93 0.63 0.76
0.95 0.83 0.98 1.53 1.82 2.29 1.83 1.50 1.38 1.32 1.42 3.06 2.08 1.08 1.19 1.38 1.21 1.00 0.75 0.82 0.94 0.94 0.58 0.77 1.21 0.88 0.78 0.70 1.02 0.89 0.53 0.41 0.50 0.48 0.70 1.23 1.14 1.06 1.48 1.55 1.24 1.16 1.09
0.41 0.39 0.65 0.71 0.75 1.00 1.35 1.28 0.96 1.07 1.14 1.48 2.01 1.23 0.98 1.21 0.73 0.78 0.54 0.63 0.77 0.90 0.74 0.77 0.66 0.79 0.69 0.75 0.84 0.87 0.58 0.35 0.31 0.38 0.57 0.85 1.32 0.92 1.02 1.09 1.27 1.47 1.41
0.22 0.34 0.37 0.45 0.44 0.65 0.92 1.17 1.14 0.84 0.98 1.04 1.50 1.22 0.78 0.76 0.62 0.69 0.49 0.48 0.66 0.72 0.90 0.96 0.84 0.83 0.96 0.85 0.82 0.85 0.69 0.48 0.60 0.64 0.63 0.79 1.09 1.34 1.04 1.34 1.16 1.38 1.43
0.30 0.32 0.29 0.35 0.34 0.50 0.82 1.01 1.25 1.27 1.14 1.08 1.06 0.92 0.58 0.53 0.48 0.41 0.38 0.41 0.38 0.53 0.96 1.03 1.00 1.08 1.11 1.12 1.23 1.17 1.17 1.13 1.01 1.03 0.89 0.78 0.88 1.28 1.76 1.36 1.72 1.29 1.40
0.41 0.24 0.29 0.34 0.52 0.52 0.52 0.62 1.00 1.14 1.07 0.97 0.94 1.12 1.00 0.79 0.51 0.37 0.31 0.30 0.35 0.49 0.91 1.00 1.34 1.57 1.40 1.13 1.17 1.21 1.17 1.20 1.43 1.66 1.63 1.60 1.92 1.96 2.75 2.36 2.36 1.65 1.86
0.30 0.52 0.20 0.23 0.68 0.62 0.50 0.47 0.65 0.96 1.02 0.91 0.81 0.99 0.98 0.84 0.79 0.86 0.66 0.50 0.43 0.80 1.05 0.85 0.89 1.38 1.27 0.97 0.89 1.22 1.39 1.60 1.66 1.94 2.10 1.61 1.44 1.27 1.69 2.63 2.78 3.22 2.74
0.05 0.48 0.53 0.34 0.43 0.65 0.72 0.54 0.53 0.72 0.83 0.70 0.53 0.85 1.14 1.02 0.81 0.80 0.84 0.90 0.98 1.21 1.22 1.18 1.13 1.07 1.09 0.83 0.75 1.01 1.32 1.71 1.95 1.99 1.80 1.46 1.27 1.42 1.35 1.63 1.71 2.13 2.58
0.03 0.05 0.35 0.47 0.46 0.57 0.62 0.58 0.63 0.62 0.78 0.55 0.41 0.78 0.84 1.38 1.12 0.59 0.50 0.59 0.99 1.21 1.42 1.63 1.55 1.26 1.29 1.20 1.22 1.17 1.12 1.29 1.47 1.68 1.49 1.66 1.63 1.93 1.92 2.35 2.41 2.35 2.17
0.06 0.04 0.10 0.27 0.28 0.44 0.41 0.29 0.36 0.36 0.57 0.42 0.45 0.54 0.95 1.17 1.89 1.04 0.56 0.32 0.43 0.50 0.61 1.05 1.50 1.44 1.51 1.84 2.51 2.43 1.86 1.70 2.06 2.41 2.97 2.95 3.36 3.33 3.32 2.77 1.83 1.41 1.09
0.05 0.04 0.02 0.04 0.13 0.21 0.26 0.29 0.18 0.23 0.33 0.51 0.56 0.65 0.72 0.83 1.21 1.45 0.85 0.61 0.43 0.52 0.58 0.72 1.10 1.21 1.24 1.37 1.64 1.67 1.71 1.35 1.06 0.86 0.88 0.90 0.81 0.84 0.78 1.29 1.18 0.52 0.35
0.01 0.01 0.02 0.03 0.06 0.08 0.16 0.28 0.25 0.37 0.40 0.61 0.73 0.88 0.67 0.72 0.98 1.17 1.05 0.91 0.85 1.18 1.22 1.24 1.46 1.49 1.31 1.29 1.19 1.41 1.18 1.00 0.92 0.95 0.92 0.73 0.71 0.62 0.44 0.63 1.17 0.80 0.51
0.04 0.04 0.06 0.06 0.06 0.04 0.06 0.10 0.09 0.15 0.13 0.15 0.18 0.47 0.75 0.81 1.21 1.50 1.15 1.08 0.87 0.81 0.97 0.99 1.12 1.31 1.48 1.53 1.55 1.66 1.35 1.15 0.95 0.82 0.80 0.84 0.60 0.42 0.32 0.28 0.54 0.92 0.72
0.05 0.05 0.05 0.11 0.13 0.08 0.10 0.08 0.10 0.11 0.14 0.14 0.09 0.13 0.42 0.70 0.60 1.16 1.33 1.29 1.07 0.91 0.80 0.83 0.71 0.69 0.60 0.78 0.55 0.47 0.59 0.51 0.51 0.61 0.53 0.40 0.39 0.23 0.15 0.16 0.21 0.45 0.72
0.15 0.09 0.06 0.09 0.11 0.15 0.16 0.18 0.14 0.16 0.16 0.12 0.09 0.12 0.20 0.42 0.86 1.03 1.31 1.12 1.20 1.15 1.11 1.31 1.38 1.06 0.78 0.65 0.71 0.44 0.41 0.40 0.31 0.39 0.40 0.34 0.38 0.30 0.27 0.23 0.18 0.18 0.32

GFSSE_prec_precacc_159.txt.gz
Total_Precipitation_Accumulation
0.88 0.36 0.15 0.16 0.17 0.06 0.01 0.01 0.00 0.00 0.00 0.00 0.00 0.00 0.00 0.00 0.00 0.00 0.00 0.00 0.05 0.14 0.10 0.04 0.03 0.03 0.05 0.09 0.14 0.10 0.08 0.10 0.10 0.30 0.48 0.52 0.33 0.15 0.11 0.21 0.27 0.16 0.40
1.67 1.34 0.76 0.27 0.23 0.04 0.02 0.00 0.00 0.00 0.00 0.00 0.00 0.00 0.00 0.00 0.00 0.00 0.00 0.00 0.04 0.09 0.05 0.02 0.02 0.03 0.10 0.08 0.07 0.02 0.00 0.02 0.05 0.23 0.43 0.38 0.40 0.16 0.15 0.28 0.49 0.22 0.31
1.26 2.36 1.78 0.99 0.50 0.18 0.07 0.03 0.04 0.02 0.00 0.00 0.00 0.01 0.01 0.01 0.01 0.01 0.00 0.01 0.01 0.07 0.08 0.03 0.06 0.07 0.10 0.04 0.04 0.02 0.01 0.03 0.04 0.16 0.48 0.39 0.22 0.27 0.17 0.25 0.22 0.31 0.23
0.40 0.79 1.84 1.47 0.91 0.56 0.23 0.17 0.16 0.20 0.07 0.02 0.03 0.03 0.05 0.05 0.09 0.15 0.07 0.03 0.04 0.09 0.15 0.09 0.13 0.16 0.12 0.04 0.03 0.01 0.01 0.01 0.07 0.15 0.42 0.87 0.44 0.56 0.34 0.40 0.40 0.25 0.21
0.97 0.81 0.69 0.84 1.04 1.06 0.53 0.35 0.30 0.22 0.12 0.06 0.06 0.03 0.02 0.07 0.14 0.22 0.20 0.12 0.10 0.15 0.30 0.28 0.32 0.26 0.12 0.04 0.01 0.01 0.01 0.04 0.11 0.30 0.65 1.25 1.01 1.03 0.92 0.76 0.58 0.52 0.52
2.26 1.89 1.46 1.03 1.06 1.52 1.41 0.76 0.38 0.20 0.22 0.15 0.11 0.06 0.05 0.08 0.17 0.32 0.23 0.23 0.17 0.23 0.55 0.61 0.48 0.29 0.09 0.05 0.00 0.01 0.01 0.02 0.07 0.28 0.68 0.95 1.35 1.09 0.82 0.62 0.52 0.40 0.37
3.78 3.05 2.81 3.35 2.81 2.07 2.59 1.72 0.99 0.73 0.59 0.42 0.14 0.10 0.06 0.15 0.19 0.40 0.33 0.50 0.77 1.19 1.12 1.09 0.84 0.29 0.08 0.01 0.00 0.01 0.02 0.01 0.10 0.28 0.63 1.15 1.57 1.30 0.84 0.55 0.43 0.43 0.50
5.55 4.49 4.80 4.60 4.26 4.62 2.70 3.28 3.28 2.80 1.99 1.00 0.74 0.73 0.89 1.53 1.39 1.25 0.96 1.28 1.53 1.52 1.38 1.20 0.85 0.31 0.19 0.12 0.06 0.07 0.05 0.04 0.13 0.32 0.56 0.90 1.07 0.99 0.71 0.57 0.52 0.38 0.29
6.57 8.14 8.36 7.58 5.72 5.02 3.66 2.81 3.97 5.42 6.09 5.61 3.91 3.42 3.40 2.79 2.40 2.14 1.84 1.61 2.07 2.37 1.57 1.32 0.78 0.49 0.41 0.42 0.30 0.36 0.17 0.07 0.13 0.35 0.53 0.89 1.36 0.77 0.78 0.51 0.46 0.43 0.43
4.79 6.71 7.64 8.95 8.46 3.91 2.83 2.28 2.98 4.40 5.95 6.81 5.91 4.75 3.30 2.19 2.34 3.02 2.95 2.38 2.06 2.12 1.94 1.78 1.57 1.36 0.92 0.80 0.62 0.44 0.37 0.40 0.36 0.36 0.45 0.42 0.54 0.79 0.65 0.43 0.37 0.38 0.54
2.64 3.34 4.90 7.55 6.17 3.45 1.95 1.51 1.83 3.59 3.58 3.14 3.16 4.04 3.10 2.19 1.72 1.34 1.83 1.80 1.58 1.52 1.72 1.88 1.71 1.74 1.64 1.08 1.04 0.82 0.81 0.61 0.61 0.46 0.52 0.91 0.69 1.05 0.97 0.75 0.54 0.58 0.54
1.41 1.72 1.92 3.62 4.21 2.94 1.75 1.43 1.15 1.82 2.76 3.18 1.84 1.94 1.91 1.90 1.66 1.07 1.08 1.04 1.33 1.06 1.12 1.82 1.58 1.27 1.31 0.88 1.00 0.82 0.67 0.62 0.76 0.59 0.61 1.28 0.92 1.15 1.61 1.40 0.96 0.66 0.78
0.95 0.83 0.98 1.53 1.82 2.29 1.83 1.50 1.38 1.32 1.42 3.06 2.08 1.08 1.19 1.39 1.22 1.00 0.76 0.83 0.94 0.94 0.58 0.77 1.22 0.88 0.79 0.73 1.04 0.90 0.53 0.47 0.59 0.52 0.74 1.33 1.33 1.12 1.54 1.59 1.29 1.22 1.16
0.41 0.39 0.65 0.71 0.75 1.00 1.35 1.28 0.96 1.07 1.14 1.48 2.01 1.23 0.98 1.21 0.73 0.78 0.55 0.63 0.77 0.90 0.74 0.77 0.67 0.80 0.69 0.76 0.84 0.87 0.59 0.37 0.33 0.39 0.57 0.86 1.33 0.92 1.02 1.09 1.27 1.47 1.41
0.22 0.34 0.37 0.45 0.44 0.65 0.92 1.17 1.14 0.84 0.98 1.04 1.50 1.22 0.78 0.76 0.62 0.69 0.49 0.48 0.66 0.72 0.90 0.96 0.84 0.83 0.96 0.85 0.82 0.85 0.69 0.48 0.61 0.65 0.63 0.79 1.09 1.34 1.04 1.34 1.16 1.38 1.43
0.30 0.32 0.29 0.35 0.34 0.50 0.82 1.01 1.25 1.27 1.14 1.08 1.06 0.92 0.58 0.53 0.48 0.41 0.38 0.41 0.38 0.53 0.96 1.03 1.00 1.08 1.11 1.12 1.23 1.17 1.17 1.13 1.01 1.03 0.89 0.78 0.88 1.28 1.76 1.36 1.72 1.29 1.41
0.41 0.24 0.29 0.34 0.52 0.52 0.52 0.62 1.00 1.14 1.07 0.97 0.94 1.12 1.00 0.79 0.51 0.37 0.31 0.30 0.35 0.49 0.91 1.00 1.34 1.57 1.40 1.13 1.17 1.21 1.17 1.20 1.43 1.66 1.63 1.60 1.92 1.96 2.75 2.36 2.36 1.65 1.87
0.30 0.52 0.20 0.23 0.68 0.62 0.50 0.47 0.65 0.96 1.02 0.91 0.81 0.99 0.98 0.84 0.79 0.86 0.66 0.50 0.43 0.80 1.05 0.85 0.89 1.38 1.27 0.97 0.89 1.22 1.39 1.60 1.66 1.94 2.10 1.61 1.44 1.27 1.69 2.63 2.78 3.22 2.74
0.05 0.49 0.53 0.34 0.43 0.65 0.72 0.54 0.53 0.72 0.83 0.70 0.53 0.85 1.14 1.02 0.81 0.80 0.84 0.90 0.98 1.21 1.22 1.18 1.13 1.07 1.09 0.83 0.75 1.01 1.32 1.71 1.95 1.99 1.80 1.46 1.27 1.42 1.35 1.63 1.71 2.13 2.58
0.03 0.05 0.35 0.47 0.46 0.57 0.62 0.58 0.63 0.62 0.78 0.55 0.41 0.78 0.84 1.38 1.12 0.59 0.50 0.59 0.99 1.21 1.42 1.63 1.55 1.26 1.29 1.20 1.22 1.17 1.12 1.29 1.47 1.68 1.49 1.66 1.63 1.93 1.92 2.35 2.41 2.35 2.17
0.06 0.04 0.10 0.27 0.28 0.44 0.41 0.29 0.36 0.36 0.57 0.42 0.45 0.54 0.95 1.17 1.89 1.04 0.56 0.32 0.43 0.50 0.61 1.05 1.50 1.44 1.51 1.84 2.51 2.43 1.86 1.70 2.06 2.41 2.97 2.95 3.36 3.33 3.32 2.77 1.83 1.41 1.09
0.05 0.04 0.02 0.04 0.13 0.21 0.26 0.29 0.18 0.23 0.33 0.51 0.56 0.65 0.72 0.83 1.21 1.45 0.85 0.61 0.43 0.52 0.58 0.72 1.10 1.21 1.24 1.37 1.64 1.67 1.71 1.35 1.06 0.86 0.88 0.90 0.81 0.84 0.78 1.29 1.18 0.52 0.35
0.01 0.01 0.02 0.03 0.06 0.08 0.16 0.28 0.25 0.37 0.40 0.61 0.73 0.88 0.67 0.72 0.98 1.17 1.05 0.91 0.85 1.18 1.22 1.24 1.46 1.49 1.31 1.29 1.19 1.41 1.18 1.00 0.92 0.95 0.92 0.73 0.71 0.62 0.44 0.63 1.17 0.80 0.51
0.04 0.04 0.06 0.06 0.06 0.04 0.06 0.10 0.09 0.15 0.13 0.15 0.18 0.47 0.75 0.81 1.21 1.50 1.15 1.08 0.87 0.81 0.97 0.99 1.12 1.31 1.48 1.53 1.55 1.66 1.35 1.15 0.95 0.82 0.80 0.84 0.60 0.42 0.32 0.28 0.54 0.92 0.72
0.05 0.05 0.05 0.11 0.13 0.08 0.10 0.08 0.10 0.11 0.14 0.14 0.09 0.13 0.42 0.70 0.60 1.16 1.33 1.29 1.07 0.91 0.80 0.83 0.71 0.69 0.60 0.78 0.55 0.47 0.59 0.51 0.51 0.61 0.53 0.40 0.39 0.23 0.15 0.16 0.21 0.45 0.72
0.15 0.09 0.06 0.09 0.11 0.15 0.16 0.18 0.14 0.16 0.16 0.12 0.09 0.12 0.20 0.42 0.86 1.03 1.31 1.12 1.20 1.15 1.11 1.31 1.38 1.06 0.78 0.65 0.71 0.44 0.41 0.40 0.31 0.39 0.40 0.34 0.38 0.30 0.27 0.23 0.18 0.18 0.32

GFSSE_prec_precacc_162.txt.gz
Total_Precipitation_Accumulation
0.88 0.36 0.15 0.16 0.17 0.06 0.01 0.01 0.00 0.00 0.00 0.00 0.00 0.00 0.00 0.00 0.00 0.00 0.00 0.00 0.05 0.14 0.10 0.04 0.03 0.03 0.05 0.09 0.14 0.10 0.08 0.10 0.10 0.30 0.48 0.52 0.33 0.15 0.11 0.21 0.27 0.16 0.40
1.67 1.34 0.76 0.27 0.23 0.04 0.02 0.00 0.00 0.00 0.00 0.00 0.00 0.00 0.00 0.00 0.00 0.00 0.00 0.00 0.04 0.09 0.05 0.02 0.02 0.03 0.10 0.08 0.07 0.02 0.00 0.02 0.05 0.23 0.43 0.38 0.40 0.16 0.15 0.28 0.49 0.22 0.31
1.26 2.36 1.78 0.99 0.50 0.18 0.07 0.03 0.04 0.02 0.00 0.00 0.00 0.01 0.01 0.01 0.01 0.01 0.00 0.01 0.01 0.07 0.08 0.03 0.06 0.07 0.10 0.04 0.04 0.02 0.01 0.03 0.04 0.16 0.48 0.39 0.22 0.27 0.17 0.25 0.22 0.31 0.23
0.40 0.79 1.84 1.47 0.91 0.56 0.23 0.17 0.16 0.20 0.07 0.02 0.03 0.03 0.05 0.05 0.09 0.15 0.07 0.03 0.04 0.09 0.15 0.09 0.13 0.16 0.12 0.04 0.03 0.01 0.01 0.01 0.07 0.15 0.42 0.87 0.44 0.56 0.34 0.40 0.40 0.25 0.21
0.97 0.81 0.69 0.84 1.04 1.06 0.53 0.35 0.30 0.22 0.12 0.06 0.06 0.03 0.02 0.07 0.14 0.22 0.20 0.12 0.10 0.15 0.30 0.28 0.32 0.26 0.12 0.04 0.01 0.01 0.01 0.04 0.11 0.30 0.65 1.25 1.01 1.03 0.92 0.76 0.58 0.52 0.52
2.26 1.89 1.46 1.03 1.06 1.52 1.41 0.76 0.38 0.20 0.22 0.15 0.11 0.06 0.05 0.08 0.17 0.32 0.23 0.23 0.17 0.23 0.55 0.61 0.49 0.29 0.09 0.05 0.00 0.01 0.01 0.02 0.07 0.28 0.68 0.95 1.35 1.09 0.82 0.62 0.52 0.40 0.37
3.78 3.05 2.81 3.35 2.81 2.07 2.59 1.72 0.99 0.73 0.59 0.42 0.14 0.10 0.06 0.15 0.19 0.40 0.33 0.50 0.77 1.19 1.12 1.09 0.84 0.29 0.08 0.01 0.00 0.01 0.02 0.01 0.10 0.28 0.63 1.16 1.57 1.35 0.84 0.55 0.43 0.43 0.50
5.55 4.49 4.80 4.60 4.26 4.62 2.70 3.28 3.28 2.80 1.99 1.00 0.74 0.73 0.89 1.53 1.39 1.25 0.96 1.28 1.53 1.52 1.38 1.20 0.85 0.31 0.19 0.12 0.06 0.07 0.05 0.04 0.13 0.32 0.56 0.90 1.11 1.08 0.75 0.58 0.52 0.38 0.29
6.57 8.14 8.36 7.58 5.72 5.02 3.66 2.81 3.97 5.42 6.09 5.61 3.91 3.42 3.40 2.79 2.40 2.14 1.84 1.61 2.07 2.37 1.57 1.32 0.78 0.49 0.41 0.42 0.30 0.36 0.17 0.07 0.13 0.35 0.53 0.89 1.37 0.81 0.83 0.53 0.47 0.43 0.43
4.79 6.71 7.64 8.95 8.46 3.91 2.83 2.28 2.98 4.40 5.95 6.81 5.91 4.75 3.30 2.19 2.34 3.02 2.95 2.38 2.06 2.12 1.94 1.78 1.57 1.36 0.92 0.80 0.62 0.44 0.37 0.40 0.36 0.36 0.47 0.48 0.62 0.87 0.69 0.46 0.43 0.42 0.54
2.64 3.34 4.90 7.55 6.17 3.45 1.95 1.51 1.83 3.59 3.58 3.14 3.16 4.04 3.10 2.19 1.72 1.34 1.83 1.80 1.58 1.52 1.72 1.88 1.71 1.74 1.64 1.08 1.04 0.82 0.81 0.61 0.61 0.46 0.56 0.99 0.75 1.14 1.00 0.76 0.56 0.63 0.58
1.41 1.72 1.92 3.62 4.21 2.94 1.75 1.43 1.15 1.82 2.76 3.18 1.84 1.94 1.91 1.90 1.66 1.07 1.08 1.04 1.33 1.07 1.12 1.82 1.58 1.27 1.31 0.88 1.00 0.83 0.67 0.62 0.76 0.59 0.61 1.32 0.97 1.29 1.72 1.52 1.03 0.68 0.82
0.95 0.83 0.98 1.53 1.82 2.29 1.83 1.50 1.38 1.32 1.42 3.06 2.08 1.08 1.19 1.39 1.22 1.00 0.76 0.83 0.95 0.94 0.58 0.78 1.22 0.88 0.80 0.77 1.08 0.95 0.55 0.48 0.59 0.52 0.75 1.34 1.44 1.32 1.63 1.66 1.32 1.25 1.18
0.41 0.39 0.65 0.71 0.75 1.00 1.35 1.28 0.96 1.07 1.14 1.48 2.01 1.23 0.98 1.21 0.73 0.78 0.55 0.63 0.77 0.90 0.74 0.77 0.67 0.80 0.71 0.78 0.86 0.91 0.61 0.38 0.33 0.39 0.57 0.86 1.33 0.93 1.02 1.09 1.27 1.47 1.41
0.22 0.34 0.37 0.45 0.44 0.65 0.92 1.17 1.14 0.84 0.98 1.04 1.50 1.22 0.78 0.76 0.62 0.69 0.49 0.48 0.66 0.72 0.90 0.96 0.84 0.83 0.97 0.85 0.82 0.86 0.70 0.48 0.61 0.65 0.63 0.79 1.09 1.34 1.05 1.34 1.17 1.38 1.44
0.30 0.32 0.29 0.35 0.34 0.50 0.82 1.01 1.25 1.27 1.14 1.08 1.06 0.92 0.58 0.53 0.48 0.41 0.38 0.41 0.38 0.53 0.96 1.03 1.00 1.08 1.11 1.12 1.23 1.17 1.17 1.13 1.01 1.03 0.89 0.78 0.88 1.28 1.76 1.36 1.73 1.30 1.41
0.41 0.24 0.29 0.34 0.52 0.52 0.52 0.62 1.00 1.14 1.07 0.97 0.94 1.12 1.00 0.79 0.51 0.37 0.31 0.30 0.35 0.49 0.91 1.00 1.34 1.57 1.40 1.13 1.17 1.21 1.17 1.20 1.43 1.66 1.63 1.60 1.92 1.96 2.75 2.36 2.36 1.65 1.88
0.30 0.52 0.20 0.24 0.68 0.62 0.50 0.47 0.65 0.96 1.02 0.91 0.81 0.99 0.98 0.84 0.79 0.86 0.66 0.50 0.43 0.80 1.05 0.85 0.89 1.38 1.27 0.97 0.89 1.22 1.39 1.60 1.66 1.94 2.10 1.61 1.44 1.27 1.69 2.63 2.78 3.22 2.74
0.05 0.49 0.54 0.35 0.43 0.65 0.72 0.54 0.53 0.72 0.83 0.70 0.53 0.85 1.14 1.02 0.81 0.80 0.84 0.90 0.98 1.21 1.22 1.18 1.13 1.07 1.09 0.83 0.75 1.01 1.32 1.71 1.95 1.99 1.80 1.46 1.27 1.42 1.35 1.63 1.71 2.13 2.58
0.03 0.05 0.36 0.49 0.46 0.57 0.62 0.58 0.63 0.62 0.78 0.55 0.41 0.78 0.84 1.38 1.12 0.59 0.50 0.59 0.99 1.21 1.42 1.63 1.55 1.26 1.29 1.20 1.22 1.17 1.12 1.29 1.47 1.68 1.49 1.66 1.63 1.93 1.92 2.35 2.41 2.35 2.17
0.06 0.05 0.11 0.27 0.28 0.44 0.41 0.29 0.36 0.36 0.57 0.42 0.45 0.54 0.95 1.17 1.89 1.04 0.56 0.32 0.43 0.50 0.61 1.05 1.50 1.44 1.51 1.84 2.51 2.43 1.86 1.70 2.06 2.41 2.97 2.95 3.36 3.33 3.32 2.77 1.83 1.41 1.09
0.05 0.04 0.02 0.06 0.15 0.22 0.26 0.29 0.18 0.23 0.33 0.51 0.56 0.65 0.72 0.83 1.21 1.45 0.85 0.61 0.43 0.52 0.58 0.72 1.10 1.21 1.24 1.37 1.64 1.67 1.71 1.35 1.06 0.86 0.88 0.90 0.81 0.84 0.78 1.29 1.18 0.52 0.35
0.02 0.02 0.04 0.08 0.11 0.10 0.16 0.28 0.25 0.37 0.40 0.61 0.73 0.88 0.67 0.72 0.98 1.17 1.05 0.91 0.85 1.18 1.22 1.24 1.46 1.49 1.31 1.29 1.19 1.41 1.18 1.00 0.92 0.95 0.92 0.73 0.71 0.62 0.44 0.63 1.17 0.80 0.51
0.07 0.07 0.10 0.10 0.08 0.05 0.06 0.10 0.09 0.15 0.13 0.15 0.18 0.47 0.75 0.81 1.21 1.50 1.15 1.08 0.87 0.81 0.97 0.99 1.12 1.31 1.48 1.53 1.55 1.66 1.35 1.15 0.95 0.82 0.80 0.84 0.60 0.42 0.32 0.28 0.54 0.92 0.72
0.08 0.07 0.07 0.13 0.14 0.10 0.11 0.08 0.10 0.11 0.14 0.14 0.09 0.13 0.42 0.70 0.60 1.16 1.33 1.29 1.07 0.91 0.80 0.83 0.71 0.69 0.60 0.78 0.55 0.47 0.59 0.51 0.51 0.61 0.53 0.40 0.39 0.23 0.15 0.16 0.21 0.45 0.72
0.17 0.11 0.08 0.10 0.11 0.15 0.16 0.18 0.14 0.16 0.16 0.12 0.09 0.12 0.20 0.42 0.86 1.03 1.31 1.12 1.20 1.15 1.11 1.31 1.38 1.06 0.78 0.65 0.71 0.44 0.41 0.40 0.31 0.39 0.40 0.34 0.38 0.30 0.27 0.23 0.18 0.18 0.32

GFSSE_prec_precacc_165.txt.gz
Total_Precipitation_Accumulation
0.88 0.36 0.15 0.16 0.17 0.06 0.01 0.01 0.00 0.00 0.00 0.00 0.00 0.00 0.00 0.00 0.00 0.00 0.00 0.00 0.05 0.14 0.10 0.04 0.03 0.03 0.05 0.09 0.14 0.10 0.08 0.10 0.10 0.30 0.48 0.52 0.33 0.15 0.11 0.21 0.27 0.16 0.40
1.67 1.34 0.76 0.27 0.23 0.04 0.02 0.00 0.00 0.00 0.00 0.00 0.00 0.00 0.00 0.00 0.00 0.00 0.00 0.00 0.04 0.09 0.05 0.02 0.02 0.03 0.10 0.08 0.07 0.02 0.00 0.02 0.05 0.24 0.45 0.38 0.40 0.16 0.15 0.28 0.49 0.22 0.31
1.26 2.36 1.78 0.99 0.50 0.18 0.07 0.03 0.04 0.02 0.00 0.00 0.00 0.01 0.01 0.01 0.01 0.01 0.00 0.01 0.01 0.07 0.08 0.03 0.06 0.07 0.10 0.04 0.04 0.02 0.01 0.03 0.04 0.16 0.48 0.39 0.23 0.28 0.17 0.25 0.22 0.31 0.23
0.40 0.79 1.84 1.47 0.91 0.56 0.23 0.17 0.16 0.20 0.07 0.02 0.03 0.03 0.05 0.05 0.09 0.15 0.07 0.03 0.04 0.09 0.15 0.09 0.13 0.16 0.12 0.04 0.03 0.01 0.01 0.01 0.07 0.15 0.42 0.87 0.44 0.57 0.34 0.40 0.40 0.25 0.21
0.97 0.81 0.69 0.84 1.04 1.06 0.53 0.35 0.30 0.22 0.12 0.06 0.06 0.03 0.02 0.07 0.14 0.22 0.20 0.12 0.10 0.15 0.30 0.28 0.32 0.26 0.12 0.04 0.01 0.01 0.01 0.04 0.11 0.30 0.65 1.25 1.01 1.03 0.92 0.76 0.58 0.52 0.52
2.26 1.89 1.46 1.03 1.06 1.52 1.41 0.76 0.38 0.20 0.22 0.15 0.11 0.06 0.05 0.08 0.17 0.32 0.23 0.23 0.17 0.23 0.55 0.61 0.49 0.29 0.09 0.05 0.00 0.01 0.01 0.02 0.07 0.28 0.68 0.95 1.35 1.09 0.82 0.62 0.52 0.40 0.37
3.78 3.05 2.81 3.35 2.81 2.07 2.59 1.72 0.99 0.73 0.59 0.42 0.14 0.10 0.06 0.15 0.19 0.40 0.33 0.50 0.77 1.19 1.12 1.09 0.84 0.29 0.08 0.01 0.00 0.01 0.02 0.01 0.10 0.28 0.63 1.16 1.57 1.36 0.85 0.55 0.43 0.43 0.50
5.55 4.49 4.80 4.60 4.26 4.62 2.70 3.28 3.28 2.80 1.99 1.00 0.74 0.73 0.89 1.53 1.39 1.25 0.96 1.28 1.53 1.52 1.38 1.20 0.85 0.31 0.19 0.12 0.06 0.07 0.05 0.04 0.13 0.32 0.56 0.91 1.11 1.09 0.83 0.64 0.55 0.38 0.29
6.57 8.14 8.36 7.58 5.72 5.02 3.66 2.81 3.97 5.42 6.09 5.61 3.91 3.42 3.40 2.79 2.40 2.14 1.84 1.61 2.07 2.37 1.57 1.32 0.78 0.49 0.41 0.42 0.30 0.36 0.17 0.07 0.13 0.35 0.53 0.89 1.37 0.87 0.94 0.61 0.56 0.47 0.43
4.79 6.71 7.64 8.95 8.46 3.91 2.83 2.28 2.98 4.40 5.95 6.81 5.91 4.75 3.30 2.19 2.34 3.02 2.95 2.38 2.06 2.12 1.94 1.78 1.57 1.36 0.92 0.80 0.62 0.44 0.37 0.40 0.36 0.36 0.47 0.48 0.65 0.94 0.75 0.47 0.45 0.47 0.61
2.64 3.34 4.90 7.55 6.17 3.45 1.95 1.51 1.83 3.59 3.58 3.14 3.16 4.04 3.10 2.19 1.72 1.34 1.83 1.80 1.58 1.52 1.72 1.88 1.71 1.74 1.64 1.08 1.04 0.82 0.81 0.61 0.63 0.48 0.56 1.01 0.76 1.19 1.05 0.80 0.56 0.66 0.65
1.41 1.72 1.92 3.62 4.21 2.94 1.75 1.43 1.15 1.82 2.76 3.18 1.84 1.94 1.91 1.90 1.66 1.07 1.08 1.04 1.33 1.07 1.12 1.83 1.58 1.27 1.31 0.88 1.00 0.83 0.67 0.62 0.76 0.59 0.61 1.32 0.97 1.30 1.76 1.61 1.16 0.81 0.87
0.95 0.83 0.98 1.53 1.82 2.29 1.83 1.50 1.38 1.32 1.42 3.06 2.08 1.08 1.19 1.39 1.22 1.00 0.76 0.83 0.95 0.94 0.58 0.78 1.22 0.88 0.80 0.77 1.10 0.98 0.55 0.48 0.59 0.52 0.75 1.34 1.45 1.33 1.65 1.71 1.35 1.28 1.21
0.41 0.39 0.65 0.71 0.75 1.00 1.35 1.28 0.96 1.07 1.14 1.48 2.01 1.23 0.98 1.21 0.73 0.78 0.55 0.63 0.77 0.90 0.74 0.77 0.67 0.80 0.71 0.78 0.89 0.96 0.64 0.38 0.33 0.39 0.58 0.89 1.34 0.93 1.03 1.11 1.28 1.47 1.41
0.22 0.34 0.37 0.45 0.44 0.65 0.92 1.17 1.14 0.84 0.98 1.04 1.50 1.22 0.78 0.76 0.62 0.69 0.49 0.48 0.66 0.72 0.90 0.96 0.84 0.83 0.97 0.86 0.83 0.89 0.71 0.50 0.61 0.65 0.63 0.79 1.09 1.35 1.05 1.34 1.17 1.39 1.45
0.30 0.32 0.29 0.35 0.34 0.50 0.82 1.01 1.25 1.27 1.14 1.08 1.06 0.92 0.58 0.53 0.48 0.41 0.38 0.41 0.38 0.53 0.96 1.03 1.00 1.08 1.11 1.12 1.24 1.19 1.22 1.17 1.02 1.03 0.89 0.78 0.88 1.28 1.76 1.37 1.73 1.31 1.42
0.41 0.24 0.29 0.34 0.52 0.52 0.52 0.62 1.00 1.14 1.07 0.97 0.94 1.12 1.00 0.79 0.51 0.37 0.31 0.30 0.35 0.49 0.91 1.00 1.34 1.57 1.40 1.13 1.17 1.21 1.17 1.21 1.43 1.66 1.63 1.60 1.92 1.97 2.75 2.36 2.36 1.65 1.88
0.30 0.52 0.20 0.24 0.68 0.62 0.50 0.47 0.65 0.96 1.02 0.91 0.81 0.99 0.98 0.84 0.79 0.86 0.66 0.50 0.43 0.80 1.05 0.85 0.89 1.38 1.27 0.97 0.89 1.22 1.39 1.60 1.66 1.94 2.10 1.61 1.44 1.27 1.69 2.63 2.78 3.22 2.74
0.05 0.49 0.54 0.35 0.43 0.65 0.72 0.54 0.53 0.72 0.83 0.70 0.53 0.85 1.14 1.02 0.81 0.80 0.84 0.90 0.98 1.21 1.22 1.18 1.13 1.07 1.09 0.83 0.75 1.01 1.32 1.71 1.95 1.99 1.80 1.46 1.27 1.42 1.35 1.63 1.71 2.13 2.58
0.03 0.05 0.36 0.49 0.47 0.58 0.62 0.58 0.63 0.62 0.78 0.55 0.41 0.78 0.84 1.38 1.12 0.59 0.50 0.59 0.99 1.21 1.42 1.63 1.55 1.26 1.29 1.20 1.22 1.17 1.12 1.29 1.47 1.68 1.49 1.66 1.63 1.93 1.92 2.35 2.41 2.35 2.17
0.06 0.05 0.14 0.29 0.31 0.47 0.42 0.29 0.36 0.36 0.57 0.42 0.45 0.54 0.95 1.17 1.89 1.04 0.56 0.32 0.43 0.50 0.61 1.05 1.50 1.44 1.51 1.84 2.51 2.43 1.86 1.70 2.06 2.41 2.97 2.95 3.36 3.33 3.32 2.77 1.83 1.41 1.09
0.05 0.10 0.10 0.12 0.23 0.30 0.31 0.31 0.19 0.23 0.33 0.51 0.56 0.65 0.72 0.83 1.21 1.45 0.85 0.61 0.43 0.52 0.58 0.72 1.10 1.21 1.24 1.37 1.64 1.67 1.71 1.35 1.06 0.86 0.88 0.90 0.81 0.84 0.78 1.29 1.18 0.52 0.35
0.07 0.08 0.11 0.16 0.20 0.18 0.21 0.30 0.25 0.37 0.40 0.61 0.73 0.88 0.67 0.72 0.98 1.17 1.05 0.91 0.85 1.18 1.22 1.24 1.46 1.49 1.31 1.29 1.19 1.41 1.18 1.00 0.92 0.95 0.92 0.73 0.71 0.62 0.44 0.63 1.17 0.80 0.51
0.13 0.13 0.18 0.21 0.18 0.12 0.11 0.13 0.10 0.15 0.13 0.15 0.18 0.47 0.75 0.81 1.21 1.50 1.15 1.08 0.87 0.81 0.97 0.99 1.12 1.31 1.48 1.53 1.55 1.66 1.35 1.15 0.95 0.82 0.80 0.84 0.60 0.42 0.32 0.28 0.54 0.92 0.72
0.15 0.14 0.16 0.23 0.24 0.16 0.15 0.09 0.10 0.11 0.14 0.14 0.09 0.13 0.42 0.70 0.60 1.16 1.33 1.29 1.07 0.91 0.80 0.83 0.71 0.69 0.60 0.78 0.55 0.47 0.59 0.51 0.51 0.61 0.53 0.40 0.39 0.23 0.15 0.16 0.21 0.45 0.72
0.23 0.18 0.17 0.20 0.16 0.16 0.16 0.18 0.14 0.16 0.16 0.12 0.09 0.12 0.20 0.42 0.86 1.03 1.31 1.12 1.20 1.15 1.11 1.31 1.38 1.06 0.78 0.65 0.71 0.44 0.41 0.40 0.31 0.39 0.40 0.34 0.38 0.30 0.27 0.23 0.18 0.18 0.32